<?xml version='1.0' encoding='UTF-8'?><gpx version="1.1" creator="JPX - https://github.com/jenetics/jpx" xmlns="http://www.topografix.com/GPX/1/1"><trk><trkseg><trkpt lat="45.461526885351354" lon="7.907306509096615"><ele>238.0</ele><time>2026-04-10T14:57:02.491Z</time></trkpt><trkpt lat="45.46159420147829" lon="7.907279699823016"><ele>238.0</ele><time>2026-04-10T14:58:18.981Z</time></trkpt><trkpt lat="45.46155177211529" lon="7.907209667989565"><ele>238.0</ele><time>2026-04-10T14:58:20.981Z</time></trkpt><trkpt lat="45.461563109638504" lon="7.907093644957738"><ele>238.0</ele><time>2026-04-10T14:58:22.981Z</time></trkpt><trkpt lat="45.46152072386035" lon="7.9068811036880176"><ele>238.0</ele><time>2026-04-10T14:58:25.981Z</time></trkpt><trkpt lat="45.46146097540775" lon="7.906755670963778"><ele>238.2</ele><time>2026-04-10T14:58:28.981Z</time></trkpt><trkpt lat="45.4614143992348" lon="7.906602989831373"><ele>238.4</ele><time>2026-04-10T14:58:30.98Z</time></trkpt><trkpt lat="45.46138410163107" lon="7.90649457437483"><ele>238.59999999999997</ele><time>2026-04-10T14:58:34.98Z</time></trkpt><trkpt lat="45.46136321256506" lon="7.906310745641773"><ele>238.79999999999998</ele><time>2026-04-10T14:58:35.98Z</time></trkpt><trkpt lat="45.46144309947512" lon="7.906234104781337"><ele>239.0</ele><time>2026-04-10T14:58:37.981Z</time></trkpt><trkpt lat="45.461541127632394" lon="7.906159702486825"><ele>239.0</ele><time>2026-04-10T14:58:39.98Z</time></trkpt><trkpt lat="45.46163263592694" lon="7.906095379642117"><ele>238.99999999999997</ele><time>2026-04-10T14:58:41.98Z</time></trkpt><trkpt lat="45.46172497656161" lon="7.906039104816237"><ele>238.99999999999997</ele><time>2026-04-10T14:58:43.981Z</time></trkpt><trkpt lat="45.46181723971008" lon="7.9059558414002264"><ele>239.0</ele><time>2026-04-10T14:58:45.981Z</time></trkpt><trkpt lat="45.46187235917427" lon="7.905892406643527"><ele>239.0</ele><time>2026-04-10T14:58:46.981Z</time></trkpt><trkpt lat="45.461888755652375" lon="7.905748256404055"><ele>238.6</ele><time>2026-04-10T14:58:48.981Z</time></trkpt><trkpt lat="45.46181320297184" lon="7.9056356708540685"><ele>238.2</ele><time>2026-04-10T14:58:50.981Z</time></trkpt><trkpt lat="45.46174758796029" lon="7.905509418620668"><ele>237.79999999999998</ele><time>2026-04-10T14:58:52.981Z</time></trkpt><trkpt lat="45.46167683387346" lon="7.905397878875752"><ele>237.39999999999998</ele><time>2026-04-10T14:58:54.981Z</time></trkpt><trkpt lat="45.46161256502949" lon="7.905273196714294"><ele>237.0</ele><time>2026-04-10T14:58:56.981Z</time></trkpt><trkpt lat="45.461539352326426" lon="7.905145127896732"><ele>236.83333333333334</ele><time>2026-04-10T14:58:58.981Z</time></trkpt><trkpt lat="45.461502316570524" lon="7.905070994106578"><ele>236.66666666666669</ele><time>2026-04-10T14:58:59.981Z</time></trkpt><trkpt lat="45.46146453217012" lon="7.904990130269177"><ele>236.5</ele><time>2026-04-10T14:59:00.981Z</time></trkpt><trkpt lat="45.46141714213816" lon="7.904857263890795"><ele>236.33333333333334</ele><time>2026-04-10T14:59:02.981Z</time></trkpt><trkpt lat="45.4613418916997" lon="7.904754272701591"><ele>236.16666666666669</ele><time>2026-04-10T14:59:04.981Z</time></trkpt><trkpt lat="45.461314399433746" lon="7.904654907061992"><ele>236.0</ele><time>2026-04-10T14:59:06.981Z</time></trkpt><trkpt lat="45.461350944624385" lon="7.904563088109108"><ele>236.00000000000003</ele><time>2026-04-10T14:59:08.981Z</time></trkpt><trkpt lat="45.46140656966148" lon="7.904515943326696"><ele>236.0</ele><time>2026-04-10T14:59:09.981Z</time></trkpt><trkpt lat="45.46149510204434" lon="7.904448378392392"><ele>236.0</ele><time>2026-04-10T14:59:11.981Z</time></trkpt><trkpt lat="45.4615057553555" lon="7.9043423227986525"><ele>236.0</ele><time>2026-04-10T14:59:13.981Z</time></trkpt><trkpt lat="45.4614018709479" lon="7.904284420472853"><ele>236.00000000000003</ele><time>2026-04-10T14:59:15.981Z</time></trkpt><trkpt lat="45.46132640818344" lon="7.904239860375588"><ele>236.0</ele><time>2026-04-10T14:59:17.981Z</time></trkpt><trkpt lat="45.461375933276564" lon="7.904150909283939"><ele>236.0</ele><time>2026-04-10T14:59:19.981Z</time></trkpt><trkpt lat="45.46148141149667" lon="7.904083283086608"><ele>236.00000000000003</ele><time>2026-04-10T14:59:21.981Z</time></trkpt><trkpt lat="45.46154054307112" lon="7.904041692292659"><ele>236.00000000000003</ele><time>2026-04-10T14:59:22.981Z</time></trkpt><trkpt lat="45.461617663044336" lon="7.903954423658401"><ele>236.0</ele><time>2026-04-10T14:59:24.981Z</time></trkpt><trkpt lat="45.46171050137241" lon="7.903874281496518"><ele>236.0</ele><time>2026-04-10T14:59:26.981Z</time></trkpt><trkpt lat="45.461809345004454" lon="7.903787474553232"><ele>236.0</ele><time>2026-04-10T14:59:28.981Z</time></trkpt><trkpt lat="45.461903974340395" lon="7.903699187060389"><ele>236.00000000000003</ele><time>2026-04-10T14:59:30.981Z</time></trkpt><trkpt lat="45.46199408679173" lon="7.903632820680987"><ele>236.00000000000003</ele><time>2026-04-10T14:59:32.981Z</time></trkpt><trkpt lat="45.46209092244839" lon="7.9035472280930685"><ele>236.0</ele><time>2026-04-10T14:59:34.981Z</time></trkpt><trkpt lat="45.46215283713936" lon="7.903499133196328"><ele>236.0</ele><time>2026-04-10T14:59:35.981Z</time></trkpt><trkpt lat="45.462223503208875" lon="7.903454525413403"><ele>236.20000000000002</ele><time>2026-04-10T14:59:36.981Z</time></trkpt><trkpt lat="45.462301872515496" lon="7.9034119122357085"><ele>236.40000000000003</ele><time>2026-04-10T14:59:37.981Z</time></trkpt><trkpt lat="45.46239233192413" lon="7.9033616028892135"><ele>236.6</ele><time>2026-04-10T14:59:38.981Z</time></trkpt><trkpt lat="45.462469411052865" lon="7.903319453259525"><ele>236.8</ele><time>2026-04-10T14:59:39.981Z</time></trkpt><trkpt lat="45.46256071824367" lon="7.903280927389679"><ele>237.0</ele><time>2026-04-10T14:59:40.981Z</time></trkpt><trkpt lat="45.46265598779283" lon="7.903250127672678"><ele>237.0</ele><time>2026-04-10T14:59:41.981Z</time></trkpt><trkpt lat="45.46276313619055" lon="7.9032124195365725"><ele>237.0</ele><time>2026-04-10T14:59:42.981Z</time></trkpt><trkpt lat="45.463155053288574" lon="7.902972899134979"><ele>236.8</ele><time>2026-04-10T14:59:46.981Z</time></trkpt><trkpt lat="45.46324053157922" lon="7.902894086182297"><ele>236.6</ele><time>2026-04-10T14:59:47.981Z</time></trkpt><trkpt lat="45.463332180354705" lon="7.902821062832093"><ele>236.40000000000003</ele><time>2026-04-10T14:59:48.981Z</time></trkpt><trkpt lat="45.46341785767208" lon="7.902754107778097"><ele>236.20000000000002</ele><time>2026-04-10T14:59:49.981Z</time></trkpt><trkpt lat="45.463509236203485" lon="7.90267891658319"><ele>236.0</ele><time>2026-04-10T14:59:50.981Z</time></trkpt><trkpt lat="45.463594331971706" lon="7.90259694943676"><ele>236.00000000000003</ele><time>2026-04-10T14:59:51.981Z</time></trkpt><trkpt lat="45.46367459018244" lon="7.902511745607361"><ele>236.0</ele><time>2026-04-10T14:59:52.981Z</time></trkpt><trkpt lat="45.46374596213463" lon="7.902428733122043"><ele>236.0</ele><time>2026-04-10T14:59:53.981Z</time></trkpt><trkpt lat="45.46379940274576" lon="7.902354063075836"><ele>236.0</ele><time>2026-04-10T14:59:54.981Z</time></trkpt><trkpt lat="45.46383477666887" lon="7.902269887122103"><ele>236.00000000000003</ele><time>2026-04-10T14:59:55.981Z</time></trkpt><trkpt lat="45.463842327588445" lon="7.90217505013181"><ele>236.0</ele><time>2026-04-10T14:59:56.981Z</time></trkpt><trkpt lat="45.46380935759003" lon="7.902076493764988"><ele>236.0</ele><time>2026-04-10T14:59:57.981Z</time></trkpt><trkpt lat="45.46375653840526" lon="7.901972607270093"><ele>236.00000000000003</ele><time>2026-04-10T14:59:58.981Z</time></trkpt><trkpt lat="45.463699229630365" lon="7.901855667549077"><ele>236.00000000000003</ele><time>2026-04-10T14:59:59.981Z</time></trkpt><trkpt lat="45.46364499179299" lon="7.901719019979766"><ele>236.0</ele><time>2026-04-10T15:00:00.981Z</time></trkpt><trkpt lat="45.46361360646986" lon="7.90157019819485"><ele>236.0</ele><time>2026-04-10T15:00:01.981Z</time></trkpt><trkpt lat="45.46360934519564" lon="7.9014094661577206"><ele>235.60000000000002</ele><time>2026-04-10T15:00:02.981Z</time></trkpt><trkpt lat="45.463600360221726" lon="7.901255164332385"><ele>235.20000000000002</ele><time>2026-04-10T15:00:03.981Z</time></trkpt><trkpt lat="45.463572064517116" lon="7.901125873545119"><ele>234.79999999999998</ele><time>2026-04-10T15:00:04.981Z</time></trkpt><trkpt lat="45.46350374984484" lon="7.901014039614844"><ele>234.39999999999998</ele><time>2026-04-10T15:00:05.981Z</time></trkpt><trkpt lat="45.46344277472653" lon="7.900888789528848"><ele>234.0</ele><time>2026-04-10T15:00:06.981Z</time></trkpt><trkpt lat="45.463370583219756" lon="7.900753866381889"><ele>233.6</ele><time>2026-04-10T15:00:07.981Z</time></trkpt><trkpt lat="45.46329881808535" lon="7.900620689986294"><ele>233.2</ele><time>2026-04-10T15:00:08.981Z</time></trkpt><trkpt lat="45.46322863656298" lon="7.90049576627798"><ele>232.79999999999998</ele><time>2026-04-10T15:00:09.981Z</time></trkpt><trkpt lat="45.46315994270896" lon="7.900378715663028"><ele>232.39999999999998</ele><time>2026-04-10T15:00:10.981Z</time></trkpt><trkpt lat="45.46311374143393" lon="7.90029198863917"><ele>232.0</ele><time>2026-04-10T15:00:11.981Z</time></trkpt><trkpt lat="45.463112374530816" lon="7.900147398130819"><ele>232.0</ele><time>2026-04-10T15:00:13.981Z</time></trkpt><trkpt lat="45.46317028254853" lon="7.90010893203682"><ele>232.0</ele><time>2026-04-10T15:00:14.981Z</time></trkpt><trkpt lat="45.4632375525743" lon="7.900082822793709"><ele>232.0</ele><time>2026-04-10T15:00:15.981Z</time></trkpt><trkpt lat="45.4633167557607" lon="7.900027136677849"><ele>232.0</ele><time>2026-04-10T15:00:16.981Z</time></trkpt><trkpt lat="45.46340487315729" lon="7.899938450373281"><ele>232.0</ele><time>2026-04-10T15:00:17.981Z</time></trkpt><trkpt lat="45.463504295988905" lon="7.899842150687396"><ele>231.99999999999997</ele><time>2026-04-10T15:00:18.981Z</time></trkpt><trkpt lat="45.463588455941455" lon="7.899756588130593"><ele>232.0</ele><time>2026-04-10T15:00:19.981Z</time></trkpt><trkpt lat="45.463666028028115" lon="7.899698032731077"><ele>232.0</ele><time>2026-04-10T15:00:20.981Z</time></trkpt><trkpt lat="45.46371476707133" lon="7.8996386451696585"><ele>232.0</ele><time>2026-04-10T15:00:21.981Z</time></trkpt><trkpt lat="45.463689235763" lon="7.899478729498881"><ele>231.99999999999997</ele><time>2026-04-10T15:00:23.981Z</time></trkpt><trkpt lat="45.46363817724844" lon="7.899400566039529"><ele>232.0</ele><time>2026-04-10T15:00:24.981Z</time></trkpt><trkpt lat="45.46357130412635" lon="7.899288182746946"><ele>232.0</ele><time>2026-04-10T15:00:25.981Z</time></trkpt><trkpt lat="45.463522033549445" lon="7.89916738051812"><ele>232.0</ele><time>2026-04-10T15:00:26.981Z</time></trkpt><trkpt lat="45.46347550705785" lon="7.899037773391339"><ele>232.0</ele><time>2026-04-10T15:00:27.981Z</time></trkpt><trkpt lat="45.463423631434694" lon="7.8989187000284184"><ele>232.0</ele><time>2026-04-10T15:00:28.981Z</time></trkpt><trkpt lat="45.46337822440848" lon="7.898800382483074"><ele>232.0</ele><time>2026-04-10T15:00:29.981Z</time></trkpt><trkpt lat="45.46333677603167" lon="7.898688138863755"><ele>231.99999999999997</ele><time>2026-04-10T15:00:30.981Z</time></trkpt><trkpt lat="45.463301711690654" lon="7.898581693873347"><ele>232.0</ele><time>2026-04-10T15:00:31.981Z</time></trkpt><trkpt lat="45.4632569212221" lon="7.898474146750791"><ele>232.0</ele><time>2026-04-10T15:00:32.981Z</time></trkpt><trkpt lat="45.46321274041796" lon="7.89838128827379"><ele>232.0</ele><time>2026-04-10T15:00:33.981Z</time></trkpt><trkpt lat="45.46317156860264" lon="7.898301683228972"><ele>231.99999999999997</ele><time>2026-04-10T15:00:34.981Z</time></trkpt><trkpt lat="45.463173050095165" lon="7.898160478694912"><ele>232.0</ele><time>2026-04-10T15:00:36.979Z</time></trkpt><trkpt lat="45.46322704426355" lon="7.898108085612386"><ele>232.2</ele><time>2026-04-10T15:00:37.98Z</time></trkpt><trkpt lat="45.4632962267777" lon="7.8980517159243595"><ele>232.39999999999998</ele><time>2026-04-10T15:00:38.98Z</time></trkpt><trkpt lat="45.46338275914205" lon="7.897977024046913"><ele>232.60000000000002</ele><time>2026-04-10T15:00:39.979Z</time></trkpt><trkpt lat="45.463488171986725" lon="7.897898005586475"><ele>232.8</ele><time>2026-04-10T15:00:40.979Z</time></trkpt><trkpt lat="45.46359494105671" lon="7.8978133307221965"><ele>233.0</ele><time>2026-04-10T15:00:41.979Z</time></trkpt><trkpt lat="45.4637178363968" lon="7.89771986936992"><ele>233.25</ele><time>2026-04-10T15:00:42.98Z</time></trkpt><trkpt lat="45.463839747456255" lon="7.8976276232704405"><ele>233.5</ele><time>2026-04-10T15:00:43.979Z</time></trkpt><trkpt lat="45.463960652599084" lon="7.897537093706396"><ele>233.75</ele><time>2026-04-10T15:00:44.979Z</time></trkpt><trkpt lat="45.464086503599184" lon="7.897442585956178"><ele>234.0</ele><time>2026-04-10T15:00:45.98Z</time></trkpt><trkpt lat="45.464200931006" lon="7.897348937249869"><ele>233.6</ele><time>2026-04-10T15:00:46.979Z</time></trkpt><trkpt lat="45.46430660214361" lon="7.897270646886548"><ele>233.2</ele><time>2026-04-10T15:00:47.979Z</time></trkpt><trkpt lat="45.464405826558576" lon="7.897197765733898"><ele>232.79999999999998</ele><time>2026-04-10T15:00:48.979Z</time></trkpt><trkpt lat="45.464495752436655" lon="7.897138474378848"><ele>232.39999999999998</ele><time>2026-04-10T15:00:49.98Z</time></trkpt><trkpt lat="45.46456759179517" lon="7.8970896898136145"><ele>232.0</ele><time>2026-04-10T15:00:50.98Z</time></trkpt><trkpt lat="45.46464611578478" lon="7.897023290070048"><ele>232.0</ele><time>2026-04-10T15:00:51.98Z</time></trkpt><trkpt lat="45.46473393075564" lon="7.896948881458982"><ele>232.0</ele><time>2026-04-10T15:00:52.98Z</time></trkpt><trkpt lat="45.46483132037183" lon="7.896866617583125"><ele>232.0</ele><time>2026-04-10T15:00:53.98Z</time></trkpt><trkpt lat="45.46493208220422" lon="7.896779568915"><ele>232.0</ele><time>2026-04-10T15:00:54.98Z</time></trkpt><trkpt lat="45.4650482445908" lon="7.896683486030558"><ele>232.25</ele><time>2026-04-10T15:00:55.98Z</time></trkpt><trkpt lat="45.46515510003355" lon="7.896577591667589"><ele>232.5</ele><time>2026-04-10T15:00:56.98Z</time></trkpt><trkpt lat="45.46527325325649" lon="7.8964790242772205"><ele>232.75</ele><time>2026-04-10T15:00:57.98Z</time></trkpt><trkpt lat="45.465404474109015" lon="7.896386943677812"><ele>233.0</ele><time>2026-04-10T15:00:58.98Z</time></trkpt><trkpt lat="45.46552308311183" lon="7.896300186591727"><ele>233.25</ele><time>2026-04-10T15:00:59.98Z</time></trkpt><trkpt lat="45.465608410538074" lon="7.89616663141737"><ele>233.5</ele><time>2026-04-10T15:01:00.98Z</time></trkpt><trkpt lat="45.46565995287562" lon="7.896016011054666"><ele>233.75</ele><time>2026-04-10T15:01:01.98Z</time></trkpt><trkpt lat="45.46569727897246" lon="7.895834541945869"><ele>234.0</ele><time>2026-04-10T15:01:02.98Z</time></trkpt><trkpt lat="45.4657347311309" lon="7.8956520898561"><ele>234.0</ele><time>2026-04-10T15:01:03.98Z</time></trkpt><trkpt lat="45.46580001316168" lon="7.895461167462481"><ele>234.0</ele><time>2026-04-10T15:01:04.98Z</time></trkpt><trkpt lat="45.465888342408775" lon="7.895277359939454"><ele>234.0</ele><time>2026-04-10T15:01:05.98Z</time></trkpt><trkpt lat="45.46598626328223" lon="7.8951210633523115"><ele>233.75</ele><time>2026-04-10T15:01:06.98Z</time></trkpt><trkpt lat="45.46608097423064" lon="7.894954457963487"><ele>233.5</ele><time>2026-04-10T15:01:07.98Z</time></trkpt><trkpt lat="45.46615295993163" lon="7.894815315956421"><ele>233.25</ele><time>2026-04-10T15:01:08.98Z</time></trkpt><trkpt lat="45.4662395301048" lon="7.894697368975961"><ele>233.0</ele><time>2026-04-10T15:01:09.98Z</time></trkpt><trkpt lat="45.46634373315563" lon="7.89459345492351"><ele>233.0</ele><time>2026-04-10T15:01:10.98Z</time></trkpt><trkpt lat="45.466481795070926" lon="7.894577709551354"><ele>233.0</ele><time>2026-04-10T15:01:11.98Z</time></trkpt><trkpt lat="45.466623246030245" lon="7.89452609511685"><ele>233.0</ele><time>2026-04-10T15:01:12.98Z</time></trkpt><trkpt lat="45.46677730233647" lon="7.894500271397358"><ele>233.0</ele><time>2026-04-10T15:01:13.98Z</time></trkpt><trkpt lat="45.466933160125144" lon="7.894446145724504"><ele>233.0</ele><time>2026-04-10T15:01:14.98Z</time></trkpt><trkpt lat="45.46709230847895" lon="7.8943839862542164"><ele>233.0</ele><time>2026-04-10T15:01:15.98Z</time></trkpt><trkpt lat="45.467235156192125" lon="7.894330174561573"><ele>233.0</ele><time>2026-04-10T15:01:16.98Z</time></trkpt><trkpt lat="45.46736840831184" lon="7.894279525852488"><ele>233.25</ele><time>2026-04-10T15:01:17.98Z</time></trkpt><trkpt lat="45.467492713235586" lon="7.894235677106979"><ele>233.5</ele><time>2026-04-10T15:01:18.98Z</time></trkpt><trkpt lat="45.46761193079526" lon="7.894171588086633"><ele>233.75</ele><time>2026-04-10T15:01:19.98Z</time></trkpt><trkpt lat="45.46771987729869" lon="7.894141553181563"><ele>234.0</ele><time>2026-04-10T15:01:20.98Z</time></trkpt><trkpt lat="45.46781328515235" lon="7.894107184107338"><ele>234.0</ele><time>2026-04-10T15:01:21.98Z</time></trkpt><trkpt lat="45.46788471438081" lon="7.8940763916420185"><ele>234.0</ele><time>2026-04-10T15:01:22.98Z</time></trkpt><trkpt lat="45.46795729310053" lon="7.8940484459540885"><ele>234.0</ele><time>2026-04-10T15:01:23.98Z</time></trkpt><trkpt lat="45.46803587518999" lon="7.89403568169769"><ele>234.0</ele><time>2026-04-10T15:01:24.98Z</time></trkpt><trkpt lat="45.468128304012815" lon="7.894041287048242"><ele>234.0</ele><time>2026-04-10T15:01:25.98Z</time></trkpt><trkpt lat="45.468200544167786" lon="7.894000524000761"><ele>234.0</ele><time>2026-04-10T15:01:26.98Z</time></trkpt><trkpt lat="45.46826824953037" lon="7.893995179553117"><ele>234.39999999999998</ele><time>2026-04-10T15:01:27.98Z</time></trkpt><trkpt lat="45.46835657494306" lon="7.893958767897341"><ele>234.79999999999998</ele><time>2026-04-10T15:01:29.98Z</time></trkpt><trkpt lat="45.46843471330642" lon="7.893701887501481"><ele>235.20000000000002</ele><time>2026-04-10T15:01:46.98Z</time></trkpt><trkpt lat="45.4684815962177" lon="7.893615170261042"><ele>235.60000000000002</ele><time>2026-04-10T15:01:47.98Z</time></trkpt><trkpt lat="45.46854017611088" lon="7.893552889764784"><ele>236.0</ele><time>2026-04-10T15:01:48.98Z</time></trkpt><trkpt lat="45.46862814538033" lon="7.893509584512144"><ele>236.0</ele><time>2026-04-10T15:01:49.98Z</time></trkpt><trkpt lat="45.46871050404411" lon="7.893485921617871"><ele>236.00000000000003</ele><time>2026-04-10T15:01:50.98Z</time></trkpt><trkpt lat="45.46877718179601" lon="7.893462441424038"><ele>236.00000000000003</ele><time>2026-04-10T15:01:51.98Z</time></trkpt><trkpt lat="45.46889511179625" lon="7.8934238371852175"><ele>236.0</ele><time>2026-04-10T15:01:53.98Z</time></trkpt><trkpt lat="45.46899992226037" lon="7.893398224108659"><ele>236.0</ele><time>2026-04-10T15:01:55.98Z</time></trkpt><trkpt lat="45.46911091423797" lon="7.893372309625218"><ele>236.8</ele><time>2026-04-10T15:01:57.98Z</time></trkpt><trkpt lat="45.469192540492394" lon="7.893350492170832"><ele>237.60000000000002</ele><time>2026-04-10T15:01:58.98Z</time></trkpt><trkpt lat="45.46930190927155" lon="7.893346867147472"><ele>238.4</ele><time>2026-04-10T15:01:59.98Z</time></trkpt><trkpt lat="45.469408703092284" lon="7.893308620423007"><ele>239.2</ele><time>2026-04-10T15:02:00.98Z</time></trkpt><trkpt lat="45.46950234459465" lon="7.893234759197209"><ele>240.0</ele><time>2026-04-10T15:02:01.98Z</time></trkpt><trkpt lat="45.46960068538" lon="7.893161778843445"><ele>239.6</ele><time>2026-04-10T15:02:02.98Z</time></trkpt><trkpt lat="45.46969587911361" lon="7.89308095659737"><ele>239.2</ele><time>2026-04-10T15:02:03.98Z</time></trkpt><trkpt lat="45.46979649578303" lon="7.893034333434361"><ele>238.8</ele><time>2026-04-10T15:02:04.98Z</time></trkpt><trkpt lat="45.469895853239585" lon="7.892979703708262"><ele>238.4</ele><time>2026-04-10T15:02:05.98Z</time></trkpt><trkpt lat="45.46999084470605" lon="7.892955673357628"><ele>238.0</ele><time>2026-04-10T15:02:06.98Z</time></trkpt><trkpt lat="45.470078641905964" lon="7.89294262153021"><ele>238.0</ele><time>2026-04-10T15:02:07.98Z</time></trkpt><trkpt lat="45.470174354773" lon="7.892910435505698"><ele>238.0</ele><time>2026-04-10T15:02:08.98Z</time></trkpt><trkpt lat="45.47028533159687" lon="7.892930948371469"><ele>238.0</ele><time>2026-04-10T15:02:09.98Z</time></trkpt><trkpt lat="45.47037389121108" lon="7.892924554150913"><ele>238.0</ele><time>2026-04-10T15:02:10.98Z</time></trkpt><trkpt lat="45.47045713236317" lon="7.892927284520875"><ele>238.0</ele><time>2026-04-10T15:02:11.98Z</time></trkpt><trkpt lat="45.47055009244839" lon="7.892923945053508"><ele>238.60000000000002</ele><time>2026-04-10T15:02:12.98Z</time></trkpt><trkpt lat="45.47064973838844" lon="7.892926333944412"><ele>239.20000000000002</ele><time>2026-04-10T15:02:13.98Z</time></trkpt><trkpt lat="45.47076172554767" lon="7.892930875992973"><ele>239.8</ele><time>2026-04-10T15:02:14.98Z</time></trkpt><trkpt lat="45.47087008520484" lon="7.8929214013380955"><ele>240.4</ele><time>2026-04-10T15:02:15.98Z</time></trkpt><trkpt lat="45.47097311516532" lon="7.892899008226562"><ele>241.0</ele><time>2026-04-10T15:02:16.98Z</time></trkpt><trkpt lat="45.471048992178744" lon="7.8928769560687115"><ele>240.99999999999997</ele><time>2026-04-10T15:02:17.98Z</time></trkpt><trkpt lat="45.471117881705865" lon="7.892860761153064"><ele>241.0</ele><time>2026-04-10T15:02:18.98Z</time></trkpt><trkpt lat="45.47124625942063" lon="7.89285558537986"><ele>241.0</ele><time>2026-04-10T15:02:20.98Z</time></trkpt><trkpt lat="45.47131087629955" lon="7.89288107362749"><ele>241.0</ele><time>2026-04-10T15:02:22.98Z</time></trkpt><trkpt lat="45.47139484686475" lon="7.892928733822866"><ele>240.99999999999997</ele><time>2026-04-10T15:02:24.98Z</time></trkpt><trkpt lat="45.47147522569962" lon="7.892978892190038"><ele>241.0</ele><time>2026-04-10T15:02:25.98Z</time></trkpt><trkpt lat="45.47154267504554" lon="7.893040459057078"><ele>241.4</ele><time>2026-04-10T15:02:26.98Z</time></trkpt><trkpt lat="45.47162307872245" lon="7.893122842684908"><ele>241.8</ele><time>2026-04-10T15:02:27.98Z</time></trkpt><trkpt lat="45.47170945578244" lon="7.893211888715664"><ele>242.20000000000002</ele><time>2026-04-10T15:02:28.98Z</time></trkpt><trkpt lat="45.47180802721278" lon="7.893293573039808"><ele>242.60000000000002</ele><time>2026-04-10T15:02:29.98Z</time></trkpt><trkpt lat="45.47191146759047" lon="7.893374065498597"><ele>243.0</ele><time>2026-04-10T15:02:30.98Z</time></trkpt><trkpt lat="45.47201759823853" lon="7.893472985459477"><ele>243.25</ele><time>2026-04-10T15:02:31.98Z</time></trkpt><trkpt lat="45.47211971505093" lon="7.893560201956572"><ele>243.5</ele><time>2026-04-10T15:02:32.98Z</time></trkpt><trkpt lat="45.47222326544922" lon="7.893647636674015"><ele>243.75</ele><time>2026-04-10T15:02:33.98Z</time></trkpt><trkpt lat="45.4723220335052" lon="7.893755144607544"><ele>244.0</ele><time>2026-04-10T15:02:34.98Z</time></trkpt><trkpt lat="45.472424345921006" lon="7.893879356130742"><ele>244.0</ele><time>2026-04-10T15:02:35.98Z</time></trkpt><trkpt lat="45.47253376221722" lon="7.894002509726987"><ele>244.0</ele><time>2026-04-10T15:02:36.98Z</time></trkpt><trkpt lat="45.47263505259031" lon="7.894130291475697"><ele>244.0</ele><time>2026-04-10T15:02:37.98Z</time></trkpt><trkpt lat="45.47272182114569" lon="7.894274595591271"><ele>244.0</ele><time>2026-04-10T15:02:38.98Z</time></trkpt><trkpt lat="45.472815458821856" lon="7.894413719818741"><ele>244.25</ele><time>2026-04-10T15:02:39.98Z</time></trkpt><trkpt lat="45.47290806151849" lon="7.89454548634492"><ele>244.5</ele><time>2026-04-10T15:02:40.98Z</time></trkpt><trkpt lat="45.47300629330345" lon="7.894674462559025"><ele>244.75</ele><time>2026-04-10T15:02:41.98Z</time></trkpt><trkpt lat="45.47312100480572" lon="7.894771050714949"><ele>245.0</ele><time>2026-04-10T15:02:42.978Z</time></trkpt><trkpt lat="45.47323920743064" lon="7.894861996461283"><ele>244.25</ele><time>2026-04-10T15:02:43.978Z</time></trkpt><trkpt lat="45.4733670455579" lon="7.89495212890034"><ele>243.5</ele><time>2026-04-10T15:02:44.978Z</time></trkpt><trkpt lat="45.473486255267424" lon="7.8950390581288366"><ele>242.75</ele><time>2026-04-10T15:02:45.978Z</time></trkpt><trkpt lat="45.47360845197488" lon="7.895125485396849"><ele>242.0</ele><time>2026-04-10T15:02:46.978Z</time></trkpt><trkpt lat="45.47373345414695" lon="7.8952079702656"><ele>242.0</ele><time>2026-04-10T15:02:47.978Z</time></trkpt><trkpt lat="45.47385299646173" lon="7.895287698816833"><ele>242.0</ele><time>2026-04-10T15:02:48.978Z</time></trkpt><trkpt lat="45.47397249341985" lon="7.895365744664361"><ele>242.0</ele><time>2026-04-10T15:02:49.978Z</time></trkpt><trkpt lat="45.47409421842818" lon="7.895449867766917"><ele>242.0</ele><time>2026-04-10T15:02:50.978Z</time></trkpt><trkpt lat="45.474220016785225" lon="7.89553290802155"><ele>242.0</ele><time>2026-04-10T15:02:51.978Z</time></trkpt><trkpt lat="45.474334756587204" lon="7.895609905326447"><ele>242.0</ele><time>2026-04-10T15:02:52.977Z</time></trkpt><trkpt lat="45.47442998856971" lon="7.895687814510327"><ele>242.0</ele><time>2026-04-10T15:02:53.977Z</time></trkpt><trkpt lat="45.474510350491244" lon="7.895757917950753"><ele>242.0</ele><time>2026-04-10T15:02:54.978Z</time></trkpt><trkpt lat="45.474584027510986" lon="7.895842233933472"><ele>242.0</ele><time>2026-04-10T15:02:55.978Z</time></trkpt><trkpt lat="45.47462664166078" lon="7.895934893743911"><ele>242.25</ele><time>2026-04-10T15:02:56.978Z</time></trkpt><trkpt lat="45.47471143254061" lon="7.8960481739364115"><ele>242.5</ele><time>2026-04-10T15:02:58.978Z</time></trkpt><trkpt lat="45.474842583186096" lon="7.895980908905207"><ele>242.75</ele><time>2026-04-10T15:02:59.978Z</time></trkpt><trkpt lat="45.47495909572892" lon="7.896047632076449"><ele>243.0</ele><time>2026-04-10T15:03:00.978Z</time></trkpt><trkpt lat="45.47506894173103" lon="7.89612576039521"><ele>243.0</ele><time>2026-04-10T15:03:01.978Z</time></trkpt><trkpt lat="45.475190448568185" lon="7.89620903280052"><ele>243.0</ele><time>2026-04-10T15:03:02.978Z</time></trkpt><trkpt lat="45.4753281744279" lon="7.8962682112130995"><ele>243.0</ele><time>2026-04-10T15:03:03.978Z</time></trkpt><trkpt lat="45.475492108435276" lon="7.896310054863166"><ele>243.0</ele><time>2026-04-10T15:03:04.978Z</time></trkpt><trkpt lat="45.47565833694617" lon="7.89634256147819"><ele>241.66666666666669</ele><time>2026-04-10T15:03:05.978Z</time></trkpt><trkpt lat="45.47581459840151" lon="7.896381487385151"><ele>240.33333333333334</ele><time>2026-04-10T15:03:06.978Z</time></trkpt><trkpt lat="45.47597151064712" lon="7.896422880310928"><ele>239.0</ele><time>2026-04-10T15:03:07.978Z</time></trkpt><trkpt lat="45.47612971803021" lon="7.896463757710732"><ele>239.33333333333334</ele><time>2026-04-10T15:03:08.978Z</time></trkpt><trkpt lat="45.4763042264948" lon="7.89649781870508"><ele>239.66666666666669</ele><time>2026-04-10T15:03:09.978Z</time></trkpt><trkpt lat="45.476477656007624" lon="7.89652532599207"><ele>240.0</ele><time>2026-04-10T15:03:10.978Z</time></trkpt><trkpt lat="45.47664234838147" lon="7.896548440987914"><ele>240.0</ele><time>2026-04-10T15:03:11.978Z</time></trkpt><trkpt lat="45.47680423487968" lon="7.896566249158779"><ele>240.0</ele><time>2026-04-10T15:03:12.978Z</time></trkpt><trkpt lat="45.47696403763119" lon="7.896581271554417"><ele>240.0</ele><time>2026-04-10T15:03:13.978Z</time></trkpt><trkpt lat="45.47712137501908" lon="7.896592031382309"><ele>240.5</ele><time>2026-04-10T15:03:14.978Z</time></trkpt><trkpt lat="45.47726539785941" lon="7.896609163626587"><ele>241.0</ele><time>2026-04-10T15:03:15.978Z</time></trkpt><trkpt lat="45.47739617028732" lon="7.896659440079326"><ele>241.5</ele><time>2026-04-10T15:03:16.978Z</time></trkpt><trkpt lat="45.47751342681206" lon="7.89676643380921"><ele>242.0</ele><time>2026-04-10T15:03:17.978Z</time></trkpt><trkpt lat="45.477647152394006" lon="7.896824215459368"><ele>242.2</ele><time>2026-04-10T15:03:18.978Z</time></trkpt><trkpt lat="45.47777073337831" lon="7.896871593561064"><ele>242.39999999999998</ele><time>2026-04-10T15:03:19.978Z</time></trkpt><trkpt lat="45.47788703790611" lon="7.896876261506582"><ele>242.60000000000002</ele><time>2026-04-10T15:03:20.978Z</time></trkpt><trkpt lat="45.47798486809125" lon="7.896860022412336"><ele>242.8</ele><time>2026-04-10T15:03:21.978Z</time></trkpt><trkpt lat="45.47805853020614" lon="7.896837245472831"><ele>243.0</ele><time>2026-04-10T15:03:22.978Z</time></trkpt><trkpt lat="45.478149551290585" lon="7.8968055195614335"><ele>243.0</ele><time>2026-04-10T15:03:24.978Z</time></trkpt><trkpt lat="45.478189064447655" lon="7.89703702700924"><ele>243.0</ele><time>2026-04-10T15:03:26.978Z</time></trkpt><trkpt lat="45.4782162289062" lon="7.897180985535634"><ele>243.0</ele><time>2026-04-10T15:03:27.978Z</time></trkpt><trkpt lat="45.47826936160006" lon="7.897346818195302"><ele>243.0</ele><time>2026-04-10T15:03:28.978Z</time></trkpt><trkpt lat="45.478343423552424" lon="7.8975012605042165"><ele>243.60000000000002</ele><time>2026-04-10T15:03:29.978Z</time></trkpt><trkpt lat="45.478455610821676" lon="7.897586758416856"><ele>244.20000000000002</ele><time>2026-04-10T15:03:30.978Z</time></trkpt><trkpt lat="45.478557230857135" lon="7.897688218851238"><ele>244.8</ele><time>2026-04-10T15:03:31.978Z</time></trkpt><trkpt lat="45.47864398269875" lon="7.897771230338119"><ele>245.4</ele><time>2026-04-10T15:03:32.978Z</time></trkpt><trkpt lat="45.478699088659745" lon="7.897859240760737"><ele>246.0</ele><time>2026-04-10T15:03:33.978Z</time></trkpt><trkpt lat="45.47868501940271" lon="7.897996195981773"><ele>246.0</ele><time>2026-04-10T15:03:34.978Z</time></trkpt><trkpt lat="45.47868151126273" lon="7.89811714349711"><ele>246.00000000000003</ele><time>2026-04-10T15:03:36.978Z</time></trkpt><trkpt lat="45.478809628852595" lon="7.898056660821852"><ele>246.00000000000003</ele><time>2026-04-10T15:03:37.978Z</time></trkpt><trkpt lat="45.478907493961756" lon="7.898057892617931"><ele>246.0</ele><time>2026-04-10T15:03:39.978Z</time></trkpt><trkpt lat="45.47901580954262" lon="7.8980674560946795"><ele>246.0</ele><time>2026-04-10T15:03:41.978Z</time></trkpt><trkpt lat="45.479112745778735" lon="7.898108853683657"><ele>245.16666666666666</ele><time>2026-04-10T15:03:43.978Z</time></trkpt><trkpt lat="45.47922830350781" lon="7.898187346446455"><ele>244.33333333333331</ele><time>2026-04-10T15:03:45.978Z</time></trkpt><trkpt lat="45.4792742523707" lon="7.898268884365655"><ele>243.5</ele><time>2026-04-10T15:03:46.978Z</time></trkpt><trkpt lat="45.47930708709263" lon="7.898358268489786"><ele>242.66666666666666</ele><time>2026-04-10T15:03:47.978Z</time></trkpt><trkpt lat="45.47937962723996" lon="7.89838803602055"><ele>241.83333333333331</ele><time>2026-04-10T15:03:48.978Z</time></trkpt><trkpt lat="45.47943624516886" lon="7.898445140333017"><ele>241.0</ele><time>2026-04-10T15:03:49.978Z</time></trkpt><trkpt lat="45.47949132242432" lon="7.898508439755186"><ele>240.99999999999997</ele><time>2026-04-10T15:03:50.978Z</time></trkpt><trkpt lat="45.47953791403957" lon="7.8985969524562405"><ele>241.0</ele><time>2026-04-10T15:03:51.978Z</time></trkpt><trkpt lat="45.47960993006211" lon="7.8986647108545"><ele>241.0</ele><time>2026-04-10T15:03:52.978Z</time></trkpt><trkpt lat="45.47965593705755" lon="7.898761262093408"><ele>241.0</ele><time>2026-04-10T15:03:53.978Z</time></trkpt><trkpt lat="45.4797096988136" lon="7.898840447590188"><ele>240.99999999999997</ele><time>2026-04-10T15:03:54.978Z</time></trkpt><trkpt lat="45.47977440588786" lon="7.898903478626979"><ele>241.0</ele><time>2026-04-10T15:03:55.978Z</time></trkpt><trkpt lat="45.4798328108977" lon="7.898993966169872"><ele>241.49999999999997</ele><time>2026-04-10T15:03:56.978Z</time></trkpt><trkpt lat="45.479901566526095" lon="7.899076688902644"><ele>242.0</ele><time>2026-04-10T15:03:57.978Z</time></trkpt><trkpt lat="45.47996444871852" lon="7.899159937700852"><ele>242.5</ele><time>2026-04-10T15:03:58.978Z</time></trkpt><trkpt lat="45.480025086129615" lon="7.8992237784929955"><ele>243.0</ele><time>2026-04-10T15:03:59.978Z</time></trkpt><trkpt lat="45.480086710024075" lon="7.8992752038547644"><ele>243.49999999999997</ele><time>2026-04-10T15:04:00.978Z</time></trkpt><trkpt lat="45.48014721825802" lon="7.899304293605411"><ele>244.0</ele><time>2026-04-10T15:04:01.978Z</time></trkpt><trkpt lat="45.4801831491232" lon="7.8993835552510285"><ele>244.79999999999998</ele><time>2026-04-10T15:04:02.978Z</time></trkpt><trkpt lat="45.4802472494746" lon="7.899441315265911"><ele>245.59999999999997</ele><time>2026-04-10T15:04:03.978Z</time></trkpt><trkpt lat="45.48029891315759" lon="7.899528280573815"><ele>246.4</ele><time>2026-04-10T15:04:04.978Z</time></trkpt><trkpt lat="45.4803889730348" lon="7.899598580775966"><ele>247.2</ele><time>2026-04-10T15:04:05.978Z</time></trkpt><trkpt lat="45.480423783662" lon="7.89979567913596"><ele>248.0</ele><time>2026-04-10T15:04:06.978Z</time></trkpt><trkpt lat="45.48049278919657" lon="7.899935257956991"><ele>247.0</ele><time>2026-04-10T15:04:07.978Z</time></trkpt><trkpt lat="45.48055328194242" lon="7.900070905599695"><ele>246.0</ele><time>2026-04-10T15:04:08.978Z</time></trkpt><trkpt lat="45.480576446681205" lon="7.900211542757918"><ele>245.0</ele><time>2026-04-10T15:04:09.978Z</time></trkpt><trkpt lat="45.480592933454545" lon="7.90036525191877"><ele>244.0</ele><time>2026-04-10T15:04:10.978Z</time></trkpt><trkpt lat="45.480600961963965" lon="7.900527920973807"><ele>243.0</ele><time>2026-04-10T15:04:11.978Z</time></trkpt><trkpt lat="45.48060834336603" lon="7.900649362710203"><ele>243.0</ele><time>2026-04-10T15:04:12.978Z</time></trkpt><trkpt lat="45.48063993968077" lon="7.900748372962135"><ele>243.0</ele><time>2026-04-10T15:04:13.978Z</time></trkpt><trkpt lat="45.48072016668927" lon="7.900829155004973"><ele>243.0</ele><time>2026-04-10T15:04:15.978Z</time></trkpt><trkpt lat="45.48079076566508" lon="7.900801476546659"><ele>243.0</ele><time>2026-04-10T15:04:16.978Z</time></trkpt><trkpt lat="45.4808968512843" lon="7.900745804242749"><ele>243.0</ele><time>2026-04-10T15:04:17.978Z</time></trkpt><trkpt lat="45.48101600724416" lon="7.9006950139238565"><ele>243.0</ele><time>2026-04-10T15:04:18.978Z</time></trkpt><trkpt lat="45.481159841971596" lon="7.900669588291719"><ele>243.0</ele><time>2026-04-10T15:04:19.978Z</time></trkpt><trkpt lat="45.4813173158694" lon="7.900644442452312"><ele>243.0</ele><time>2026-04-10T15:04:20.978Z</time></trkpt><trkpt lat="45.48147617690128" lon="7.9006330548486305"><ele>242.0</ele><time>2026-04-10T15:04:21.978Z</time></trkpt><trkpt lat="45.48162540409157" lon="7.900609111922512"><ele>241.0</ele><time>2026-04-10T15:04:22.978Z</time></trkpt><trkpt lat="45.48178485070806" lon="7.9005847966113185"><ele>240.0</ele><time>2026-04-10T15:04:23.978Z</time></trkpt><trkpt lat="45.48193171310253" lon="7.900575854503728"><ele>240.0</ele><time>2026-04-10T15:04:24.978Z</time></trkpt><trkpt lat="45.48207545258399" lon="7.900573267692885"><ele>240.0</ele><time>2026-04-10T15:04:25.978Z</time></trkpt><trkpt lat="45.48220618141718" lon="7.900557695772401"><ele>240.0</ele><time>2026-04-10T15:04:26.978Z</time></trkpt><trkpt lat="45.48233077288546" lon="7.900536513608343"><ele>240.0</ele><time>2026-04-10T15:04:27.978Z</time></trkpt><trkpt lat="45.48245095020947" lon="7.900526338897946"><ele>240.5</ele><time>2026-04-10T15:04:28.978Z</time></trkpt><trkpt lat="45.48256099690199" lon="7.900519234510253"><ele>241.0</ele><time>2026-04-10T15:04:29.978Z</time></trkpt><trkpt lat="45.482651446407736" lon="7.9005104740458645"><ele>241.5</ele><time>2026-04-10T15:04:30.978Z</time></trkpt><trkpt lat="45.48272477333786" lon="7.9005277458850065"><ele>242.0</ele><time>2026-04-10T15:04:31.978Z</time></trkpt><trkpt lat="45.48278858484639" lon="7.900643096684638"><ele>242.5</ele><time>2026-04-10T15:04:33.978Z</time></trkpt><trkpt lat="45.48277543474939" lon="7.900735914983511"><ele>243.0</ele><time>2026-04-10T15:04:34.978Z</time></trkpt><trkpt lat="45.48273460667245" lon="7.900817026824738"><ele>243.0</ele><time>2026-04-10T15:04:35.978Z</time></trkpt><trkpt lat="45.48269159275869" lon="7.900936715483806"><ele>243.0</ele><time>2026-04-10T15:04:36.978Z</time></trkpt><trkpt lat="45.48267672073885" lon="7.901079866632028"><ele>243.0</ele><time>2026-04-10T15:04:37.978Z</time></trkpt><trkpt lat="45.482678637338466" lon="7.901259857593987"><ele>243.0</ele><time>2026-04-10T15:04:38.978Z</time></trkpt><trkpt lat="45.48271393057352" lon="7.90144972763134"><ele>243.0</ele><time>2026-04-10T15:04:39.978Z</time></trkpt><trkpt lat="45.482749167774784" lon="7.901619406878474"><ele>243.0</ele><time>2026-04-10T15:04:40.978Z</time></trkpt><trkpt lat="45.48284507883132" lon="7.9017753311050045"><ele>243.0</ele><time>2026-04-10T15:04:41.978Z</time></trkpt><trkpt lat="45.48294503899676" lon="7.901946784176562"><ele>243.0</ele><time>2026-04-10T15:04:42.978Z</time></trkpt><trkpt lat="45.48301789221385" lon="7.902129833029691"><ele>242.5</ele><time>2026-04-10T15:04:43.978Z</time></trkpt><trkpt lat="45.48307882310382" lon="7.9023097682692605"><ele>242.0</ele><time>2026-04-10T15:04:44.978Z</time></trkpt><trkpt lat="45.483155615101325" lon="7.902493360968287"><ele>241.5</ele><time>2026-04-10T15:04:45.978Z</time></trkpt><trkpt lat="45.48322814045283" lon="7.902668582496695"><ele>241.0</ele><time>2026-04-10T15:04:46.978Z</time></trkpt><trkpt lat="45.483307671518695" lon="7.902824627759116"><ele>241.0</ele><time>2026-04-10T15:04:47.978Z</time></trkpt><trkpt lat="45.48338734660822" lon="7.9029783372468"><ele>241.0</ele><time>2026-04-10T15:04:48.976Z</time></trkpt><trkpt lat="45.483460847646796" lon="7.903129503835427"><ele>241.0</ele><time>2026-04-10T15:04:49.977Z</time></trkpt><trkpt lat="45.483529893153964" lon="7.903271055948237"><ele>241.0</ele><time>2026-04-10T15:04:50.977Z</time></trkpt><trkpt lat="45.483592475172465" lon="7.903391461706402"><ele>240.5</ele><time>2026-04-10T15:04:51.977Z</time></trkpt><trkpt lat="45.48366405665369" lon="7.903503350403251"><ele>240.0</ele><time>2026-04-10T15:04:52.976Z</time></trkpt><trkpt lat="45.48376549789255" lon="7.90359462338749"><ele>239.5</ele><time>2026-04-10T15:04:53.976Z</time></trkpt><trkpt lat="45.48386548042514" lon="7.903696087433758"><ele>239.0</ele><time>2026-04-10T15:04:54.977Z</time></trkpt><trkpt lat="45.48397518761489" lon="7.903804231217388"><ele>239.0</ele><time>2026-04-10T15:04:55.977Z</time></trkpt><trkpt lat="45.48407673581931" lon="7.903931999450684"><ele>239.0</ele><time>2026-04-10T15:04:56.977Z</time></trkpt><trkpt lat="45.48414705307198" lon="7.90409646109708"><ele>239.0</ele><time>2026-04-10T15:04:57.976Z</time></trkpt><trkpt lat="45.48419791565496" lon="7.904286261747283"><ele>239.0</ele><time>2026-04-10T15:04:58.977Z</time></trkpt><trkpt lat="45.48424457460912" lon="7.904483407715461"><ele>239.0</ele><time>2026-04-10T15:04:59.977Z</time></trkpt><trkpt lat="45.484309479065026" lon="7.904653325886027"><ele>239.0</ele><time>2026-04-10T15:05:00.977Z</time></trkpt><trkpt lat="45.48437717573125" lon="7.904825671709359"><ele>239.0</ele><time>2026-04-10T15:05:01.976Z</time></trkpt><trkpt lat="45.48443266375908" lon="7.9049971174178815"><ele>239.0</ele><time>2026-04-10T15:05:02.976Z</time></trkpt><trkpt lat="45.4845013759865" lon="7.905153138444671"><ele>238.79999999999998</ele><time>2026-04-10T15:05:03.976Z</time></trkpt><trkpt lat="45.484564715854894" lon="7.905299496843553"><ele>238.59999999999997</ele><time>2026-04-10T15:05:04.976Z</time></trkpt><trkpt lat="45.48462428085481" lon="7.905436860460182"><ele>238.4</ele><time>2026-04-10T15:05:05.976Z</time></trkpt><trkpt lat="45.4846770451329" lon="7.9055672721793995"><ele>238.2</ele><time>2026-04-10T15:05:06.976Z</time></trkpt><trkpt lat="45.48473295443542" lon="7.905680398051605"><ele>238.0</ele><time>2026-04-10T15:05:07.976Z</time></trkpt><trkpt lat="45.484783680679534" lon="7.90578233063089"><ele>238.4</ele><time>2026-04-10T15:05:08.976Z</time></trkpt><trkpt lat="45.48481832195454" lon="7.905875408888797"><ele>238.8</ele><time>2026-04-10T15:05:09.976Z</time></trkpt><trkpt lat="45.484848947433925" lon="7.905975012205701"><ele>239.2</ele><time>2026-04-10T15:05:10.976Z</time></trkpt><trkpt lat="45.48488034143884" lon="7.906072702304302"><ele>239.6</ele><time>2026-04-10T15:05:12.976Z</time></trkpt><trkpt lat="45.48507939352347" lon="7.906062436074789"><ele>240.0</ele><time>2026-04-10T15:05:18.976Z</time></trkpt><trkpt lat="45.48517829378294" lon="7.906030936175033"><ele>240.0</ele><time>2026-04-10T15:05:19.976Z</time></trkpt><trkpt lat="45.48525672665206" lon="7.905948527091752"><ele>240.0</ele><time>2026-04-10T15:05:20.976Z</time></trkpt><trkpt lat="45.48532869152557" lon="7.905902779926715"><ele>240.0</ele><time>2026-04-10T15:05:21.976Z</time></trkpt><trkpt lat="45.48543726827095" lon="7.905869298984892"><ele>240.0</ele><time>2026-04-10T15:05:23.976Z</time></trkpt><trkpt lat="45.48550321196645" lon="7.905889415760284"><ele>240.0</ele><time>2026-04-10T15:05:24.976Z</time></trkpt><trkpt lat="45.48557836446687" lon="7.905898666883745"><ele>240.0</ele><time>2026-04-10T15:05:25.976Z</time></trkpt><trkpt lat="45.48564034114492" lon="7.905882404762611"><ele>241.16666666666666</ele><time>2026-04-10T15:05:26.976Z</time></trkpt><trkpt lat="45.48574755904459" lon="7.905830285673855"><ele>242.33333333333331</ele><time>2026-04-10T15:05:28.976Z</time></trkpt><trkpt lat="45.48582111456856" lon="7.905802100035588"><ele>243.5</ele><time>2026-04-10T15:05:29.976Z</time></trkpt><trkpt lat="45.48589666520003" lon="7.905758601123482"><ele>244.66666666666666</ele><time>2026-04-10T15:05:30.976Z</time></trkpt><trkpt lat="45.485979622870815" lon="7.905746196919915"><ele>245.83333333333331</ele><time>2026-04-10T15:05:31.976Z</time></trkpt><trkpt lat="45.4860640623022" lon="7.905747062273564"><ele>247.0</ele><time>2026-04-10T15:05:32.976Z</time></trkpt><trkpt lat="45.48614466888722" lon="7.905766700474204"><ele>246.99999999999997</ele><time>2026-04-10T15:05:33.976Z</time></trkpt><trkpt lat="45.486235369494" lon="7.90577852637402"><ele>247.0</ele><time>2026-04-10T15:05:34.976Z</time></trkpt><trkpt lat="45.486322134161874" lon="7.9057836637564884"><ele>247.0</ele><time>2026-04-10T15:05:35.976Z</time></trkpt><trkpt lat="45.48638863512931" lon="7.905783262265699"><ele>247.0</ele><time>2026-04-10T15:05:36.976Z</time></trkpt><trkpt lat="45.486473909280555" lon="7.905772618440825"><ele>246.99999999999997</ele><time>2026-04-10T15:05:37.976Z</time></trkpt><trkpt lat="45.48656706719247" lon="7.905751484071965"><ele>247.0</ele><time>2026-04-10T15:05:38.976Z</time></trkpt><trkpt lat="45.48665135294938" lon="7.905730225777774"><ele>247.66666666666666</ele><time>2026-04-10T15:05:39.976Z</time></trkpt><trkpt lat="45.486730902324325" lon="7.905710056339488"><ele>248.33333333333331</ele><time>2026-04-10T15:05:40.976Z</time></trkpt><trkpt lat="45.48681454371745" lon="7.905679985810828"><ele>249.0</ele><time>2026-04-10T15:05:41.976Z</time></trkpt><trkpt lat="45.48689017391153" lon="7.90566879678599"><ele>249.66666666666669</ele><time>2026-04-10T15:05:42.976Z</time></trkpt><trkpt lat="45.48695875449809" lon="7.9056890058019045"><ele>250.33333333333334</ele><time>2026-04-10T15:05:43.976Z</time></trkpt><trkpt lat="45.48702177226355" lon="7.9057369044838275"><ele>251.0</ele><time>2026-04-10T15:05:44.976Z</time></trkpt><trkpt lat="45.4871197901501" lon="7.90578876276781"><ele>253.75</ele><time>2026-04-10T15:05:45.976Z</time></trkpt><trkpt lat="45.487198723556965" lon="7.905812674113085"><ele>256.5</ele><time>2026-04-10T15:05:46.976Z</time></trkpt><trkpt lat="45.4873259791626" lon="7.905835747874399"><ele>259.25</ele><time>2026-04-10T15:05:48.976Z</time></trkpt><trkpt lat="45.487445467509474" lon="7.905766075692468"><ele>262.0</ele><time>2026-04-10T15:05:50.976Z</time></trkpt><trkpt lat="45.487568106136926" lon="7.905741826662608"><ele>262.0</ele><time>2026-04-10T15:05:52.976Z</time></trkpt><trkpt lat="45.4876472336581" lon="7.905764677260295"><ele>262.0</ele><time>2026-04-10T15:05:53.976Z</time></trkpt><trkpt lat="45.48772749014147" lon="7.905812607924416"><ele>262.0</ele><time>2026-04-10T15:05:54.976Z</time></trkpt><trkpt lat="45.48779001816288" lon="7.905860262168196"><ele>262.0</ele><time>2026-04-10T15:05:55.976Z</time></trkpt><trkpt lat="45.487850352006724" lon="7.905933491382565"><ele>262.0</ele><time>2026-04-10T15:05:56.976Z</time></trkpt><trkpt lat="45.48790147901774" lon="7.9060146716395"><ele>262.0</ele><time>2026-04-10T15:05:57.976Z</time></trkpt><trkpt lat="45.48798306212344" lon="7.906126224393554"><ele>263.0</ele><time>2026-04-10T15:05:58.976Z</time></trkpt><trkpt lat="45.48803306872921" lon="7.906210676519907"><ele>264.0</ele><time>2026-04-10T15:05:59.976Z</time></trkpt><trkpt lat="45.488086685602575" lon="7.906271496160656"><ele>265.0</ele><time>2026-04-10T15:06:00.976Z</time></trkpt><trkpt lat="45.48813964890371" lon="7.906386812032878"><ele>266.0</ele><time>2026-04-10T15:06:01.976Z</time></trkpt><trkpt lat="45.488198044168996" lon="7.906477492519255"><ele>267.0</ele><time>2026-04-10T15:06:02.976Z</time></trkpt><trkpt lat="45.48822841386703" lon="7.906576909073393"><ele>268.0</ele><time>2026-04-10T15:06:03.976Z</time></trkpt><trkpt lat="45.48828227032603" lon="7.906649869725895"><ele>267.6</ele><time>2026-04-10T15:06:04.976Z</time></trkpt><trkpt lat="45.4883117009158" lon="7.906746987998616"><ele>267.20000000000005</ele><time>2026-04-10T15:06:05.976Z</time></trkpt><trkpt lat="45.48836845787298" lon="7.906819980953344"><ele>266.8</ele><time>2026-04-10T15:06:07.976Z</time></trkpt><trkpt lat="45.488489738708545" lon="7.90680876318449"><ele>266.40000000000003</ele><time>2026-04-10T15:06:09.976Z</time></trkpt><trkpt lat="45.488578747582686" lon="7.906815215108339"><ele>266.0</ele><time>2026-04-10T15:06:10.976Z</time></trkpt><trkpt lat="45.48868565759368" lon="7.906825829457189"><ele>268.6</ele><time>2026-04-10T15:06:11.976Z</time></trkpt><trkpt lat="45.48877714594509" lon="7.906929689741101"><ele>271.20000000000005</ele><time>2026-04-10T15:06:12.976Z</time></trkpt><trkpt lat="45.48886645075734" lon="7.906978074075808"><ele>273.79999999999995</ele><time>2026-04-10T15:06:13.976Z</time></trkpt><trkpt lat="45.48894992952185" lon="7.90705929673085"><ele>276.4</ele><time>2026-04-10T15:06:14.976Z</time></trkpt><trkpt lat="45.489036219890004" lon="7.9071531656407"><ele>279.0</ele><time>2026-04-10T15:06:15.976Z</time></trkpt><trkpt lat="45.4891221740527" lon="7.907249415867049"><ele>279.0</ele><time>2026-04-10T15:06:16.976Z</time></trkpt><trkpt lat="45.48919902478305" lon="7.907343552531941"><ele>279.0</ele><time>2026-04-10T15:06:17.976Z</time></trkpt><trkpt lat="45.48927193500333" lon="7.907444608780854"><ele>279.0</ele><time>2026-04-10T15:06:18.976Z</time></trkpt><trkpt lat="45.48932174410357" lon="7.907564241152492"><ele>279.0</ele><time>2026-04-10T15:06:19.976Z</time></trkpt><trkpt lat="45.489371072363966" lon="7.907693036748537"><ele>279.0</ele><time>2026-04-10T15:06:20.976Z</time></trkpt><trkpt lat="45.4894200409015" lon="7.907847298201308"><ele>279.2</ele><time>2026-04-10T15:06:21.976Z</time></trkpt><trkpt lat="45.48947519984268" lon="7.907973657889256"><ele>279.4</ele><time>2026-04-10T15:06:22.976Z</time></trkpt><trkpt lat="45.48952716099497" lon="7.908069462530847"><ele>279.6</ele><time>2026-04-10T15:06:23.976Z</time></trkpt><trkpt lat="45.489575980445004" lon="7.908175354577991"><ele>279.8</ele><time>2026-04-10T15:06:24.976Z</time></trkpt><trkpt lat="45.489650745763754" lon="7.908304346758041"><ele>280.0</ele><time>2026-04-10T15:06:25.976Z</time></trkpt><trkpt lat="45.48973611364041" lon="7.9084312346781385"><ele>280.25</ele><time>2026-04-10T15:06:26.976Z</time></trkpt><trkpt lat="45.489831062546216" lon="7.90855214345285"><ele>280.5</ele><time>2026-04-10T15:06:27.976Z</time></trkpt><trkpt lat="45.48993432119182" lon="7.9086677994100105"><ele>280.75</ele><time>2026-04-10T15:06:28.976Z</time></trkpt><trkpt lat="45.49004434026834" lon="7.908767916364637"><ele>281.0</ele><time>2026-04-10T15:06:29.976Z</time></trkpt><trkpt lat="45.49016701102792" lon="7.908842401815728"><ele>281.0</ele><time>2026-04-10T15:06:30.976Z</time></trkpt><trkpt lat="45.490289969658036" lon="7.908872170547964"><ele>281.0</ele><time>2026-04-10T15:06:31.976Z</time></trkpt><trkpt lat="45.49039660077596" lon="7.908905886616473"><ele>281.0</ele><time>2026-04-10T15:06:32.976Z</time></trkpt><trkpt lat="45.49050824623958" lon="7.908954043750389"><ele>281.0</ele><time>2026-04-10T15:06:33.976Z</time></trkpt><trkpt lat="45.49062236559917" lon="7.908979602424784"><ele>282.25</ele><time>2026-04-10T15:06:34.976Z</time></trkpt><trkpt lat="45.49069823620084" lon="7.9090428722182455"><ele>283.5</ele><time>2026-04-10T15:06:35.976Z</time></trkpt><trkpt lat="45.490801055176185" lon="7.90917549555336"><ele>284.75</ele><time>2026-04-10T15:06:36.976Z</time></trkpt><trkpt lat="45.49092393703008" lon="7.9092353458121005"><ele>286.0</ele><time>2026-04-10T15:06:37.976Z</time></trkpt><trkpt lat="45.49105238493243" lon="7.9092524420955135"><ele>287.0</ele><time>2026-04-10T15:06:38.976Z</time></trkpt><trkpt lat="45.491157379176926" lon="7.909316790288223"><ele>288.0</ele><time>2026-04-10T15:06:39.976Z</time></trkpt><trkpt lat="45.49124857601683" lon="7.909403385807949"><ele>289.0</ele><time>2026-04-10T15:06:40.976Z</time></trkpt><trkpt lat="45.491346552618495" lon="7.909471970449102"><ele>290.0</ele><time>2026-04-10T15:06:41.976Z</time></trkpt><trkpt lat="45.49142675163847" lon="7.909543681490054"><ele>291.0</ele><time>2026-04-10T15:06:42.976Z</time></trkpt><trkpt lat="45.49152862443511" lon="7.90954747899136"><ele>292.0</ele><time>2026-04-10T15:06:43.976Z</time></trkpt><trkpt lat="45.491635839105335" lon="7.909501558958809"><ele>293.0</ele><time>2026-04-10T15:06:44.976Z</time></trkpt><trkpt lat="45.491743575464355" lon="7.9094444748312"><ele>294.0</ele><time>2026-04-10T15:06:45.976Z</time></trkpt><trkpt lat="45.49183470979745" lon="7.90939889800402"><ele>295.0</ele><time>2026-04-10T15:06:46.976Z</time></trkpt><trkpt lat="45.491953555776256" lon="7.909424089804577"><ele>296.0</ele><time>2026-04-10T15:06:47.976Z</time></trkpt><trkpt lat="45.49203823015759" lon="7.90952344575158"><ele>296.5</ele><time>2026-04-10T15:06:48.976Z</time></trkpt><trkpt lat="45.492138675211066" lon="7.909605218911073"><ele>297.0</ele><time>2026-04-10T15:06:49.976Z</time></trkpt><trkpt lat="45.49222300931685" lon="7.909733295258962"><ele>297.5</ele><time>2026-04-10T15:06:50.976Z</time></trkpt><trkpt lat="45.492321460985195" lon="7.909836922254603"><ele>298.0</ele><time>2026-04-10T15:06:51.976Z</time></trkpt><trkpt lat="45.492426419863676" lon="7.90995614344075"><ele>298.0</ele><time>2026-04-10T15:06:52.976Z</time></trkpt><trkpt lat="45.49252590171675" lon="7.9100566099455145"><ele>298.0</ele><time>2026-04-10T15:06:53.976Z</time></trkpt><trkpt lat="45.492606292619435" lon="7.910168073366073"><ele>298.0</ele><time>2026-04-10T15:06:54.975Z</time></trkpt><trkpt lat="45.492676841075365" lon="7.910244500567975"><ele>298.0</ele><time>2026-04-10T15:06:55.974Z</time></trkpt><trkpt lat="45.492758807672175" lon="7.91024256845988"><ele>298.0</ele><time>2026-04-10T15:06:56.974Z</time></trkpt><trkpt lat="45.49283950781588" lon="7.910188436316961"><ele>299.0</ele><time>2026-04-10T15:06:57.975Z</time></trkpt><trkpt lat="45.49295623008999" lon="7.910161542348372"><ele>300.0</ele><time>2026-04-10T15:06:58.974Z</time></trkpt><trkpt lat="45.493078685085365" lon="7.910106105847931"><ele>301.0</ele><time>2026-04-10T15:06:59.974Z</time></trkpt><trkpt lat="45.49319274264525" lon="7.9100292881658385"><ele>302.0</ele><time>2026-04-10T15:07:00.975Z</time></trkpt><trkpt lat="45.49327607537261" lon="7.909896152322215"><ele>302.4</ele><time>2026-04-10T15:07:01.974Z</time></trkpt><trkpt lat="45.493361522415114" lon="7.909788961625538"><ele>302.79999999999995</ele><time>2026-04-10T15:07:02.974Z</time></trkpt><trkpt lat="45.4934267920423" lon="7.909654067051598"><ele>303.2</ele><time>2026-04-10T15:07:03.975Z</time></trkpt><trkpt lat="45.493443681093055" lon="7.909501004428283"><ele>303.59999999999997</ele><time>2026-04-10T15:07:04.974Z</time></trkpt><trkpt lat="45.49347118867796" lon="7.909377628019051"><ele>304.0</ele><time>2026-04-10T15:07:05.974Z</time></trkpt><trkpt lat="45.493505693451496" lon="7.909296156065188"><ele>304.0</ele><time>2026-04-10T15:07:06.975Z</time></trkpt><trkpt lat="45.49357792164975" lon="7.909251504237808"><ele>304.0</ele><time>2026-04-10T15:07:07.975Z</time></trkpt><trkpt lat="45.493695846215346" lon="7.909249506698289"><ele>304.0</ele><time>2026-04-10T15:07:08.975Z</time></trkpt><trkpt lat="45.493804570582235" lon="7.909252621528126"><ele>304.0</ele><time>2026-04-10T15:07:09.975Z</time></trkpt><trkpt lat="45.49392767263987" lon="7.909244118447353"><ele>304.0</ele><time>2026-04-10T15:07:10.975Z</time></trkpt><trkpt lat="45.49405401915216" lon="7.9091970308099535"><ele>305.5</ele><time>2026-04-10T15:07:11.975Z</time></trkpt><trkpt lat="45.49413629449139" lon="7.90909271173933"><ele>307.0</ele><time>2026-04-10T15:07:12.975Z</time></trkpt><trkpt lat="45.49419513607914" lon="7.908960240368389"><ele>308.5</ele><time>2026-04-10T15:07:13.975Z</time></trkpt><trkpt lat="45.49428261089615" lon="7.908849017595125"><ele>310.0</ele><time>2026-04-10T15:07:14.975Z</time></trkpt><trkpt lat="45.49437504325105" lon="7.908755358385334"><ele>310.0</ele><time>2026-04-10T15:07:15.975Z</time></trkpt><trkpt lat="45.49447992745062" lon="7.908669677903031"><ele>310.0</ele><time>2026-04-10T15:07:16.975Z</time></trkpt><trkpt lat="45.49457749079014" lon="7.908576618737597"><ele>310.0</ele><time>2026-04-10T15:07:17.975Z</time></trkpt><trkpt lat="45.494653362894" lon="7.908451889838629"><ele>310.0</ele><time>2026-04-10T15:07:18.975Z</time></trkpt><trkpt lat="45.49472749657398" lon="7.908320067916522"><ele>312.25</ele><time>2026-04-10T15:07:19.975Z</time></trkpt><trkpt lat="45.494807791344556" lon="7.908203480286841"><ele>314.5</ele><time>2026-04-10T15:07:20.975Z</time></trkpt><trkpt lat="45.49489120687908" lon="7.908106417161605"><ele>316.75</ele><time>2026-04-10T15:07:21.975Z</time></trkpt><trkpt lat="45.49499692722625" lon="7.908037399927546"><ele>319.0</ele><time>2026-04-10T15:07:22.975Z</time></trkpt><trkpt lat="45.49510513332864" lon="7.9080016056144204"><ele>319.0</ele><time>2026-04-10T15:07:23.975Z</time></trkpt><trkpt lat="45.49521814704191" lon="7.907972312357405"><ele>319.0</ele><time>2026-04-10T15:07:24.975Z</time></trkpt><trkpt lat="45.49533863495901" lon="7.907990478599183"><ele>319.0</ele><time>2026-04-10T15:07:25.975Z</time></trkpt><trkpt lat="45.49545644271835" lon="7.907980505927814"><ele>319.0</ele><time>2026-04-10T15:07:26.975Z</time></trkpt><trkpt lat="45.4955617201139" lon="7.907976918180622"><ele>321.2</ele><time>2026-04-10T15:07:27.975Z</time></trkpt><trkpt lat="45.49564626766338" lon="7.907928497168705"><ele>323.4</ele><time>2026-04-10T15:07:28.975Z</time></trkpt><trkpt lat="45.49571389825362" lon="7.907810585443597"><ele>325.6</ele><time>2026-04-10T15:07:29.975Z</time></trkpt><trkpt lat="45.49580695319687" lon="7.907719762004892"><ele>327.8</ele><time>2026-04-10T15:07:30.975Z</time></trkpt><trkpt lat="45.49592235164221" lon="7.907713717162561"><ele>330.0</ele><time>2026-04-10T15:07:31.975Z</time></trkpt><trkpt lat="45.49603059068236" lon="7.907632193283326"><ele>330.0</ele><time>2026-04-10T15:07:32.975Z</time></trkpt><trkpt lat="45.49615073526889" lon="7.9075822611538085"><ele>330.0</ele><time>2026-04-10T15:07:33.975Z</time></trkpt><trkpt lat="45.496247727778744" lon="7.907548175082063"><ele>330.0</ele><time>2026-04-10T15:07:34.975Z</time></trkpt><trkpt lat="45.49632685915567" lon="7.907588994343402"><ele>330.0</ele><time>2026-04-10T15:07:35.975Z</time></trkpt><trkpt lat="45.49640175364794" lon="7.907599761865132"><ele>330.0</ele><time>2026-04-10T15:07:36.975Z</time></trkpt><trkpt lat="45.49647939095243" lon="7.907635953648896"><ele>329.1666666666667</ele><time>2026-04-10T15:07:38.975Z</time></trkpt><trkpt lat="45.496453518928035" lon="7.907769926050579"><ele>328.3333333333333</ele><time>2026-04-10T15:07:39.975Z</time></trkpt><trkpt lat="45.496470202352015" lon="7.907866918274816"><ele>327.5</ele><time>2026-04-10T15:07:40.975Z</time></trkpt><trkpt lat="45.49649003717621" lon="7.907955174164905"><ele>326.66666666666663</ele><time>2026-04-10T15:07:41.975Z</time></trkpt><trkpt lat="45.496532024792984" lon="7.908023957005703"><ele>325.8333333333333</ele><time>2026-04-10T15:07:42.975Z</time></trkpt><trkpt lat="45.49659622622757" lon="7.9081505565084305"><ele>325.0</ele><time>2026-04-10T15:07:44.975Z</time></trkpt><trkpt lat="45.496626218616996" lon="7.908243578149504"><ele>325.0</ele><time>2026-04-10T15:07:46.975Z</time></trkpt><trkpt lat="45.496757241555656" lon="7.908141233132949"><ele>325.0</ele><time>2026-04-10T15:07:47.975Z</time></trkpt><trkpt lat="45.49684412633325" lon="7.908108062268283"><ele>325.0</ele><time>2026-04-10T15:07:48.975Z</time></trkpt><trkpt lat="45.49694097601761" lon="7.908105519740562"><ele>325.0</ele><time>2026-04-10T15:07:49.975Z</time></trkpt><trkpt lat="45.497031121027895" lon="7.908123337537958"><ele>325.0</ele><time>2026-04-10T15:07:50.975Z</time></trkpt><trkpt lat="45.49712921768141" lon="7.908122420922658"><ele>326.2</ele><time>2026-04-10T15:07:51.975Z</time></trkpt><trkpt lat="45.49721201504413" lon="7.908093827678614"><ele>327.4</ele><time>2026-04-10T15:07:52.975Z</time></trkpt><trkpt lat="45.497275653626076" lon="7.90805736506694"><ele>328.6</ele><time>2026-04-10T15:07:53.975Z</time></trkpt><trkpt lat="45.497373702665364" lon="7.90797514567428"><ele>329.8</ele><time>2026-04-10T15:07:55.975Z</time></trkpt><trkpt lat="45.4975035544301" lon="7.9079533403804545"><ele>331.0</ele><time>2026-04-10T15:07:57.975Z</time></trkpt><trkpt lat="45.497583079322446" lon="7.9079725509577505"><ele>331.0</ele><time>2026-04-10T15:07:58.975Z</time></trkpt><trkpt lat="45.49766270938105" lon="7.907992169213699"><ele>331.0</ele><time>2026-04-10T15:07:59.975Z</time></trkpt><trkpt lat="45.497735720038705" lon="7.908034882535543"><ele>331.0</ele><time>2026-04-10T15:08:00.975Z</time></trkpt><trkpt lat="45.49779923048365" lon="7.908079704516912"><ele>331.0</ele><time>2026-04-10T15:08:01.975Z</time></trkpt><trkpt lat="45.49785209561982" lon="7.908159825027027"><ele>331.0</ele><time>2026-04-10T15:08:02.975Z</time></trkpt><trkpt lat="45.497880952229586" lon="7.908275747932324"><ele>331.0</ele><time>2026-04-10T15:08:03.975Z</time></trkpt><trkpt lat="45.49787303562788" lon="7.90840306690345"><ele>331.0</ele><time>2026-04-10T15:08:04.975Z</time></trkpt><trkpt lat="45.49786809117979" lon="7.90855954095267"><ele>331.0</ele><time>2026-04-10T15:08:05.975Z</time></trkpt><trkpt lat="45.49786716162353" lon="7.908688075310159"><ele>331.0</ele><time>2026-04-10T15:08:06.975Z</time></trkpt><trkpt lat="45.49789395703388" lon="7.908829688085958"><ele>331.0</ele><time>2026-04-10T15:08:07.975Z</time></trkpt><trkpt lat="45.49794503854439" lon="7.908941487875371"><ele>331.0</ele><time>2026-04-10T15:08:08.975Z</time></trkpt><trkpt lat="45.49804139746872" lon="7.909002454169756"><ele>334.20000000000005</ele><time>2026-04-10T15:08:09.975Z</time></trkpt><trkpt lat="45.49812020855559" lon="7.909069302319918"><ele>337.40000000000003</ele><time>2026-04-10T15:08:10.975Z</time></trkpt><trkpt lat="45.49820644606571" lon="7.909115399212717"><ele>340.6</ele><time>2026-04-10T15:08:11.975Z</time></trkpt><trkpt lat="45.49830909934667" lon="7.90914720923906"><ele>343.8</ele><time>2026-04-10T15:08:12.975Z</time></trkpt><trkpt lat="45.49841875675482" lon="7.909144511050861"><ele>347.0</ele><time>2026-04-10T15:08:13.975Z</time></trkpt><trkpt lat="45.4985186119344" lon="7.909151095084361"><ele>347.0</ele><time>2026-04-10T15:08:14.975Z</time></trkpt><trkpt lat="45.49861407074189" lon="7.909183918444078"><ele>347.0</ele><time>2026-04-10T15:08:15.975Z</time></trkpt><trkpt lat="45.49870925458952" lon="7.909250093409799"><ele>347.0</ele><time>2026-04-10T15:08:16.975Z</time></trkpt><trkpt lat="45.49881149487286" lon="7.909280728790328"><ele>347.0</ele><time>2026-04-10T15:08:17.975Z</time></trkpt><trkpt lat="45.49890585416848" lon="7.90937276884152"><ele>347.0</ele><time>2026-04-10T15:08:18.975Z</time></trkpt><trkpt lat="45.49900459541073" lon="7.909445715521689"><ele>350.20000000000005</ele><time>2026-04-10T15:08:19.975Z</time></trkpt><trkpt lat="45.49910316730137" lon="7.909543839488572"><ele>353.4</ele><time>2026-04-10T15:08:20.975Z</time></trkpt><trkpt lat="45.49917083774589" lon="7.909620873547641"><ele>356.6</ele><time>2026-04-10T15:08:21.975Z</time></trkpt><trkpt lat="45.49924878801357" lon="7.909707606914105"><ele>359.79999999999995</ele><time>2026-04-10T15:08:23.975Z</time></trkpt><trkpt lat="45.49923547190138" lon="7.909853994924536"><ele>363.0</ele><time>2026-04-10T15:08:25.975Z</time></trkpt><trkpt lat="45.49918028607276" lon="7.909950204901854"><ele>363.0</ele><time>2026-04-10T15:08:26.975Z</time></trkpt><trkpt lat="45.499114829924366" lon="7.910033639043724"><ele>363.0</ele><time>2026-04-10T15:08:27.975Z</time></trkpt><trkpt lat="45.49906216997978" lon="7.910123864036455"><ele>363.0</ele><time>2026-04-10T15:08:28.975Z</time></trkpt><trkpt lat="45.499066405814816" lon="7.91025052943736"><ele>363.0</ele><time>2026-04-10T15:08:29.975Z</time></trkpt><trkpt lat="45.49905516526641" lon="7.9103770680155"><ele>363.0</ele><time>2026-04-10T15:08:30.975Z</time></trkpt><trkpt lat="45.49903035110362" lon="7.910525964655843"><ele>364.0</ele><time>2026-04-10T15:08:31.975Z</time></trkpt><trkpt lat="45.49900615041723" lon="7.910677843794923"><ele>365.0</ele><time>2026-04-10T15:08:32.975Z</time></trkpt><trkpt lat="45.4989605677163" lon="7.910782967901506"><ele>366.0</ele><time>2026-04-10T15:08:33.975Z</time></trkpt><trkpt lat="45.498918182400736" lon="7.910903308717505"><ele>367.0</ele><time>2026-04-10T15:08:34.975Z</time></trkpt><trkpt lat="45.49887739629582" lon="7.911034442463552"><ele>368.0</ele><time>2026-04-10T15:08:35.975Z</time></trkpt><trkpt lat="45.49885588127679" lon="7.911122991236412"><ele>369.0</ele><time>2026-04-10T15:08:36.975Z</time></trkpt><trkpt lat="45.49884523983369" lon="7.91122634637758"><ele>370.0</ele><time>2026-04-10T15:08:37.975Z</time></trkpt><trkpt lat="45.49891332528757" lon="7.911408824438892"><ele>371.0</ele><time>2026-04-10T15:08:39.975Z</time></trkpt><trkpt lat="45.498996970284374" lon="7.911487736227082"><ele>372.0</ele><time>2026-04-10T15:08:40.975Z</time></trkpt><trkpt lat="45.49906085888764" lon="7.911548232019698"><ele>373.0</ele><time>2026-04-10T15:08:41.975Z</time></trkpt><trkpt lat="45.49917075833456" lon="7.911532620499553"><ele>373.0</ele><time>2026-04-10T15:08:42.975Z</time></trkpt><trkpt lat="45.499278659397554" lon="7.911573585139217"><ele>373.0</ele><time>2026-04-10T15:08:43.975Z</time></trkpt><trkpt lat="45.49937071872855" lon="7.91162686266605"><ele>373.0</ele><time>2026-04-10T15:08:44.975Z</time></trkpt><trkpt lat="45.49945825868964" lon="7.911695742908951"><ele>373.0</ele><time>2026-04-10T15:08:45.975Z</time></trkpt><trkpt lat="45.49952898470551" lon="7.911761804865519"><ele>373.0</ele><time>2026-04-10T15:08:46.975Z</time></trkpt><trkpt lat="45.49960861583501" lon="7.911809537481526"><ele>376.4</ele><time>2026-04-10T15:08:47.975Z</time></trkpt><trkpt lat="45.49967390036893" lon="7.91189148596147"><ele>379.79999999999995</ele><time>2026-04-10T15:08:48.975Z</time></trkpt><trkpt lat="45.499712096847475" lon="7.912026963387226"><ele>383.2</ele><time>2026-04-10T15:08:50.975Z</time></trkpt><trkpt lat="45.49973823506854" lon="7.912232057194295"><ele>386.6</ele><time>2026-04-10T15:08:52.975Z</time></trkpt><trkpt lat="45.49977481423234" lon="7.912367016695213"><ele>390.0</ele><time>2026-04-10T15:08:53.975Z</time></trkpt><trkpt lat="45.499826183408636" lon="7.91250595773537"><ele>388.6</ele><time>2026-04-10T15:08:54.975Z</time></trkpt><trkpt lat="45.499877066281876" lon="7.9126045333606365"><ele>387.2</ele><time>2026-04-10T15:08:55.975Z</time></trkpt><trkpt lat="45.499932305748054" lon="7.912678179108555"><ele>385.79999999999995</ele><time>2026-04-10T15:08:56.975Z</time></trkpt><trkpt lat="45.500024234101886" lon="7.912713774612059"><ele>384.4</ele><time>2026-04-10T15:08:57.975Z</time></trkpt><trkpt lat="45.50011358567118" lon="7.912788122260809"><ele>383.0</ele><time>2026-04-10T15:08:58.975Z</time></trkpt><trkpt lat="45.50018632744986" lon="7.912872493777046"><ele>383.0</ele><time>2026-04-10T15:08:59.975Z</time></trkpt><trkpt lat="45.50025961504962" lon="7.9129402345594935"><ele>383.0</ele><time>2026-04-10T15:09:00.973Z</time></trkpt><trkpt lat="45.50034332901154" lon="7.91297026558272"><ele>383.0</ele><time>2026-04-10T15:09:01.973Z</time></trkpt><trkpt lat="45.50040615948727" lon="7.913007562797324"><ele>383.0</ele><time>2026-04-10T15:09:02.973Z</time></trkpt><trkpt lat="45.50051370770083" lon="7.912987427888092"><ele>383.0</ele><time>2026-04-10T15:09:04.973Z</time></trkpt><trkpt lat="45.500588723563766" lon="7.912964284688696"><ele>383.0</ele><time>2026-04-10T15:09:05.973Z</time></trkpt><trkpt lat="45.5006563012286" lon="7.912946827352362"><ele>384.0</ele><time>2026-04-10T15:09:06.972Z</time></trkpt><trkpt lat="45.500743545918915" lon="7.912927192533613"><ele>385.0</ele><time>2026-04-10T15:09:07.973Z</time></trkpt><trkpt lat="45.500862433967754" lon="7.912889582670499"><ele>386.0</ele><time>2026-04-10T15:09:09.973Z</time></trkpt><trkpt lat="45.50097735074731" lon="7.912911703719768"><ele>387.0</ele><time>2026-04-10T15:09:11.973Z</time></trkpt><trkpt lat="45.50108128182167" lon="7.912917309911268"><ele>388.0</ele><time>2026-04-10T15:09:13.972Z</time></trkpt><trkpt lat="45.501167424323505" lon="7.912814188264271"><ele>388.0</ele><time>2026-04-10T15:09:15.972Z</time></trkpt><trkpt lat="45.50124035439373" lon="7.9127379283304915"><ele>388.0</ele><time>2026-04-10T15:09:17.972Z</time></trkpt><trkpt lat="45.50130143380076" lon="7.912904853377119"><ele>388.0</ele><time>2026-04-10T15:09:19.972Z</time></trkpt><trkpt lat="45.50135310746237" lon="7.9129826666778715"><ele>388.0</ele><time>2026-04-10T15:09:20.972Z</time></trkpt><trkpt lat="45.50139592329955" lon="7.913088414668352"><ele>388.0</ele><time>2026-04-10T15:09:21.972Z</time></trkpt><trkpt lat="45.50147487466415" lon="7.913161049424119"><ele>389.2</ele><time>2026-04-10T15:09:22.972Z</time></trkpt><trkpt lat="45.5015509566587" lon="7.913246488238565"><ele>390.4</ele><time>2026-04-10T15:09:23.972Z</time></trkpt><trkpt lat="45.5016157114527" lon="7.9132784936675815"><ele>391.59999999999997</ele><time>2026-04-10T15:09:24.972Z</time></trkpt><trkpt lat="45.50174553778315" lon="7.913228484911951"><ele>392.79999999999995</ele><time>2026-04-10T15:09:26.972Z</time></trkpt><trkpt lat="45.50183734848787" lon="7.913188056895567"><ele>394.0</ele><time>2026-04-10T15:09:27.972Z</time></trkpt><trkpt lat="45.50191759316923" lon="7.913173998716374"><ele>394.0</ele><time>2026-04-10T15:09:28.972Z</time></trkpt><trkpt lat="45.501981430394345" lon="7.913139910455196"><ele>394.0</ele><time>2026-04-10T15:09:29.972Z</time></trkpt><trkpt lat="45.50204630195781" lon="7.913129836483795"><ele>394.0</ele><time>2026-04-10T15:09:31.972Z</time></trkpt><trkpt lat="45.50209087411389" lon="7.913376772413331"><ele>394.0</ele><time>2026-04-10T15:09:32.972Z</time></trkpt><trkpt lat="45.50212875485238" lon="7.913478433717923"><ele>394.0</ele><time>2026-04-10T15:09:33.972Z</time></trkpt><trkpt lat="45.50215110099839" lon="7.913600492288292"><ele>399.1666666666667</ele><time>2026-04-10T15:09:34.972Z</time></trkpt><trkpt lat="45.50215959654701" lon="7.9137256613381055"><ele>404.33333333333337</ele><time>2026-04-10T15:09:35.972Z</time></trkpt><trkpt lat="45.502146167051144" lon="7.913845617193186"><ele>409.5</ele><time>2026-04-10T15:09:36.972Z</time></trkpt><trkpt lat="45.50212671462378" lon="7.9140114698622925"><ele>414.66666666666663</ele><time>2026-04-10T15:09:38.972Z</time></trkpt><trkpt lat="45.502157564304916" lon="7.914101781479879"><ele>419.8333333333333</ele><time>2026-04-10T15:09:40.972Z</time></trkpt><trkpt lat="45.50222712210031" lon="7.914154067862499"><ele>425.0</ele><time>2026-04-10T15:09:43.972Z</time></trkpt><trkpt lat="45.50234109113304" lon="7.9140631273921755"><ele>424.99999999999994</ele><time>2026-04-10T15:09:45.972Z</time></trkpt><trkpt lat="45.50239285333582" lon="7.913978360747213"><ele>425.0</ele><time>2026-04-10T15:09:46.972Z</time></trkpt><trkpt lat="45.50247567398786" lon="7.913916614537893"><ele>425.0</ele><time>2026-04-10T15:09:47.972Z</time></trkpt><trkpt lat="45.50255463969088" lon="7.913850268213323"><ele>425.0</ele><time>2026-04-10T15:09:48.972Z</time></trkpt><trkpt lat="45.50263097863451" lon="7.91378972402625"><ele>424.99999999999994</ele><time>2026-04-10T15:09:49.972Z</time></trkpt><trkpt lat="45.50269810974128" lon="7.913729973948011"><ele>425.0</ele><time>2026-04-10T15:09:50.972Z</time></trkpt><trkpt lat="45.50275450890385" lon="7.913646714295929"><ele>425.0</ele><time>2026-04-10T15:09:51.972Z</time></trkpt><trkpt lat="45.50282372796849" lon="7.9135733421141"><ele>425.0</ele><time>2026-04-10T15:09:52.972Z</time></trkpt><trkpt lat="45.50288158990867" lon="7.9134825636993575"><ele>425.0</ele><time>2026-04-10T15:09:53.972Z</time></trkpt><trkpt lat="45.502947139938804" lon="7.91338925386656"><ele>425.0</ele><time>2026-04-10T15:09:54.972Z</time></trkpt><trkpt lat="45.50302620486493" lon="7.9133303211059465"><ele>425.0</ele><time>2026-04-10T15:09:55.972Z</time></trkpt><trkpt lat="45.50313174072655" lon="7.913302035689044"><ele>426.49999999999994</ele><time>2026-04-10T15:09:56.972Z</time></trkpt><trkpt lat="45.50321700269362" lon="7.913247580575116"><ele>428.0</ele><time>2026-04-10T15:09:57.972Z</time></trkpt><trkpt lat="45.503290736215305" lon="7.9131809275967795"><ele>429.5</ele><time>2026-04-10T15:09:58.972Z</time></trkpt><trkpt lat="45.50335278447724" lon="7.9131337166230145"><ele>431.0</ele><time>2026-04-10T15:09:59.972Z</time></trkpt><trkpt lat="45.50342165545908" lon="7.9130993755510195"><ele>432.49999999999994</ele><time>2026-04-10T15:10:00.972Z</time></trkpt><trkpt lat="45.50350098093271" lon="7.913073105515694"><ele>434.0</ele><time>2026-04-10T15:10:01.972Z</time></trkpt><trkpt lat="45.503576494734766" lon="7.913067741299798"><ele>433.99999999999994</ele><time>2026-04-10T15:10:02.972Z</time></trkpt><trkpt lat="45.50365738689074" lon="7.913083974931896"><ele>434.0</ele><time>2026-04-10T15:10:03.972Z</time></trkpt><trkpt lat="45.50373147907204" lon="7.913076283011599"><ele>434.0</ele><time>2026-04-10T15:10:04.972Z</time></trkpt><trkpt lat="45.5037999460763" lon="7.913046102199726"><ele>434.0</ele><time>2026-04-10T15:10:05.972Z</time></trkpt><trkpt lat="45.50388002341926" lon="7.912994059495223"><ele>433.99999999999994</ele><time>2026-04-10T15:10:06.972Z</time></trkpt><trkpt lat="45.503965231092366" lon="7.912969024714735"><ele>434.0</ele><time>2026-04-10T15:10:07.972Z</time></trkpt><trkpt lat="45.50405095373103" lon="7.912929054509679"><ele>435.6</ele><time>2026-04-10T15:10:08.972Z</time></trkpt><trkpt lat="45.504142925673264" lon="7.912878647756243"><ele>437.2</ele><time>2026-04-10T15:10:09.972Z</time></trkpt><trkpt lat="45.504226391619824" lon="7.912820035604115"><ele>438.80000000000007</ele><time>2026-04-10T15:10:10.972Z</time></trkpt><trkpt lat="45.50435184407367" lon="7.912725658003692"><ele>440.40000000000003</ele><time>2026-04-10T15:10:12.972Z</time></trkpt><trkpt lat="45.5044310535148" lon="7.912637106641464"><ele>442.0</ele><time>2026-04-10T15:10:13.972Z</time></trkpt><trkpt lat="45.50450961633726" lon="7.9125595039023615"><ele>448.40000000000003</ele><time>2026-04-10T15:10:14.972Z</time></trkpt><trkpt lat="45.5045921794594" lon="7.912461713942568"><ele>454.80000000000007</ele><time>2026-04-10T15:10:15.972Z</time></trkpt><trkpt lat="45.50468414247098" lon="7.9124000177207385"><ele>461.2</ele><time>2026-04-10T15:10:16.972Z</time></trkpt><trkpt lat="45.50475386000764" lon="7.912347272620027"><ele>467.6</ele><time>2026-04-10T15:10:17.972Z</time></trkpt><trkpt lat="45.504834737940335" lon="7.912279598281153"><ele>474.0</ele><time>2026-04-10T15:10:18.972Z</time></trkpt><trkpt lat="45.504921619548824" lon="7.91220654354571"><ele>474.0</ele><time>2026-04-10T15:10:19.972Z</time></trkpt><trkpt lat="45.505020615681595" lon="7.91210357082437"><ele>474.0</ele><time>2026-04-10T15:10:20.972Z</time></trkpt><trkpt lat="45.505107540923" lon="7.911985924251759"><ele>474.0</ele><time>2026-04-10T15:10:21.972Z</time></trkpt><trkpt lat="45.50519787922352" lon="7.9118660879681535"><ele>474.0</ele><time>2026-04-10T15:10:22.972Z</time></trkpt><trkpt lat="45.50526400282765" lon="7.9117825989650825"><ele>476.3333333333333</ele><time>2026-04-10T15:10:23.972Z</time></trkpt><trkpt lat="45.50534184397847" lon="7.911714018592378"><ele>478.66666666666663</ele><time>2026-04-10T15:10:24.972Z</time></trkpt><trkpt lat="45.505418484291944" lon="7.911627041902522"><ele>481.0</ele><time>2026-04-10T15:10:25.972Z</time></trkpt><trkpt lat="45.505486212609135" lon="7.911566215322716"><ele>483.3333333333333</ele><time>2026-04-10T15:10:26.972Z</time></trkpt><trkpt lat="45.50557776320683" lon="7.911519612562659"><ele>485.66666666666663</ele><time>2026-04-10T15:10:28.972Z</time></trkpt><trkpt lat="45.505593285482256" lon="7.911625585667059"><ele>488.0</ele><time>2026-04-10T15:10:31.972Z</time></trkpt><trkpt lat="45.50553757801636" lon="7.911771801598518"><ele>485.2</ele><time>2026-04-10T15:10:33.972Z</time></trkpt><trkpt lat="45.505496631029956" lon="7.911882013979422"><ele>482.4</ele><time>2026-04-10T15:10:34.972Z</time></trkpt><trkpt lat="45.50545552811913" lon="7.911983930641801"><ele>479.59999999999997</ele><time>2026-04-10T15:10:36.972Z</time></trkpt><trkpt lat="45.50539170306731" lon="7.9120839371653275"><ele>476.79999999999995</ele><time>2026-04-10T15:10:40.972Z</time></trkpt><trkpt lat="45.50536734512045" lon="7.912235190178161"><ele>474.0</ele><time>2026-04-10T15:10:41.972Z</time></trkpt><trkpt lat="45.50534619827262" lon="7.91237281521941"><ele>474.0</ele><time>2026-04-10T15:10:42.972Z</time></trkpt><trkpt lat="45.505316972286685" lon="7.912492939064878"><ele>474.0</ele><time>2026-04-10T15:10:43.972Z</time></trkpt><trkpt lat="45.5053020020027" lon="7.912619715600955"><ele>474.0</ele><time>2026-04-10T15:10:44.972Z</time></trkpt><trkpt lat="45.50527976078224" lon="7.912746004397251"><ele>474.0</ele><time>2026-04-10T15:10:45.972Z</time></trkpt><trkpt lat="45.50526010855304" lon="7.912906322306371"><ele>474.0</ele><time>2026-04-10T15:10:46.972Z</time></trkpt><trkpt lat="45.50522556758539" lon="7.91307058474549"><ele>478.6666666666667</ele><time>2026-04-10T15:10:47.972Z</time></trkpt><trkpt lat="45.50520198354065" lon="7.913208481882118"><ele>483.33333333333337</ele><time>2026-04-10T15:10:48.973Z</time></trkpt><trkpt lat="45.505173735389626" lon="7.913320225751576"><ele>488.0</ele><time>2026-04-10T15:10:49.973Z</time></trkpt><trkpt lat="45.50512547211968" lon="7.913433619517369"><ele>492.6666666666667</ele><time>2026-04-10T15:10:50.973Z</time></trkpt><trkpt lat="45.50509116618338" lon="7.913549712563082"><ele>497.33333333333337</ele><time>2026-04-10T15:10:51.973Z</time></trkpt><trkpt lat="45.505052610445745" lon="7.913644210006368"><ele>502.0</ele><time>2026-04-10T15:10:52.974Z</time></trkpt><trkpt lat="45.50510165326292" lon="7.913763969484487"><ele>505.00000000000006</ele><time>2026-04-10T15:10:55.974Z</time></trkpt><trkpt lat="45.50517256082491" lon="7.913876783184455"><ele>508.0</ele><time>2026-04-10T15:10:57.975Z</time></trkpt><trkpt lat="45.50523637992243" lon="7.913942193424032"><ele>511.0</ele><time>2026-04-10T15:10:59.975Z</time></trkpt><trkpt lat="45.50523659838051" lon="7.914056834644221"><ele>514.0</ele><time>2026-04-10T15:11:01.975Z</time></trkpt><trkpt lat="45.50523861124417" lon="7.914167319913547"><ele>517.0</ele><time>2026-04-10T15:11:03.975Z</time></trkpt><trkpt lat="45.50523565440248" lon="7.914257360583056"><ele>520.0</ele><time>2026-04-10T15:11:07.974Z</time></trkpt><trkpt lat="45.505194707770926" lon="7.914329507518819"><ele>521.0000000000001</ele><time>2026-04-10T15:11:40.974Z</time></trkpt><trkpt lat="45.505196143171666" lon="7.914421593149317"><ele>522.0</ele><time>2026-04-10T15:11:45.975Z</time></trkpt><trkpt lat="45.50526052424014" lon="7.914507454469804"><ele>523.0</ele><time>2026-04-10T15:11:49.975Z</time></trkpt><trkpt lat="45.50530392478608" lon="7.914589544591868"><ele>524.0</ele><time>2026-04-10T15:11:53.975Z</time></trkpt><trkpt lat="45.505362730969985" lon="7.914641419631835"><ele>525.0</ele><time>2026-04-10T15:11:56.975Z</time></trkpt><trkpt lat="45.50542518866823" lon="7.914689929293154"><ele>526.0000000000001</ele><time>2026-04-10T15:11:58.975Z</time></trkpt><trkpt lat="45.505491486366445" lon="7.914731749185478"><ele>527.0</ele><time>2026-04-10T15:12:03.975Z</time></trkpt><trkpt lat="45.50553819674311" lon="7.914808221121778"><ele>529.0</ele><time>2026-04-10T15:12:10.975Z</time></trkpt><trkpt lat="45.50554852360838" lon="7.914899533528445"><ele>531.0</ele><time>2026-04-10T15:12:14.975Z</time></trkpt><trkpt lat="45.505549383370045" lon="7.915023195891163"><ele>533.0</ele><time>2026-04-10T15:12:18.975Z</time></trkpt><trkpt lat="45.505566907584964" lon="7.915136878846065"><ele>535.0</ele><time>2026-04-10T15:12:22.975Z</time></trkpt><trkpt lat="45.505571332258995" lon="7.915246998149767"><ele>537.0</ele><time>2026-04-10T15:12:25.975Z</time></trkpt><trkpt lat="45.5056228659887" lon="7.915374924169827"><ele>539.0</ele><time>2026-04-10T15:12:28.975Z</time></trkpt><trkpt lat="45.50565692699691" lon="7.9154756286550425"><ele>539.6</ele><time>2026-04-10T15:12:30.975Z</time></trkpt><trkpt lat="45.50571275952708" lon="7.915602042448979"><ele>540.2</ele><time>2026-04-10T15:12:32.975Z</time></trkpt><trkpt lat="45.50576536781828" lon="7.915712885195737"><ele>540.8000000000001</ele><time>2026-04-10T15:12:34.975Z</time></trkpt><trkpt lat="45.50579062586976" lon="7.915857228620101"><ele>541.4</ele><time>2026-04-10T15:12:36.975Z</time></trkpt><trkpt lat="45.50582665744975" lon="7.9159721388531885"><ele>542.0</ele><time>2026-04-10T15:12:38.975Z</time></trkpt><trkpt lat="45.505895554771634" lon="7.916085579387524"><ele>543.5714285714286</ele><time>2026-04-10T15:12:40.975Z</time></trkpt><trkpt lat="45.505951329445054" lon="7.916213117248943"><ele>545.1428571428571</ele><time>2026-04-10T15:12:43.975Z</time></trkpt><trkpt lat="45.50597843271413" lon="7.916301013615962"><ele>546.7142857142858</ele><time>2026-04-10T15:12:48.975Z</time></trkpt><trkpt lat="45.50601725685149" lon="7.916383147683691"><ele>548.2857142857142</ele><time>2026-04-10T15:12:58.975Z</time></trkpt><trkpt lat="45.506076658779634" lon="7.916414432982449"><ele>549.8571428571429</ele><time>2026-04-10T15:13:03.975Z</time></trkpt><trkpt lat="45.5061413643671" lon="7.9164597927553855"><ele>551.4285714285714</ele><time>2026-04-10T15:13:11.975Z</time></trkpt><trkpt lat="45.506196539474864" lon="7.916525007654221"><ele>553.0</ele><time>2026-04-10T15:13:16.973Z</time></trkpt><trkpt lat="45.50625060934357" lon="7.916602128554346"><ele>558.0</ele><time>2026-04-10T15:13:20.973Z</time></trkpt><trkpt lat="45.50630675894888" lon="7.916667659236583"><ele>563.0</ele><time>2026-04-10T15:13:24.973Z</time></trkpt><trkpt lat="45.50637424796681" lon="7.916785132526838"><ele>568.0</ele><time>2026-04-10T15:13:50.973Z</time></trkpt><trkpt lat="45.50636398331407" lon="7.916886692305638"><ele>573.0</ele><time>2026-04-10T15:14:09.973Z</time></trkpt><trkpt lat="45.50642939758336" lon="7.916870024116235"><ele>578.0</ele><time>2026-04-10T15:18:35.969Z</time></trkpt><trkpt lat="45.50635632529161" lon="7.916845665652799"><ele>583.0</ele><time>2026-04-10T15:18:53.969Z</time></trkpt><trkpt lat="45.506282900451005" lon="7.916796386578555"><ele>583.0000000000001</ele><time>2026-04-10T15:19:10.969Z</time></trkpt><trkpt lat="45.50625907245347" lon="7.916710533024363"><ele>583.0</ele><time>2026-04-10T15:19:15.969Z</time></trkpt><trkpt lat="45.506212323027654" lon="7.9166379298769485"><ele>583.0</ele><time>2026-04-10T15:19:21.969Z</time></trkpt><trkpt lat="45.50616124189744" lon="7.916562595870525"><ele>583.0</ele><time>2026-04-10T15:19:25.969Z</time></trkpt><trkpt lat="45.50610633259686" lon="7.916488715656848"><ele>583.0</ele><time>2026-04-10T15:19:29.969Z</time></trkpt><trkpt lat="45.50605545606976" lon="7.91641520410712"><ele>583.0000000000001</ele><time>2026-04-10T15:19:32.967Z</time></trkpt><trkpt lat="45.50599134977334" lon="7.916384162901831"><ele>583.0</ele><time>2026-04-10T15:19:35.966Z</time></trkpt><trkpt lat="45.50592929357395" lon="7.916405904171451"><ele>578.7142857142858</ele><time>2026-04-10T15:19:39.967Z</time></trkpt><trkpt lat="45.50585715778972" lon="7.916422861297876"><ele>574.4285714285714</ele><time>2026-04-10T15:19:45.966Z</time></trkpt><trkpt lat="45.50580378964958" lon="7.91637239949886"><ele>570.1428571428571</ele><time>2026-04-10T15:19:49.966Z</time></trkpt><trkpt lat="45.50573943721313" lon="7.916407267629685"><ele>565.8571428571429</ele><time>2026-04-10T15:19:54.966Z</time></trkpt><trkpt lat="45.50567298322663" lon="7.916418157637555"><ele>561.5714285714286</ele><time>2026-04-10T15:20:02.966Z</time></trkpt><trkpt lat="45.505601198149556" lon="7.916440512661708"><ele>557.2857142857143</ele><time>2026-04-10T15:20:06.966Z</time></trkpt><trkpt lat="45.50552816582566" lon="7.916458577315042"><ele>553.0</ele><time>2026-04-10T15:20:09.966Z</time></trkpt><trkpt lat="45.5054427955698" lon="7.916479484762223"><ele>551.2857142857143</ele><time>2026-04-10T15:20:12.966Z</time></trkpt><trkpt lat="45.50537690534334" lon="7.9164895210871045"><ele>549.5714285714286</ele><time>2026-04-10T15:20:15.966Z</time></trkpt><trkpt lat="45.505323114970814" lon="7.916555510715513"><ele>547.8571428571429</ele><time>2026-04-10T15:20:19.966Z</time></trkpt><trkpt lat="45.505296927731116" lon="7.916639187319004"><ele>546.1428571428571</ele><time>2026-04-10T15:20:21.966Z</time></trkpt><trkpt lat="45.50527120854835" lon="7.916734686665162"><ele>544.4285714285714</ele><time>2026-04-10T15:20:23.966Z</time></trkpt><trkpt lat="45.505261013112765" lon="7.916845500894351"><ele>542.7142857142858</ele><time>2026-04-10T15:20:25.966Z</time></trkpt><trkpt lat="45.5052493788363" lon="7.916975983540513"><ele>541.0</ele><time>2026-04-10T15:20:27.966Z</time></trkpt><trkpt lat="45.505228278919596" lon="7.917078878839193"><ele>541.0</ele><time>2026-04-10T15:20:28.966Z</time></trkpt><trkpt lat="45.50520973361857" lon="7.917230409717582"><ele>541.0</ele><time>2026-04-10T15:20:30.966Z</time></trkpt><trkpt lat="45.505156371859634" lon="7.917369236282276"><ele>541.0</ele><time>2026-04-10T15:20:32.966Z</time></trkpt><trkpt lat="45.505119862590576" lon="7.917459082300054"><ele>541.0</ele><time>2026-04-10T15:20:33.966Z</time></trkpt><trkpt lat="45.505100757078786" lon="7.917582892469714"><ele>541.0</ele><time>2026-04-10T15:20:35.966Z</time></trkpt><trkpt lat="45.50509638835811" lon="7.917759170091747"><ele>542.4285714285714</ele><time>2026-04-10T15:20:37.966Z</time></trkpt><trkpt lat="45.50508604153077" lon="7.917860096135108"><ele>543.8571428571429</ele><time>2026-04-10T15:20:38.966Z</time></trkpt><trkpt lat="45.50506004591335" lon="7.917959251617363"><ele>545.2857142857142</ele><time>2026-04-10T15:20:39.966Z</time></trkpt><trkpt lat="45.505035297432784" lon="7.91805944327237"><ele>546.7142857142858</ele><time>2026-04-10T15:20:40.966Z</time></trkpt><trkpt lat="45.50502111916243" lon="7.918160139596154"><ele>548.1428571428571</ele><time>2026-04-10T15:20:41.966Z</time></trkpt><trkpt lat="45.50502117118324" lon="7.9182570249510595"><ele>549.5714285714286</ele><time>2026-04-10T15:20:42.966Z</time></trkpt><trkpt lat="45.50500674961281" lon="7.918367317717312"><ele>551.0</ele><time>2026-04-10T15:20:43.966Z</time></trkpt><trkpt lat="45.50497189233166" lon="7.918450143118521"><ele>553.1666666666666</ele><time>2026-04-10T15:20:44.966Z</time></trkpt><trkpt lat="45.50491788640544" lon="7.918570355107764"><ele>555.3333333333333</ele><time>2026-04-10T15:20:45.966Z</time></trkpt><trkpt lat="45.50487159800767" lon="7.918699647852026"><ele>557.5</ele><time>2026-04-10T15:20:46.966Z</time></trkpt><trkpt lat="45.5048179131889" lon="7.918789706510511"><ele>559.6666666666666</ele><time>2026-04-10T15:20:47.966Z</time></trkpt><trkpt lat="45.5047689449651" lon="7.918876292724356"><ele>561.8333333333334</ele><time>2026-04-10T15:20:48.966Z</time></trkpt><trkpt lat="45.50474374650723" lon="7.918959913011278"><ele>564.0</ele><time>2026-04-10T15:20:49.966Z</time></trkpt><trkpt lat="45.50473759358741" lon="7.919054274355094"><ele>564.0</ele><time>2026-04-10T15:20:50.966Z</time></trkpt><trkpt lat="45.504736987473905" lon="7.919174925144885"><ele>564.0</ele><time>2026-04-10T15:20:51.966Z</time></trkpt><trkpt lat="45.50474355559447" lon="7.91926861433268"><ele>564.0</ele><time>2026-04-10T15:20:52.966Z</time></trkpt><trkpt lat="45.504738003854676" lon="7.919409410910063"><ele>564.0</ele><time>2026-04-10T15:20:54.966Z</time></trkpt><trkpt lat="45.50468847036435" lon="7.919528753141643"><ele>564.0</ele><time>2026-04-10T15:20:56.966Z</time></trkpt><trkpt lat="45.50465439962435" lon="7.919617969982843"><ele>564.0</ele><time>2026-04-10T15:21:00.966Z</time></trkpt><trkpt lat="45.50461811811285" lon="7.919692118425284"><ele>564.6666666666666</ele><time>2026-04-10T15:21:09.967Z</time></trkpt><trkpt lat="45.504548651167795" lon="7.919731694565078"><ele>565.3333333333334</ele><time>2026-04-10T15:21:11.967Z</time></trkpt><trkpt lat="45.50448591501105" lon="7.919809183780482"><ele>566.0</ele><time>2026-04-10T15:21:13.967Z</time></trkpt><trkpt lat="45.50446961076365" lon="7.919912040923018"><ele>566.6666666666667</ele><time>2026-04-10T15:21:15.967Z</time></trkpt><trkpt lat="45.50449428832107" lon="7.920052502049967"><ele>567.3333333333334</ele><time>2026-04-10T15:21:17.967Z</time></trkpt><trkpt lat="45.50450910197537" lon="7.920177323100646"><ele>568.0</ele><time>2026-04-10T15:21:19.967Z</time></trkpt><trkpt lat="45.50454552591598" lon="7.920317777693593"><ele>568.0</ele><time>2026-04-10T15:21:21.967Z</time></trkpt><trkpt lat="45.50455584194505" lon="7.920431289767314"><ele>568.0</ele><time>2026-04-10T15:21:22.967Z</time></trkpt><trkpt lat="45.50453796229812" lon="7.92057505121964"><ele>568.0</ele><time>2026-04-10T15:21:24.967Z</time></trkpt><trkpt lat="45.5045020281357" lon="7.920653437133993"><ele>568.0</ele><time>2026-04-10T15:21:26.967Z</time></trkpt><trkpt lat="45.50444696858133" lon="7.920729510648912"><ele>568.0</ele><time>2026-04-10T15:21:29.967Z</time></trkpt><trkpt lat="45.504414218695175" lon="7.920809658971621"><ele>568.0</ele><time>2026-04-10T15:21:36.964Z</time></trkpt><trkpt lat="45.50434512748175" lon="7.920862298834758"><ele>568.0</ele><time>2026-04-10T15:21:42.964Z</time></trkpt><trkpt lat="45.50422730869755" lon="7.920858589588533"><ele>568.0</ele><time>2026-04-10T15:21:44.964Z</time></trkpt><trkpt lat="45.50414789232004" lon="7.920869731868696"><ele>568.0</ele><time>2026-04-10T15:21:45.964Z</time></trkpt><trkpt lat="45.504085379794475" lon="7.920908291685761"><ele>568.0</ele><time>2026-04-10T15:21:46.964Z</time></trkpt><trkpt lat="45.504012631562276" lon="7.920972238562333"><ele>568.0</ele><time>2026-04-10T15:21:47.964Z</time></trkpt><trkpt lat="45.503977939342626" lon="7.921072419445155"><ele>568.0</ele><time>2026-04-10T15:21:48.964Z</time></trkpt><trkpt lat="45.50396427118606" lon="7.921166866580538"><ele>574.0</ele><time>2026-04-10T15:21:49.964Z</time></trkpt><trkpt lat="45.50395634663574" lon="7.921293629963427"><ele>580.0</ele><time>2026-04-10T15:21:50.964Z</time></trkpt><trkpt lat="45.5038681076543" lon="7.92146135757926"><ele>586.0</ele><time>2026-04-10T15:21:52.964Z</time></trkpt><trkpt lat="45.503811862617006" lon="7.921611397801905"><ele>592.0</ele><time>2026-04-10T15:21:54.964Z</time></trkpt><trkpt lat="45.50376741461646" lon="7.921772274002499"><ele>590.3333333333334</ele><time>2026-04-10T15:21:56.964Z</time></trkpt><trkpt lat="45.50372713037464" lon="7.921868073343883"><ele>588.6666666666667</ele><time>2026-04-10T15:21:57.964Z</time></trkpt><trkpt lat="45.50369349534223" lon="7.921964875172171"><ele>587.0</ele><time>2026-04-10T15:21:58.964Z</time></trkpt><trkpt lat="45.50365702801112" lon="7.9220654021556065"><ele>585.3333333333334</ele><time>2026-04-10T15:21:59.964Z</time></trkpt><trkpt lat="45.50364129421687" lon="7.922179610550871"><ele>583.6666666666666</ele><time>2026-04-10T15:22:00.964Z</time></trkpt><trkpt lat="45.50360359948566" lon="7.922271987903423"><ele>582.0</ele><time>2026-04-10T15:22:01.964Z</time></trkpt><trkpt lat="45.503550664413055" lon="7.92236497228306"><ele>582.0</ele><time>2026-04-10T15:22:02.964Z</time></trkpt><trkpt lat="45.50350739269412" lon="7.922469056144255"><ele>582.0</ele><time>2026-04-10T15:22:03.964Z</time></trkpt><trkpt lat="45.50346908079546" lon="7.922560778488184"><ele>582.0</ele><time>2026-04-10T15:22:04.964Z</time></trkpt><trkpt lat="45.50343270693593" lon="7.922653199187379"><ele>582.0</ele><time>2026-04-10T15:22:05.964Z</time></trkpt><trkpt lat="45.50340593532511" lon="7.922774209206067"><ele>582.0</ele><time>2026-04-10T15:22:06.964Z</time></trkpt><trkpt lat="45.50336544729094" lon="7.922863602302303"><ele>582.0</ele><time>2026-04-10T15:22:07.964Z</time></trkpt><trkpt lat="45.5033127702599" lon="7.922947439251803"><ele>585.8333333333334</ele><time>2026-04-10T15:22:08.964Z</time></trkpt><trkpt lat="45.503267670843584" lon="7.923034072259232"><ele>589.6666666666666</ele><time>2026-04-10T15:22:09.964Z</time></trkpt><trkpt lat="45.50323613786309" lon="7.923188803924224"><ele>593.5</ele><time>2026-04-10T15:22:11.964Z</time></trkpt><trkpt lat="45.503207337739845" lon="7.923271045383444"><ele>597.3333333333333</ele><time>2026-04-10T15:22:12.964Z</time></trkpt><trkpt lat="45.50316862394469" lon="7.923360662464758"><ele>601.1666666666666</ele><time>2026-04-10T15:22:13.964Z</time></trkpt><trkpt lat="45.50310498016329" lon="7.923439564784077"><ele>605.0</ele><time>2026-04-10T15:22:14.964Z</time></trkpt><trkpt lat="45.50304933802389" lon="7.923558286919687"><ele>601.6666666666666</ele><time>2026-04-10T15:22:16.964Z</time></trkpt><trkpt lat="45.50304372421405" lon="7.923654536696847"><ele>598.3333333333333</ele><time>2026-04-10T15:22:17.964Z</time></trkpt><trkpt lat="45.50299398428986" lon="7.923806253163388"><ele>595.0</ele><time>2026-04-10T15:22:19.964Z</time></trkpt><trkpt lat="45.50296452823974" lon="7.9239007242876385"><ele>591.6666666666666</ele><time>2026-04-10T15:22:20.964Z</time></trkpt><trkpt lat="45.50292828174792" lon="7.924058097855077"><ele>588.3333333333334</ele><time>2026-04-10T15:22:22.964Z</time></trkpt><trkpt lat="45.502889321359525" lon="7.92414329101112"><ele>585.0</ele><time>2026-04-10T15:22:23.964Z</time></trkpt><trkpt lat="45.502823340769694" lon="7.9242274320754245"><ele>588.6666666666666</ele><time>2026-04-10T15:22:24.964Z</time></trkpt><trkpt lat="45.50278671002771" lon="7.924308738652645"><ele>592.3333333333334</ele><time>2026-04-10T15:22:25.964Z</time></trkpt><trkpt lat="45.50272671234141" lon="7.924407802516405"><ele>596.0</ele><time>2026-04-10T15:22:26.964Z</time></trkpt><trkpt lat="45.5027994814463" lon="7.924496952592555"><ele>599.6666666666667</ele><time>2026-04-10T15:22:28.964Z</time></trkpt><trkpt lat="45.50276658188882" lon="7.924573797567748"><ele>603.3333333333334</ele><time>2026-04-10T15:22:29.964Z</time></trkpt><trkpt lat="45.50274665374962" lon="7.924690556473508"><ele>607.0</ele><time>2026-04-10T15:22:30.964Z</time></trkpt><trkpt lat="45.50276237369775" lon="7.924811071639378"><ele>607.0</ele><time>2026-04-10T15:22:32.964Z</time></trkpt><trkpt lat="45.50267869264906" lon="7.92494054785809"><ele>607.0</ele><time>2026-04-10T15:22:34.964Z</time></trkpt><trkpt lat="45.50263139809783" lon="7.925002450157786"><ele>607.0</ele><time>2026-04-10T15:22:35.964Z</time></trkpt><trkpt lat="45.502559278279804" lon="7.925041106225212"><ele>607.0</ele><time>2026-04-10T15:22:36.964Z</time></trkpt><trkpt lat="45.502512103084705" lon="7.9251287831305595"><ele>607.0</ele><time>2026-04-10T15:22:38.964Z</time></trkpt><trkpt lat="45.502498716424796" lon="7.9252334257695525"><ele>607.0</ele><time>2026-04-10T15:22:39.964Z</time></trkpt><trkpt lat="45.50246082417596" lon="7.925331276005447"><ele>611.0</ele><time>2026-04-10T15:22:40.964Z</time></trkpt><trkpt lat="45.50242041796846" lon="7.925421155186457"><ele>615.0</ele><time>2026-04-10T15:22:41.964Z</time></trkpt><trkpt lat="45.50238594285338" lon="7.925517081417745"><ele>619.0</ele><time>2026-04-10T15:22:42.964Z</time></trkpt><trkpt lat="45.50234730793406" lon="7.925635501655798"><ele>623.0</ele><time>2026-04-10T15:22:43.964Z</time></trkpt><trkpt lat="45.50230230560625" lon="7.925734391943784"><ele>627.0</ele><time>2026-04-10T15:22:44.964Z</time></trkpt><trkpt lat="45.50226195449889" lon="7.925826176979231"><ele>631.0</ele><time>2026-04-10T15:22:45.964Z</time></trkpt><trkpt lat="45.50222166751027" lon="7.925950134128595"><ele>628.1666666666667</ele><time>2026-04-10T15:22:46.964Z</time></trkpt><trkpt lat="45.50218405039748" lon="7.926093004958077"><ele>625.3333333333334</ele><time>2026-04-10T15:22:47.964Z</time></trkpt><trkpt lat="45.50215351537154" lon="7.926196900808431"><ele>622.5</ele><time>2026-04-10T15:22:48.964Z</time></trkpt><trkpt lat="45.502114834544194" lon="7.926290465418227"><ele>619.6666666666666</ele><time>2026-04-10T15:22:49.964Z</time></trkpt><trkpt lat="45.50206970007975" lon="7.926425922378129"><ele>616.8333333333333</ele><time>2026-04-10T15:22:50.964Z</time></trkpt><trkpt lat="45.502045657554426" lon="7.926513704299376"><ele>614.0</ele><time>2026-04-10T15:22:51.964Z</time></trkpt><trkpt lat="45.50198679084461" lon="7.9266033531145235"><ele>614.0</ele><time>2026-04-10T15:22:52.964Z</time></trkpt><trkpt lat="45.501943609791034" lon="7.926710810876167"><ele>614.0</ele><time>2026-04-10T15:22:53.964Z</time></trkpt><trkpt lat="45.50185683092931" lon="7.926830947216753"><ele>614.0</ele><time>2026-04-10T15:22:55.964Z</time></trkpt><trkpt lat="45.501804038731926" lon="7.926975525388098"><ele>614.0</ele><time>2026-04-10T15:22:57.964Z</time></trkpt><trkpt lat="45.50174202956567" lon="7.927106672892149"><ele>614.0</ele><time>2026-04-10T15:22:59.964Z</time></trkpt><trkpt lat="45.50169574828254" lon="7.927171173622985"><ele>619.0</ele><time>2026-04-10T15:23:00.964Z</time></trkpt><trkpt lat="45.50165052499456" lon="7.927239318563818"><ele>624.0</ele><time>2026-04-10T15:23:01.964Z</time></trkpt><trkpt lat="45.501607139663655" lon="7.927417625182298"><ele>629.0</ele><time>2026-04-10T15:23:03.964Z</time></trkpt><trkpt lat="45.501590506194255" lon="7.927513402653212"><ele>634.0</ele><time>2026-04-10T15:23:04.964Z</time></trkpt><trkpt lat="45.5015756255475" lon="7.927655650637096"><ele>639.0</ele><time>2026-04-10T15:23:05.964Z</time></trkpt><trkpt lat="45.50154928971722" lon="7.927778169278557"><ele>642.1666666666666</ele><time>2026-04-10T15:23:06.964Z</time></trkpt><trkpt lat="45.50149794853984" lon="7.927894557333963"><ele>645.3333333333334</ele><time>2026-04-10T15:23:07.964Z</time></trkpt><trkpt lat="45.50143768904552" lon="7.928001642176509"><ele>648.5</ele><time>2026-04-10T15:23:08.964Z</time></trkpt><trkpt lat="45.50139154938275" lon="7.928115965569044"><ele>651.6666666666667</ele><time>2026-04-10T15:23:09.964Z</time></trkpt><trkpt lat="45.501357484789" lon="7.928198486528897"><ele>654.8333333333334</ele><time>2026-04-10T15:23:10.964Z</time></trkpt><trkpt lat="45.501329009954674" lon="7.928308420290249"><ele>658.0</ele><time>2026-04-10T15:23:11.964Z</time></trkpt><trkpt lat="45.50129410480971" lon="7.928435955687873"><ele>655.0</ele><time>2026-04-10T15:23:12.964Z</time></trkpt><trkpt lat="45.50123046417952" lon="7.928614471896541"><ele>652.0</ele><time>2026-04-10T15:23:14.964Z</time></trkpt><trkpt lat="45.501128762395204" lon="7.928786646843455"><ele>649.0</ele><time>2026-04-10T15:23:16.964Z</time></trkpt><trkpt lat="45.501093460065526" lon="7.928887325340088"><ele>646.0</ele><time>2026-04-10T15:23:17.964Z</time></trkpt><trkpt lat="45.501062656145436" lon="7.92899597670662"><ele>646.0</ele><time>2026-04-10T15:23:18.964Z</time></trkpt><trkpt lat="45.50098067934286" lon="7.9291921416318045"><ele>646.0</ele><time>2026-04-10T15:23:20.964Z</time></trkpt><trkpt lat="45.50091889570483" lon="7.929312736667538"><ele>646.0</ele><time>2026-04-10T15:23:21.964Z</time></trkpt><trkpt lat="45.500878436094254" lon="7.929414807679896"><ele>646.0</ele><time>2026-04-10T15:23:22.964Z</time></trkpt><trkpt lat="45.500842057331305" lon="7.929501763015404"><ele>646.0</ele><time>2026-04-10T15:23:23.964Z</time></trkpt><trkpt lat="45.500801441094815" lon="7.929600140641281"><ele>648.6666666666667</ele><time>2026-04-10T15:23:24.964Z</time></trkpt><trkpt lat="45.50075299544536" lon="7.929705994655545"><ele>651.3333333333334</ele><time>2026-04-10T15:23:25.964Z</time></trkpt><trkpt lat="45.50071213621895" lon="7.929814817577457"><ele>654.0</ele><time>2026-04-10T15:23:26.964Z</time></trkpt><trkpt lat="45.50066891675125" lon="7.929921636252524"><ele>656.6666666666666</ele><time>2026-04-10T15:23:27.964Z</time></trkpt><trkpt lat="45.50063823799603" lon="7.930032825279198"><ele>659.3333333333333</ele><time>2026-04-10T15:23:28.964Z</time></trkpt><trkpt lat="45.5006082544783" lon="7.930140211662579"><ele>662.0</ele><time>2026-04-10T15:23:29.964Z</time></trkpt><trkpt lat="45.50060123187302" lon="7.930272884285403"><ele>663.5</ele><time>2026-04-10T15:23:31.964Z</time></trkpt><trkpt lat="45.500645422764215" lon="7.930362617760655"><ele>665.0</ele><time>2026-04-10T15:23:33.964Z</time></trkpt><trkpt lat="45.500689259102316" lon="7.930427687929855"><ele>666.5</ele><time>2026-04-10T15:23:36.964Z</time></trkpt><trkpt lat="45.50069216837576" lon="7.930546639837741"><ele>668.0</ele><time>2026-04-10T15:23:59.962Z</time></trkpt><trkpt lat="45.50068175383064" lon="7.930673363879951"><ele>669.5</ele><time>2026-04-10T15:24:01.962Z</time></trkpt><trkpt lat="45.50061726217252" lon="7.9308181949213825"><ele>671.0</ele><time>2026-04-10T15:24:03.962Z</time></trkpt><trkpt lat="45.50053093070324" lon="7.930881045161566"><ele>672.3333333333333</ele><time>2026-04-10T15:24:04.962Z</time></trkpt><trkpt lat="45.50045258547527" lon="7.930942459102782"><ele>673.6666666666666</ele><time>2026-04-10T15:24:05.962Z</time></trkpt><trkpt lat="45.500398495123385" lon="7.931020838889956"><ele>675.0</ele><time>2026-04-10T15:24:06.962Z</time></trkpt><trkpt lat="45.500348197147886" lon="7.931114588923857"><ele>676.3333333333334</ele><time>2026-04-10T15:24:07.962Z</time></trkpt><trkpt lat="45.5003106726705" lon="7.931188184714007"><ele>677.6666666666667</ele><time>2026-04-10T15:24:08.962Z</time></trkpt><trkpt lat="45.500283965078395" lon="7.931282421313591"><ele>679.0</ele><time>2026-04-10T15:24:09.962Z</time></trkpt><trkpt lat="45.50027866086303" lon="7.93137909526511"><ele>674.4000000000001</ele><time>2026-04-10T15:24:10.962Z</time></trkpt><trkpt lat="45.50028501973696" lon="7.931496548572157"><ele>669.8</ele><time>2026-04-10T15:24:11.962Z</time></trkpt><trkpt lat="45.50029072307662" lon="7.931614941441166"><ele>665.2</ele><time>2026-04-10T15:24:12.962Z</time></trkpt><trkpt lat="45.50026015137689" lon="7.931765435849315"><ele>660.5999999999999</ele><time>2026-04-10T15:24:14.962Z</time></trkpt><trkpt lat="45.50021122297394" lon="7.9318652220201935"><ele>656.0</ele><time>2026-04-10T15:24:16.962Z</time></trkpt><trkpt lat="45.50017207570884" lon="7.932000102578337"><ele>656.0</ele><time>2026-04-10T15:24:19.962Z</time></trkpt><trkpt lat="45.5001479197042" lon="7.932105586746637"><ele>656.0</ele><time>2026-04-10T15:24:20.962Z</time></trkpt><trkpt lat="45.500086386582694" lon="7.932237698942527"><ele>656.0</ele><time>2026-04-10T15:24:22.962Z</time></trkpt><trkpt lat="45.500039407033185" lon="7.932418686255208"><ele>656.0</ele><time>2026-04-10T15:24:24.962Z</time></trkpt><trkpt lat="45.50001237218553" lon="7.9325081437673495"><ele>656.0</ele><time>2026-04-10T15:24:25.962Z</time></trkpt><trkpt lat="45.49996791653876" lon="7.932581079762574"><ele>658.8</ele><time>2026-04-10T15:24:26.962Z</time></trkpt><trkpt lat="45.49992562879331" lon="7.932655690814376"><ele>661.5999999999999</ele><time>2026-04-10T15:24:27.962Z</time></trkpt><trkpt lat="45.499852662221265" lon="7.93278725374002"><ele>664.4</ele><time>2026-04-10T15:24:29.962Z</time></trkpt><trkpt lat="45.49980948967494" lon="7.932891060368393"><ele>667.2</ele><time>2026-04-10T15:24:30.962Z</time></trkpt><trkpt lat="45.499773050395504" lon="7.9329793823914745"><ele>670.0</ele><time>2026-04-10T15:24:31.962Z</time></trkpt><trkpt lat="45.49969292801305" lon="7.93316291769571"><ele>670.0</ele><time>2026-04-10T15:24:33.962Z</time></trkpt><trkpt lat="45.4996467709723" lon="7.933270040736795"><ele>670.0</ele><time>2026-04-10T15:24:34.962Z</time></trkpt><trkpt lat="45.49960797311399" lon="7.933385546566695"><ele>670.0</ele><time>2026-04-10T15:24:35.962Z</time></trkpt><trkpt lat="45.49955218016029" lon="7.933520299588094"><ele>670.0</ele><time>2026-04-10T15:24:36.962Z</time></trkpt><trkpt lat="45.499505471833054" lon="7.933616667423873"><ele>670.0</ele><time>2026-04-10T15:24:37.962Z</time></trkpt><trkpt lat="45.499459843341455" lon="7.933708281819481"><ele>670.0</ele><time>2026-04-10T15:24:38.962Z</time></trkpt><trkpt lat="45.49940579810523" lon="7.933804129004894"><ele>671.4</ele><time>2026-04-10T15:24:39.962Z</time></trkpt><trkpt lat="45.49933514210703" lon="7.93393005582509"><ele>672.8</ele><time>2026-04-10T15:24:40.962Z</time></trkpt><trkpt lat="45.499260321414695" lon="7.934055169774913"><ele>674.2</ele><time>2026-04-10T15:24:41.962Z</time></trkpt><trkpt lat="45.49919732573497" lon="7.9341489419573845"><ele>675.6</ele><time>2026-04-10T15:24:42.962Z</time></trkpt><trkpt lat="45.49915068165782" lon="7.934244959793232"><ele>677.0</ele><time>2026-04-10T15:24:43.962Z</time></trkpt><trkpt lat="45.499086758770645" lon="7.934353818957089"><ele>677.0</ele><time>2026-04-10T15:24:44.962Z</time></trkpt><trkpt lat="45.499046233484904" lon="7.934478090139288"><ele>677.0</ele><time>2026-04-10T15:24:45.962Z</time></trkpt><trkpt lat="45.49899979699363" lon="7.934593665533438"><ele>677.0</ele><time>2026-04-10T15:24:46.962Z</time></trkpt><trkpt lat="45.49895277676348" lon="7.93467537218163"><ele>677.0</ele><time>2026-04-10T15:24:47.962Z</time></trkpt><trkpt lat="45.49889908352509" lon="7.93474174089417"><ele>677.0</ele><time>2026-04-10T15:24:48.962Z</time></trkpt><trkpt lat="45.49881950143604" lon="7.93485376840792"><ele>677.0</ele><time>2026-04-10T15:24:49.962Z</time></trkpt><trkpt lat="45.49872853598833" lon="7.934956277862637"><ele>674.2</ele><time>2026-04-10T15:24:50.962Z</time></trkpt><trkpt lat="45.49864769747369" lon="7.935059172809811"><ele>671.4000000000001</ele><time>2026-04-10T15:24:51.962Z</time></trkpt><trkpt lat="45.498574202739505" lon="7.935144421105975"><ele>668.5999999999999</ele><time>2026-04-10T15:24:52.962Z</time></trkpt><trkpt lat="45.49851240479101" lon="7.935207969759181"><ele>665.8</ele><time>2026-04-10T15:24:53.962Z</time></trkpt><trkpt lat="45.49845738958298" lon="7.9352524123203985"><ele>663.0</ele><time>2026-04-10T15:24:54.962Z</time></trkpt><trkpt lat="45.49832502103583" lon="7.935346472588138"><ele>663.0</ele><time>2026-04-10T15:24:56.962Z</time></trkpt><trkpt lat="45.49825660299466" lon="7.93539840400631"><ele>663.0</ele><time>2026-04-10T15:24:57.962Z</time></trkpt><trkpt lat="45.49818943365241" lon="7.935454188276707"><ele>663.0</ele><time>2026-04-10T15:24:58.962Z</time></trkpt><trkpt lat="45.498138735717745" lon="7.935508146252756"><ele>663.0</ele><time>2026-04-10T15:24:59.962Z</time></trkpt><trkpt lat="45.49808727507135" lon="7.935584223760564"><ele>663.0</ele><time>2026-04-10T15:25:00.962Z</time></trkpt><trkpt lat="45.49804549761023" lon="7.935672940534468"><ele>663.0</ele><time>2026-04-10T15:25:01.962Z</time></trkpt><trkpt lat="45.49801046275836" lon="7.935781111492981"><ele>663.0</ele><time>2026-04-10T15:25:02.962Z</time></trkpt><trkpt lat="45.49798361343507" lon="7.9358676440834826"><ele>663.0</ele><time>2026-04-10T15:25:03.962Z</time></trkpt><trkpt lat="45.49792493726101" lon="7.935979446625142"><ele>663.0</ele><time>2026-04-10T15:25:04.962Z</time></trkpt><trkpt lat="45.49788036979448" lon="7.936070309620135"><ele>663.0</ele><time>2026-04-10T15:25:05.962Z</time></trkpt><trkpt lat="45.497837088176375" lon="7.93616587329842"><ele>663.0</ele><time>2026-04-10T15:25:06.962Z</time></trkpt><trkpt lat="45.49779926267723" lon="7.936256086853936"><ele>663.0</ele><time>2026-04-10T15:25:07.962Z</time></trkpt><trkpt lat="45.49774607178247" lon="7.93638676445564"><ele>663.0</ele><time>2026-04-10T15:25:08.962Z</time></trkpt><trkpt lat="45.49768281989239" lon="7.936514397431078"><ele>663.0</ele><time>2026-04-10T15:25:09.962Z</time></trkpt><trkpt lat="45.4976142228204" lon="7.936614036836968"><ele>663.0</ele><time>2026-04-10T15:25:10.962Z</time></trkpt><trkpt lat="45.497554945194096" lon="7.936706427158461"><ele>663.0</ele><time>2026-04-10T15:25:11.962Z</time></trkpt><trkpt lat="45.497500877712596" lon="7.936798289809254"><ele>663.0</ele><time>2026-04-10T15:25:12.962Z</time></trkpt><trkpt lat="45.49742721582745" lon="7.936794236006734"><ele>662.8</ele><time>2026-04-10T15:25:15.962Z</time></trkpt><trkpt lat="45.49733789325798" lon="7.936782138541973"><ele>662.5999999999999</ele><time>2026-04-10T15:25:18.962Z</time></trkpt><trkpt lat="45.497234405780645" lon="7.936814670554263"><ele>662.4000000000001</ele><time>2026-04-10T15:25:20.962Z</time></trkpt><trkpt lat="45.49719712275586" lon="7.936900627614836"><ele>662.2</ele><time>2026-04-10T15:25:22.962Z</time></trkpt><trkpt lat="45.497122161354405" lon="7.937035267348653"><ele>662.0</ele><time>2026-04-10T15:25:24.962Z</time></trkpt><trkpt lat="45.49704705618626" lon="7.93711124577337"><ele>662.0</ele><time>2026-04-10T15:25:26.962Z</time></trkpt><trkpt lat="45.49698056185818" lon="7.93721000954315"><ele>662.0</ele><time>2026-04-10T15:25:29.962Z</time></trkpt><trkpt lat="45.496944844400915" lon="7.9373257820826115"><ele>662.0</ele><time>2026-04-10T15:25:31.962Z</time></trkpt><trkpt lat="45.49690057698137" lon="7.937478974558721"><ele>662.0</ele><time>2026-04-10T15:25:33.962Z</time></trkpt><trkpt lat="45.496836150855145" lon="7.937598891343594"><ele>662.0</ele><time>2026-04-10T15:25:35.962Z</time></trkpt><trkpt lat="45.49675965087236" lon="7.937642462168504"><ele>662.8</ele><time>2026-04-10T15:25:37.962Z</time></trkpt><trkpt lat="45.49666490024741" lon="7.937739796714372"><ele>663.6</ele><time>2026-04-10T15:25:39.962Z</time></trkpt><trkpt lat="45.496600622085275" lon="7.937845917411928"><ele>664.4</ele><time>2026-04-10T15:25:40.962Z</time></trkpt><trkpt lat="45.49654501825999" lon="7.937919623767619"><ele>665.1999999999999</ele><time>2026-04-10T15:25:41.962Z</time></trkpt><trkpt lat="45.49650872373519" lon="7.9380727121307455"><ele>666.0</ele><time>2026-04-10T15:25:43.962Z</time></trkpt><trkpt lat="45.496468291985316" lon="7.938161212478172"><ele>666.0</ele><time>2026-04-10T15:25:45.962Z</time></trkpt><trkpt lat="45.496409727764515" lon="7.9382706076491285"><ele>666.0</ele><time>2026-04-10T15:25:47.962Z</time></trkpt><trkpt lat="45.49631419589834" lon="7.938381668312468"><ele>666.0</ele><time>2026-04-10T15:25:49.96Z</time></trkpt><trkpt lat="45.49624854896018" lon="7.938435453821828"><ele>666.0</ele><time>2026-04-10T15:25:50.96Z</time></trkpt><trkpt lat="45.49616908967251" lon="7.938473324462792"><ele>666.0</ele><time>2026-04-10T15:25:51.96Z</time></trkpt><trkpt lat="45.496069296534195" lon="7.938551380506467"><ele>664.5</ele><time>2026-04-10T15:25:53.959Z</time></trkpt><trkpt lat="45.49599144556687" lon="7.938638403161591"><ele>663.0</ele><time>2026-04-10T15:25:55.96Z</time></trkpt><trkpt lat="45.49587172580857" lon="7.938629626793262"><ele>661.5</ele><time>2026-04-10T15:25:58.96Z</time></trkpt><trkpt lat="45.4957822315364" lon="7.938635149968454"><ele>660.0</ele><time>2026-04-10T15:25:59.96Z</time></trkpt><trkpt lat="45.495712004408325" lon="7.938652953392641"><ele>658.5</ele><time>2026-04-10T15:26:00.959Z</time></trkpt><trkpt lat="45.495661556632335" lon="7.938708094027684"><ele>657.0</ele><time>2026-04-10T15:26:01.959Z</time></trkpt><trkpt lat="45.49557392930826" lon="7.938749640756221"><ele>657.0</ele><time>2026-04-10T15:26:05.959Z</time></trkpt><trkpt lat="45.49550326648894" lon="7.938687873928174"><ele>657.0</ele><time>2026-04-10T15:26:07.959Z</time></trkpt><trkpt lat="45.49539567761097" lon="7.938650783755147"><ele>657.0</ele><time>2026-04-10T15:26:09.959Z</time></trkpt><trkpt lat="45.49530743274473" lon="7.9386752775571505"><ele>657.0</ele><time>2026-04-10T15:26:10.959Z</time></trkpt><trkpt lat="45.49524514404656" lon="7.938691893515884"><ele>657.0</ele><time>2026-04-10T15:26:11.959Z</time></trkpt><trkpt lat="45.49517459088998" lon="7.9387538540857365"><ele>657.0</ele><time>2026-04-10T15:26:13.959Z</time></trkpt><trkpt lat="45.49511456490569" lon="7.93883534340024"><ele>656.5</ele><time>2026-04-10T15:26:17.959Z</time></trkpt><trkpt lat="45.495076700024015" lon="7.938946782570522"><ele>656.0</ele><time>2026-04-10T15:26:19.959Z</time></trkpt><trkpt lat="45.49508639111995" lon="7.939059166019406"><ele>655.5</ele><time>2026-04-10T15:26:21.959Z</time></trkpt><trkpt lat="45.495122702969155" lon="7.93919133824934"><ele>655.0</ele><time>2026-04-10T15:26:23.959Z</time></trkpt><trkpt lat="45.495151499704534" lon="7.939280800678559"><ele>654.5</ele><time>2026-04-10T15:26:24.959Z</time></trkpt><trkpt lat="45.4951948648233" lon="7.939388247845628"><ele>654.0</ele><time>2026-04-10T15:26:25.959Z</time></trkpt><trkpt lat="45.49525027402516" lon="7.939517715179084"><ele>654.0</ele><time>2026-04-10T15:26:27.959Z</time></trkpt><trkpt lat="45.495317521233765" lon="7.939577991822004"><ele>654.0</ele><time>2026-04-10T15:26:29.959Z</time></trkpt><trkpt lat="45.495282462979695" lon="7.93967940869941"><ele>654.0</ele><time>2026-04-10T15:26:31.959Z</time></trkpt><trkpt lat="45.49525537828251" lon="7.939798008764714"><ele>654.0</ele><time>2026-04-10T15:26:33.959Z</time></trkpt><trkpt lat="45.49520709474239" lon="7.939906327079452"><ele>654.0</ele><time>2026-04-10T15:26:35.959Z</time></trkpt><trkpt lat="45.495104646630054" lon="7.939936464962912"><ele>654.0</ele><time>2026-04-10T15:26:37.959Z</time></trkpt><trkpt lat="45.49503478250226" lon="7.939875158445978"><ele>654.0</ele><time>2026-04-10T15:26:39.959Z</time></trkpt><trkpt lat="45.49497555743502" lon="7.939835420460339"><ele>654.0</ele><time>2026-04-10T15:26:41.959Z</time></trkpt><trkpt lat="45.4948645799676" lon="7.93980552664272"><ele>654.0</ele><time>2026-04-10T15:26:43.959Z</time></trkpt><trkpt lat="45.49480012435273" lon="7.939806687803435"><ele>654.0</ele><time>2026-04-10T15:26:44.959Z</time></trkpt><trkpt lat="45.49471883596364" lon="7.9398047095576"><ele>654.0</ele><time>2026-04-10T15:26:45.959Z</time></trkpt><trkpt lat="45.49464451734745" lon="7.939806957818475"><ele>654.0</ele><time>2026-04-10T15:26:46.959Z</time></trkpt><trkpt lat="45.49456723838007" lon="7.939775814072374"><ele>653.2</ele><time>2026-04-10T15:26:48.959Z</time></trkpt><trkpt lat="45.494550269966666" lon="7.939891900932615"><ele>652.4000000000001</ele><time>2026-04-10T15:26:51.959Z</time></trkpt><trkpt lat="45.494526020457016" lon="7.94003683014327"><ele>651.6</ele><time>2026-04-10T15:26:53.959Z</time></trkpt><trkpt lat="45.49452205510605" lon="7.940128656414978"><ele>650.8</ele><time>2026-04-10T15:26:54.959Z</time></trkpt><trkpt lat="45.49448209711793" lon="7.94025592612625"><ele>650.0</ele><time>2026-04-10T15:26:56.959Z</time></trkpt><trkpt lat="45.49440112467247" lon="7.940379852451481"><ele>650.0</ele><time>2026-04-10T15:26:58.959Z</time></trkpt><trkpt lat="45.49432918951323" lon="7.940538253404403"><ele>650.0</ele><time>2026-04-10T15:27:00.959Z</time></trkpt><trkpt lat="45.49428680945915" lon="7.940608147981776"><ele>650.0</ele><time>2026-04-10T15:27:01.959Z</time></trkpt><trkpt lat="45.49418774389101" lon="7.940699135168934"><ele>650.0</ele><time>2026-04-10T15:27:03.959Z</time></trkpt><trkpt lat="45.4941207411214" lon="7.94074745150878"><ele>650.0</ele><time>2026-04-10T15:27:04.959Z</time></trkpt><trkpt lat="45.49406143983933" lon="7.940835996879436"><ele>649.8333333333333</ele><time>2026-04-10T15:27:06.959Z</time></trkpt><trkpt lat="45.49402126885741" lon="7.940973034234889"><ele>649.6666666666666</ele><time>2026-04-10T15:27:09.959Z</time></trkpt><trkpt lat="45.493960299616454" lon="7.9410715980817566"><ele>649.5</ele><time>2026-04-10T15:27:10.959Z</time></trkpt><trkpt lat="45.49389780338174" lon="7.941161494977668"><ele>649.3333333333334</ele><time>2026-04-10T15:27:11.959Z</time></trkpt><trkpt lat="45.49384905676073" lon="7.941240860445662"><ele>649.1666666666667</ele><time>2026-04-10T15:27:12.959Z</time></trkpt><trkpt lat="45.49379870609195" lon="7.941315661181107"><ele>649.0</ele><time>2026-04-10T15:27:13.959Z</time></trkpt><trkpt lat="45.49373911250521" lon="7.941364517991538"><ele>648.9999999999999</ele><time>2026-04-10T15:27:16.959Z</time></trkpt><trkpt lat="45.493698876020346" lon="7.941433905291292"><ele>649.0</ele><time>2026-04-10T15:27:24.959Z</time></trkpt><trkpt lat="45.49365227570592" lon="7.941498246585133"><ele>649.0</ele><time>2026-04-10T15:27:29.959Z</time></trkpt><trkpt lat="45.493614850414126" lon="7.941415438124075"><ele>649.0</ele><time>2026-04-10T15:27:38.959Z</time></trkpt><trkpt lat="45.49354779103503" lon="7.941303880933013"><ele>649.0</ele><time>2026-04-10T15:27:40.959Z</time></trkpt><trkpt lat="45.49348897842549" lon="7.9412353854590885"><ele>648.9999999999999</ele><time>2026-04-10T15:27:42.959Z</time></trkpt><trkpt lat="45.49346490388701" lon="7.941143474343287"><ele>649.0</ele><time>2026-04-10T15:27:44.96Z</time></trkpt><trkpt lat="45.49339221723598" lon="7.941155137951129"><ele>649.0</ele><time>2026-04-10T15:27:47.96Z</time></trkpt><trkpt lat="45.49331591928521" lon="7.941173287978278"><ele>649.0</ele><time>2026-04-10T15:27:50.96Z</time></trkpt><trkpt lat="45.49320648900924" lon="7.941196332467575"><ele>649.0</ele><time>2026-04-10T15:27:52.96Z</time></trkpt><trkpt lat="45.49312190143352" lon="7.941156650768896"><ele>649.0</ele><time>2026-04-10T15:27:54.957Z</time></trkpt><trkpt lat="45.49300494322622" lon="7.941098519661452"><ele>649.0</ele><time>2026-04-10T15:27:56.957Z</time></trkpt><trkpt lat="45.49291727290346" lon="7.941091747429794"><ele>646.3333333333334</ele><time>2026-04-10T15:27:58.958Z</time></trkpt><trkpt lat="45.49284130755001" lon="7.941140256603313"><ele>643.6666666666667</ele><time>2026-04-10T15:28:00.958Z</time></trkpt><trkpt lat="45.49273538343992" lon="7.94114158848607"><ele>641.0</ele><time>2026-04-10T15:28:02.957Z</time></trkpt><trkpt lat="45.49266423995207" lon="7.941135839139537"><ele>638.3333333333334</ele><time>2026-04-10T15:28:03.957Z</time></trkpt><trkpt lat="45.49259632796303" lon="7.941128194328787"><ele>635.6666666666666</ele><time>2026-04-10T15:28:05.957Z</time></trkpt><trkpt lat="45.4925002714041" lon="7.941152447016095"><ele>633.0</ele><time>2026-04-10T15:28:07.957Z</time></trkpt><trkpt lat="45.492401215986" lon="7.941182241683905"><ele>633.0</ele><time>2026-04-10T15:28:09.957Z</time></trkpt><trkpt lat="45.49231344372796" lon="7.9412259687359406"><ele>633.0</ele><time>2026-04-10T15:28:11.957Z</time></trkpt><trkpt lat="45.4922362925506" lon="7.941272929478755"><ele>633.0</ele><time>2026-04-10T15:28:14.957Z</time></trkpt><trkpt lat="45.49217018392519" lon="7.941340656268009"><ele>633.0</ele><time>2026-04-10T15:28:18.957Z</time></trkpt><trkpt lat="45.492122304114304" lon="7.941406922210521"><ele>633.0</ele><time>2026-04-10T15:28:21.957Z</time></trkpt><trkpt lat="45.49204941437032" lon="7.941457306581856"><ele>633.0</ele><time>2026-04-10T15:28:24.957Z</time></trkpt><trkpt lat="45.49199905956591" lon="7.941530697275788"><ele>628.1666666666666</ele><time>2026-04-10T15:28:27.957Z</time></trkpt><trkpt lat="45.49193218903555" lon="7.941600859995169"><ele>623.3333333333334</ele><time>2026-04-10T15:28:30.957Z</time></trkpt><trkpt lat="45.491888483132186" lon="7.941724308488851"><ele>618.5</ele><time>2026-04-10T15:28:33.957Z</time></trkpt><trkpt lat="45.49186356449054" lon="7.941824178498541"><ele>613.6666666666667</ele><time>2026-04-10T15:28:35.957Z</time></trkpt><trkpt lat="45.49180502047783" lon="7.941887483355172"><ele>608.8333333333334</ele><time>2026-04-10T15:28:37.957Z</time></trkpt><trkpt lat="45.491745839809305" lon="7.941968076107063"><ele>604.0</ele><time>2026-04-10T15:28:39.957Z</time></trkpt><trkpt lat="45.491678922873376" lon="7.942063941194015"><ele>604.0</ele><time>2026-04-10T15:28:41.957Z</time></trkpt><trkpt lat="45.4916311729484" lon="7.942158860908785"><ele>604.0</ele><time>2026-04-10T15:28:42.957Z</time></trkpt><trkpt lat="45.49159045077894" lon="7.94224389945488"><ele>604.0</ele><time>2026-04-10T15:28:43.957Z</time></trkpt><trkpt lat="45.49154640651466" lon="7.942320883526735"><ele>604.0</ele><time>2026-04-10T15:28:45.957Z</time></trkpt><trkpt lat="45.49148346363001" lon="7.942462634242764"><ele>604.0</ele><time>2026-04-10T15:28:47.957Z</time></trkpt><trkpt lat="45.49138595388802" lon="7.9426535816994726"><ele>605.5</ele><time>2026-04-10T15:28:49.957Z</time></trkpt><trkpt lat="45.49134360098098" lon="7.942749509813068"><ele>607.0</ele><time>2026-04-10T15:28:50.957Z</time></trkpt><trkpt lat="45.49130604981133" lon="7.9428504064849115"><ele>608.5</ele><time>2026-04-10T15:28:51.957Z</time></trkpt><trkpt lat="45.49127432780436" lon="7.94295133973323"><ele>610.0</ele><time>2026-04-10T15:28:52.957Z</time></trkpt><trkpt lat="45.491238265027484" lon="7.943056762525989"><ele>611.5</ele><time>2026-04-10T15:28:53.957Z</time></trkpt><trkpt lat="45.49120271068557" lon="7.9431441821123245"><ele>613.0</ele><time>2026-04-10T15:28:54.957Z</time></trkpt><trkpt lat="45.491156249716575" lon="7.94324027636586"><ele>608.6</ele><time>2026-04-10T15:28:55.957Z</time></trkpt><trkpt lat="45.49107577251991" lon="7.943442826422007"><ele>604.1999999999999</ele><time>2026-04-10T15:28:57.957Z</time></trkpt><trkpt lat="45.49104851392638" lon="7.943553490970251"><ele>599.8</ele><time>2026-04-10T15:28:58.957Z</time></trkpt><trkpt lat="45.49102139646768" lon="7.943640936303104"><ele>595.4</ele><time>2026-04-10T15:28:59.957Z</time></trkpt><trkpt lat="45.49098567944591" lon="7.943727569618539"><ele>591.0</ele><time>2026-04-10T15:29:00.957Z</time></trkpt><trkpt lat="45.49096545489269" lon="7.94381951959913"><ele>591.0</ele><time>2026-04-10T15:29:01.957Z</time></trkpt><trkpt lat="45.490934321269194" lon="7.9439122841442495"><ele>591.0</ele><time>2026-04-10T15:29:02.957Z</time></trkpt><trkpt lat="45.49088671898152" lon="7.94405979105346"><ele>591.0</ele><time>2026-04-10T15:29:04.957Z</time></trkpt><trkpt lat="45.49083839429636" lon="7.94416703932555"><ele>591.0</ele><time>2026-04-10T15:29:06.957Z</time></trkpt><trkpt lat="45.49078793665084" lon="7.944298573550935"><ele>591.0</ele><time>2026-04-10T15:29:08.957Z</time></trkpt><trkpt lat="45.490738476043255" lon="7.94441155693024"><ele>592.6666666666666</ele><time>2026-04-10T15:29:09.957Z</time></trkpt><trkpt lat="45.49071323231127" lon="7.944524468794892"><ele>594.3333333333334</ele><time>2026-04-10T15:29:10.957Z</time></trkpt><trkpt lat="45.49068040263111" lon="7.944634847828443"><ele>596.0</ele><time>2026-04-10T15:29:11.957Z</time></trkpt><trkpt lat="45.49064594076996" lon="7.944735516019088"><ele>597.6666666666667</ele><time>2026-04-10T15:29:12.957Z</time></trkpt><trkpt lat="45.490606641971" lon="7.9448387710242665"><ele>599.3333333333334</ele><time>2026-04-10T15:29:13.957Z</time></trkpt><trkpt lat="45.490565080226496" lon="7.944939613952288"><ele>601.0</ele><time>2026-04-10T15:29:14.957Z</time></trkpt><trkpt lat="45.4905123844272" lon="7.945029399424081"><ele>597.2</ele><time>2026-04-10T15:29:15.957Z</time></trkpt><trkpt lat="45.49041675646759" lon="7.945179245800846"><ele>593.4000000000001</ele><time>2026-04-10T15:29:17.957Z</time></trkpt><trkpt lat="45.490352312053616" lon="7.945273933764719"><ele>589.6</ele><time>2026-04-10T15:29:18.957Z</time></trkpt><trkpt lat="45.49030088810383" lon="7.945378871760461"><ele>585.8000000000001</ele><time>2026-04-10T15:29:19.957Z</time></trkpt><trkpt lat="45.49025563655151" lon="7.945445406068481"><ele>582.0</ele><time>2026-04-10T15:29:21.957Z</time></trkpt><trkpt lat="45.490216081327446" lon="7.945576605234688"><ele>582.0</ele><time>2026-04-10T15:32:43.953Z</time></trkpt><trkpt lat="45.49012977511018" lon="7.945627357819775"><ele>582.0</ele><time>2026-04-10T15:32:48.953Z</time></trkpt><trkpt lat="45.490061120604004" lon="7.945672313672042"><ele>582.0</ele><time>2026-04-10T15:32:50.953Z</time></trkpt><trkpt lat="45.48997070786323" lon="7.945732674820055"><ele>582.0</ele><time>2026-04-10T15:32:52.953Z</time></trkpt><trkpt lat="45.489911770400376" lon="7.9457647882461"><ele>582.0</ele><time>2026-04-10T15:32:53.953Z</time></trkpt><trkpt lat="45.48981222210948" lon="7.945798893212199"><ele>582.0</ele><time>2026-04-10T15:32:55.953Z</time></trkpt><trkpt lat="45.489723873728884" lon="7.9458837657722015"><ele>584.0</ele><time>2026-04-10T15:32:57.953Z</time></trkpt><trkpt lat="45.48966354453783" lon="7.945990872334553"><ele>586.0</ele><time>2026-04-10T15:32:59.953Z</time></trkpt><trkpt lat="45.48958985036149" lon="7.946069476428921"><ele>588.0</ele><time>2026-04-10T15:33:01.953Z</time></trkpt><trkpt lat="45.48952024055289" lon="7.946151928161948"><ele>590.0</ele><time>2026-04-10T15:33:03.953Z</time></trkpt><trkpt lat="45.489464620897806" lon="7.94619624105033"><ele>592.0</ele><time>2026-04-10T15:33:04.953Z</time></trkpt><trkpt lat="45.489399923637855" lon="7.946330414470721"><ele>586.0</ele><time>2026-04-10T15:33:06.953Z</time></trkpt><trkpt lat="45.48931552369861" lon="7.946455143337095"><ele>580.0</ele><time>2026-04-10T15:33:08.953Z</time></trkpt><trkpt lat="45.48924141813803" lon="7.946548780877122"><ele>574.0</ele><time>2026-04-10T15:33:10.953Z</time></trkpt><trkpt lat="45.48917746548378" lon="7.946676052576708"><ele>568.0</ele><time>2026-04-10T15:33:12.953Z</time></trkpt><trkpt lat="45.48913107824863" lon="7.946750408191118"><ele>562.0</ele><time>2026-04-10T15:33:14.953Z</time></trkpt><trkpt lat="45.48897684303473" lon="7.947029477980454"><ele>561.6666666666667</ele><time>2026-04-10T15:33:23.953Z</time></trkpt><trkpt lat="45.48892363877139" lon="7.947091662000081"><ele>561.3333333333334</ele><time>2026-04-10T15:33:24.953Z</time></trkpt><trkpt lat="45.488853039924074" lon="7.947184995080905"><ele>561.0</ele><time>2026-04-10T15:33:26.953Z</time></trkpt><trkpt lat="45.48880825069968" lon="7.947291818641725"><ele>560.6666666666666</ele><time>2026-04-10T15:33:28.953Z</time></trkpt><trkpt lat="45.48878259951415" lon="7.947378544606696"><ele>560.3333333333333</ele><time>2026-04-10T15:33:30.953Z</time></trkpt><trkpt lat="45.488795572040694" lon="7.947496600062787"><ele>560.0</ele><time>2026-04-10T15:33:47.953Z</time></trkpt><trkpt lat="45.488876813090336" lon="7.947519697381319"><ele>560.0</ele><time>2026-04-10T15:33:49.953Z</time></trkpt><trkpt lat="45.48893987389053" lon="7.947553325698977"><ele>560.0</ele><time>2026-04-10T15:33:51.953Z</time></trkpt><trkpt lat="45.4890028163502" lon="7.9475447076319705"><ele>560.0</ele><time>2026-04-10T15:33:54.953Z</time></trkpt><trkpt lat="45.489076376994944" lon="7.947543067575335"><ele>560.0</ele><time>2026-04-10T15:33:58.953Z</time></trkpt><trkpt lat="45.48926748354426" lon="7.947585910536086"><ele>560.0</ele><time>2026-04-10T15:34:08.954Z</time></trkpt><trkpt lat="45.489333560098515" lon="7.947604542976967"><ele>559.5</ele><time>2026-04-10T15:34:10.954Z</time></trkpt><trkpt lat="45.489403910070784" lon="7.947623933511043"><ele>559.0</ele><time>2026-04-10T15:34:12.952Z</time></trkpt><trkpt lat="45.48944846566836" lon="7.947691206196008"><ele>558.5</ele><time>2026-04-10T15:34:17.952Z</time></trkpt><trkpt lat="45.48949621957393" lon="7.947763425966405"><ele>558.0</ele><time>2026-04-10T15:34:22.951Z</time></trkpt><trkpt lat="45.489582097311654" lon="7.947746883047719"><ele>557.5</ele><time>2026-04-10T15:34:25.951Z</time></trkpt><trkpt lat="45.48965116342818" lon="7.94776943209863"><ele>557.0</ele><time>2026-04-10T15:34:28.951Z</time></trkpt><trkpt lat="45.48973065295581" lon="7.947829291803417"><ele>562.3333333333333</ele><time>2026-04-10T15:34:31.951Z</time></trkpt><trkpt lat="45.48983884194253" lon="7.947849197470496"><ele>567.6666666666666</ele><time>2026-04-10T15:34:34.951Z</time></trkpt><trkpt lat="45.4899218249718" lon="7.947831031264789"><ele>573.0</ele><time>2026-04-10T15:34:36.951Z</time></trkpt><trkpt lat="45.489960224460276" lon="7.947731590699973"><ele>578.3333333333334</ele><time>2026-04-10T15:34:39.951Z</time></trkpt><trkpt lat="45.48997862570255" lon="7.947620496673774"><ele>583.6666666666667</ele><time>2026-04-10T15:34:42.951Z</time></trkpt><trkpt lat="45.49005458924465" lon="7.9476225138026715"><ele>589.0</ele><time>2026-04-10T15:34:44.951Z</time></trkpt><trkpt lat="45.49019849075573" lon="7.94755113394563"><ele>589.4</ele><time>2026-04-10T15:35:06.951Z</time></trkpt><trkpt lat="45.49023437926906" lon="7.947451460779476"><ele>589.8</ele><time>2026-04-10T15:35:16.951Z</time></trkpt><trkpt lat="45.49026020846232" lon="7.947362879447227"><ele>590.2</ele><time>2026-04-10T15:35:19.951Z</time></trkpt><trkpt lat="45.4903333568896" lon="7.947306203786576"><ele>590.6</ele><time>2026-04-10T15:35:22.951Z</time></trkpt><trkpt lat="45.490521576207705" lon="7.94729839729305"><ele>591.0</ele><time>2026-04-10T15:35:28.951Z</time></trkpt><trkpt lat="45.49059199392756" lon="7.947283433938516"><ele>594.6</ele><time>2026-04-10T15:35:30.951Z</time></trkpt><trkpt lat="45.49065421758275" lon="7.947215332657933"><ele>598.2</ele><time>2026-04-10T15:35:32.951Z</time></trkpt><trkpt lat="45.49072611349107" lon="7.94712781328181"><ele>601.8</ele><time>2026-04-10T15:35:34.951Z</time></trkpt><trkpt lat="45.490904890035644" lon="7.947105481034068"><ele>605.4</ele><time>2026-04-10T15:35:39.951Z</time></trkpt><trkpt lat="45.49097211823275" lon="7.947055563209511"><ele>609.0</ele><time>2026-04-10T15:35:41.951Z</time></trkpt><trkpt lat="45.491149206010434" lon="7.947076746337977"><ele>609.0</ele><time>2026-04-10T15:35:44.951Z</time></trkpt><trkpt lat="45.49124951988076" lon="7.947054273425919"><ele>609.0</ele><time>2026-04-10T15:35:46.951Z</time></trkpt><trkpt lat="45.491332965607306" lon="7.946982114295569"><ele>609.0</ele><time>2026-04-10T15:35:49.951Z</time></trkpt><trkpt lat="45.49137041576257" lon="7.9468999481430584"><ele>609.0</ele><time>2026-04-10T15:35:51.951Z</time></trkpt><trkpt lat="45.4913901395922" lon="7.946752419829363"><ele>609.0</ele><time>2026-04-10T15:35:54.951Z</time></trkpt><trkpt lat="45.49142055166163" lon="7.946619478999098"><ele>612.0</ele><time>2026-04-10T15:35:56.951Z</time></trkpt><trkpt lat="45.491430078710216" lon="7.9465262717122505"><ele>615.0</ele><time>2026-04-10T15:35:58.951Z</time></trkpt><trkpt lat="45.49136162791415" lon="7.946414621839956"><ele>618.0</ele><time>2026-04-10T15:36:01.951Z</time></trkpt><trkpt lat="45.49133034083942" lon="7.946315153301468"><ele>621.0</ele><time>2026-04-10T15:36:03.951Z</time></trkpt><trkpt lat="45.49135588412287" lon="7.946195398002608"><ele>624.0</ele><time>2026-04-10T15:36:05.951Z</time></trkpt><trkpt lat="45.49141830524385" lon="7.9461411507398845"><ele>627.0</ele><time>2026-04-10T15:36:07.951Z</time></trkpt><trkpt lat="45.491502499762134" lon="7.946090654895163"><ele>627.0</ele><time>2026-04-10T15:36:09.952Z</time></trkpt><trkpt lat="45.49155612366916" lon="7.946020965884001"><ele>627.0</ele><time>2026-04-10T15:36:11.952Z</time></trkpt><trkpt lat="45.491574542233934" lon="7.945927163044748"><ele>627.0</ele><time>2026-04-10T15:36:13.952Z</time></trkpt><trkpt lat="45.491601319524484" lon="7.945830249629038"><ele>627.0</ele><time>2026-04-10T15:36:16.952Z</time></trkpt><trkpt lat="45.49163186787457" lon="7.945746099803533"><ele>627.0</ele><time>2026-04-10T15:36:18.949Z</time></trkpt><trkpt lat="45.49167476293069" lon="7.94562293759615"><ele>627.0</ele><time>2026-04-10T15:36:21.949Z</time></trkpt><trkpt lat="45.49170305802475" lon="7.945495875628411"><ele>626.1666666666666</ele><time>2026-04-10T15:36:24.949Z</time></trkpt><trkpt lat="45.4917446064389" lon="7.94540195367674"><ele>625.3333333333334</ele><time>2026-04-10T15:36:26.949Z</time></trkpt><trkpt lat="45.49177596227671" lon="7.945314905010453"><ele>624.5</ele><time>2026-04-10T15:36:28.949Z</time></trkpt><trkpt lat="45.49181718399692" lon="7.945212485817392"><ele>623.6666666666667</ele><time>2026-04-10T15:36:30.949Z</time></trkpt><trkpt lat="45.49183822657994" lon="7.94507865553515"><ele>622.8333333333334</ele><time>2026-04-10T15:36:32.949Z</time></trkpt><trkpt lat="45.49185344549946" lon="7.9449510131561505"><ele>622.0</ele><time>2026-04-10T15:36:34.949Z</time></trkpt><trkpt lat="45.49187912593516" lon="7.94478445861643"><ele>621.2</ele><time>2026-04-10T15:36:36.949Z</time></trkpt><trkpt lat="45.491847495529605" lon="7.944666083101825"><ele>620.4000000000001</ele><time>2026-04-10T15:36:38.949Z</time></trkpt><trkpt lat="45.49179739548426" lon="7.9445001942755"><ele>619.5999999999999</ele><time>2026-04-10T15:36:40.949Z</time></trkpt><trkpt lat="45.491758678554795" lon="7.944389675056552"><ele>618.8</ele><time>2026-04-10T15:36:41.949Z</time></trkpt><trkpt lat="45.49171880793254" lon="7.944283067419584"><ele>618.0</ele><time>2026-04-10T15:36:42.949Z</time></trkpt><trkpt lat="45.49170085519316" lon="7.944181003302101"><ele>617.6</ele><time>2026-04-10T15:36:43.949Z</time></trkpt><trkpt lat="45.491703005904874" lon="7.944022738348519"><ele>617.1999999999999</ele><time>2026-04-10T15:36:45.949Z</time></trkpt><trkpt lat="45.49169269176385" lon="7.943924918029722"><ele>616.8</ele><time>2026-04-10T15:36:46.949Z</time></trkpt><trkpt lat="45.49161016119445" lon="7.943822810105996"><ele>616.4</ele><time>2026-04-10T15:36:48.949Z</time></trkpt><trkpt lat="45.49162427148576" lon="7.943666899559492"><ele>616.0</ele><time>2026-04-10T15:36:50.95Z</time></trkpt><trkpt lat="45.49166125549345" lon="7.943593691617038"><ele>616.0</ele><time>2026-04-10T15:36:52.95Z</time></trkpt><trkpt lat="45.491659384358954" lon="7.943487737784444"><ele>616.0</ele><time>2026-04-10T15:36:54.95Z</time></trkpt><trkpt lat="45.49167586467658" lon="7.943390949466227"><ele>616.0</ele><time>2026-04-10T15:36:57.95Z</time></trkpt><trkpt lat="45.4917206600507" lon="7.943305845441192"><ele>616.0</ele><time>2026-04-10T15:36:59.95Z</time></trkpt><trkpt lat="45.49176378586187" lon="7.943162939413723"><ele>616.0</ele><time>2026-04-10T15:37:01.95Z</time></trkpt><trkpt lat="45.49176711919972" lon="7.943053719414933"><ele>616.0</ele><time>2026-04-10T15:37:03.95Z</time></trkpt><trkpt lat="45.49181733505655" lon="7.942961333231104"><ele>615.4</ele><time>2026-04-10T15:37:05.95Z</time></trkpt><trkpt lat="45.49188973242032" lon="7.942891595462688"><ele>614.8</ele><time>2026-04-10T15:37:07.95Z</time></trkpt><trkpt lat="45.491944621105276" lon="7.942801981497325"><ele>614.1999999999999</ele><time>2026-04-10T15:37:09.95Z</time></trkpt><trkpt lat="45.49199627433758" lon="7.942689133558188"><ele>613.6</ele><time>2026-04-10T15:37:11.95Z</time></trkpt><trkpt lat="45.49207219479608" lon="7.942564159740629"><ele>613.0</ele><time>2026-04-10T15:37:13.95Z</time></trkpt><trkpt lat="45.49215270490611" lon="7.942474883280487"><ele>616.3333333333334</ele><time>2026-04-10T15:37:15.95Z</time></trkpt><trkpt lat="45.49221021450793" lon="7.942383182236349"><ele>619.6666666666667</ele><time>2026-04-10T15:37:17.95Z</time></trkpt><trkpt lat="45.49224550257024" lon="7.942283602094439"><ele>623.0</ele><time>2026-04-10T15:37:19.95Z</time></trkpt><trkpt lat="45.49234132317055" lon="7.9422898965868844"><ele>626.3333333333334</ele><time>2026-04-10T15:37:21.95Z</time></trkpt><trkpt lat="45.49244337186019" lon="7.942306546787499"><ele>629.6666666666666</ele><time>2026-04-10T15:37:23.95Z</time></trkpt><trkpt lat="45.492519157657874" lon="7.94235309555981"><ele>633.0</ele><time>2026-04-10T15:37:24.95Z</time></trkpt><trkpt lat="45.49262008946447" lon="7.942401523806895"><ele>633.0</ele><time>2026-04-10T15:37:26.95Z</time></trkpt><trkpt lat="45.49269331811155" lon="7.9423553715948865"><ele>633.0</ele><time>2026-04-10T15:37:28.95Z</time></trkpt><trkpt lat="45.492765522960035" lon="7.942326025586891"><ele>633.0</ele><time>2026-04-10T15:37:30.95Z</time></trkpt><trkpt lat="45.49282833993993" lon="7.942298294983351"><ele>633.0</ele><time>2026-04-10T15:37:32.95Z</time></trkpt><trkpt lat="45.49290369035512" lon="7.942294798183213"><ele>633.0</ele><time>2026-04-10T15:37:35.95Z</time></trkpt><trkpt lat="45.49299141666383" lon="7.9423442552838255"><ele>633.0</ele><time>2026-04-10T15:37:37.95Z</time></trkpt><trkpt lat="45.493041683132205" lon="7.942403386454566"><ele>634.5</ele><time>2026-04-10T15:37:40.95Z</time></trkpt><trkpt lat="45.49310669469815" lon="7.942400454552801"><ele>636.0</ele><time>2026-04-10T15:37:43.95Z</time></trkpt><trkpt lat="45.49318933214562" lon="7.94236463514938"><ele>637.5</ele><time>2026-04-10T15:37:47.95Z</time></trkpt><trkpt lat="45.49327712616258" lon="7.942365717527539"><ele>639.0</ele><time>2026-04-10T15:37:50.95Z</time></trkpt><trkpt lat="45.49338480658287" lon="7.942385337588088"><ele>640.5</ele><time>2026-04-10T15:37:54.95Z</time></trkpt><trkpt lat="45.493447132215515" lon="7.942284978012668"><ele>642.0</ele><time>2026-04-10T15:37:57.95Z</time></trkpt><trkpt lat="45.493503686094876" lon="7.942212500984817"><ele>642.0</ele><time>2026-04-10T15:38:00.95Z</time></trkpt><trkpt lat="45.49357783316701" lon="7.9421594895246805"><ele>642.0</ele><time>2026-04-10T15:38:02.95Z</time></trkpt><trkpt lat="45.49367169331575" lon="7.942204082673878"><ele>642.0</ele><time>2026-04-10T15:38:04.95Z</time></trkpt><trkpt lat="45.49373613310021" lon="7.9422564858029245"><ele>642.0</ele><time>2026-04-10T15:38:06.95Z</time></trkpt><trkpt lat="45.49380878924832" lon="7.942275874288722"><ele>642.0</ele><time>2026-04-10T15:38:08.95Z</time></trkpt><trkpt lat="45.49392293524915" lon="7.942063970082802"><ele>643.2</ele><time>2026-04-10T15:38:12.95Z</time></trkpt><trkpt lat="45.493992339957224" lon="7.941942442561431"><ele>644.4000000000001</ele><time>2026-04-10T15:38:14.95Z</time></trkpt><trkpt lat="45.49407749356599" lon="7.941851473035677"><ele>645.5999999999999</ele><time>2026-04-10T15:38:16.95Z</time></trkpt><trkpt lat="45.494195640365554" lon="7.941809008943043"><ele>646.8</ele><time>2026-04-10T15:38:18.95Z</time></trkpt><trkpt lat="45.49426656424067" lon="7.941776009370643"><ele>648.0</ele><time>2026-04-10T15:38:19.95Z</time></trkpt><trkpt lat="45.49434414712777" lon="7.941753635939582"><ele>648.2</ele><time>2026-04-10T15:38:20.95Z</time></trkpt><trkpt lat="45.494443842019216" lon="7.94169220765465"><ele>648.4</ele><time>2026-04-10T15:38:22.95Z</time></trkpt><trkpt lat="45.49452595708682" lon="7.9416288551357"><ele>648.6</ele><time>2026-04-10T15:38:24.947Z</time></trkpt><trkpt lat="45.49465270245931" lon="7.941669261932643"><ele>648.8000000000001</ele><time>2026-04-10T15:38:26.946Z</time></trkpt><trkpt lat="45.49471728681674" lon="7.941697307194578"><ele>649.0</ele><time>2026-04-10T15:38:28.946Z</time></trkpt><trkpt lat="45.494789679243404" lon="7.941753235514607"><ele>652.5</ele><time>2026-04-10T15:38:30.946Z</time></trkpt><trkpt lat="45.49487049550626" lon="7.941820160866918"><ele>656.0</ele><time>2026-04-10T15:38:33.946Z</time></trkpt><trkpt lat="45.494931472828796" lon="7.941902399390561"><ele>659.5</ele><time>2026-04-10T15:38:36.947Z</time></trkpt><trkpt lat="45.4949688675798" lon="7.942008316195262"><ele>663.0</ele><time>2026-04-10T15:38:39.947Z</time></trkpt><trkpt lat="45.49502975877795" lon="7.942041814788277"><ele>666.5</ele><time>2026-04-10T15:38:42.947Z</time></trkpt><trkpt lat="45.49507962090718" lon="7.942188583157189"><ele>670.0</ele><time>2026-04-10T15:39:15.947Z</time></trkpt><trkpt lat="45.49518555623508" lon="7.9422346460559705"><ele>670.0</ele><time>2026-04-10T15:39:38.947Z</time></trkpt><trkpt lat="45.49516206738546" lon="7.942343769978784"><ele>670.0</ele><time>2026-04-10T15:39:42.947Z</time></trkpt><trkpt lat="45.49515400132767" lon="7.942451510762322"><ele>670.0</ele><time>2026-04-10T15:39:44.947Z</time></trkpt><trkpt lat="45.49522690627329" lon="7.942500999475436"><ele>670.0</ele><time>2026-04-10T15:39:47.947Z</time></trkpt><trkpt lat="45.49531541844204" lon="7.942432175586337"><ele>670.0</ele><time>2026-04-10T15:39:49.947Z</time></trkpt><trkpt lat="45.495385824346855" lon="7.942375204916788"><ele>670.0</ele><time>2026-04-10T15:39:51.947Z</time></trkpt><trkpt lat="45.49543615491791" lon="7.942239720811034"><ele>671.4</ele><time>2026-04-10T15:39:54.947Z</time></trkpt><trkpt lat="45.49548546779936" lon="7.9421327599490334"><ele>672.8</ele><time>2026-04-10T15:39:56.947Z</time></trkpt><trkpt lat="45.49556181436955" lon="7.942050211678586"><ele>674.2</ele><time>2026-04-10T15:39:58.947Z</time></trkpt><trkpt lat="45.495626719660144" lon="7.9419842616045955"><ele>675.6</ele><time>2026-04-10T15:40:00.947Z</time></trkpt><trkpt lat="45.49565884839901" lon="7.941843754928363"><ele>677.0</ele><time>2026-04-10T15:40:02.947Z</time></trkpt><trkpt lat="45.495713201267286" lon="7.941698392705263"><ele>677.0</ele><time>2026-04-10T15:40:04.947Z</time></trkpt><trkpt lat="45.49576215486632" lon="7.94158351427471"><ele>677.0</ele><time>2026-04-10T15:40:06.947Z</time></trkpt><trkpt lat="45.49581621430879" lon="7.941479841215461"><ele>677.0</ele><time>2026-04-10T15:40:08.947Z</time></trkpt><trkpt lat="45.495879846994846" lon="7.941387025385766"><ele>677.0</ele><time>2026-04-10T15:40:10.947Z</time></trkpt><trkpt lat="45.49592398834277" lon="7.941300284063452"><ele>677.0</ele><time>2026-04-10T15:40:12.947Z</time></trkpt><trkpt lat="45.4959381475276" lon="7.941208621504196"><ele>677.0</ele><time>2026-04-10T15:40:14.947Z</time></trkpt><trkpt lat="45.495981479974716" lon="7.941102029309281"><ele>677.0</ele><time>2026-04-10T15:40:16.947Z</time></trkpt><trkpt lat="45.49603994230794" lon="7.9410497947502465"><ele>677.0</ele><time>2026-04-10T15:40:19.947Z</time></trkpt><trkpt lat="45.49612310059683" lon="7.9410729859739195"><ele>677.0</ele><time>2026-04-10T15:40:22.947Z</time></trkpt><trkpt lat="45.49624293460447" lon="7.941077051374328"><ele>677.0</ele><time>2026-04-10T15:40:26.947Z</time></trkpt><trkpt lat="45.49630542447477" lon="7.941055788545661"><ele>677.0</ele><time>2026-04-10T15:40:28.947Z</time></trkpt><trkpt lat="45.49638382814803" lon="7.9409931777213005"><ele>677.0</ele><time>2026-04-10T15:40:31.944Z</time></trkpt><trkpt lat="45.49645335046895" lon="7.940906857419103"><ele>678.4000000000001</ele><time>2026-04-10T15:40:34.944Z</time></trkpt><trkpt lat="45.49650801533394" lon="7.940802995947453"><ele>679.8000000000001</ele><time>2026-04-10T15:40:36.944Z</time></trkpt><trkpt lat="45.49656939086463" lon="7.940720971099011"><ele>681.2</ele><time>2026-04-10T15:40:38.944Z</time></trkpt><trkpt lat="45.49663893155344" lon="7.940556939764231"><ele>682.6</ele><time>2026-04-10T15:40:40.944Z</time></trkpt><trkpt lat="45.49668312290617" lon="7.940457500870618"><ele>684.0</ele><time>2026-04-10T15:40:41.944Z</time></trkpt><trkpt lat="45.496728947899214" lon="7.940385362816447"><ele>684.0</ele><time>2026-04-10T15:40:42.944Z</time></trkpt><trkpt lat="45.496785352963215" lon="7.940294390910911"><ele>684.0</ele><time>2026-04-10T15:40:43.943Z</time></trkpt><trkpt lat="45.49684525239228" lon="7.940219196196386"><ele>684.0</ele><time>2026-04-10T15:40:45.943Z</time></trkpt><trkpt lat="45.49692460528296" lon="7.940124804572357"><ele>684.0</ele><time>2026-04-10T15:40:47.943Z</time></trkpt><trkpt lat="45.496994976761066" lon="7.94004499164239"><ele>684.0</ele><time>2026-04-10T15:40:49.943Z</time></trkpt><trkpt lat="45.497055426397125" lon="7.939989261324166"><ele>684.0</ele><time>2026-04-10T15:40:50.943Z</time></trkpt><trkpt lat="45.49712236782515" lon="7.93997062536471"><ele>684.75</ele><time>2026-04-10T15:40:51.943Z</time></trkpt><trkpt lat="45.49718600499219" lon="7.939953078986443"><ele>685.5</ele><time>2026-04-10T15:40:52.943Z</time></trkpt><trkpt lat="45.49727680115367" lon="7.939900940705937"><ele>686.25</ele><time>2026-04-10T15:40:54.943Z</time></trkpt><trkpt lat="45.49734474249992" lon="7.93981886529213"><ele>687.0</ele><time>2026-04-10T15:40:57.943Z</time></trkpt><trkpt lat="45.49756106608977" lon="7.939667204294547"><ele>687.0</ele><time>2026-04-10T15:41:18.944Z</time></trkpt><trkpt lat="45.49772924984956" lon="7.939654543809187"><ele>687.0</ele><time>2026-04-10T15:41:27.944Z</time></trkpt><trkpt lat="45.497788396270984" lon="7.939620013738245"><ele>687.0</ele><time>2026-04-10T15:41:29.944Z</time></trkpt><trkpt lat="45.497837924195295" lon="7.9395507982678835"><ele>687.0</ele><time>2026-04-10T15:41:31.944Z</time></trkpt><trkpt lat="45.4979326789678" lon="7.939480221859687"><ele>687.0</ele><time>2026-04-10T15:41:33.944Z</time></trkpt><trkpt lat="45.49800572596051" lon="7.9394184902997"><ele>686.1666666666666</ele><time>2026-04-10T15:41:35.944Z</time></trkpt><trkpt lat="45.49807691337652" lon="7.93933698131712"><ele>685.3333333333334</ele><time>2026-04-10T15:41:37.944Z</time></trkpt><trkpt lat="45.49815270447189" lon="7.939274577838374"><ele>684.5</ele><time>2026-04-10T15:41:38.944Z</time></trkpt><trkpt lat="45.498239698041445" lon="7.939236317039288"><ele>683.6666666666667</ele><time>2026-04-10T15:41:40.944Z</time></trkpt><trkpt lat="45.49832319007842" lon="7.939201289193227"><ele>682.8333333333334</ele><time>2026-04-10T15:41:42.944Z</time></trkpt><trkpt lat="45.498400480960775" lon="7.939209211715522"><ele>682.0</ele><time>2026-04-10T15:41:44.944Z</time></trkpt><trkpt lat="45.49847085627661" lon="7.939217504972648"><ele>680.0</ele><time>2026-04-10T15:41:45.944Z</time></trkpt><trkpt lat="45.49857420998164" lon="7.939267973831936"><ele>678.0</ele><time>2026-04-10T15:41:47.944Z</time></trkpt><trkpt lat="45.498650810045085" lon="7.93927619353504"><ele>676.0</ele><time>2026-04-10T15:41:50.944Z</time></trkpt><trkpt lat="45.49872935804228" lon="7.939229477052151"><ele>674.0</ele><time>2026-04-10T15:41:53.944Z</time></trkpt><trkpt lat="45.49878923920316" lon="7.939179558018455"><ele>672.0</ele><time>2026-04-10T15:41:56.944Z</time></trkpt><trkpt lat="45.49885977596311" lon="7.939127984967521"><ele>670.0</ele><time>2026-04-10T15:41:59.944Z</time></trkpt><trkpt lat="45.498913396079296" lon="7.939068862829758"><ele>669.0</ele><time>2026-04-10T15:42:04.944Z</time></trkpt><trkpt lat="45.49900621568784" lon="7.938927263017767"><ele>668.0</ele><time>2026-04-10T15:42:47.942Z</time></trkpt><trkpt lat="45.499117980309705" lon="7.9388788694715124"><ele>667.0</ele><time>2026-04-10T15:46:17.939Z</time></trkpt><trkpt lat="45.499147896695675" lon="7.938791089352636"><ele>666.0</ele><time>2026-04-10T15:46:19.939Z</time></trkpt><trkpt lat="45.49915217264773" lon="7.938651365927982"><ele>665.0</ele><time>2026-04-10T15:46:21.939Z</time></trkpt><trkpt lat="45.49917814945045" lon="7.9385218600146965"><ele>665.0</ele><time>2026-04-10T15:46:23.939Z</time></trkpt><trkpt lat="45.49925686090595" lon="7.938476108520456"><ele>665.0</ele><time>2026-04-10T15:46:25.939Z</time></trkpt><trkpt lat="45.49936151715737" lon="7.938430769558903"><ele>665.0</ele><time>2026-04-10T15:46:27.939Z</time></trkpt><trkpt lat="45.49941721276822" lon="7.938376367793652"><ele>665.0</ele><time>2026-04-10T15:46:30.939Z</time></trkpt><trkpt lat="45.49948871583691" lon="7.938237113305042"><ele>665.0</ele><time>2026-04-10T15:46:33.939Z</time></trkpt><trkpt lat="45.499591368435276" lon="7.938133981304227"><ele>665.6666666666666</ele><time>2026-04-10T15:46:35.939Z</time></trkpt><trkpt lat="45.49963685241109" lon="7.93806530363078"><ele>666.3333333333333</ele><time>2026-04-10T15:46:37.939Z</time></trkpt><trkpt lat="45.499674461422096" lon="7.93795577896402"><ele>667.0</ele><time>2026-04-10T15:46:39.939Z</time></trkpt><trkpt lat="45.499674608020186" lon="7.937807691251536"><ele>667.6666666666666</ele><time>2026-04-10T15:46:41.939Z</time></trkpt><trkpt lat="45.49967820326687" lon="7.937707799006958"><ele>668.3333333333334</ele><time>2026-04-10T15:46:42.939Z</time></trkpt><trkpt lat="45.49969394310774" lon="7.937602814579647"><ele>669.0</ele><time>2026-04-10T15:46:43.939Z</time></trkpt><trkpt lat="45.49976085825405" lon="7.937452654192864"><ele>669.3333333333334</ele><time>2026-04-10T15:46:45.939Z</time></trkpt><trkpt lat="45.499795408022926" lon="7.9372980750549464"><ele>669.6666666666666</ele><time>2026-04-10T15:46:46.939Z</time></trkpt><trkpt lat="45.4998131594031" lon="7.937203288104143"><ele>670.0</ele><time>2026-04-10T15:46:47.939Z</time></trkpt><trkpt lat="45.49983863620174" lon="7.937108059224276"><ele>670.3333333333333</ele><time>2026-04-10T15:46:49.936Z</time></trkpt><trkpt lat="45.49985782607198" lon="7.9369819955521415"><ele>670.6666666666666</ele><time>2026-04-10T15:46:52.937Z</time></trkpt><trkpt lat="45.49986817034997" lon="7.936866722475106"><ele>671.0</ele><time>2026-04-10T15:46:54.937Z</time></trkpt><trkpt lat="45.4998896929543" lon="7.93674323283043"><ele>672.5</ele><time>2026-04-10T15:46:56.937Z</time></trkpt><trkpt lat="45.499906209342946" lon="7.936594603694052"><ele>674.0</ele><time>2026-04-10T15:46:59.937Z</time></trkpt><trkpt lat="45.499908421664585" lon="7.936467691351397"><ele>675.5</ele><time>2026-04-10T15:47:01.937Z</time></trkpt><trkpt lat="45.49991181517393" lon="7.936369448035259"><ele>677.0</ele><time>2026-04-10T15:47:03.937Z</time></trkpt><trkpt lat="45.49994269214457" lon="7.936255156400714"><ele>678.5</ele><time>2026-04-10T15:47:05.937Z</time></trkpt><trkpt lat="45.49993740961713" lon="7.9361201724514725"><ele>680.0</ele><time>2026-04-10T15:47:07.937Z</time></trkpt><trkpt lat="45.4998787668747" lon="7.935983713746994"><ele>682.0</ele><time>2026-04-10T15:47:10.937Z</time></trkpt><trkpt lat="45.49985566691751" lon="7.935862551186995"><ele>684.0</ele><time>2026-04-10T15:47:12.937Z</time></trkpt><trkpt lat="45.49983283027903" lon="7.935759897350152"><ele>686.0</ele><time>2026-04-10T15:47:14.937Z</time></trkpt><trkpt lat="45.49975935533249" lon="7.935727400843573"><ele>688.0</ele><time>2026-04-10T15:47:18.937Z</time></trkpt><trkpt lat="45.499803963440996" lon="7.935630394891893"><ele>690.0</ele><time>2026-04-10T15:47:23.937Z</time></trkpt><trkpt lat="45.49978710091872" lon="7.935525638042995"><ele>692.0</ele><time>2026-04-10T15:47:26.937Z</time></trkpt><trkpt lat="45.49973072615582" lon="7.935442561084376"><ele>692.0</ele><time>2026-04-10T15:47:30.937Z</time></trkpt><trkpt lat="45.49973150400779" lon="7.935325533379551"><ele>692.0</ele><time>2026-04-10T15:47:33.937Z</time></trkpt><trkpt lat="45.49974553411942" lon="7.9352266507299625"><ele>692.0</ele><time>2026-04-10T15:47:35.937Z</time></trkpt><trkpt lat="45.49976199621567" lon="7.935100304697807"><ele>692.0</ele><time>2026-04-10T15:47:38.937Z</time></trkpt><trkpt lat="45.49976703812553" lon="7.934956702008384"><ele>692.0</ele><time>2026-04-10T15:47:41.937Z</time></trkpt><trkpt lat="45.499794814451235" lon="7.9348250852371125"><ele>692.0</ele><time>2026-04-10T15:47:43.937Z</time></trkpt><trkpt lat="45.49983725950142" lon="7.934691656093682"><ele>691.5</ele><time>2026-04-10T15:47:45.937Z</time></trkpt><trkpt lat="45.499898863150904" lon="7.934567766477675"><ele>691.0</ele><time>2026-04-10T15:47:47.937Z</time></trkpt><trkpt lat="45.49994471893466" lon="7.934439363611778"><ele>690.5</ele><time>2026-04-10T15:47:49.937Z</time></trkpt><trkpt lat="45.49999695188284" lon="7.9343374645584115"><ele>690.0</ele><time>2026-04-10T15:47:51.937Z</time></trkpt><trkpt lat="45.50010860096994" lon="7.934134885398888"><ele>690.0</ele><time>2026-04-10T15:47:54.937Z</time></trkpt><trkpt lat="45.50012210127303" lon="7.93402533330572"><ele>690.0</ele><time>2026-04-10T15:47:56.937Z</time></trkpt><trkpt lat="45.50011775407178" lon="7.933917160067508"><ele>690.0</ele><time>2026-04-10T15:47:58.937Z</time></trkpt><trkpt lat="45.5001134403558" lon="7.933825230970283"><ele>690.0</ele><time>2026-04-10T15:48:00.937Z</time></trkpt><trkpt lat="45.500146617104605" lon="7.9337338926388785"><ele>690.0</ele><time>2026-04-10T15:48:03.937Z</time></trkpt><trkpt lat="45.50020414901614" lon="7.933632200277011"><ele>690.0</ele><time>2026-04-10T15:48:11.937Z</time></trkpt><trkpt lat="45.50030808637954" lon="7.933655364627606"><ele>690.0</ele><time>2026-04-10T15:48:41.937Z</time></trkpt><trkpt lat="45.50027002449798" lon="7.933734069312443"><ele>690.0</ele><time>2026-04-10T15:48:43.937Z</time></trkpt><trkpt lat="45.50019539299768" lon="7.9338133619965605"><ele>690.0</ele><time>2026-04-10T15:48:45.937Z</time></trkpt><trkpt lat="45.50015737834303" lon="7.93388938458548"><ele>690.0</ele><time>2026-04-10T15:48:46.937Z</time></trkpt><trkpt lat="45.50009773003942" lon="7.934018503122065"><ele>690.0</ele><time>2026-04-10T15:48:48.937Z</time></trkpt><trkpt lat="45.5000349430205" lon="7.934080630061645"><ele>690.0</ele><time>2026-04-10T15:48:49.937Z</time></trkpt><trkpt lat="45.4999810225248" lon="7.934150789593199"><ele>691.3333333333334</ele><time>2026-04-10T15:48:50.937Z</time></trkpt><trkpt lat="45.49994225978976" lon="7.934222837238013"><ele>692.6666666666666</ele><time>2026-04-10T15:48:51.937Z</time></trkpt><trkpt lat="45.499934921953646" lon="7.934383051879366"><ele>694.0</ele><time>2026-04-10T15:48:53.937Z</time></trkpt><trkpt lat="45.499925635179004" lon="7.93452545257044"><ele>695.3333333333333</ele><time>2026-04-10T15:48:55.934Z</time></trkpt><trkpt lat="45.49989187608151" lon="7.9346175198665945"><ele>696.6666666666666</ele><time>2026-04-10T15:48:56.934Z</time></trkpt><trkpt lat="45.499859950369306" lon="7.934736759585519"><ele>698.0</ele><time>2026-04-10T15:48:58.935Z</time></trkpt><trkpt lat="45.49985268869925" lon="7.934896665711187"><ele>698.0</ele><time>2026-04-10T15:49:00.934Z</time></trkpt><trkpt lat="45.49982043769024" lon="7.935022288536756"><ele>698.0</ele><time>2026-04-10T15:49:02.935Z</time></trkpt><trkpt lat="45.49981606463699" lon="7.935182328005923"><ele>698.0</ele><time>2026-04-10T15:49:04.934Z</time></trkpt><trkpt lat="45.49984052753748" lon="7.9352748798859"><ele>698.0</ele><time>2026-04-10T15:49:05.934Z</time></trkpt><trkpt lat="45.49985590759233" lon="7.935370155784431"><ele>698.0</ele><time>2026-04-10T15:49:07.934Z</time></trkpt><trkpt lat="45.49989781085063" lon="7.935459477385545"><ele>698.0</ele><time>2026-04-10T15:49:09.934Z</time></trkpt><trkpt lat="45.49991701174821" lon="7.935557657304585"><ele>697.0</ele><time>2026-04-10T15:49:12.934Z</time></trkpt><trkpt lat="45.49994462516616" lon="7.935641516016462"><ele>696.0</ele><time>2026-04-10T15:49:14.934Z</time></trkpt><trkpt lat="45.50000543748837" lon="7.935748847514731"><ele>695.0</ele><time>2026-04-10T15:49:17.934Z</time></trkpt><trkpt lat="45.50001843810914" lon="7.9358483742911785"><ele>694.0</ele><time>2026-04-10T15:49:20.934Z</time></trkpt><trkpt lat="45.50000405981711" lon="7.93599179185885"><ele>693.0</ele><time>2026-04-10T15:49:23.934Z</time></trkpt><trkpt lat="45.49998674016806" lon="7.936102095227247"><ele>692.0</ele><time>2026-04-10T15:49:25.934Z</time></trkpt><trkpt lat="45.49998844242595" lon="7.936193666653038"><ele>690.0</ele><time>2026-04-10T15:49:27.934Z</time></trkpt><trkpt lat="45.49999158173437" lon="7.93629396050721"><ele>688.0</ele><time>2026-04-10T15:49:29.935Z</time></trkpt><trkpt lat="45.499995111641496" lon="7.936441396701421"><ele>686.0</ele><time>2026-04-10T15:49:32.935Z</time></trkpt><trkpt lat="45.499977017448074" lon="7.936566396965737"><ele>684.0</ele><time>2026-04-10T15:49:35.935Z</time></trkpt><trkpt lat="45.49996511804351" lon="7.936655747549402"><ele>682.0</ele><time>2026-04-10T15:49:37.935Z</time></trkpt><trkpt lat="45.49995161391818" lon="7.9368109657919375"><ele>680.0</ele><time>2026-04-10T15:49:39.935Z</time></trkpt><trkpt lat="45.49993313973346" lon="7.936907957021385"><ele>678.2</ele><time>2026-04-10T15:49:40.935Z</time></trkpt><trkpt lat="45.499905715908895" lon="7.937043379493561"><ele>676.4</ele><time>2026-04-10T15:49:42.935Z</time></trkpt><trkpt lat="45.499887318882834" lon="7.93715963097621"><ele>674.5999999999999</ele><time>2026-04-10T15:49:44.935Z</time></trkpt><trkpt lat="45.49986664680453" lon="7.93730526207595"><ele>672.8</ele><time>2026-04-10T15:49:46.935Z</time></trkpt><trkpt lat="45.49981250597207" lon="7.937480676259146"><ele>671.0</ele><time>2026-04-10T15:49:48.935Z</time></trkpt><trkpt lat="45.499787340737086" lon="7.9375655489209125"><ele>670.5999999999999</ele><time>2026-04-10T15:49:49.935Z</time></trkpt><trkpt lat="45.499726679500775" lon="7.937683990594871"><ele>670.2</ele><time>2026-04-10T15:49:51.935Z</time></trkpt><trkpt lat="45.49963531173418" lon="7.937774798197983"><ele>669.8</ele><time>2026-04-10T15:49:53.935Z</time></trkpt><trkpt lat="45.499556709269086" lon="7.937876386074059"><ele>669.4000000000001</ele><time>2026-04-10T15:49:55.935Z</time></trkpt><trkpt lat="45.49951034984117" lon="7.9380133151990835"><ele>669.0</ele><time>2026-04-10T15:49:57.935Z</time></trkpt><trkpt lat="45.49948474058546" lon="7.93816474707312"><ele>668.3333333333334</ele><time>2026-04-10T15:49:59.935Z</time></trkpt><trkpt lat="45.49947673030531" lon="7.938265325358831"><ele>667.6666666666666</ele><time>2026-04-10T15:50:01.935Z</time></trkpt><trkpt lat="45.49938802181901" lon="7.938353590681847"><ele>667.0</ele><time>2026-04-10T15:50:03.935Z</time></trkpt><trkpt lat="45.49934577886924" lon="7.938445159020535"><ele>666.3333333333333</ele><time>2026-04-10T15:50:05.935Z</time></trkpt><trkpt lat="45.49930425929936" lon="7.93853707548166"><ele>665.6666666666666</ele><time>2026-04-10T15:50:07.935Z</time></trkpt><trkpt lat="45.499273297569324" lon="7.938658447693867"><ele>665.0</ele><time>2026-04-10T15:50:09.935Z</time></trkpt><trkpt lat="45.499217651330156" lon="7.9387590154118515"><ele>665.0</ele><time>2026-04-10T15:50:11.935Z</time></trkpt><trkpt lat="45.49917601244369" lon="7.938841496598055"><ele>665.0</ele><time>2026-04-10T15:50:13.935Z</time></trkpt><trkpt lat="45.49911924225016" lon="7.938917182939937"><ele>665.0</ele><time>2026-04-10T15:50:15.935Z</time></trkpt><trkpt lat="45.499066224532335" lon="7.938978546433175"><ele>665.0</ele><time>2026-04-10T15:50:18.935Z</time></trkpt><trkpt lat="45.49900734866427" lon="7.939029439722491"><ele>665.0</ele><time>2026-04-10T15:50:21.935Z</time></trkpt><trkpt lat="45.4989351925999" lon="7.939092071682713"><ele>665.0</ele><time>2026-04-10T15:50:24.935Z</time></trkpt><trkpt lat="45.49887188366207" lon="7.9391276029162965"><ele>665.0</ele><time>2026-04-10T15:50:26.935Z</time></trkpt><trkpt lat="45.49876096122047" lon="7.939080220273834"><ele>665.8333333333333</ele><time>2026-04-10T15:50:29.935Z</time></trkpt><trkpt lat="45.49867638808039" lon="7.939043604026215"><ele>666.6666666666666</ele><time>2026-04-10T15:50:31.935Z</time></trkpt><trkpt lat="45.49857649113821" lon="7.939026617396958"><ele>667.5</ele><time>2026-04-10T15:50:33.935Z</time></trkpt><trkpt lat="45.49851343165075" lon="7.939082715299941"><ele>668.3333333333334</ele><time>2026-04-10T15:50:35.935Z</time></trkpt><trkpt lat="45.49844094600506" lon="7.939168410310562"><ele>669.1666666666667</ele><time>2026-04-10T15:50:37.935Z</time></trkpt><trkpt lat="45.49839345269687" lon="7.9392406079145665"><ele>670.0</ele><time>2026-04-10T15:50:38.935Z</time></trkpt><trkpt lat="45.49834065777862" lon="7.939305537801789"><ele>670.0</ele><time>2026-04-10T15:50:39.935Z</time></trkpt><trkpt lat="45.498253771049704" lon="7.939374956945741"><ele>670.0</ele><time>2026-04-10T15:50:41.935Z</time></trkpt><trkpt lat="45.49816422917821" lon="7.939413396635577"><ele>670.0</ele><time>2026-04-10T15:50:43.935Z</time></trkpt><trkpt lat="45.498080573623575" lon="7.939486571355492"><ele>670.0</ele><time>2026-04-10T15:50:45.935Z</time></trkpt><trkpt lat="45.49800319170817" lon="7.939527930619965"><ele>670.0</ele><time>2026-04-10T15:50:47.935Z</time></trkpt><trkpt lat="45.497917272528724" lon="7.939588513032439"><ele>672.8333333333334</ele><time>2026-04-10T15:50:49.935Z</time></trkpt><trkpt lat="45.497842835724384" lon="7.9396077681154855"><ele>675.6666666666667</ele><time>2026-04-10T15:50:51.935Z</time></trkpt><trkpt lat="45.49776390307979" lon="7.93959074310783"><ele>678.5</ele><time>2026-04-10T15:50:53.935Z</time></trkpt><trkpt lat="45.4976801775982" lon="7.93962227611948"><ele>681.3333333333334</ele><time>2026-04-10T15:50:55.935Z</time></trkpt><trkpt lat="45.49759734846292" lon="7.9396186120091805"><ele>684.1666666666666</ele><time>2026-04-10T15:50:57.935Z</time></trkpt><trkpt lat="45.49752434920703" lon="7.9396827656477145"><ele>687.0</ele><time>2026-04-10T15:50:59.935Z</time></trkpt><trkpt lat="45.49744986750124" lon="7.939757045160307"><ele>687.0</ele><time>2026-04-10T15:51:01.932Z</time></trkpt><trkpt lat="45.49736172145655" lon="7.939825226446273"><ele>687.0</ele><time>2026-04-10T15:51:03.933Z</time></trkpt><trkpt lat="45.49731127930703" lon="7.939891850137229"><ele>687.0</ele><time>2026-04-10T15:51:05.933Z</time></trkpt><trkpt lat="45.4972576007529" lon="7.939976200460491"><ele>687.0</ele><time>2026-04-10T15:51:07.932Z</time></trkpt><trkpt lat="45.49718568068552" lon="7.940071050567648"><ele>687.0</ele><time>2026-04-10T15:51:09.933Z</time></trkpt><trkpt lat="45.497131014684285" lon="7.940184892718385"><ele>687.0</ele><time>2026-04-10T15:51:11.932Z</time></trkpt><trkpt lat="45.49703899932582" lon="7.94025563223507"><ele>686.4000000000001</ele><time>2026-04-10T15:51:13.932Z</time></trkpt><trkpt lat="45.49698208662383" lon="7.9403082775628455"><ele>685.8000000000001</ele><time>2026-04-10T15:51:14.932Z</time></trkpt><trkpt lat="45.496926890847575" lon="7.940421988553584"><ele>685.2</ele><time>2026-04-10T15:51:16.932Z</time></trkpt><trkpt lat="45.49685302943022" lon="7.940549961203877"><ele>684.6</ele><time>2026-04-10T15:51:18.932Z</time></trkpt><trkpt lat="45.4967963635983" lon="7.940631514121616"><ele>684.0</ele><time>2026-04-10T15:51:19.932Z</time></trkpt><trkpt lat="45.49670300369685" lon="7.940726433805527"><ele>684.0</ele><time>2026-04-10T15:51:21.932Z</time></trkpt><trkpt lat="45.49663674410405" lon="7.940789178426023"><ele>684.0</ele><time>2026-04-10T15:51:23.932Z</time></trkpt><trkpt lat="45.4965442707249" lon="7.9408156441047355"><ele>684.0</ele><time>2026-04-10T15:51:25.932Z</time></trkpt><trkpt lat="45.49647860709566" lon="7.940807893129348"><ele>684.0</ele><time>2026-04-10T15:51:27.932Z</time></trkpt><trkpt lat="45.49638604312514" lon="7.940799459492409"><ele>684.0</ele><time>2026-04-10T15:51:29.932Z</time></trkpt><trkpt lat="45.496280385913686" lon="7.940814376104168"><ele>684.0</ele><time>2026-04-10T15:51:32.932Z</time></trkpt><trkpt lat="45.49621488865201" lon="7.940851193490399"><ele>682.6</ele><time>2026-04-10T15:51:34.932Z</time></trkpt><trkpt lat="45.49615411545345" lon="7.940934448821426"><ele>681.2</ele><time>2026-04-10T15:51:37.932Z</time></trkpt><trkpt lat="45.49611300103798" lon="7.941078592038096"><ele>679.8000000000001</ele><time>2026-04-10T15:51:39.932Z</time></trkpt><trkpt lat="45.49603471631813" lon="7.941188981630827"><ele>678.4000000000001</ele><time>2026-04-10T15:51:41.932Z</time></trkpt><trkpt lat="45.495979572922025" lon="7.941268929429005"><ele>677.0</ele><time>2026-04-10T15:51:42.932Z</time></trkpt><trkpt lat="45.495929134702884" lon="7.941346338692411"><ele>677.0</ele><time>2026-04-10T15:51:43.932Z</time></trkpt><trkpt lat="45.495869525312095" lon="7.941462997754697"><ele>677.0</ele><time>2026-04-10T15:51:45.932Z</time></trkpt><trkpt lat="45.49583077852854" lon="7.941599158392921"><ele>677.0</ele><time>2026-04-10T15:51:47.932Z</time></trkpt><trkpt lat="45.49581932049539" lon="7.941714702154388"><ele>677.0</ele><time>2026-04-10T15:51:49.932Z</time></trkpt><trkpt lat="45.49575649194492" lon="7.941798437720875"><ele>677.0</ele><time>2026-04-10T15:51:51.932Z</time></trkpt><trkpt lat="45.49569372531204" lon="7.941895643057533"><ele>678.4000000000001</ele><time>2026-04-10T15:51:53.932Z</time></trkpt><trkpt lat="45.49561814585713" lon="7.942077412252944"><ele>679.8000000000001</ele><time>2026-04-10T15:51:55.932Z</time></trkpt><trkpt lat="45.49557705326628" lon="7.942165272407808"><ele>681.2</ele><time>2026-04-10T15:51:56.932Z</time></trkpt><trkpt lat="45.495516405049244" lon="7.942302212625262"><ele>682.6</ele><time>2026-04-10T15:51:58.932Z</time></trkpt><trkpt lat="45.49541986664875" lon="7.942364773703606"><ele>684.0</ele><time>2026-04-10T15:52:00.932Z</time></trkpt><trkpt lat="45.49534577240017" lon="7.942441403761299"><ele>681.9999999999999</ele><time>2026-04-10T15:52:02.932Z</time></trkpt><trkpt lat="45.495281321946315" lon="7.942422913863839"><ele>680.0</ele><time>2026-04-10T15:52:05.932Z</time></trkpt><trkpt lat="45.4952440345929" lon="7.94233981059949"><ele>678.0</ele><time>2026-04-10T15:52:13.932Z</time></trkpt><trkpt lat="45.49520998302642" lon="7.942241554076753"><ele>676.0</ele><time>2026-04-10T15:52:17.932Z</time></trkpt><trkpt lat="45.495147373538025" lon="7.942211042189504"><ele>674.0</ele><time>2026-04-10T15:52:21.932Z</time></trkpt><trkpt lat="45.49512233938566" lon="7.942086967249455"><ele>671.9999999999999</ele><time>2026-04-10T15:52:24.932Z</time></trkpt><trkpt lat="45.49505450520689" lon="7.9420270510955575"><ele>670.0</ele><time>2026-04-10T15:52:26.932Z</time></trkpt><trkpt lat="45.49496939211183" lon="7.941941468398099"><ele>670.0</ele><time>2026-04-10T15:52:28.932Z</time></trkpt><trkpt lat="45.494935125828384" lon="7.941838271081212"><ele>670.0</ele><time>2026-04-10T15:52:30.932Z</time></trkpt><trkpt lat="45.494872058338615" lon="7.941783321442302"><ele>670.0</ele><time>2026-04-10T15:52:32.932Z</time></trkpt><trkpt lat="45.49477635949208" lon="7.941741978744998"><ele>670.0</ele><time>2026-04-10T15:52:34.932Z</time></trkpt><trkpt lat="45.49469835830143" lon="7.941763020910388"><ele>670.0</ele><time>2026-04-10T15:52:36.932Z</time></trkpt><trkpt lat="45.494586321170125" lon="7.941727362004561"><ele>670.0</ele><time>2026-04-10T15:52:38.932Z</time></trkpt><trkpt lat="45.494494148312825" lon="7.941726498865234"><ele>665.6</ele><time>2026-04-10T15:52:40.932Z</time></trkpt><trkpt lat="45.494394966809" lon="7.941731026914937"><ele>661.2</ele><time>2026-04-10T15:52:42.932Z</time></trkpt><trkpt lat="45.49432365689727" lon="7.941802560285923"><ele>656.8</ele><time>2026-04-10T15:52:44.932Z</time></trkpt><trkpt lat="45.494251323463665" lon="7.941915699443683"><ele>652.4</ele><time>2026-04-10T15:52:46.932Z</time></trkpt><trkpt lat="45.494210521541454" lon="7.942030566070763"><ele>648.0</ele><time>2026-04-10T15:52:48.932Z</time></trkpt><trkpt lat="45.494173455743955" lon="7.942121430038904"><ele>648.0</ele><time>2026-04-10T15:52:50.932Z</time></trkpt><trkpt lat="45.49408958614584" lon="7.9421500868449675"><ele>648.0</ele><time>2026-04-10T15:52:52.932Z</time></trkpt><trkpt lat="45.49399640706963" lon="7.942086565909353"><ele>648.0</ele><time>2026-04-10T15:52:54.932Z</time></trkpt><trkpt lat="45.493960794762955" lon="7.941999854293981"><ele>648.0</ele><time>2026-04-10T15:52:56.932Z</time></trkpt><trkpt lat="45.493886872889995" lon="7.942019700943718"><ele>648.0</ele><time>2026-04-10T15:52:58.932Z</time></trkpt><trkpt lat="45.49383070781486" lon="7.94207659022783"><ele>648.0</ele><time>2026-04-10T15:53:00.932Z</time></trkpt><trkpt lat="45.49380985315575" lon="7.942183131743004"><ele>647.0</ele><time>2026-04-10T15:53:02.932Z</time></trkpt><trkpt lat="45.49375481063315" lon="7.942274029510642"><ele>646.0</ele><time>2026-04-10T15:53:04.932Z</time></trkpt><trkpt lat="45.49369229095322" lon="7.942350065919117"><ele>645.0</ele><time>2026-04-10T15:53:06.93Z</time></trkpt><trkpt lat="45.49361865110889" lon="7.9422883073589405"><ele>644.0</ele><time>2026-04-10T15:53:10.93Z</time></trkpt><trkpt lat="45.493521843711626" lon="7.942284303738123"><ele>643.0</ele><time>2026-04-10T15:53:12.931Z</time></trkpt><trkpt lat="45.49344069312924" lon="7.9423432306210495"><ele>642.0</ele><time>2026-04-10T15:53:14.931Z</time></trkpt><trkpt lat="45.49335895252757" lon="7.942385142242466"><ele>642.0</ele><time>2026-04-10T15:53:16.93Z</time></trkpt><trkpt lat="45.49327608929996" lon="7.942413480476771"><ele>642.0</ele><time>2026-04-10T15:53:18.93Z</time></trkpt><trkpt lat="45.49321283521735" lon="7.942355066149615"><ele>642.0</ele><time>2026-04-10T15:53:20.93Z</time></trkpt><trkpt lat="45.493148036556654" lon="7.942259680181532"><ele>642.0</ele><time>2026-04-10T15:53:22.93Z</time></trkpt><trkpt lat="45.49309033549104" lon="7.942211418013564"><ele>642.0</ele><time>2026-04-10T15:53:24.93Z</time></trkpt><trkpt lat="45.49298083292163" lon="7.942200887300017"><ele>642.0</ele><time>2026-04-10T15:54:57.93Z</time></trkpt><trkpt lat="45.49289814816324" lon="7.942223233645462"><ele>640.5</ele><time>2026-04-10T15:55:01.93Z</time></trkpt><trkpt lat="45.492833585212836" lon="7.942219280245342"><ele>639.0</ele><time>2026-04-10T15:55:03.93Z</time></trkpt><trkpt lat="45.49275714818337" lon="7.942221040129476"><ele>637.5</ele><time>2026-04-10T15:55:05.93Z</time></trkpt><trkpt lat="45.49267862778623" lon="7.942156554202256"><ele>636.0</ele><time>2026-04-10T15:55:08.93Z</time></trkpt><trkpt lat="45.49259928235824" lon="7.942097556465613"><ele>634.5</ele><time>2026-04-10T15:55:10.93Z</time></trkpt><trkpt lat="45.492514494033315" lon="7.9420964767583895"><ele>633.0</ele><time>2026-04-10T15:55:12.929Z</time></trkpt><trkpt lat="45.49245564357988" lon="7.942155826747474"><ele>633.0</ele><time>2026-04-10T15:55:14.929Z</time></trkpt><trkpt lat="45.49241514831523" lon="7.942249451847594"><ele>633.0</ele><time>2026-04-10T15:55:17.929Z</time></trkpt><trkpt lat="45.49235101002972" lon="7.942306634495328"><ele>633.0</ele><time>2026-04-10T15:55:19.928Z</time></trkpt><trkpt lat="45.49227428360485" lon="7.942384105217128"><ele>633.0</ele><time>2026-04-10T15:55:21.928Z</time></trkpt><trkpt lat="45.49222467509045" lon="7.942448069821154"><ele>633.0</ele><time>2026-04-10T15:55:22.929Z</time></trkpt><trkpt lat="45.49218344423387" lon="7.942520729759691"><ele>633.0</ele><time>2026-04-10T15:55:23.929Z</time></trkpt><trkpt lat="45.49213445599949" lon="7.942621295964104"><ele>629.6666666666666</ele><time>2026-04-10T15:55:25.929Z</time></trkpt><trkpt lat="45.492066739140235" lon="7.942703303575171"><ele>626.3333333333334</ele><time>2026-04-10T15:55:26.929Z</time></trkpt><trkpt lat="45.49201954955804" lon="7.942763340874807"><ele>623.0</ele><time>2026-04-10T15:55:27.929Z</time></trkpt><trkpt lat="45.491945169617395" lon="7.942802752844707"><ele>619.6666666666667</ele><time>2026-04-10T15:55:29.929Z</time></trkpt><trkpt lat="45.491929274606946" lon="7.942909224223073"><ele>616.3333333333334</ele><time>2026-04-10T15:55:31.929Z</time></trkpt><trkpt lat="45.49188775692346" lon="7.943013693001669"><ele>613.0</ele><time>2026-04-10T15:55:33.929Z</time></trkpt><trkpt lat="45.49181956096719" lon="7.943131264179597"><ele>613.0</ele><time>2026-04-10T15:55:35.929Z</time></trkpt><trkpt lat="45.49179909095395" lon="7.94321833831836"><ele>613.0</ele><time>2026-04-10T15:55:37.929Z</time></trkpt><trkpt lat="45.49182513393079" lon="7.943313500285702"><ele>613.0</ele><time>2026-04-10T15:55:39.929Z</time></trkpt><trkpt lat="45.491773119973715" lon="7.9433929803706675"><ele>613.0</ele><time>2026-04-10T15:55:41.929Z</time></trkpt><trkpt lat="45.4917306419119" lon="7.943480865189468"><ele>613.0</ele><time>2026-04-10T15:55:43.929Z</time></trkpt><trkpt lat="45.49178854252121" lon="7.943578751913574"><ele>613.0</ele><time>2026-04-10T15:55:45.929Z</time></trkpt><trkpt lat="45.49180047267908" lon="7.943683970059186"><ele>613.5</ele><time>2026-04-10T15:55:47.929Z</time></trkpt><trkpt lat="45.49179674104449" lon="7.943806645814763"><ele>614.0</ele><time>2026-04-10T15:55:49.929Z</time></trkpt><trkpt lat="45.491838689331324" lon="7.943888312021993"><ele>614.5</ele><time>2026-04-10T15:55:51.929Z</time></trkpt><trkpt lat="45.49193082699325" lon="7.944018702473312"><ele>615.0</ele><time>2026-04-10T15:55:53.929Z</time></trkpt><trkpt lat="45.4919745668101" lon="7.944085413519644"><ele>615.5</ele><time>2026-04-10T15:55:55.929Z</time></trkpt><trkpt lat="45.49197711353062" lon="7.944225596364499"><ele>616.0</ele><time>2026-04-10T15:55:57.929Z</time></trkpt><trkpt lat="45.49196197053153" lon="7.944356191566794"><ele>616.4</ele><time>2026-04-10T15:55:59.929Z</time></trkpt><trkpt lat="45.49197331311234" lon="7.944452770905351"><ele>616.8</ele><time>2026-04-10T15:56:01.929Z</time></trkpt><trkpt lat="45.49198196493082" lon="7.944558597010419"><ele>617.1999999999999</ele><time>2026-04-10T15:56:03.929Z</time></trkpt><trkpt lat="45.491943298790325" lon="7.944683632990229"><ele>617.6</ele><time>2026-04-10T15:56:06.929Z</time></trkpt><trkpt lat="45.49190351968839" lon="7.9447953940656815"><ele>618.0</ele><time>2026-04-10T15:56:08.929Z</time></trkpt><trkpt lat="45.49187411852167" lon="7.944966286520775"><ele>618.8</ele><time>2026-04-10T15:56:10.929Z</time></trkpt><trkpt lat="45.49185051327556" lon="7.945079387432539"><ele>619.5999999999999</ele><time>2026-04-10T15:56:11.929Z</time></trkpt><trkpt lat="45.491833165889155" lon="7.945166901391284"><ele>620.4000000000001</ele><time>2026-04-10T15:56:12.929Z</time></trkpt><trkpt lat="45.49181378492637" lon="7.945342356612026"><ele>621.2</ele><time>2026-04-10T15:56:14.929Z</time></trkpt><trkpt lat="45.49174132566335" lon="7.945480270873156"><ele>622.0</ele><time>2026-04-10T15:56:16.929Z</time></trkpt><trkpt lat="45.49172185802402" lon="7.945577090149131"><ele>622.0</ele><time>2026-04-10T15:56:18.929Z</time></trkpt><trkpt lat="45.49166130391306" lon="7.945708068702708"><ele>622.0</ele><time>2026-04-10T15:56:20.929Z</time></trkpt><trkpt lat="45.49157734948528" lon="7.945788980476192"><ele>622.0</ele><time>2026-04-10T15:56:22.929Z</time></trkpt><trkpt lat="45.49150365377161" lon="7.945892154890689"><ele>622.0</ele><time>2026-04-10T15:56:24.929Z</time></trkpt><trkpt lat="45.491507180708474" lon="7.946024803484526"><ele>622.0</ele><time>2026-04-10T15:56:26.929Z</time></trkpt><trkpt lat="45.491539472680365" lon="7.946149905809086"><ele>622.8333333333334</ele><time>2026-04-10T15:56:28.929Z</time></trkpt><trkpt lat="45.491556779553285" lon="7.94625725088212"><ele>623.6666666666667</ele><time>2026-04-10T15:56:30.929Z</time></trkpt><trkpt lat="45.49152989728432" lon="7.946401193953728"><ele>624.5</ele><time>2026-04-10T15:56:32.929Z</time></trkpt><trkpt lat="45.49151214066713" lon="7.946512192968797"><ele>625.3333333333334</ele><time>2026-04-10T15:56:34.929Z</time></trkpt><trkpt lat="45.491490026537704" lon="7.946652758095799"><ele>626.1666666666666</ele><time>2026-04-10T15:56:36.929Z</time></trkpt><trkpt lat="45.491449477454154" lon="7.94674474145815"><ele>627.0</ele><time>2026-04-10T15:56:38.929Z</time></trkpt><trkpt lat="45.49138004887032" lon="7.946815654067537"><ele>628.8000000000001</ele><time>2026-04-10T15:56:40.929Z</time></trkpt><trkpt lat="45.49129445350695" lon="7.94685304760931"><ele>630.6</ele><time>2026-04-10T15:56:42.929Z</time></trkpt><trkpt lat="45.49120227313531" lon="7.946867876253349"><ele>632.4000000000001</ele><time>2026-04-10T15:56:44.929Z</time></trkpt><trkpt lat="45.49110848782483" lon="7.94692078776278"><ele>634.2</ele><time>2026-04-10T15:56:46.929Z</time></trkpt><trkpt lat="45.4910097462954" lon="7.946942991739591"><ele>636.0</ele><time>2026-04-10T15:56:48.929Z</time></trkpt><trkpt lat="45.49093821020833" lon="7.947007463946159"><ele>631.5</ele><time>2026-04-10T15:56:50.929Z</time></trkpt><trkpt lat="45.49086223862176" lon="7.9470491130040735"><ele>627.0</ele><time>2026-04-10T15:56:52.929Z</time></trkpt><trkpt lat="45.49077906574691" lon="7.947066839275271"><ele>622.5</ele><time>2026-04-10T15:56:54.929Z</time></trkpt><trkpt lat="45.49070244046046" lon="7.947091307079603"><ele>618.0</ele><time>2026-04-10T15:56:56.929Z</time></trkpt><trkpt lat="45.490632121480445" lon="7.94708922215495"><ele>613.5</ele><time>2026-04-10T15:56:58.929Z</time></trkpt><trkpt lat="45.49053580892719" lon="7.947096454399947"><ele>609.0</ele><time>2026-04-10T15:57:00.929Z</time></trkpt><trkpt lat="45.49047211937345" lon="7.947152619002157"><ele>609.0</ele><time>2026-04-10T15:57:02.929Z</time></trkpt><trkpt lat="45.4904286288095" lon="7.947239206053493"><ele>609.0</ele><time>2026-04-10T15:57:04.929Z</time></trkpt><trkpt lat="45.490387124691814" lon="7.947326385517472"><ele>609.0</ele><time>2026-04-10T15:57:06.929Z</time></trkpt><trkpt lat="45.49033752546615" lon="7.947417569610885"><ele>609.0</ele><time>2026-04-10T15:57:08.929Z</time></trkpt><trkpt lat="45.490257857032134" lon="7.947440285265296"><ele>609.0</ele><time>2026-04-10T15:57:10.929Z</time></trkpt><trkpt lat="45.490217511960275" lon="7.947514868081938"><ele>609.0</ele><time>2026-04-10T15:57:12.929Z</time></trkpt><trkpt lat="45.4902097551068" lon="7.94760678791945"><ele>609.0</ele><time>2026-04-10T15:57:14.929Z</time></trkpt><trkpt lat="45.49017113525534" lon="7.9476960306447815"><ele>605.6666666666666</ele><time>2026-04-10T15:57:18.927Z</time></trkpt><trkpt lat="45.490111026368304" lon="7.947781336620856"><ele>602.3333333333334</ele><time>2026-04-10T15:57:22.927Z</time></trkpt><trkpt lat="45.49003032894141" lon="7.947776624241791"><ele>599.0</ele><time>2026-04-10T15:57:25.927Z</time></trkpt><trkpt lat="45.48996874120161" lon="7.947728035461418"><ele>595.6666666666667</ele><time>2026-04-10T15:57:28.927Z</time></trkpt><trkpt lat="45.48989225497803" lon="7.94773874462557"><ele>592.3333333333334</ele><time>2026-04-10T15:57:31.926Z</time></trkpt><trkpt lat="45.48980401470796" lon="7.947772980502203"><ele>589.0</ele><time>2026-04-10T15:57:34.926Z</time></trkpt><trkpt lat="45.48974518416529" lon="7.947726829505612"><ele>589.0</ele><time>2026-04-10T15:57:37.926Z</time></trkpt><trkpt lat="45.48966556183007" lon="7.947685832771265"><ele>589.0</ele><time>2026-04-10T15:57:40.926Z</time></trkpt><trkpt lat="45.4896005878529" lon="7.947674984591665"><ele>589.0</ele><time>2026-04-10T15:57:43.926Z</time></trkpt><trkpt lat="45.48953640929672" lon="7.947625872930953"><ele>589.0</ele><time>2026-04-10T15:57:46.926Z</time></trkpt><trkpt lat="45.48945001022126" lon="7.947608800803955"><ele>589.0</ele><time>2026-04-10T15:57:49.926Z</time></trkpt><trkpt lat="45.48936232220496" lon="7.9475966002179215"><ele>589.0</ele><time>2026-04-10T15:57:52.926Z</time></trkpt><trkpt lat="45.48929121323252" lon="7.947609198717783"><ele>584.8571428571429</ele><time>2026-04-10T15:57:55.926Z</time></trkpt><trkpt lat="45.4892175970954" lon="7.947584472196794"><ele>580.7142857142857</ele><time>2026-04-10T15:57:58.926Z</time></trkpt><trkpt lat="45.48914226744377" lon="7.947563081117622"><ele>576.5714285714286</ele><time>2026-04-10T15:58:00.926Z</time></trkpt><trkpt lat="45.489067710464106" lon="7.947549765317859"><ele>572.4285714285714</ele><time>2026-04-10T15:58:02.926Z</time></trkpt><trkpt lat="45.48898315964176" lon="7.947515162911547"><ele>568.2857142857142</ele><time>2026-04-10T15:58:10.926Z</time></trkpt><trkpt lat="45.48892317028717" lon="7.9474845082619066"><ele>564.1428571428571</ele><time>2026-04-10T15:58:12.926Z</time></trkpt><trkpt lat="45.488904479547735" lon="7.947574709926127"><ele>560.0</ele><time>2026-04-10T15:58:17.926Z</time></trkpt><trkpt lat="45.48880748314985" lon="7.947643057630195"><ele>559.5</ele><time>2026-04-10T16:08:35.96Z</time></trkpt><trkpt lat="45.48880943017081" lon="7.9477375142847455"><ele>559.0</ele><time>2026-04-10T16:08:38.96Z</time></trkpt><trkpt lat="45.48883102687661" lon="7.9478626836741295"><ele>558.5</ele><time>2026-04-10T16:08:41.96Z</time></trkpt><trkpt lat="45.4889158211902" lon="7.947984746447299"><ele>558.0</ele><time>2026-04-10T16:08:43.96Z</time></trkpt><trkpt lat="45.48896313889546" lon="7.948066163607772"><ele>557.5</ele><time>2026-04-10T16:08:44.96Z</time></trkpt><trkpt lat="45.48898078721803" lon="7.948157192090279"><ele>557.0</ele><time>2026-04-10T16:08:46.96Z</time></trkpt><trkpt lat="45.48905532666617" lon="7.948291093651706"><ele>559.8333333333333</ele><time>2026-04-10T16:08:49.96Z</time></trkpt><trkpt lat="45.48909443199469" lon="7.948384119613963"><ele>562.6666666666666</ele><time>2026-04-10T16:08:52.96Z</time></trkpt><trkpt lat="45.48908867071666" lon="7.9484997459520255"><ele>565.5</ele><time>2026-04-10T16:08:54.96Z</time></trkpt><trkpt lat="45.48906917317926" lon="7.94861987885157"><ele>568.3333333333334</ele><time>2026-04-10T16:08:56.96Z</time></trkpt><trkpt lat="45.48906541361526" lon="7.948730616049567"><ele>571.1666666666667</ele><time>2026-04-10T16:08:58.96Z</time></trkpt><trkpt lat="45.48906940062054" lon="7.948849136502835"><ele>574.0</ele><time>2026-04-10T16:09:01.961Z</time></trkpt><trkpt lat="45.48906990356825" lon="7.948949897075226"><ele>574.0</ele><time>2026-04-10T16:09:04.961Z</time></trkpt><trkpt lat="45.48905157828656" lon="7.94908728104784"><ele>574.0</ele><time>2026-04-10T16:09:07.961Z</time></trkpt><trkpt lat="45.489002981032485" lon="7.949200824512715"><ele>574.0</ele><time>2026-04-10T16:09:10.961Z</time></trkpt><trkpt lat="45.48906442506216" lon="7.949270805654637"><ele>574.0</ele><time>2026-04-10T16:09:14.961Z</time></trkpt><trkpt lat="45.48912324365636" lon="7.949361537133869"><ele>574.0</ele><time>2026-04-10T16:09:20.961Z</time></trkpt><trkpt lat="45.4891605241852" lon="7.9494446666658805"><ele>574.0</ele><time>2026-04-10T16:09:25.961Z</time></trkpt><trkpt lat="45.489121380219274" lon="7.949538076780497"><ele>573.6666666666667</ele><time>2026-04-10T16:10:03.959Z</time></trkpt><trkpt lat="45.489073845082046" lon="7.949627649746817"><ele>573.3333333333334</ele><time>2026-04-10T16:10:06.959Z</time></trkpt><trkpt lat="45.48904104954951" lon="7.9497289266010585"><ele>573.0</ele><time>2026-04-10T16:10:09.959Z</time></trkpt><trkpt lat="45.48896253735631" lon="7.949770193798218"><ele>572.6666666666666</ele><time>2026-04-10T16:10:12.959Z</time></trkpt><trkpt lat="45.488900090629535" lon="7.949739620040864"><ele>572.3333333333333</ele><time>2026-04-10T16:10:14.959Z</time></trkpt><trkpt lat="45.48882498615139" lon="7.949784891859878"><ele>572.0</ele><time>2026-04-10T16:10:21.959Z</time></trkpt><trkpt lat="45.48875130273981" lon="7.949861576136082"><ele>572.0</ele><time>2026-04-10T16:10:25.959Z</time></trkpt><trkpt lat="45.488675190806916" lon="7.949970835263946"><ele>572.0</ele><time>2026-04-10T16:10:27.959Z</time></trkpt><trkpt lat="45.48863194870118" lon="7.950075677300206"><ele>572.0</ele><time>2026-04-10T16:10:28.959Z</time></trkpt><trkpt lat="45.488587162449036" lon="7.950171098500752"><ele>572.0</ele><time>2026-04-10T16:10:29.959Z</time></trkpt><trkpt lat="45.48854539291222" lon="7.9502441997886075"><ele>572.0</ele><time>2026-04-10T16:10:30.959Z</time></trkpt><trkpt lat="45.488484079876336" lon="7.950343287882519"><ele>572.0</ele><time>2026-04-10T16:10:32.959Z</time></trkpt><trkpt lat="45.488461863433486" lon="7.950477715529032"><ele>574.3333333333333</ele><time>2026-04-10T16:10:34.959Z</time></trkpt><trkpt lat="45.48838593386817" lon="7.950567491015082"><ele>576.6666666666666</ele><time>2026-04-10T16:10:36.959Z</time></trkpt><trkpt lat="45.488338635277444" lon="7.950644702731702"><ele>579.0</ele><time>2026-04-10T16:10:41.959Z</time></trkpt><trkpt lat="45.48844404870399" lon="7.950622966374745"><ele>581.3333333333334</ele><time>2026-04-10T16:10:46.96Z</time></trkpt><trkpt lat="45.48852055606491" lon="7.950671749448056"><ele>583.6666666666667</ele><time>2026-04-10T16:10:48.96Z</time></trkpt><trkpt lat="45.488554430326154" lon="7.950761845778447"><ele>586.0</ele><time>2026-04-10T16:10:52.96Z</time></trkpt><trkpt lat="45.488648502268575" lon="7.950757355388681"><ele>585.9999999999999</ele><time>2026-04-10T16:10:59.96Z</time></trkpt><trkpt lat="45.48872276079424" lon="7.950734751805833"><ele>586.0</ele><time>2026-04-10T16:11:01.96Z</time></trkpt><trkpt lat="45.48877135181152" lon="7.95080476157532"><ele>586.0</ele><time>2026-04-10T16:11:04.96Z</time></trkpt><trkpt lat="45.488829966408595" lon="7.950871757005909"><ele>586.0</ele><time>2026-04-10T16:11:07.96Z</time></trkpt><trkpt lat="45.48888125888392" lon="7.950924507694232"><ele>586.0</ele><time>2026-04-10T16:11:15.96Z</time></trkpt><trkpt lat="45.48889200638591" lon="7.951015159557667"><ele>585.9999999999999</ele><time>2026-04-10T16:11:19.96Z</time></trkpt><trkpt lat="45.48890435642399" lon="7.951114958817538"><ele>586.0</ele><time>2026-04-10T16:11:26.96Z</time></trkpt><trkpt lat="45.488879768362146" lon="7.951225470340113"><ele>596.2</ele><time>2026-04-10T16:11:29.96Z</time></trkpt><trkpt lat="45.488884947118265" lon="7.9513230326696425"><ele>606.4000000000001</ele><time>2026-04-10T16:11:33.96Z</time></trkpt><trkpt lat="45.48894986966778" lon="7.9513288442037435"><ele>616.6</ele><time>2026-04-10T16:11:37.96Z</time></trkpt><trkpt lat="45.48899158849389" lon="7.9514000735849795"><ele>626.8000000000001</ele><time>2026-04-10T16:11:46.96Z</time></trkpt><trkpt lat="45.48918762542343" lon="7.95145010525791"><ele>637.0</ele><time>2026-04-10T16:26:20.962Z</time></trkpt><trkpt lat="45.48916919178518" lon="7.951560533228306"><ele>637.0</ele><time>2026-04-10T16:26:24.962Z</time></trkpt><trkpt lat="45.48915398189289" lon="7.951671716043609"><ele>637.0</ele><time>2026-04-10T16:26:29.962Z</time></trkpt><trkpt lat="45.48924864625068" lon="7.951689201431917"><ele>637.0</ele><time>2026-04-10T16:26:35.962Z</time></trkpt><trkpt lat="45.489322757390084" lon="7.951738778080095"><ele>637.0</ele><time>2026-04-10T16:26:38.962Z</time></trkpt><trkpt lat="45.48945593637971" lon="7.951843445718487"><ele>637.0</ele><time>2026-04-10T16:27:00.96Z</time></trkpt><trkpt lat="45.48939294678866" lon="7.951887260197164"><ele>638.6666666666667</ele><time>2026-04-10T16:27:03.96Z</time></trkpt><trkpt lat="45.48932270851781" lon="7.9519020074559705"><ele>640.3333333333334</ele><time>2026-04-10T16:27:06.96Z</time></trkpt><trkpt lat="45.48926744572331" lon="7.95198162845398"><ele>642.0</ele><time>2026-04-10T16:27:08.96Z</time></trkpt><trkpt lat="45.48920465275052" lon="7.952048246129348"><ele>643.6666666666666</ele><time>2026-04-10T16:27:10.96Z</time></trkpt><trkpt lat="45.48914765933525" lon="7.952130239900987"><ele>645.3333333333333</ele><time>2026-04-10T16:27:13.96Z</time></trkpt><trkpt lat="45.48909423205368" lon="7.952235707954253"><ele>647.0</ele><time>2026-04-10T16:27:15.96Z</time></trkpt><trkpt lat="45.48906825348554" lon="7.952335788684424"><ele>647.0</ele><time>2026-04-10T16:27:17.96Z</time></trkpt><trkpt lat="45.48900745710839" lon="7.952403424038412"><ele>647.0</ele><time>2026-04-10T16:27:19.96Z</time></trkpt><trkpt lat="45.488920576093236" lon="7.952469477857476"><ele>647.0</ele><time>2026-04-10T16:27:21.96Z</time></trkpt><trkpt lat="45.488870812922926" lon="7.952600635426708"><ele>647.0</ele><time>2026-04-10T16:27:23.96Z</time></trkpt><trkpt lat="45.48880076004424" lon="7.952719333061725"><ele>647.0</ele><time>2026-04-10T16:27:25.96Z</time></trkpt><trkpt lat="45.48876377240763" lon="7.952827975584764"><ele>644.0</ele><time>2026-04-10T16:27:27.96Z</time></trkpt><trkpt lat="45.48873406714894" lon="7.95293318571309"><ele>641.0</ele><time>2026-04-10T16:27:29.96Z</time></trkpt><trkpt lat="45.48866652555094" lon="7.953019937845714"><ele>638.0</ele><time>2026-04-10T16:27:31.96Z</time></trkpt><trkpt lat="45.4885718085532" lon="7.95309980633639"><ele>635.0</ele><time>2026-04-10T16:27:33.96Z</time></trkpt><trkpt lat="45.488490936167736" lon="7.9532274209118565"><ele>632.0</ele><time>2026-04-10T16:27:35.96Z</time></trkpt><trkpt lat="45.48843304329101" lon="7.953292268413681"><ele>633.6666666666666</ele><time>2026-04-10T16:27:37.96Z</time></trkpt><trkpt lat="45.48836423371155" lon="7.9533886982489115"><ele>635.3333333333333</ele><time>2026-04-10T16:27:39.961Z</time></trkpt><trkpt lat="45.48831232654878" lon="7.953534559202262"><ele>637.0</ele><time>2026-04-10T16:27:41.961Z</time></trkpt><trkpt lat="45.48824669299197" lon="7.953622528668052"><ele>638.6666666666666</ele><time>2026-04-10T16:27:43.961Z</time></trkpt><trkpt lat="45.48818084219129" lon="7.95360443072852"><ele>640.3333333333334</ele><time>2026-04-10T16:27:47.961Z</time></trkpt><trkpt lat="45.48812744487428" lon="7.953549442434858"><ele>642.0</ele><time>2026-04-10T16:27:50.961Z</time></trkpt><trkpt lat="45.488064828004845" lon="7.953531498659467"><ele>642.0</ele><time>2026-04-10T16:27:54.961Z</time></trkpt><trkpt lat="45.487970772976325" lon="7.953588694708339"><ele>642.0</ele><time>2026-04-10T16:27:58.961Z</time></trkpt><trkpt lat="45.48793680844356" lon="7.953695226000474"><ele>642.0</ele><time>2026-04-10T16:28:01.961Z</time></trkpt><trkpt lat="45.48787009228556" lon="7.95373166162865"><ele>642.0</ele><time>2026-04-10T16:28:04.961Z</time></trkpt><trkpt lat="45.487817540523174" lon="7.9537928738364885"><ele>642.0</ele><time>2026-04-10T16:28:08.961Z</time></trkpt><trkpt lat="45.487762031787845" lon="7.953847399915696"><ele>642.0</ele><time>2026-04-10T16:28:12.961Z</time></trkpt><trkpt lat="45.48769583196383" lon="7.953871256361924"><ele>638.8571428571428</ele><time>2026-04-10T16:28:15.961Z</time></trkpt><trkpt lat="45.48763426400863" lon="7.953904434685095"><ele>635.7142857142857</ele><time>2026-04-10T16:28:18.961Z</time></trkpt><trkpt lat="45.48756018173716" lon="7.953920093781714"><ele>632.5714285714286</ele><time>2026-04-10T16:28:21.961Z</time></trkpt><trkpt lat="45.48749807820648" lon="7.953969743368909"><ele>629.4285714285713</ele><time>2026-04-10T16:28:24.961Z</time></trkpt><trkpt lat="45.48741680767302" lon="7.954010094402588"><ele>626.2857142857142</ele><time>2026-04-10T16:28:27.961Z</time></trkpt><trkpt lat="45.48735028652151" lon="7.954036654348719"><ele>623.1428571428571</ele><time>2026-04-10T16:28:30.961Z</time></trkpt><trkpt lat="45.487285795675554" lon="7.954059937891758"><ele>620.0</ele><time>2026-04-10T16:28:33.961Z</time></trkpt><trkpt lat="45.48721592564978" lon="7.9540655569053715"><ele>620.0</ele><time>2026-04-10T16:28:37.961Z</time></trkpt><trkpt lat="45.4871536264199" lon="7.954041899008913"><ele>620.0</ele><time>2026-04-10T16:28:40.961Z</time></trkpt><trkpt lat="45.48708739135529" lon="7.954026666822939"><ele>620.0</ele><time>2026-04-10T16:28:43.961Z</time></trkpt><trkpt lat="45.487037316570586" lon="7.953952077341233"><ele>620.0</ele><time>2026-04-10T16:28:47.961Z</time></trkpt><trkpt lat="45.48701127160535" lon="7.953869526703393"><ele>620.0</ele><time>2026-04-10T16:28:49.959Z</time></trkpt><trkpt lat="45.48701414386439" lon="7.953769292432821"><ele>620.0</ele><time>2026-04-10T16:28:52.96Z</time></trkpt><trkpt lat="45.48701004004969" lon="7.953658401734921"><ele>620.0</ele><time>2026-04-10T16:28:55.959Z</time></trkpt><trkpt lat="45.486974336308066" lon="7.9535581707143415"><ele>614.5</ele><time>2026-04-10T16:28:58.96Z</time></trkpt><trkpt lat="45.48695654315141" lon="7.953461343482735"><ele>609.0</ele><time>2026-04-10T16:29:01.959Z</time></trkpt><trkpt lat="45.48693333253771" lon="7.95335152707796"><ele>603.5</ele><time>2026-04-10T16:29:04.959Z</time></trkpt><trkpt lat="45.48687856647008" lon="7.953298574638322"><ele>598.0</ele><time>2026-04-10T16:29:07.959Z</time></trkpt><trkpt lat="45.486806720602246" lon="7.953318141898531"><ele>592.5</ele><time>2026-04-10T16:29:09.959Z</time></trkpt><trkpt lat="45.486716865763896" lon="7.953378488745704"><ele>587.0</ele><time>2026-04-10T16:29:11.959Z</time></trkpt><trkpt lat="45.48661584385478" lon="7.953443321216384"><ele>587.0</ele><time>2026-04-10T16:29:13.959Z</time></trkpt><trkpt lat="45.486524553743024" lon="7.953550664373973"><ele>587.0</ele><time>2026-04-10T16:29:15.959Z</time></trkpt><trkpt lat="45.4864487522062" lon="7.95366518978062"><ele>587.0</ele><time>2026-04-10T16:29:17.959Z</time></trkpt><trkpt lat="45.48638404984162" lon="7.953770446912732"><ele>587.0</ele><time>2026-04-10T16:29:19.959Z</time></trkpt><trkpt lat="45.4863231423057" lon="7.953824536230333"><ele>587.0</ele><time>2026-04-10T16:29:20.959Z</time></trkpt><trkpt lat="45.48623192611583" lon="7.953897791405013"><ele>585.5</ele><time>2026-04-10T16:29:21.959Z</time></trkpt><trkpt lat="45.486165869136265" lon="7.953928449892975"><ele>584.0</ele><time>2026-04-10T16:29:22.959Z</time></trkpt><trkpt lat="45.48609559718358" lon="7.954007748508884"><ele>582.5</ele><time>2026-04-10T16:29:23.959Z</time></trkpt><trkpt lat="45.4860357246868" lon="7.954068970625482"><ele>581.0</ele><time>2026-04-10T16:29:24.959Z</time></trkpt><trkpt lat="45.485988828229395" lon="7.954142108827209"><ele>579.5</ele><time>2026-04-10T16:29:25.959Z</time></trkpt><trkpt lat="45.48592855863788" lon="7.954218885568466"><ele>578.0</ele><time>2026-04-10T16:29:26.959Z</time></trkpt><trkpt lat="45.48587617692796" lon="7.954309323075347"><ele>578.0</ele><time>2026-04-10T16:29:27.959Z</time></trkpt><trkpt lat="45.48581004684418" lon="7.9544337244384815"><ele>578.0</ele><time>2026-04-10T16:29:28.959Z</time></trkpt><trkpt lat="45.485767529527955" lon="7.954548335648989"><ele>578.0</ele><time>2026-04-10T16:29:29.959Z</time></trkpt><trkpt lat="45.48572549338136" lon="7.954647455433315"><ele>578.0</ele><time>2026-04-10T16:29:30.959Z</time></trkpt><trkpt lat="45.485678778707026" lon="7.95473300305561"><ele>578.0</ele><time>2026-04-10T16:29:31.959Z</time></trkpt><trkpt lat="45.485637953567775" lon="7.9548251413010185"><ele>578.0</ele><time>2026-04-10T16:29:32.959Z</time></trkpt><trkpt lat="45.48560167980124" lon="7.9549071559180735"><ele>578.0</ele><time>2026-04-10T16:29:33.959Z</time></trkpt><trkpt lat="45.48554470655719" lon="7.954979728068929"><ele>578.0</ele><time>2026-04-10T16:29:34.959Z</time></trkpt><trkpt lat="45.485477577060394" lon="7.955065446033184"><ele>578.0</ele><time>2026-04-10T16:29:36.96Z</time></trkpt><trkpt lat="45.485385853551875" lon="7.95517257475805"><ele>578.0</ele><time>2026-04-10T16:29:38.96Z</time></trkpt><trkpt lat="45.48531418591928" lon="7.955232884528153"><ele>578.0</ele><time>2026-04-10T16:29:39.96Z</time></trkpt><trkpt lat="45.48522694930436" lon="7.955356349343577"><ele>578.1999999999999</ele><time>2026-04-10T16:29:41.96Z</time></trkpt><trkpt lat="45.48515476716013" lon="7.955402751693918"><ele>578.4</ele><time>2026-04-10T16:29:42.96Z</time></trkpt><trkpt lat="45.485025908727046" lon="7.955465716835414"><ele>578.5999999999999</ele><time>2026-04-10T16:29:44.96Z</time></trkpt><trkpt lat="45.48495338053621" lon="7.955547012520803"><ele>578.8</ele><time>2026-04-10T16:29:45.96Z</time></trkpt><trkpt lat="45.484875657296826" lon="7.955625871803662"><ele>579.0</ele><time>2026-04-10T16:29:46.96Z</time></trkpt><trkpt lat="45.48482390521177" lon="7.955714133641385"><ele>579.0</ele><time>2026-04-10T16:29:47.96Z</time></trkpt><trkpt lat="45.48478644872205" lon="7.955790189817164"><ele>579.0</ele><time>2026-04-10T16:29:48.96Z</time></trkpt><trkpt lat="45.48471301518651" lon="7.955852803401636"><ele>579.0</ele><time>2026-04-10T16:29:50.96Z</time></trkpt><trkpt lat="45.48463803688646" lon="7.955892891364429"><ele>579.0</ele><time>2026-04-10T16:29:53.96Z</time></trkpt><trkpt lat="45.48455420234162" lon="7.956018954004501"><ele>579.0</ele><time>2026-04-10T16:30:23.96Z</time></trkpt><trkpt lat="45.48448493546554" lon="7.956043939242814"><ele>579.0</ele><time>2026-04-10T16:30:26.96Z</time></trkpt><trkpt lat="45.484341195137645" lon="7.955997659002721"><ele>578.0</ele><time>2026-04-10T16:30:30.96Z</time></trkpt><trkpt lat="45.48426084325198" lon="7.955915562123195"><ele>577.0</ele><time>2026-04-10T16:30:32.96Z</time></trkpt><trkpt lat="45.484164690866166" lon="7.955819467692821"><ele>576.0</ele><time>2026-04-10T16:30:34.96Z</time></trkpt><trkpt lat="45.48405864633869" lon="7.95579178175137"><ele>575.0</ele><time>2026-04-10T16:30:36.96Z</time></trkpt><trkpt lat="45.48390432969972" lon="7.95585490594737"><ele>575.0</ele><time>2026-04-10T16:30:38.96Z</time></trkpt><trkpt lat="45.48382511293769" lon="7.955891657372315"><ele>575.0</ele><time>2026-04-10T16:30:39.96Z</time></trkpt><trkpt lat="45.48376228849871" lon="7.955925837398964"><ele>575.0</ele><time>2026-04-10T16:30:40.96Z</time></trkpt><trkpt lat="45.48369663123973" lon="7.955981111499035"><ele>575.0</ele><time>2026-04-10T16:30:41.96Z</time></trkpt><trkpt lat="45.48361664549713" lon="7.956047228958227"><ele>575.0</ele><time>2026-04-10T16:30:42.96Z</time></trkpt><trkpt lat="45.48349448510548" lon="7.956152595564792"><ele>573.0</ele><time>2026-04-10T16:30:43.96Z</time></trkpt><trkpt lat="45.483392907694736" lon="7.95620925331203"><ele>571.0</ele><time>2026-04-10T16:30:44.96Z</time></trkpt><trkpt lat="45.48334798274936" lon="7.956298834703825"><ele>569.0</ele><time>2026-04-10T16:30:45.96Z</time></trkpt><trkpt lat="45.48331147166963" lon="7.956383186600145"><ele>567.0</ele><time>2026-04-10T16:30:46.96Z</time></trkpt><trkpt lat="45.48325787745449" lon="7.9564676323104075"><ele>565.0</ele><time>2026-04-10T16:30:47.96Z</time></trkpt><trkpt lat="45.4831657590116" lon="7.956545877906496"><ele>563.0</ele><time>2026-04-10T16:30:48.96Z</time></trkpt><trkpt lat="45.48309184338316" lon="7.956619101851236"><ele>563.0</ele><time>2026-04-10T16:30:49.96Z</time></trkpt><trkpt lat="45.48301316482411" lon="7.956668218236292"><ele>563.0</ele><time>2026-04-10T16:30:50.96Z</time></trkpt><trkpt lat="45.48291687099457" lon="7.956727222402806"><ele>563.0</ele><time>2026-04-10T16:30:51.961Z</time></trkpt><trkpt lat="45.48284819557436" lon="7.95678023660491"><ele>563.0</ele><time>2026-04-10T16:30:52.961Z</time></trkpt><trkpt lat="45.482786357483214" lon="7.956822594292938"><ele>563.0</ele><time>2026-04-10T16:30:53.961Z</time></trkpt><trkpt lat="45.48271603982468" lon="7.956895475220974"><ele>563.0</ele><time>2026-04-10T16:30:54.959Z</time></trkpt><trkpt lat="45.48265377680013" lon="7.956976770663548"><ele>561.0</ele><time>2026-04-10T16:30:55.959Z</time></trkpt><trkpt lat="45.48260654389996" lon="7.957101264255378"><ele>559.0</ele><time>2026-04-10T16:30:56.959Z</time></trkpt><trkpt lat="45.48255863801444" lon="7.9572415553091"><ele>557.0</ele><time>2026-04-10T16:30:57.959Z</time></trkpt><trkpt lat="45.482484813784104" lon="7.957397841043553"><ele>555.0</ele><time>2026-04-10T16:30:58.959Z</time></trkpt><trkpt lat="45.48242838319923" lon="7.957508575261942"><ele>553.0</ele><time>2026-04-10T16:30:59.959Z</time></trkpt><trkpt lat="45.482363107891274" lon="7.957601389890714"><ele>553.0</ele><time>2026-04-10T16:31:00.959Z</time></trkpt><trkpt lat="45.482300942721125" lon="7.957683661367349"><ele>553.0</ele><time>2026-04-10T16:31:01.958Z</time></trkpt><trkpt lat="45.48224805228269" lon="7.957750124944608"><ele>553.0</ele><time>2026-04-10T16:31:02.958Z</time></trkpt><trkpt lat="45.482183711158974" lon="7.957811666414635"><ele>553.0</ele><time>2026-04-10T16:31:03.959Z</time></trkpt><trkpt lat="45.482134147865075" lon="7.957881745187673"><ele>553.0</ele><time>2026-04-10T16:31:04.959Z</time></trkpt><trkpt lat="45.482101497906896" lon="7.957977891926243"><ele>553.0</ele><time>2026-04-10T16:31:05.959Z</time></trkpt><trkpt lat="45.482071047216806" lon="7.958071383515613"><ele>551.6666666666667</ele><time>2026-04-10T16:31:06.959Z</time></trkpt><trkpt lat="45.482055406154615" lon="7.958169672543352"><ele>550.3333333333334</ele><time>2026-04-10T16:31:07.959Z</time></trkpt><trkpt lat="45.482068376808286" lon="7.958291836546775"><ele>549.0</ele><time>2026-04-10T16:31:08.959Z</time></trkpt><trkpt lat="45.48207126892944" lon="7.95838871777079"><ele>547.6666666666666</ele><time>2026-04-10T16:31:09.959Z</time></trkpt><trkpt lat="45.48206283593427" lon="7.958493325406949"><ele>546.3333333333333</ele><time>2026-04-10T16:31:10.959Z</time></trkpt><trkpt lat="45.48202430295446" lon="7.958583233817181"><ele>545.0</ele><time>2026-04-10T16:31:11.959Z</time></trkpt><trkpt lat="45.481956332137635" lon="7.958666053483666"><ele>544.8</ele><time>2026-04-10T16:31:12.959Z</time></trkpt><trkpt lat="45.481899917026226" lon="7.958760878247257"><ele>544.6</ele><time>2026-04-10T16:31:13.959Z</time></trkpt><trkpt lat="45.48183850597951" lon="7.958838071187899"><ele>544.4</ele><time>2026-04-10T16:31:14.959Z</time></trkpt><trkpt lat="45.48175248560552" lon="7.958910830209355"><ele>544.2</ele><time>2026-04-10T16:31:15.959Z</time></trkpt><trkpt lat="45.48165941299457" lon="7.958990207275671"><ele>544.0</ele><time>2026-04-10T16:31:16.959Z</time></trkpt><trkpt lat="45.481592250222135" lon="7.9591007578223545"><ele>545.5</ele><time>2026-04-10T16:31:17.959Z</time></trkpt><trkpt lat="45.48155660575126" lon="7.959232330381241"><ele>547.0</ele><time>2026-04-10T16:31:18.959Z</time></trkpt><trkpt lat="45.48154209441265" lon="7.959340033152435"><ele>548.5</ele><time>2026-04-10T16:31:19.959Z</time></trkpt><trkpt lat="45.48152470917873" lon="7.959468218220701"><ele>550.0</ele><time>2026-04-10T16:31:21.959Z</time></trkpt><trkpt lat="45.48150742082564" lon="7.959564204719071"><ele>551.5</ele><time>2026-04-10T16:31:23.959Z</time></trkpt><trkpt lat="45.481431164186915" lon="7.959598005484402"><ele>553.0</ele><time>2026-04-10T16:31:26.959Z</time></trkpt><trkpt lat="45.48137316604954" lon="7.959647381563743"><ele>553.0</ele><time>2026-04-10T16:31:27.959Z</time></trkpt><trkpt lat="45.481334250920575" lon="7.959724776519638"><ele>553.0</ele><time>2026-04-10T16:31:28.959Z</time></trkpt><trkpt lat="45.481272243106766" lon="7.959810050224419"><ele>553.0</ele><time>2026-04-10T16:31:29.959Z</time></trkpt><trkpt lat="45.48121537661874" lon="7.959863617134031"><ele>553.0</ele><time>2026-04-10T16:31:30.959Z</time></trkpt><trkpt lat="45.48118153520381" lon="7.959940905097493"><ele>553.0</ele><time>2026-04-10T16:31:31.959Z</time></trkpt><trkpt lat="45.48116628912499" lon="7.9600388715149695"><ele>553.0</ele><time>2026-04-10T16:31:33.959Z</time></trkpt><trkpt lat="45.48113819633564" lon="7.96015897617369"><ele>553.0</ele><time>2026-04-10T16:31:36.959Z</time></trkpt><trkpt lat="45.481081910248854" lon="7.960229994914656"><ele>553.0</ele><time>2026-04-10T16:31:40.959Z</time></trkpt><trkpt lat="45.48113920786399" lon="7.960166861770896"><ele>553.0</ele><time>2026-04-10T16:32:48.96Z</time></trkpt><trkpt lat="45.481180755856634" lon="7.960063257676017"><ele>553.0</ele><time>2026-04-10T16:32:51.96Z</time></trkpt><trkpt lat="45.4812268287226" lon="7.959989515417877"><ele>553.0</ele><time>2026-04-10T16:32:53.96Z</time></trkpt><trkpt lat="45.481269138561814" lon="7.959919987527928"><ele>553.0</ele><time>2026-04-10T16:32:55.96Z</time></trkpt><trkpt lat="45.48126873632203" lon="7.959826606437329"><ele>553.0</ele><time>2026-04-10T16:32:59.96Z</time></trkpt><trkpt lat="45.481256819612895" lon="7.9596879057535554"><ele>551.2857142857143</ele><time>2026-04-10T16:33:02.958Z</time></trkpt><trkpt lat="45.48123208918691" lon="7.959576891166197"><ele>549.5714285714286</ele><time>2026-04-10T16:33:05.958Z</time></trkpt><trkpt lat="45.48116543001133" lon="7.959538082776613"><ele>547.8571428571429</ele><time>2026-04-10T16:33:07.958Z</time></trkpt><trkpt lat="45.48115464072272" lon="7.95943716195338"><ele>546.1428571428571</ele><time>2026-04-10T16:33:13.958Z</time></trkpt><trkpt lat="45.48110933942284" lon="7.959356558804302"><ele>544.4285714285714</ele><time>2026-04-10T16:33:17.958Z</time></trkpt><trkpt lat="45.48104111265814" lon="7.959307757404451"><ele>542.7142857142858</ele><time>2026-04-10T16:33:24.958Z</time></trkpt><trkpt lat="45.480976730020465" lon="7.959257523418942"><ele>541.0</ele><time>2026-04-10T16:33:28.958Z</time></trkpt><trkpt lat="45.4809166085532" lon="7.959200066705082"><ele>539.8333333333334</ele><time>2026-04-10T16:33:31.958Z</time></trkpt><trkpt lat="45.48086340079107" lon="7.959149270829137"><ele>538.6666666666667</ele><time>2026-04-10T16:33:34.958Z</time></trkpt><trkpt lat="45.48079019255296" lon="7.959078049144894"><ele>537.5</ele><time>2026-04-10T16:33:37.958Z</time></trkpt><trkpt lat="45.48071619348551" lon="7.959031248215922"><ele>536.3333333333334</ele><time>2026-04-10T16:33:40.958Z</time></trkpt><trkpt lat="45.480652505352744" lon="7.958937045059365"><ele>535.1666666666666</ele><time>2026-04-10T16:33:44.958Z</time></trkpt><trkpt lat="45.480587763241324" lon="7.958867091763343"><ele>534.0</ele><time>2026-04-10T16:33:47.958Z</time></trkpt><trkpt lat="45.48055475189281" lon="7.9587571826904835"><ele>534.0000000000001</ele><time>2026-04-10T16:33:51.958Z</time></trkpt><trkpt lat="45.480511949595865" lon="7.958667090718537"><ele>534.0</ele><time>2026-04-10T16:33:54.958Z</time></trkpt><trkpt lat="45.48044619325693" lon="7.958611803417912"><ele>534.0</ele><time>2026-04-10T16:33:58.958Z</time></trkpt><trkpt lat="45.480383781864234" lon="7.958558064679199"><ele>534.0</ele><time>2026-04-10T16:34:01.958Z</time></trkpt><trkpt lat="45.480318040205034" lon="7.958522081702514"><ele>534.0</ele><time>2026-04-10T16:34:04.959Z</time></trkpt><trkpt lat="45.48025067920323" lon="7.958522158904493"><ele>534.0000000000001</ele><time>2026-04-10T16:34:07.959Z</time></trkpt><trkpt lat="45.48016758126155" lon="7.958536773489905"><ele>534.0</ele><time>2026-04-10T16:34:11.959Z</time></trkpt><trkpt lat="45.48010881138285" lon="7.958575562514509"><ele>530.1666666666666</ele><time>2026-04-10T16:34:13.959Z</time></trkpt><trkpt lat="45.48004617106055" lon="7.958564420589456"><ele>526.3333333333334</ele><time>2026-04-10T16:34:16.959Z</time></trkpt><trkpt lat="45.479984613478656" lon="7.958543740593716"><ele>522.5</ele><time>2026-04-10T16:34:18.959Z</time></trkpt><trkpt lat="45.479897205252136" lon="7.958550366914665"><ele>518.6666666666667</ele><time>2026-04-10T16:34:21.959Z</time></trkpt><trkpt lat="45.479841037818474" lon="7.958494017717557"><ele>514.8333333333334</ele><time>2026-04-10T16:34:24.959Z</time></trkpt><trkpt lat="45.47980327295743" lon="7.9583915131624465"><ele>511.0</ele><time>2026-04-10T16:34:27.959Z</time></trkpt><trkpt lat="45.47977180323332" lon="7.958274401607292"><ele>508.33333333333337</ele><time>2026-04-10T16:34:30.959Z</time></trkpt><trkpt lat="45.479736162479696" lon="7.9581791852053"><ele>505.6666666666667</ele><time>2026-04-10T16:34:32.959Z</time></trkpt><trkpt lat="45.47969089121952" lon="7.95811063018183"><ele>503.0</ele><time>2026-04-10T16:34:34.959Z</time></trkpt><trkpt lat="45.47968886392944" lon="7.958020469015686"><ele>500.33333333333337</ele><time>2026-04-10T16:34:36.959Z</time></trkpt><trkpt lat="45.47973380309074" lon="7.957923384533518"><ele>497.6666666666667</ele><time>2026-04-10T16:34:38.959Z</time></trkpt><trkpt lat="45.47981927505094" lon="7.957779251439095"><ele>495.0</ele><time>2026-04-10T16:34:40.959Z</time></trkpt><trkpt lat="45.47991506191097" lon="7.957579279585632"><ele>492.0</ele><time>2026-04-10T16:34:42.959Z</time></trkpt><trkpt lat="45.47997000371362" lon="7.957468740438992"><ele>489.0</ele><time>2026-04-10T16:34:43.959Z</time></trkpt><trkpt lat="45.48002662245519" lon="7.957361931311648"><ele>486.0</ele><time>2026-04-10T16:34:44.959Z</time></trkpt><trkpt lat="45.48009235121724" lon="7.95726930243235"><ele>483.0</ele><time>2026-04-10T16:34:45.959Z</time></trkpt><trkpt lat="45.480140908691624" lon="7.957173957140159"><ele>480.0</ele><time>2026-04-10T16:34:46.959Z</time></trkpt><trkpt lat="45.48019803992172" lon="7.957039180614963"><ele>480.0</ele><time>2026-04-10T16:34:47.959Z</time></trkpt><trkpt lat="45.48026567428439" lon="7.956904106112254"><ele>480.0</ele><time>2026-04-10T16:34:48.959Z</time></trkpt><trkpt lat="45.48033048220199" lon="7.956775592334755"><ele>480.0</ele><time>2026-04-10T16:34:49.959Z</time></trkpt><trkpt lat="45.48038271470564" lon="7.956699343799056"><ele>480.0</ele><time>2026-04-10T16:34:50.959Z</time></trkpt><trkpt lat="45.480390173171585" lon="7.956589409007995"><ele>480.0</ele><time>2026-04-10T16:34:54.959Z</time></trkpt><trkpt lat="45.48038958934874" lon="7.956491626878045"><ele>480.0</ele><time>2026-04-10T16:34:57.959Z</time></trkpt><trkpt lat="45.480395510828515" lon="7.956400924827789"><ele>478.0</ele><time>2026-04-10T16:35:13.957Z</time></trkpt><trkpt lat="45.48033533033156" lon="7.956371574662874"><ele>476.0</ele><time>2026-04-10T16:35:26.958Z</time></trkpt><trkpt lat="45.48026163729444" lon="7.956375930311083"><ele>474.0</ele><time>2026-04-10T16:35:35.958Z</time></trkpt><trkpt lat="45.48017960915632" lon="7.956374647855377"><ele>472.0</ele><time>2026-04-10T16:35:43.958Z</time></trkpt><trkpt lat="45.48008506585708" lon="7.956380078488542"><ele>470.0</ele><time>2026-04-10T16:35:47.958Z</time></trkpt><trkpt lat="45.480023706257704" lon="7.956405876864052"><ele>468.0</ele><time>2026-04-10T16:35:50.958Z</time></trkpt><trkpt lat="45.47995661076445" lon="7.956448570448251"><ele>468.0</ele><time>2026-04-10T16:35:54.958Z</time></trkpt><trkpt lat="45.479889754444244" lon="7.956475488483648"><ele>468.00000000000006</ele><time>2026-04-10T16:35:57.958Z</time></trkpt><trkpt lat="45.479822570563435" lon="7.956522802681597"><ele>468.0</ele><time>2026-04-10T16:36:00.958Z</time></trkpt><trkpt lat="45.47975695183131" lon="7.9565414164812"><ele>468.0</ele><time>2026-04-10T16:36:03.958Z</time></trkpt><trkpt lat="45.479682912798616" lon="7.956569846165163"><ele>468.00000000000006</ele><time>2026-04-10T16:36:08.959Z</time></trkpt><trkpt lat="45.47960907685481" lon="7.956599974940613"><ele>468.0</ele><time>2026-04-10T16:36:12.959Z</time></trkpt><trkpt lat="45.47953864144838" lon="7.956602988282903"><ele>468.0</ele><time>2026-04-10T16:36:17.959Z</time></trkpt><trkpt lat="45.47947066758291" lon="7.956592976891277"><ele>465.42857142857144</ele><time>2026-04-10T16:36:22.959Z</time></trkpt><trkpt lat="45.47940022596376" lon="7.956612368030551"><ele>462.8571428571429</ele><time>2026-04-10T16:36:33.959Z</time></trkpt><trkpt lat="45.479336587305866" lon="7.956622404402194"><ele>460.28571428571433</ele><time>2026-04-10T16:36:37.959Z</time></trkpt><trkpt lat="45.479273719445345" lon="7.956613269628282"><ele>457.7142857142858</ele><time>2026-04-10T16:36:44.959Z</time></trkpt><trkpt lat="45.47921146786372" lon="7.956662843734949"><ele>455.14285714285717</ele><time>2026-04-10T16:37:00.959Z</time></trkpt><trkpt lat="45.479154336604005" lon="7.956620778565489"><ele>452.57142857142867</ele><time>2026-04-10T16:37:04.959Z</time></trkpt><trkpt lat="45.47909726115093" lon="7.956569726445162"><ele>450.00000000000006</ele><time>2026-04-10T16:37:09.959Z</time></trkpt><trkpt lat="45.479157241165176" lon="7.956492214106555"><ele>450.0</ele><time>2026-04-10T16:37:14.957Z</time></trkpt><trkpt lat="45.479235633867745" lon="7.956397107257388"><ele>450.0</ele><time>2026-04-10T16:37:18.957Z</time></trkpt><trkpt lat="45.4792725937583" lon="7.956322069319817"><ele>450.0</ele><time>2026-04-10T16:37:20.957Z</time></trkpt><trkpt lat="45.47920616748923" lon="7.956393479721115"><ele>450.0</ele><time>2026-04-10T16:37:25.957Z</time></trkpt><trkpt lat="45.479151994242436" lon="7.956448695221237"><ele>450.0</ele><time>2026-04-10T16:37:27.957Z</time></trkpt><trkpt lat="45.47909729945078" lon="7.956525534869216"><ele>450.0</ele><time>2026-04-10T16:37:29.957Z</time></trkpt><trkpt lat="45.47903971125396" lon="7.956587936574839"><ele>450.0</ele><time>2026-04-10T16:37:30.957Z</time></trkpt><trkpt lat="45.47892613892608" lon="7.956683564928944"><ele>450.0</ele><time>2026-04-10T16:37:32.958Z</time></trkpt><trkpt lat="45.47884650665138" lon="7.956730628179799"><ele>450.0</ele><time>2026-04-10T16:37:33.958Z</time></trkpt><trkpt lat="45.47880605867726" lon="7.95683149386448"><ele>450.0</ele><time>2026-04-10T16:37:34.958Z</time></trkpt><trkpt lat="45.478735656721376" lon="7.95686879184618"><ele>450.0</ele><time>2026-04-10T16:37:35.958Z</time></trkpt><trkpt lat="45.478679940206845" lon="7.956960816114898"><ele>448.3333333333333</ele><time>2026-04-10T16:37:36.958Z</time></trkpt><trkpt lat="45.478608160463665" lon="7.957049937890801"><ele>446.66666666666663</ele><time>2026-04-10T16:37:37.958Z</time></trkpt><trkpt lat="45.47854309853601" lon="7.957109020929382"><ele>445.0</ele><time>2026-04-10T16:37:38.958Z</time></trkpt><trkpt lat="45.478470127966354" lon="7.957163513314602"><ele>443.3333333333333</ele><time>2026-04-10T16:37:39.958Z</time></trkpt><trkpt lat="45.47841150792827" lon="7.957260322292985"><ele>441.66666666666663</ele><time>2026-04-10T16:37:40.958Z</time></trkpt><trkpt lat="45.478355614874665" lon="7.957377071051449"><ele>440.0</ele><time>2026-04-10T16:37:41.958Z</time></trkpt><trkpt lat="45.47829459805544" lon="7.957476390120595"><ele>439.16666666666663</ele><time>2026-04-10T16:37:42.958Z</time></trkpt><trkpt lat="45.47823479650093" lon="7.957574903649054"><ele>438.3333333333333</ele><time>2026-04-10T16:37:43.958Z</time></trkpt><trkpt lat="45.478175491693264" lon="7.957662924296005"><ele>437.5</ele><time>2026-04-10T16:37:44.958Z</time></trkpt><trkpt lat="45.478120071958976" lon="7.957738719053592"><ele>436.66666666666663</ele><time>2026-04-10T16:37:45.958Z</time></trkpt><trkpt lat="45.47806537826461" lon="7.957816806408234"><ele>435.8333333333333</ele><time>2026-04-10T16:37:46.958Z</time></trkpt><trkpt lat="45.47801049644919" lon="7.957867740011683"><ele>435.0</ele><time>2026-04-10T16:37:47.958Z</time></trkpt><trkpt lat="45.47790497571524" lon="7.957957286657083"><ele>435.0</ele><time>2026-04-10T16:37:49.958Z</time></trkpt><trkpt lat="45.47780151287618" lon="7.958079960381371"><ele>435.0</ele><time>2026-04-10T16:37:51.958Z</time></trkpt><trkpt lat="45.477744269331716" lon="7.958159518050274"><ele>435.0</ele><time>2026-04-10T16:37:52.958Z</time></trkpt><trkpt lat="45.47768240809105" lon="7.958234466774447"><ele>435.0</ele><time>2026-04-10T16:37:53.958Z</time></trkpt><trkpt lat="45.47761103530372" lon="7.95832375120332"><ele>435.0</ele><time>2026-04-10T16:37:54.958Z</time></trkpt><trkpt lat="45.47754652204346" lon="7.958399650758315"><ele>436.6666666666667</ele><time>2026-04-10T16:37:55.958Z</time></trkpt><trkpt lat="45.47748190097746" lon="7.958457488326201"><ele>438.33333333333337</ele><time>2026-04-10T16:37:56.958Z</time></trkpt><trkpt lat="45.47741781918137" lon="7.95852409644446"><ele>440.0</ele><time>2026-04-10T16:37:57.958Z</time></trkpt><trkpt lat="45.47735633618049" lon="7.958604255813409"><ele>441.6666666666667</ele><time>2026-04-10T16:37:58.958Z</time></trkpt><trkpt lat="45.47729371857163" lon="7.9586783119151825"><ele>443.33333333333337</ele><time>2026-04-10T16:37:59.958Z</time></trkpt><trkpt lat="45.47724435964547" lon="7.958756105754758"><ele>445.0</ele><time>2026-04-10T16:38:00.958Z</time></trkpt><trkpt lat="45.47721498903466" lon="7.9588430028890675"><ele>445.00000000000006</ele><time>2026-04-10T16:38:01.958Z</time></trkpt><trkpt lat="45.47717958701219" lon="7.9589246649210486"><ele>445.0</ele><time>2026-04-10T16:38:02.958Z</time></trkpt><trkpt lat="45.47711029655184" lon="7.959059195945059"><ele>445.0</ele><time>2026-04-10T16:38:04.958Z</time></trkpt><trkpt lat="45.47707118878359" lon="7.959155081952201"><ele>445.0</ele><time>2026-04-10T16:38:06.958Z</time></trkpt><trkpt lat="45.47702813839341" lon="7.959229914388536"><ele>445.00000000000006</ele><time>2026-04-10T16:38:37.958Z</time></trkpt><trkpt lat="45.476967121711034" lon="7.959142797401736"><ele>445.0</ele><time>2026-04-10T16:38:51.959Z</time></trkpt><trkpt lat="45.47686793988926" lon="7.959079420537733"><ele>444.0</ele><time>2026-04-10T16:38:53.959Z</time></trkpt><trkpt lat="45.47680436002638" lon="7.959092226415573"><ele>443.0</ele><time>2026-04-10T16:38:54.959Z</time></trkpt><trkpt lat="45.47673409974934" lon="7.959121349303068"><ele>442.0</ele><time>2026-04-10T16:38:55.959Z</time></trkpt><trkpt lat="45.47664034889682" lon="7.959053867463134"><ele>441.0</ele><time>2026-04-10T16:38:56.959Z</time></trkpt><trkpt lat="45.47656474676222" lon="7.959104656752843"><ele>440.0</ele><time>2026-04-10T16:38:57.959Z</time></trkpt><trkpt lat="45.47646361540472" lon="7.9592459567167895"><ele>440.0</ele><time>2026-04-10T16:38:59.959Z</time></trkpt><trkpt lat="45.47642648648648" lon="7.959333186670093"><ele>440.0</ele><time>2026-04-10T16:39:00.959Z</time></trkpt><trkpt lat="45.47639072174399" lon="7.959412310642283"><ele>440.0</ele><time>2026-04-10T16:39:01.959Z</time></trkpt><trkpt lat="45.47636239264055" lon="7.9595088409348485"><ele>440.0</ele><time>2026-04-10T16:39:02.959Z</time></trkpt><trkpt lat="45.476317804885234" lon="7.959655893364733"><ele>440.0</ele><time>2026-04-10T16:39:04.959Z</time></trkpt><trkpt lat="45.47624310118146" lon="7.959802002710282"><ele>435.85714285714283</ele><time>2026-04-10T16:39:06.959Z</time></trkpt><trkpt lat="45.476211018300894" lon="7.959912404367406"><ele>431.7142857142857</ele><time>2026-04-10T16:39:07.959Z</time></trkpt><trkpt lat="45.47617106858902" lon="7.959992636836885"><ele>427.57142857142856</ele><time>2026-04-10T16:39:08.959Z</time></trkpt><trkpt lat="45.47614505266102" lon="7.960079041582348"><ele>423.42857142857144</ele><time>2026-04-10T16:39:09.959Z</time></trkpt><trkpt lat="45.476116408446885" lon="7.960180402527599"><ele>419.2857142857143</ele><time>2026-04-10T16:39:10.959Z</time></trkpt><trkpt lat="45.476097776545146" lon="7.960280732129324"><ele>415.1428571428571</ele><time>2026-04-10T16:39:11.959Z</time></trkpt><trkpt lat="45.47609411984063" lon="7.960385704482697"><ele>411.0</ele><time>2026-04-10T16:39:12.959Z</time></trkpt><trkpt lat="45.47610123419657" lon="7.9605009646922715"><ele>411.0</ele><time>2026-04-10T16:39:13.959Z</time></trkpt><trkpt lat="45.476106172085004" lon="7.9606036033720695"><ele>411.0</ele><time>2026-04-10T16:39:14.959Z</time></trkpt><trkpt lat="45.476115889368266" lon="7.960710134374167"><ele>411.0</ele><time>2026-04-10T16:39:15.959Z</time></trkpt><trkpt lat="45.476116671766015" lon="7.960817267460837"><ele>411.0</ele><time>2026-04-10T16:39:16.959Z</time></trkpt><trkpt lat="45.47610569876383" lon="7.960913547144549"><ele>411.0</ele><time>2026-04-10T16:39:17.959Z</time></trkpt><trkpt lat="45.47607419466325" lon="7.96100521248043"><ele>411.0</ele><time>2026-04-10T16:39:18.956Z</time></trkpt><trkpt lat="45.475972943816345" lon="7.961133035122127"><ele>411.1428571428571</ele><time>2026-04-10T16:39:20.956Z</time></trkpt><trkpt lat="45.47592595184476" lon="7.961196610703454"><ele>411.2857142857143</ele><time>2026-04-10T16:39:21.956Z</time></trkpt><trkpt lat="45.47587973059283" lon="7.9612794853130255"><ele>411.42857142857144</ele><time>2026-04-10T16:39:22.956Z</time></trkpt><trkpt lat="45.475852545729495" lon="7.9613635707265145"><ele>411.57142857142856</ele><time>2026-04-10T16:39:23.956Z</time></trkpt><trkpt lat="45.47582707316337" lon="7.961447061190034"><ele>411.7142857142857</ele><time>2026-04-10T16:39:24.956Z</time></trkpt><trkpt lat="45.47578355422713" lon="7.961552511441573"><ele>411.85714285714283</ele><time>2026-04-10T16:39:25.955Z</time></trkpt><trkpt lat="45.47573858202753" lon="7.961644201690486"><ele>412.0</ele><time>2026-04-10T16:39:26.955Z</time></trkpt><trkpt lat="45.475695057033114" lon="7.96172082379513"><ele>413.1666666666667</ele><time>2026-04-10T16:39:27.956Z</time></trkpt><trkpt lat="45.4756542162679" lon="7.961813087055143"><ele>414.33333333333337</ele><time>2026-04-10T16:39:28.956Z</time></trkpt><trkpt lat="45.47561805687508" lon="7.961905232683861"><ele>415.5</ele><time>2026-04-10T16:39:29.956Z</time></trkpt><trkpt lat="45.475599823886355" lon="7.962004944633867"><ele>416.66666666666663</ele><time>2026-04-10T16:39:30.956Z</time></trkpt><trkpt lat="45.475590430789175" lon="7.962121211531506"><ele>417.8333333333333</ele><time>2026-04-10T16:39:31.956Z</time></trkpt><trkpt lat="45.475574972271936" lon="7.9622299638784755"><ele>419.0</ele><time>2026-04-10T16:39:32.956Z</time></trkpt><trkpt lat="45.475550191454374" lon="7.962355535987714"><ele>418.99999999999994</ele><time>2026-04-10T16:39:33.956Z</time></trkpt><trkpt lat="45.47550914040809" lon="7.96246280783128"><ele>419.0</ele><time>2026-04-10T16:39:34.956Z</time></trkpt><trkpt lat="45.47545356484753" lon="7.962555748017527"><ele>419.0</ele><time>2026-04-10T16:39:35.956Z</time></trkpt><trkpt lat="45.4754002781808" lon="7.9626410218764025"><ele>419.0</ele><time>2026-04-10T16:39:36.956Z</time></trkpt><trkpt lat="45.47535086886759" lon="7.9627200824271815"><ele>418.99999999999994</ele><time>2026-04-10T16:39:37.956Z</time></trkpt><trkpt lat="45.4753143165138" lon="7.962836430134735"><ele>419.0</ele><time>2026-04-10T16:39:38.956Z</time></trkpt><trkpt lat="45.47527023011981" lon="7.962953621111764"><ele>416.8333333333333</ele><time>2026-04-10T16:39:39.956Z</time></trkpt><trkpt lat="45.47523793914804" lon="7.963064861189138"><ele>414.66666666666663</ele><time>2026-04-10T16:39:40.956Z</time></trkpt><trkpt lat="45.475208304827966" lon="7.963161583823799"><ele>412.5</ele><time>2026-04-10T16:39:41.956Z</time></trkpt><trkpt lat="45.47517928520569" lon="7.963258259144786"><ele>410.33333333333337</ele><time>2026-04-10T16:39:42.956Z</time></trkpt><trkpt lat="45.475143734544645" lon="7.963353809306948"><ele>408.1666666666667</ele><time>2026-04-10T16:39:43.956Z</time></trkpt><trkpt lat="45.47511266195246" lon="7.963445162123865"><ele>406.0</ele><time>2026-04-10T16:39:44.956Z</time></trkpt><trkpt lat="45.4750729474393" lon="7.963541791606747"><ele>406.00000000000006</ele><time>2026-04-10T16:39:45.956Z</time></trkpt><trkpt lat="45.475031952071106" lon="7.963627905144389"><ele>406.0</ele><time>2026-04-10T16:39:46.956Z</time></trkpt><trkpt lat="45.47497976334369" lon="7.963705096166039"><ele>406.0</ele><time>2026-04-10T16:39:47.956Z</time></trkpt><trkpt lat="45.474914304252856" lon="7.963777560529128"><ele>406.0</ele><time>2026-04-10T16:39:48.956Z</time></trkpt><trkpt lat="45.47485175973334" lon="7.963833216592671"><ele>406.00000000000006</ele><time>2026-04-10T16:39:49.956Z</time></trkpt><trkpt lat="45.47478178168076" lon="7.963888760809277"><ele>406.0</ele><time>2026-04-10T16:39:50.956Z</time></trkpt><trkpt lat="45.474732992781654" lon="7.963959170886957"><ele>406.00000000000006</ele><time>2026-04-10T16:39:51.956Z</time></trkpt><trkpt lat="45.47468992545701" lon="7.964025429588457"><ele>406.0</ele><time>2026-04-10T16:39:52.956Z</time></trkpt><trkpt lat="45.47462930864199" lon="7.964089121315831"><ele>406.0</ele><time>2026-04-10T16:39:53.956Z</time></trkpt><trkpt lat="45.47451804888467" lon="7.964131546877962"><ele>406.0</ele><time>2026-04-10T16:39:55.956Z</time></trkpt><trkpt lat="45.474406917880096" lon="7.964062710171259"><ele>406.00000000000006</ele><time>2026-04-10T16:39:57.956Z</time></trkpt><trkpt lat="45.47434701973059" lon="7.964006809618342"><ele>406.0</ele><time>2026-04-10T16:39:58.956Z</time></trkpt><trkpt lat="45.474280321627994" lon="7.9639316253518535"><ele>404.14285714285717</ele><time>2026-04-10T16:39:59.956Z</time></trkpt><trkpt lat="45.474228737070206" lon="7.963864015531905"><ele>402.2857142857143</ele><time>2026-04-10T16:40:00.956Z</time></trkpt><trkpt lat="45.47418366342366" lon="7.963789551841064"><ele>400.42857142857144</ele><time>2026-04-10T16:40:01.956Z</time></trkpt><trkpt lat="45.474135930286785" lon="7.963726164205496"><ele>398.57142857142856</ele><time>2026-04-10T16:40:02.956Z</time></trkpt><trkpt lat="45.47408352911649" lon="7.963644887079445"><ele>396.7142857142857</ele><time>2026-04-10T16:40:03.956Z</time></trkpt><trkpt lat="45.47404381019437" lon="7.963556407618895"><ele>394.8571428571429</ele><time>2026-04-10T16:40:04.956Z</time></trkpt><trkpt lat="45.4740050918954" lon="7.963460823868149"><ele>393.0</ele><time>2026-04-10T16:40:05.956Z</time></trkpt><trkpt lat="45.473948072618036" lon="7.963367240583553"><ele>390.5</ele><time>2026-04-10T16:40:06.956Z</time></trkpt><trkpt lat="45.47388500326955" lon="7.963242554300781"><ele>388.0</ele><time>2026-04-10T16:40:08.956Z</time></trkpt><trkpt lat="45.473792518422954" lon="7.963127829564974"><ele>385.5</ele><time>2026-04-10T16:40:10.956Z</time></trkpt><trkpt lat="45.47371587459553" lon="7.963075066944819"><ele>383.0</ele><time>2026-04-10T16:40:11.956Z</time></trkpt><trkpt lat="45.473655114916355" lon="7.963040316092005"><ele>380.5</ele><time>2026-04-10T16:40:12.956Z</time></trkpt><trkpt lat="45.47359222221046" lon="7.96301933645966"><ele>378.0</ele><time>2026-04-10T16:40:13.957Z</time></trkpt><trkpt lat="45.47345779113271" lon="7.963028192486103"><ele>377.2</ele><time>2026-04-10T16:40:15.957Z</time></trkpt><trkpt lat="45.47338760961915" lon="7.963033017432561"><ele>376.4</ele><time>2026-04-10T16:40:16.957Z</time></trkpt><trkpt lat="45.473277293505866" lon="7.963057543098672"><ele>375.59999999999997</ele><time>2026-04-10T16:40:18.957Z</time></trkpt><trkpt lat="45.47318787358955" lon="7.963055709680383"><ele>374.79999999999995</ele><time>2026-04-10T16:40:20.957Z</time></trkpt><trkpt lat="45.47316594108785" lon="7.9629397439382394"><ele>374.0</ele><time>2026-04-10T16:40:22.957Z</time></trkpt><trkpt lat="45.47323303976564" lon="7.9628303134803105"><ele>374.0</ele><time>2026-04-10T16:40:24.957Z</time></trkpt><trkpt lat="45.47332201694275" lon="7.962728542658793"><ele>374.0</ele><time>2026-04-10T16:40:26.957Z</time></trkpt><trkpt lat="45.473430123417174" lon="7.962668203356832"><ele>374.0</ele><time>2026-04-10T16:40:28.957Z</time></trkpt><trkpt lat="45.47349306785131" lon="7.962671764937177"><ele>374.0</ele><time>2026-04-10T16:40:29.957Z</time></trkpt><trkpt lat="45.47362266286559" lon="7.962700896733444"><ele>374.0</ele><time>2026-04-10T16:40:31.957Z</time></trkpt><trkpt lat="45.47369327917864" lon="7.962725212213706"><ele>374.0</ele><time>2026-04-10T16:40:32.957Z</time></trkpt><trkpt lat="45.47375816266562" lon="7.962748188251784"><ele>374.0</ele><time>2026-04-10T16:40:33.957Z</time></trkpt><trkpt lat="45.473822420072324" lon="7.962758625685552"><ele>374.0</ele><time>2026-04-10T16:40:34.957Z</time></trkpt><trkpt lat="45.47390136624879" lon="7.962733098467032"><ele>374.0</ele><time>2026-04-10T16:40:36.957Z</time></trkpt><trkpt lat="45.47391188922887" lon="7.962638947681289"><ele>374.0</ele><time>2026-04-10T16:40:38.957Z</time></trkpt><trkpt lat="45.473818044484695" lon="7.962551272187214"><ele>374.0</ele><time>2026-04-10T16:40:40.957Z</time></trkpt><trkpt lat="45.47372480194272" lon="7.962460592865867"><ele>370.7142857142857</ele><time>2026-04-10T16:40:42.957Z</time></trkpt><trkpt lat="45.47367711234102" lon="7.962388701278699"><ele>367.42857142857144</ele><time>2026-04-10T16:40:43.957Z</time></trkpt><trkpt lat="45.47363634632556" lon="7.962311642716268"><ele>364.14285714285717</ele><time>2026-04-10T16:40:44.957Z</time></trkpt><trkpt lat="45.47359321185959" lon="7.962222661730693"><ele>360.8571428571429</ele><time>2026-04-10T16:40:45.957Z</time></trkpt><trkpt lat="45.47354797564848" lon="7.962137838273297"><ele>357.57142857142856</ele><time>2026-04-10T16:40:46.957Z</time></trkpt><trkpt lat="45.47350015764823" lon="7.962058326500082"><ele>354.28571428571433</ele><time>2026-04-10T16:40:47.957Z</time></trkpt><trkpt lat="45.47345570217172" lon="7.9619893286304455"><ele>351.0</ele><time>2026-04-10T16:40:48.957Z</time></trkpt><trkpt lat="45.47338642926484" lon="7.961866540265658"><ele>351.0</ele><time>2026-04-10T16:40:50.957Z</time></trkpt><trkpt lat="45.47341426070565" lon="7.961785389992155"><ele>351.0</ele><time>2026-04-10T16:40:52.957Z</time></trkpt><trkpt lat="45.47351280999595" lon="7.961826945538474"><ele>351.0</ele><time>2026-04-10T16:40:54.957Z</time></trkpt><trkpt lat="45.47358536361484" lon="7.961915502335188"><ele>351.0</ele><time>2026-04-10T16:40:56.957Z</time></trkpt><trkpt lat="45.47366930788411" lon="7.961970107842773"><ele>351.0</ele><time>2026-04-10T16:40:58.957Z</time></trkpt><trkpt lat="45.47377487116827" lon="7.961978271071253"><ele>350.8333333333333</ele><time>2026-04-10T16:41:00.957Z</time></trkpt><trkpt lat="45.47383781075016" lon="7.961950612907405"><ele>350.6666666666667</ele><time>2026-04-10T16:41:01.957Z</time></trkpt><trkpt lat="45.47389186175708" lon="7.961903146488609"><ele>350.5</ele><time>2026-04-10T16:41:02.957Z</time></trkpt><trkpt lat="45.473918784163814" lon="7.961744368633405"><ele>350.33333333333337</ele><time>2026-04-10T16:41:04.957Z</time></trkpt><trkpt lat="45.47391213117212" lon="7.96164967844894"><ele>350.1666666666667</ele><time>2026-04-10T16:41:05.957Z</time></trkpt><trkpt lat="45.473902231982585" lon="7.961547949060197"><ele>350.0</ele><time>2026-04-10T16:41:06.957Z</time></trkpt><trkpt lat="45.473906893588605" lon="7.961440046439953"><ele>350.0</ele><time>2026-04-10T16:41:07.957Z</time></trkpt><trkpt lat="45.473942416184315" lon="7.961347438282725"><ele>350.0</ele><time>2026-04-10T16:41:08.957Z</time></trkpt><trkpt lat="45.47399316408568" lon="7.961263930075027"><ele>350.0</ele><time>2026-04-10T16:41:09.957Z</time></trkpt><trkpt lat="45.474031721506044" lon="7.9611623169837795"><ele>350.0</ele><time>2026-04-10T16:41:10.957Z</time></trkpt><trkpt lat="45.47404992340775" lon="7.961046160232421"><ele>350.0</ele><time>2026-04-10T16:41:11.957Z</time></trkpt><trkpt lat="45.47404822303416" lon="7.960930182570313"><ele>350.0</ele><time>2026-04-10T16:41:12.957Z</time></trkpt><trkpt lat="45.474043193376126" lon="7.960799191524719"><ele>347.83333333333337</ele><time>2026-04-10T16:41:13.957Z</time></trkpt><trkpt lat="45.47403398003636" lon="7.96066944899898"><ele>345.6666666666667</ele><time>2026-04-10T16:41:14.957Z</time></trkpt><trkpt lat="45.47402025326999" lon="7.9605400315550465"><ele>343.5</ele><time>2026-04-10T16:41:15.957Z</time></trkpt><trkpt lat="45.47400640044252" lon="7.96042037794138"><ele>341.3333333333333</ele><time>2026-04-10T16:41:16.957Z</time></trkpt><trkpt lat="45.47399640801082" lon="7.960297828162136"><ele>339.16666666666663</ele><time>2026-04-10T16:41:17.957Z</time></trkpt><trkpt lat="45.47398803544269" lon="7.960181139620103"><ele>337.0</ele><time>2026-04-10T16:41:18.957Z</time></trkpt><trkpt lat="45.47398013296926" lon="7.960062275253095"><ele>336.5</ele><time>2026-04-10T16:41:19.957Z</time></trkpt><trkpt lat="45.47397593653082" lon="7.95995636551327"><ele>336.0</ele><time>2026-04-10T16:41:20.957Z</time></trkpt><trkpt lat="45.47398457781421" lon="7.959858542686768"><ele>335.5</ele><time>2026-04-10T16:41:21.957Z</time></trkpt><trkpt lat="45.47402058942893" lon="7.959749481202368"><ele>335.0</ele><time>2026-04-10T16:41:22.957Z</time></trkpt><trkpt lat="45.474047962432714" lon="7.959628245250319"><ele>334.5</ele><time>2026-04-10T16:41:23.957Z</time></trkpt><trkpt lat="45.47406656778479" lon="7.959481316293225"><ele>334.0</ele><time>2026-04-10T16:41:24.955Z</time></trkpt><trkpt lat="45.4740915824513" lon="7.959342571091805"><ele>334.0</ele><time>2026-04-10T16:41:25.955Z</time></trkpt><trkpt lat="45.4741333839965" lon="7.959214063332708"><ele>334.0</ele><time>2026-04-10T16:41:26.955Z</time></trkpt><trkpt lat="45.47416566295948" lon="7.9590817640668305"><ele>334.0</ele><time>2026-04-10T16:41:27.956Z</time></trkpt><trkpt lat="45.47420073358447" lon="7.958955337864633"><ele>334.0</ele><time>2026-04-10T16:41:28.955Z</time></trkpt><trkpt lat="45.47422399402754" lon="7.958818626886546"><ele>334.0</ele><time>2026-04-10T16:41:29.955Z</time></trkpt><trkpt lat="45.47423034213576" lon="7.9586705588397795"><ele>333.4</ele><time>2026-04-10T16:41:30.956Z</time></trkpt><trkpt lat="45.4742346694944" lon="7.958525585327626"><ele>332.79999999999995</ele><time>2026-04-10T16:41:31.955Z</time></trkpt><trkpt lat="45.47423989499727" lon="7.9583854360761155"><ele>332.20000000000005</ele><time>2026-04-10T16:41:32.955Z</time></trkpt><trkpt lat="45.4742442422968" lon="7.958238917908244"><ele>331.6</ele><time>2026-04-10T16:41:33.956Z</time></trkpt><trkpt lat="45.47425372437402" lon="7.958107090266087"><ele>331.0</ele><time>2026-04-10T16:41:34.955Z</time></trkpt><trkpt lat="45.47425104820216" lon="7.957972974257163"><ele>331.0</ele><time>2026-04-10T16:41:35.955Z</time></trkpt><trkpt lat="45.47424999736945" lon="7.957827803496634"><ele>331.0</ele><time>2026-04-10T16:41:36.956Z</time></trkpt><trkpt lat="45.474237546118616" lon="7.957698687175911"><ele>331.0</ele><time>2026-04-10T16:41:37.956Z</time></trkpt><trkpt lat="45.47421634272581" lon="7.957581071362184"><ele>331.0</ele><time>2026-04-10T16:41:38.956Z</time></trkpt><trkpt lat="45.474187843453684" lon="7.9574622043772125"><ele>331.0</ele><time>2026-04-10T16:41:39.956Z</time></trkpt><trkpt lat="45.47414088051268" lon="7.957351711454734"><ele>331.20000000000005</ele><time>2026-04-10T16:41:40.956Z</time></trkpt><trkpt lat="45.474096697333394" lon="7.957247026151775"><ele>331.40000000000003</ele><time>2026-04-10T16:41:41.956Z</time></trkpt><trkpt lat="45.47404579769089" lon="7.957126753151478"><ele>331.6</ele><time>2026-04-10T16:41:42.956Z</time></trkpt><trkpt lat="45.47400194569035" lon="7.957009775614104"><ele>331.8</ele><time>2026-04-10T16:41:43.956Z</time></trkpt><trkpt lat="45.473960346207804" lon="7.956897242704343"><ele>332.0</ele><time>2026-04-10T16:41:44.956Z</time></trkpt><trkpt lat="45.47392326029274" lon="7.956782726824391"><ele>332.6666666666667</ele><time>2026-04-10T16:41:45.956Z</time></trkpt><trkpt lat="45.47389244121306" lon="7.9566690744049415"><ele>333.33333333333337</ele><time>2026-04-10T16:41:46.956Z</time></trkpt><trkpt lat="45.473862577235664" lon="7.956552214632914"><ele>334.0</ele><time>2026-04-10T16:41:47.956Z</time></trkpt><trkpt lat="45.47383435701008" lon="7.956429491482019"><ele>334.6666666666667</ele><time>2026-04-10T16:41:48.956Z</time></trkpt><trkpt lat="45.47380824759695" lon="7.956304980390652"><ele>335.3333333333333</ele><time>2026-04-10T16:41:49.956Z</time></trkpt><trkpt lat="45.47377465250316" lon="7.956190061890818"><ele>336.0</ele><time>2026-04-10T16:41:50.956Z</time></trkpt><trkpt lat="45.47374891780538" lon="7.956092609925318"><ele>335.0</ele><time>2026-04-10T16:41:51.956Z</time></trkpt><trkpt lat="45.473727019277206" lon="7.955975001229013"><ele>334.0</ele><time>2026-04-10T16:41:52.956Z</time></trkpt><trkpt lat="45.47371550361175" lon="7.955871545789153"><ele>333.0</ele><time>2026-04-10T16:41:53.956Z</time></trkpt><trkpt lat="45.47372836660565" lon="7.955781829858082"><ele>332.0</ele><time>2026-04-10T16:41:54.956Z</time></trkpt><trkpt lat="45.473834538687285" lon="7.955673854912018"><ele>331.0</ele><time>2026-04-10T16:41:56.956Z</time></trkpt><trkpt lat="45.473918665371905" lon="7.955643217363206"><ele>330.0</ele><time>2026-04-10T16:41:57.956Z</time></trkpt><trkpt lat="45.47399477045133" lon="7.955630233332378"><ele>330.0</ele><time>2026-04-10T16:41:58.956Z</time></trkpt><trkpt lat="45.47408759296929" lon="7.9556275220001895"><ele>330.0</ele><time>2026-04-10T16:41:59.956Z</time></trkpt><trkpt lat="45.47416629978021" lon="7.95563757246201"><ele>330.0</ele><time>2026-04-10T16:42:00.956Z</time></trkpt><trkpt lat="45.47425392688101" lon="7.9556445595166725"><ele>330.0</ele><time>2026-04-10T16:42:01.956Z</time></trkpt><trkpt lat="45.47434876472343" lon="7.955638524778792"><ele>330.0</ele><time>2026-04-10T16:42:02.956Z</time></trkpt><trkpt lat="45.474433019966256" lon="7.955616020222021"><ele>330.0</ele><time>2026-04-10T16:42:03.956Z</time></trkpt><trkpt lat="45.47452550772708" lon="7.9555812284134895"><ele>333.6666666666667</ele><time>2026-04-10T16:42:04.956Z</time></trkpt><trkpt lat="45.474612737916146" lon="7.955549744355776"><ele>337.3333333333333</ele><time>2026-04-10T16:42:05.956Z</time></trkpt><trkpt lat="45.47469259886639" lon="7.955520626286592"><ele>341.0</ele><time>2026-04-10T16:42:06.956Z</time></trkpt><trkpt lat="45.47477947422781" lon="7.9554868811354655"><ele>344.66666666666663</ele><time>2026-04-10T16:42:07.956Z</time></trkpt><trkpt lat="45.47486133199067" lon="7.955465005632126"><ele>348.3333333333333</ele><time>2026-04-10T16:42:08.956Z</time></trkpt><trkpt lat="45.47495377805861" lon="7.955447394737139"><ele>352.0</ele><time>2026-04-10T16:42:09.956Z</time></trkpt><trkpt lat="45.47504292509705" lon="7.955431273609707"><ele>352.0</ele><time>2026-04-10T16:42:10.956Z</time></trkpt><trkpt lat="45.47513827401768" lon="7.9554084053059855"><ele>352.0</ele><time>2026-04-10T16:42:11.956Z</time></trkpt><trkpt lat="45.47523377534831" lon="7.95536897270459"><ele>352.0</ele><time>2026-04-10T16:42:12.956Z</time></trkpt><trkpt lat="45.4753282652469" lon="7.955319759604148"><ele>352.0</ele><time>2026-04-10T16:42:13.956Z</time></trkpt><trkpt lat="45.47541838885789" lon="7.9552568454152395"><ele>352.0</ele><time>2026-04-10T16:42:14.956Z</time></trkpt><trkpt lat="45.47550902849758" lon="7.955188909261054"><ele>352.8</ele><time>2026-04-10T16:42:15.956Z</time></trkpt><trkpt lat="45.47559847156816" lon="7.955120820425238"><ele>353.6</ele><time>2026-04-10T16:42:16.956Z</time></trkpt><trkpt lat="45.47568861365319" lon="7.955065741283293"><ele>354.40000000000003</ele><time>2026-04-10T16:42:17.956Z</time></trkpt><trkpt lat="45.475779536761344" lon="7.955011062023539"><ele>355.20000000000005</ele><time>2026-04-10T16:42:18.956Z</time></trkpt><trkpt lat="45.47588093271339" lon="7.95495634661338"><ele>356.0</ele><time>2026-04-10T16:42:19.956Z</time></trkpt><trkpt lat="45.475980711076126" lon="7.95489578394449"><ele>356.0</ele><time>2026-04-10T16:42:20.956Z</time></trkpt><trkpt lat="45.47607822181435" lon="7.954836983319241"><ele>356.0</ele><time>2026-04-10T16:42:21.956Z</time></trkpt><trkpt lat="45.476179336933214" lon="7.954772232658571"><ele>356.0</ele><time>2026-04-10T16:42:22.956Z</time></trkpt><trkpt lat="45.47627014447686" lon="7.954702097762429"><ele>356.0</ele><time>2026-04-10T16:42:23.956Z</time></trkpt><trkpt lat="45.476355403372736" lon="7.954629895863131"><ele>356.0</ele><time>2026-04-10T16:42:24.956Z</time></trkpt><trkpt lat="45.476420886981764" lon="7.954568497078919"><ele>357.1666666666667</ele><time>2026-04-10T16:42:25.956Z</time></trkpt><trkpt lat="45.47647765509836" lon="7.954513523544459"><ele>358.33333333333337</ele><time>2026-04-10T16:42:26.956Z</time></trkpt><trkpt lat="45.476530923676584" lon="7.954452657778459"><ele>359.5</ele><time>2026-04-10T16:42:27.956Z</time></trkpt><trkpt lat="45.476592860295796" lon="7.9543896856762055"><ele>360.6666666666667</ele><time>2026-04-10T16:42:28.957Z</time></trkpt><trkpt lat="45.47665716457209" lon="7.954321596191613"><ele>361.8333333333333</ele><time>2026-04-10T16:42:29.957Z</time></trkpt><trkpt lat="45.47672869235795" lon="7.954248087672021"><ele>363.0</ele><time>2026-04-10T16:42:30.957Z</time></trkpt><trkpt lat="45.47680632960181" lon="7.95418607339457"><ele>363.0</ele><time>2026-04-10T16:42:31.957Z</time></trkpt><trkpt lat="45.47689119787873" lon="7.9541344903061875"><ele>363.0</ele><time>2026-04-10T16:42:32.957Z</time></trkpt><trkpt lat="45.47697629937792" lon="7.954095177178268"><ele>363.0</ele><time>2026-04-10T16:42:33.957Z</time></trkpt><trkpt lat="45.477065204697" lon="7.954041158277787"><ele>363.0</ele><time>2026-04-10T16:42:34.957Z</time></trkpt><trkpt lat="45.477154124003526" lon="7.95397856249102"><ele>363.0</ele><time>2026-04-10T16:42:35.957Z</time></trkpt><trkpt lat="45.47723039063361" lon="7.953887801712098"><ele>364.8333333333333</ele><time>2026-04-10T16:42:36.957Z</time></trkpt><trkpt lat="45.47728973623252" lon="7.953796960547997"><ele>366.6666666666667</ele><time>2026-04-10T16:42:37.957Z</time></trkpt><trkpt lat="45.47734501849878" lon="7.953714621175357"><ele>368.5</ele><time>2026-04-10T16:42:38.957Z</time></trkpt><trkpt lat="45.477398652184775" lon="7.953641017801903"><ele>370.33333333333337</ele><time>2026-04-10T16:42:39.957Z</time></trkpt><trkpt lat="45.47746011225949" lon="7.9535586587419065"><ele>372.1666666666667</ele><time>2026-04-10T16:42:40.957Z</time></trkpt><trkpt lat="45.477514983304935" lon="7.9534735313327705"><ele>374.0</ele><time>2026-04-10T16:42:41.957Z</time></trkpt><trkpt lat="45.47757275646342" lon="7.9533977280467045"><ele>373.33333333333337</ele><time>2026-04-10T16:42:42.957Z</time></trkpt><trkpt lat="45.477627622113474" lon="7.953322399668686"><ele>372.6666666666667</ele><time>2026-04-10T16:42:43.957Z</time></trkpt><trkpt lat="45.47767884600085" lon="7.953239742648374"><ele>372.0</ele><time>2026-04-10T16:42:44.957Z</time></trkpt><trkpt lat="45.47772981322334" lon="7.953156863527875"><ele>371.3333333333333</ele><time>2026-04-10T16:42:45.957Z</time></trkpt><trkpt lat="45.47778353152149" lon="7.953078068070241"><ele>370.66666666666663</ele><time>2026-04-10T16:42:46.957Z</time></trkpt><trkpt lat="45.477842169568376" lon="7.9530090528047985"><ele>370.0</ele><time>2026-04-10T16:42:47.957Z</time></trkpt><trkpt lat="45.47790423550919" lon="7.952936132418705"><ele>371.2</ele><time>2026-04-10T16:42:48.957Z</time></trkpt><trkpt lat="45.47797253463447" lon="7.952874300229316"><ele>372.4</ele><time>2026-04-10T16:42:49.957Z</time></trkpt><trkpt lat="45.47807011431804" lon="7.952828144726065"><ele>373.6</ele><time>2026-04-10T16:42:50.957Z</time></trkpt><trkpt lat="45.478156418907496" lon="7.952776861159866"><ele>374.8</ele><time>2026-04-10T16:42:51.957Z</time></trkpt><trkpt lat="45.47823733721966" lon="7.952725174534703"><ele>376.0</ele><time>2026-04-10T16:42:52.957Z</time></trkpt><trkpt lat="45.47832170692398" lon="7.952659305084096"><ele>376.0</ele><time>2026-04-10T16:42:53.957Z</time></trkpt><trkpt lat="45.478408426731804" lon="7.952584474658303"><ele>376.0</ele><time>2026-04-10T16:42:54.957Z</time></trkpt><trkpt lat="45.47849177854012" lon="7.9524814884796315"><ele>376.0</ele><time>2026-04-10T16:42:55.957Z</time></trkpt><trkpt lat="45.47856416416761" lon="7.952374902780793"><ele>376.0</ele><time>2026-04-10T16:42:56.957Z</time></trkpt><trkpt lat="45.47863658766153" lon="7.952273481960134"><ele>376.0</ele><time>2026-04-10T16:42:57.957Z</time></trkpt><trkpt lat="45.47871054734497" lon="7.952177527427277"><ele>376.0</ele><time>2026-04-10T16:42:58.957Z</time></trkpt><trkpt lat="45.478771184795995" lon="7.952086723591129"><ele>376.0</ele><time>2026-04-10T16:42:59.957Z</time></trkpt><trkpt lat="45.47883464166869" lon="7.9520020984406585"><ele>376.0</ele><time>2026-04-10T16:43:00.957Z</time></trkpt><trkpt lat="45.47888477150459" lon="7.951898610391721"><ele>376.0</ele><time>2026-04-10T16:43:01.957Z</time></trkpt><trkpt lat="45.47893038910941" lon="7.951774737613851"><ele>376.0</ele><time>2026-04-10T16:43:02.957Z</time></trkpt><trkpt lat="45.4789727652513" lon="7.9516726138941864"><ele>376.0</ele><time>2026-04-10T16:43:03.957Z</time></trkpt><trkpt lat="45.47901728735519" lon="7.951567329862823"><ele>375.66666666666663</ele><time>2026-04-10T16:43:04.957Z</time></trkpt><trkpt lat="45.47906165877228" lon="7.951489394362144"><ele>375.3333333333333</ele><time>2026-04-10T16:43:05.957Z</time></trkpt><trkpt lat="45.479103346696576" lon="7.951406637133643"><ele>375.0</ele><time>2026-04-10T16:43:06.957Z</time></trkpt><trkpt lat="45.479154916810664" lon="7.95132787437531"><ele>374.6666666666667</ele><time>2026-04-10T16:43:07.957Z</time></trkpt><trkpt lat="45.47920778195739" lon="7.951244575437815"><ele>374.33333333333337</ele><time>2026-04-10T16:43:08.957Z</time></trkpt><trkpt lat="45.479262144584645" lon="7.951158892982294"><ele>374.0</ele><time>2026-04-10T16:43:09.957Z</time></trkpt><trkpt lat="45.47931098800058" lon="7.951072506400794"><ele>374.0</ele><time>2026-04-10T16:43:10.957Z</time></trkpt><trkpt lat="45.47935909324646" lon="7.950996501881796"><ele>374.0</ele><time>2026-04-10T16:43:11.957Z</time></trkpt><trkpt lat="45.479408417334" lon="7.950906179239072"><ele>374.0</ele><time>2026-04-10T16:43:12.957Z</time></trkpt><trkpt lat="45.47947308614325" lon="7.950826745334006"><ele>374.0</ele><time>2026-04-10T16:43:13.957Z</time></trkpt><trkpt lat="45.4795330232844" lon="7.950729462502498"><ele>374.0</ele><time>2026-04-10T16:43:14.957Z</time></trkpt><trkpt lat="45.47959935267113" lon="7.950628137668738"><ele>374.0</ele><time>2026-04-10T16:43:15.957Z</time></trkpt><trkpt lat="45.47965659195911" lon="7.950514332127506"><ele>373.79999999999995</ele><time>2026-04-10T16:43:16.957Z</time></trkpt><trkpt lat="45.47969172801348" lon="7.950391835916012"><ele>373.59999999999997</ele><time>2026-04-10T16:43:17.957Z</time></trkpt><trkpt lat="45.47971000138167" lon="7.950268579172808"><ele>373.4</ele><time>2026-04-10T16:43:18.957Z</time></trkpt><trkpt lat="45.47970513543808" lon="7.950131262719368"><ele>373.2</ele><time>2026-04-10T16:43:19.957Z</time></trkpt><trkpt lat="45.4797023525365" lon="7.949998865303185"><ele>373.0</ele><time>2026-04-10T16:43:20.957Z</time></trkpt><trkpt lat="45.47968879228502" lon="7.949861050770493"><ele>371.59999999999997</ele><time>2026-04-10T16:43:21.957Z</time></trkpt><trkpt lat="45.479672158176726" lon="7.949717892647691"><ele>370.2</ele><time>2026-04-10T16:43:22.957Z</time></trkpt><trkpt lat="45.47965673952559" lon="7.9495851948052305"><ele>368.8</ele><time>2026-04-10T16:43:23.957Z</time></trkpt><trkpt lat="45.47963340329629" lon="7.949456294579089"><ele>367.4</ele><time>2026-04-10T16:43:24.957Z</time></trkpt><trkpt lat="45.47961803987685" lon="7.949325116265504"><ele>366.0</ele><time>2026-04-10T16:43:25.957Z</time></trkpt><trkpt lat="45.47960719928438" lon="7.949196595182318"><ele>365.3333333333333</ele><time>2026-04-10T16:43:26.957Z</time></trkpt><trkpt lat="45.479602214277634" lon="7.949070772697885"><ele>364.6666666666667</ele><time>2026-04-10T16:43:27.957Z</time></trkpt><trkpt lat="45.479596792956194" lon="7.948943722281671"><ele>364.0</ele><time>2026-04-10T16:43:28.957Z</time></trkpt><trkpt lat="45.479603849422254" lon="7.948821910986325"><ele>363.33333333333337</ele><time>2026-04-10T16:43:29.957Z</time></trkpt><trkpt lat="45.479642170980924" lon="7.948728043000186"><ele>362.6666666666667</ele><time>2026-04-10T16:43:30.955Z</time></trkpt><trkpt lat="45.47970130859536" lon="7.948651598962822"><ele>362.0</ele><time>2026-04-10T16:43:31.955Z</time></trkpt><trkpt lat="45.479773959520955" lon="7.948591993718447"><ele>362.0</ele><time>2026-04-10T16:43:32.955Z</time></trkpt><trkpt lat="45.479841620608866" lon="7.948542300377557"><ele>362.0</ele><time>2026-04-10T16:43:33.955Z</time></trkpt><trkpt lat="45.47991678052792" lon="7.948507630587954"><ele>362.0</ele><time>2026-04-10T16:43:34.956Z</time></trkpt><trkpt lat="45.48000192120859" lon="7.948518723690083"><ele>362.0</ele><time>2026-04-10T16:43:35.956Z</time></trkpt><trkpt lat="45.48006824202799" lon="7.948569897662473"><ele>362.0</ele><time>2026-04-10T16:43:36.955Z</time></trkpt><trkpt lat="45.48014645378023" lon="7.948647550278091"><ele>362.0</ele><time>2026-04-10T16:43:37.955Z</time></trkpt><trkpt lat="45.480224786099846" lon="7.948732210721314"><ele>362.0</ele><time>2026-04-10T16:43:38.955Z</time></trkpt><trkpt lat="45.480298005965864" lon="7.948818887239454"><ele>362.0</ele><time>2026-04-10T16:43:39.956Z</time></trkpt><trkpt lat="45.48035708021821" lon="7.948890377021958"><ele>362.0</ele><time>2026-04-10T16:43:40.956Z</time></trkpt><trkpt lat="45.48042288003671" lon="7.948932814146474"><ele>362.0</ele><time>2026-04-10T16:43:41.956Z</time></trkpt><trkpt lat="45.48053097868485" lon="7.948858850549481"><ele>362.0</ele><time>2026-04-10T16:43:43.955Z</time></trkpt><trkpt lat="45.48058596214148" lon="7.94876677716492"><ele>362.6</ele><time>2026-04-10T16:43:44.955Z</time></trkpt><trkpt lat="45.48065082418461" lon="7.948650556610969"><ele>363.20000000000005</ele><time>2026-04-10T16:43:45.955Z</time></trkpt><trkpt lat="45.48071792183102" lon="7.948556507090392"><ele>363.8</ele><time>2026-04-10T16:43:46.955Z</time></trkpt><trkpt lat="45.480789114079265" lon="7.948466965820774"><ele>364.4</ele><time>2026-04-10T16:43:47.955Z</time></trkpt><trkpt lat="45.480858677514505" lon="7.948376017241477"><ele>365.0</ele><time>2026-04-10T16:43:48.955Z</time></trkpt><trkpt lat="45.48091570804592" lon="7.94827525505885"><ele>365.0</ele><time>2026-04-10T16:43:49.955Z</time></trkpt><trkpt lat="45.48096624395269" lon="7.948164067209388"><ele>365.0</ele><time>2026-04-10T16:43:50.955Z</time></trkpt><trkpt lat="45.48101008519276" lon="7.948052690831242"><ele>365.0</ele><time>2026-04-10T16:43:51.955Z</time></trkpt><trkpt lat="45.481047555027494" lon="7.9479356749535395"><ele>365.0</ele><time>2026-04-10T16:43:52.955Z</time></trkpt><trkpt lat="45.48106311866055" lon="7.947825881214248"><ele>365.0</ele><time>2026-04-10T16:43:53.955Z</time></trkpt><trkpt lat="45.48107822753962" lon="7.947701029974293"><ele>365.0</ele><time>2026-04-10T16:43:54.955Z</time></trkpt><trkpt lat="45.48109958264522" lon="7.947590925338941"><ele>365.33333333333337</ele><time>2026-04-10T16:43:55.955Z</time></trkpt><trkpt lat="45.481137706247345" lon="7.947495181811362"><ele>365.6666666666667</ele><time>2026-04-10T16:43:56.955Z</time></trkpt><trkpt lat="45.481187559877206" lon="7.947414247628636"><ele>366.0</ele><time>2026-04-10T16:43:57.955Z</time></trkpt><trkpt lat="45.481251322844635" lon="7.947340951577306"><ele>366.3333333333333</ele><time>2026-04-10T16:43:58.955Z</time></trkpt><trkpt lat="45.481318953362525" lon="7.947268516037002"><ele>366.66666666666663</ele><time>2026-04-10T16:43:59.955Z</time></trkpt><trkpt lat="45.48139369931931" lon="7.947199976661408"><ele>367.0</ele><time>2026-04-10T16:44:00.955Z</time></trkpt><trkpt lat="45.48147039395522" lon="7.947134952635406"><ele>368.6</ele><time>2026-04-10T16:44:01.955Z</time></trkpt><trkpt lat="45.48154729195771" lon="7.947066772684247"><ele>370.20000000000005</ele><time>2026-04-10T16:44:02.955Z</time></trkpt><trkpt lat="45.48163536344743" lon="7.947024672628268"><ele>371.8</ele><time>2026-04-10T16:44:03.955Z</time></trkpt><trkpt lat="45.481716881159734" lon="7.946994721590425"><ele>373.4</ele><time>2026-04-10T16:44:04.955Z</time></trkpt><trkpt lat="45.4818186207954" lon="7.946946400646542"><ele>375.0</ele><time>2026-04-10T16:44:05.955Z</time></trkpt><trkpt lat="45.48193100920312" lon="7.94687757286465"><ele>375.0</ele><time>2026-04-10T16:44:06.956Z</time></trkpt><trkpt lat="45.482036742923434" lon="7.946800203487138"><ele>375.0</ele><time>2026-04-10T16:44:07.956Z</time></trkpt><trkpt lat="45.48213936815945" lon="7.946717922726682"><ele>375.0</ele><time>2026-04-10T16:44:08.956Z</time></trkpt><trkpt lat="45.48223839585086" lon="7.946645798539113"><ele>375.0</ele><time>2026-04-10T16:44:09.956Z</time></trkpt><trkpt lat="45.48234253786941" lon="7.946561092121469"><ele>376.6</ele><time>2026-04-10T16:44:10.956Z</time></trkpt><trkpt lat="45.48243696075486" lon="7.946474980428933"><ele>378.2</ele><time>2026-04-10T16:44:11.956Z</time></trkpt><trkpt lat="45.4825268763905" lon="7.94638486414021"><ele>379.79999999999995</ele><time>2026-04-10T16:44:12.956Z</time></trkpt><trkpt lat="45.48259344049783" lon="7.946279989114734"><ele>381.4</ele><time>2026-04-10T16:44:13.956Z</time></trkpt><trkpt lat="45.48266227670187" lon="7.946165734990996"><ele>383.0</ele><time>2026-04-10T16:44:14.956Z</time></trkpt><trkpt lat="45.482730314212304" lon="7.946049989549664"><ele>383.0</ele><time>2026-04-10T16:44:15.956Z</time></trkpt><trkpt lat="45.48280244344547" lon="7.945938132597987"><ele>383.0</ele><time>2026-04-10T16:44:16.956Z</time></trkpt><trkpt lat="45.48287110532723" lon="7.945835185516273"><ele>383.0</ele><time>2026-04-10T16:44:17.956Z</time></trkpt><trkpt lat="45.48292399346439" lon="7.945737056673393"><ele>383.0</ele><time>2026-04-10T16:44:18.956Z</time></trkpt><trkpt lat="45.48295907695912" lon="7.945642270170921"><ele>383.0</ele><time>2026-04-10T16:44:19.956Z</time></trkpt><trkpt lat="45.48295864261368" lon="7.945519693083838"><ele>383.6666666666667</ele><time>2026-04-10T16:44:20.956Z</time></trkpt><trkpt lat="45.482953173694156" lon="7.945387568927317"><ele>384.33333333333337</ele><time>2026-04-10T16:44:21.956Z</time></trkpt><trkpt lat="45.48293856486604" lon="7.94524285086667"><ele>385.0</ele><time>2026-04-10T16:44:22.956Z</time></trkpt><trkpt lat="45.4829390468149" lon="7.945106938162851"><ele>385.6666666666667</ele><time>2026-04-10T16:44:23.956Z</time></trkpt><trkpt lat="45.482956352033625" lon="7.944996692634431"><ele>386.3333333333333</ele><time>2026-04-10T16:44:24.956Z</time></trkpt><trkpt lat="45.482993826140486" lon="7.944908645478793"><ele>387.0</ele><time>2026-04-10T16:44:25.956Z</time></trkpt><trkpt lat="45.4830362349821" lon="7.944799156658875"><ele>387.0</ele><time>2026-04-10T16:44:27.956Z</time></trkpt><trkpt lat="45.48301105808168" lon="7.944671991206237"><ele>387.0</ele><time>2026-04-10T16:44:29.956Z</time></trkpt><trkpt lat="45.483033282080704" lon="7.944490872201666"><ele>387.0</ele><time>2026-04-10T16:44:31.956Z</time></trkpt><trkpt lat="45.483062546980605" lon="7.944410375178202"><ele>387.0</ele><time>2026-04-10T16:44:32.956Z</time></trkpt><trkpt lat="45.483119241924186" lon="7.944279292982664"><ele>387.0</ele><time>2026-04-10T16:44:34.956Z</time></trkpt><trkpt lat="45.48311552447728" lon="7.944167644446171"><ele>386.5</ele><time>2026-04-10T16:44:36.956Z</time></trkpt><trkpt lat="45.483084035116356" lon="7.94408245623532"><ele>386.0</ele><time>2026-04-10T16:44:38.956Z</time></trkpt><trkpt lat="45.48306653850668" lon="7.943992673091276"><ele>385.5</ele><time>2026-04-10T16:44:40.956Z</time></trkpt><trkpt lat="45.48301579803888" lon="7.94386166147589"><ele>385.0</ele><time>2026-04-10T16:44:43.956Z</time></trkpt><trkpt lat="45.483019192273275" lon="7.943693662746801"><ele>384.5</ele><time>2026-04-10T16:44:45.956Z</time></trkpt><trkpt lat="45.48303996874913" lon="7.9435940688858055"><ele>384.0</ele><time>2026-04-10T16:44:46.956Z</time></trkpt><trkpt lat="45.4830780372553" lon="7.943483083769685"><ele>382.6</ele><time>2026-04-10T16:44:48.956Z</time></trkpt><trkpt lat="45.483145204215354" lon="7.9433182785330025"><ele>381.2</ele><time>2026-04-10T16:44:50.956Z</time></trkpt><trkpt lat="45.48315544661202" lon="7.943205269879182"><ele>379.8</ele><time>2026-04-10T16:44:51.956Z</time></trkpt><trkpt lat="45.483162830461104" lon="7.94308565197393"><ele>378.40000000000003</ele><time>2026-04-10T16:44:52.956Z</time></trkpt><trkpt lat="45.483180255928815" lon="7.94299106889389"><ele>377.0</ele><time>2026-04-10T16:44:53.956Z</time></trkpt><trkpt lat="45.483222943194036" lon="7.942883655785842"><ele>377.0</ele><time>2026-04-10T16:44:55.956Z</time></trkpt><trkpt lat="45.48329314504532" lon="7.942751868545708"><ele>377.0</ele><time>2026-04-10T16:44:57.956Z</time></trkpt><trkpt lat="45.483333774150054" lon="7.942664645903192"><ele>377.0</ele><time>2026-04-10T16:44:58.956Z</time></trkpt><trkpt lat="45.48337396076773" lon="7.942587396509723"><ele>377.0</ele><time>2026-04-10T16:44:59.956Z</time></trkpt><trkpt lat="45.483463514814375" lon="7.942445690722699"><ele>377.0</ele><time>2026-04-10T16:45:01.956Z</time></trkpt><trkpt lat="45.48350793457157" lon="7.942348473375236"><ele>374.0</ele><time>2026-04-10T16:45:02.956Z</time></trkpt><trkpt lat="45.48354571874469" lon="7.94225577704683"><ele>371.0</ele><time>2026-04-10T16:45:03.956Z</time></trkpt><trkpt lat="45.483584486087956" lon="7.942165693653313"><ele>368.0</ele><time>2026-04-10T16:45:04.956Z</time></trkpt><trkpt lat="45.48366461271899" lon="7.942030328959659"><ele>365.0</ele><time>2026-04-10T16:45:06.956Z</time></trkpt><trkpt lat="45.483685617569705" lon="7.94192704718153"><ele>362.0</ele><time>2026-04-10T16:45:07.956Z</time></trkpt><trkpt lat="45.483705819018475" lon="7.941830970014243"><ele>359.0</ele><time>2026-04-10T16:45:08.956Z</time></trkpt><trkpt lat="45.48373573546568" lon="7.941676220267896"><ele>361.4</ele><time>2026-04-10T16:45:10.956Z</time></trkpt><trkpt lat="45.48379133089827" lon="7.9415453711912125"><ele>363.79999999999995</ele><time>2026-04-10T16:45:12.956Z</time></trkpt><trkpt lat="45.48383244207757" lon="7.941381730297148"><ele>366.20000000000005</ele><time>2026-04-10T16:45:14.956Z</time></trkpt><trkpt lat="45.48387247952881" lon="7.941231235194511"><ele>368.6</ele><time>2026-04-10T16:45:16.956Z</time></trkpt><trkpt lat="45.483907605240624" lon="7.94108822795283"><ele>371.0</ele><time>2026-04-10T16:45:18.956Z</time></trkpt><trkpt lat="45.483927928071786" lon="7.940993476410656"><ele>366.6</ele><time>2026-04-10T16:45:19.956Z</time></trkpt><trkpt lat="45.48400318051438" lon="7.940843674560554"><ele>362.20000000000005</ele><time>2026-04-10T16:45:21.956Z</time></trkpt><trkpt lat="45.48406928682153" lon="7.9406844085252395"><ele>357.79999999999995</ele><time>2026-04-10T16:45:23.956Z</time></trkpt><trkpt lat="45.48410837872685" lon="7.940595344642076"><ele>353.4</ele><time>2026-04-10T16:45:24.957Z</time></trkpt><trkpt lat="45.484138986684606" lon="7.9405079863266295"><ele>349.0</ele><time>2026-04-10T16:45:25.957Z</time></trkpt><trkpt lat="45.4841771459127" lon="7.9404270860736865"><ele>349.0</ele><time>2026-04-10T16:45:26.957Z</time></trkpt><trkpt lat="45.48420952026654" lon="7.940336056234456"><ele>349.0</ele><time>2026-04-10T16:45:27.957Z</time></trkpt><trkpt lat="45.48423459343358" lon="7.9401808871602615"><ele>349.0</ele><time>2026-04-10T16:45:29.957Z</time></trkpt><trkpt lat="45.484183292668625" lon="7.9400598987113"><ele>349.0</ele><time>2026-04-10T16:45:31.957Z</time></trkpt><trkpt lat="45.484119926284095" lon="7.939992866113968"><ele>349.0</ele><time>2026-04-10T16:45:32.957Z</time></trkpt><trkpt lat="45.48406948390561" lon="7.939921768277542"><ele>349.0</ele><time>2026-04-10T16:45:33.957Z</time></trkpt><trkpt lat="45.48402476678162" lon="7.939846183498358"><ele>346.66666666666663</ele><time>2026-04-10T16:45:34.957Z</time></trkpt><trkpt lat="45.48398151652158" lon="7.939775723877422"><ele>344.3333333333333</ele><time>2026-04-10T16:45:35.957Z</time></trkpt><trkpt lat="45.48393756159904" lon="7.93970369211448"><ele>342.0</ele><time>2026-04-10T16:45:36.956Z</time></trkpt><trkpt lat="45.48385148830819" lon="7.939611684321436"><ele>339.6666666666667</ele><time>2026-04-10T16:45:38.955Z</time></trkpt><trkpt lat="45.48373256687766" lon="7.939666349952336"><ele>337.33333333333337</ele><time>2026-04-10T16:45:40.955Z</time></trkpt><trkpt lat="45.48366484596165" lon="7.939714279426583"><ele>335.0</ele><time>2026-04-10T16:45:41.955Z</time></trkpt><trkpt lat="45.48359333812611" lon="7.939756100340141"><ele>333.4285714285714</ele><time>2026-04-10T16:45:42.955Z</time></trkpt><trkpt lat="45.48351851352521" lon="7.939793795145559"><ele>331.85714285714283</ele><time>2026-04-10T16:45:43.954Z</time></trkpt><trkpt lat="45.483449411781955" lon="7.9398270089200444"><ele>330.2857142857143</ele><time>2026-04-10T16:45:44.954Z</time></trkpt><trkpt lat="45.48338819313809" lon="7.939872334876281"><ele>328.71428571428567</ele><time>2026-04-10T16:45:45.955Z</time></trkpt><trkpt lat="45.48332501552512" lon="7.939924044812253"><ele>327.1428571428571</ele><time>2026-04-10T16:45:46.955Z</time></trkpt><trkpt lat="45.48326135085661" lon="7.939972430063467"><ele>325.57142857142856</ele><time>2026-04-10T16:45:47.955Z</time></trkpt><trkpt lat="45.483197146034556" lon="7.940011046578403"><ele>324.0</ele><time>2026-04-10T16:45:48.955Z</time></trkpt><trkpt lat="45.48312571050441" lon="7.940056969335396"><ele>324.0</ele><time>2026-04-10T16:45:49.955Z</time></trkpt><trkpt lat="45.48305444894072" lon="7.940116485409608"><ele>324.0</ele><time>2026-04-10T16:45:50.955Z</time></trkpt><trkpt lat="45.48299040410584" lon="7.940192908526017"><ele>324.0</ele><time>2026-04-10T16:45:51.955Z</time></trkpt><trkpt lat="45.482927373465536" lon="7.940288681225235"><ele>324.0</ele><time>2026-04-10T16:45:52.955Z</time></trkpt><trkpt lat="45.4828637549882" lon="7.940382816905197"><ele>324.0</ele><time>2026-04-10T16:45:53.955Z</time></trkpt><trkpt lat="45.482801092280376" lon="7.940467934489088"><ele>324.0</ele><time>2026-04-10T16:45:54.955Z</time></trkpt><trkpt lat="45.48273189252932" lon="7.9405549048923625"><ele>323.0</ele><time>2026-04-10T16:45:55.955Z</time></trkpt><trkpt lat="45.482657615196466" lon="7.94061522591657"><ele>322.0</ele><time>2026-04-10T16:45:56.955Z</time></trkpt><trkpt lat="45.48258103962949" lon="7.940674274911192"><ele>321.0</ele><time>2026-04-10T16:45:57.955Z</time></trkpt><trkpt lat="45.48250318537143" lon="7.940740062848211"><ele>320.0</ele><time>2026-04-10T16:45:58.955Z</time></trkpt><trkpt lat="45.482432253092924" lon="7.9408042143202495"><ele>319.0</ele><time>2026-04-10T16:45:59.955Z</time></trkpt><trkpt lat="45.48236243312439" lon="7.940875240559641"><ele>318.0</ele><time>2026-04-10T16:46:00.955Z</time></trkpt><trkpt lat="45.48229597423773" lon="7.940938784859613"><ele>318.0</ele><time>2026-04-10T16:46:01.955Z</time></trkpt><trkpt lat="45.48222279661212" lon="7.940989246654897"><ele>318.0</ele><time>2026-04-10T16:46:02.955Z</time></trkpt><trkpt lat="45.48214340784971" lon="7.941028213598505"><ele>318.0</ele><time>2026-04-10T16:46:03.955Z</time></trkpt><trkpt lat="45.4820633106386" lon="7.941065809144987"><ele>318.0</ele><time>2026-04-10T16:46:04.955Z</time></trkpt><trkpt lat="45.48198699637568" lon="7.941108868476866"><ele>318.0</ele><time>2026-04-10T16:46:05.955Z</time></trkpt><trkpt lat="45.48191125463523" lon="7.9411538592427835"><ele>318.0</ele><time>2026-04-10T16:46:06.955Z</time></trkpt><trkpt lat="45.481837366611295" lon="7.941206540317513"><ele>315.0</ele><time>2026-04-10T16:46:07.955Z</time></trkpt><trkpt lat="45.48176080550075" lon="7.941243093114862"><ele>312.0</ele><time>2026-04-10T16:46:08.955Z</time></trkpt><trkpt lat="45.481683145270885" lon="7.941276344970875"><ele>309.0</ele><time>2026-04-10T16:46:09.955Z</time></trkpt><trkpt lat="45.48160710140611" lon="7.941321549996586"><ele>306.0</ele><time>2026-04-10T16:46:10.955Z</time></trkpt><trkpt lat="45.48152488535069" lon="7.941375132394081"><ele>303.0</ele><time>2026-04-10T16:46:11.955Z</time></trkpt><trkpt lat="45.48144136588498" lon="7.941419410726849"><ele>300.0</ele><time>2026-04-10T16:46:12.955Z</time></trkpt><trkpt lat="45.48136435299312" lon="7.941459477184202"><ele>300.0</ele><time>2026-04-10T16:46:13.955Z</time></trkpt><trkpt lat="45.48129444286803" lon="7.941486757030142"><ele>300.0</ele><time>2026-04-10T16:46:14.955Z</time></trkpt><trkpt lat="45.48120104652297" lon="7.941501722897638"><ele>300.0</ele><time>2026-04-10T16:46:15.955Z</time></trkpt><trkpt lat="45.48110990002939" lon="7.941477763481658"><ele>300.0</ele><time>2026-04-10T16:46:16.955Z</time></trkpt><trkpt lat="45.481025493460585" lon="7.9414448089482725"><ele>300.0</ele><time>2026-04-10T16:46:17.955Z</time></trkpt><trkpt lat="45.48094689422156" lon="7.9414232066093815"><ele>300.0</ele><time>2026-04-10T16:46:18.955Z</time></trkpt><trkpt lat="45.48086916663656" lon="7.941435687296666"><ele>297.0</ele><time>2026-04-10T16:46:19.955Z</time></trkpt><trkpt lat="45.48078057479385" lon="7.941480451173757"><ele>294.0</ele><time>2026-04-10T16:46:20.955Z</time></trkpt><trkpt lat="45.480705861506536" lon="7.941503948481534"><ele>291.0</ele><time>2026-04-10T16:46:21.955Z</time></trkpt><trkpt lat="45.48062116948875" lon="7.941498863029735"><ele>288.0</ele><time>2026-04-10T16:46:22.955Z</time></trkpt><trkpt lat="45.48053368937794" lon="7.941453428081037"><ele>285.0</ele><time>2026-04-10T16:46:23.955Z</time></trkpt><trkpt lat="45.480453086248545" lon="7.941390610220716"><ele>282.0</ele><time>2026-04-10T16:46:24.955Z</time></trkpt><trkpt lat="45.480376882046194" lon="7.941326476862925"><ele>280.5</ele><time>2026-04-10T16:46:25.955Z</time></trkpt><trkpt lat="45.48030530518276" lon="7.9412691094330645"><ele>279.0</ele><time>2026-04-10T16:46:26.955Z</time></trkpt><trkpt lat="45.48022989500825" lon="7.941239768498117"><ele>277.5</ele><time>2026-04-10T16:46:27.955Z</time></trkpt><trkpt lat="45.48015252026076" lon="7.941264576747865"><ele>276.0</ele><time>2026-04-10T16:46:28.955Z</time></trkpt><trkpt lat="45.48006331167862" lon="7.941315844821213"><ele>274.5</ele><time>2026-04-10T16:46:29.955Z</time></trkpt><trkpt lat="45.47997745325605" lon="7.941359006419826"><ele>273.0</ele><time>2026-04-10T16:46:30.955Z</time></trkpt><trkpt lat="45.47989278956543" lon="7.941379048995429"><ele>273.0</ele><time>2026-04-10T16:46:31.955Z</time></trkpt><trkpt lat="45.479811431011534" lon="7.941350909093532"><ele>273.0</ele><time>2026-04-10T16:46:32.955Z</time></trkpt><trkpt lat="45.47974960664423" lon="7.941316605010355"><ele>273.0</ele><time>2026-04-10T16:46:33.955Z</time></trkpt><trkpt lat="45.47966310075406" lon="7.941325644746323"><ele>273.0</ele><time>2026-04-10T16:46:35.955Z</time></trkpt><trkpt lat="45.47960103116533" lon="7.941378867990807"><ele>273.0</ele><time>2026-04-10T16:46:36.955Z</time></trkpt><trkpt lat="45.47953612750212" lon="7.941449449360261"><ele>273.0</ele><time>2026-04-10T16:46:37.955Z</time></trkpt><trkpt lat="45.4794698524213" lon="7.9415416605353695"><ele>272.6</ele><time>2026-04-10T16:46:38.955Z</time></trkpt><trkpt lat="45.47938777831764" lon="7.941622199086418"><ele>272.20000000000005</ele><time>2026-04-10T16:46:39.955Z</time></trkpt><trkpt lat="45.47929812975799" lon="7.94167991712482"><ele>271.8</ele><time>2026-04-10T16:46:40.955Z</time></trkpt><trkpt lat="45.479206631036" lon="7.941733153117703"><ele>271.40000000000003</ele><time>2026-04-10T16:46:41.955Z</time></trkpt><trkpt lat="45.4791044845476" lon="7.941774254593483"><ele>271.0</ele><time>2026-04-10T16:46:42.955Z</time></trkpt><trkpt lat="45.47899591193684" lon="7.941808391580829"><ele>270.40000000000003</ele><time>2026-04-10T16:46:43.955Z</time></trkpt><trkpt lat="45.47888842586266" lon="7.941820299739006"><ele>269.8</ele><time>2026-04-10T16:46:44.955Z</time></trkpt><trkpt lat="45.478787408856114" lon="7.9418430203669"><ele>269.20000000000005</ele><time>2026-04-10T16:46:45.956Z</time></trkpt><trkpt lat="45.47868344830576" lon="7.941872162413321"><ele>268.6</ele><time>2026-04-10T16:46:46.956Z</time></trkpt><trkpt lat="45.47858046705453" lon="7.941922013146058"><ele>268.0</ele><time>2026-04-10T16:46:47.956Z</time></trkpt><trkpt lat="45.4784783619095" lon="7.941971857542855"><ele>268.0</ele><time>2026-04-10T16:46:48.956Z</time></trkpt><trkpt lat="45.47829210364694" lon="7.942066147432432"><ele>268.0</ele><time>2026-04-10T16:46:50.956Z</time></trkpt><trkpt lat="45.47820447838094" lon="7.942117456748663"><ele>268.0</ele><time>2026-04-10T16:46:51.956Z</time></trkpt><trkpt lat="45.47812101142842" lon="7.942164087910776"><ele>268.0</ele><time>2026-04-10T16:46:52.956Z</time></trkpt><trkpt lat="45.47804635131026" lon="7.942235695750777"><ele>268.0</ele><time>2026-04-10T16:46:53.956Z</time></trkpt><trkpt lat="45.47797226434721" lon="7.94231415908565"><ele>268.0</ele><time>2026-04-10T16:46:54.956Z</time></trkpt><trkpt lat="45.477902178425516" lon="7.94240499230605"><ele>268.0</ele><time>2026-04-10T16:46:55.956Z</time></trkpt><trkpt lat="45.47783590954006" lon="7.942494752397887"><ele>268.0</ele><time>2026-04-10T16:46:56.956Z</time></trkpt><trkpt lat="45.47777387916197" lon="7.9425912613982526"><ele>268.0</ele><time>2026-04-10T16:46:57.956Z</time></trkpt><trkpt lat="45.477727421099665" lon="7.94267161109483"><ele>268.0</ele><time>2026-04-10T16:46:58.956Z</time></trkpt><trkpt lat="45.477671758667185" lon="7.942761441222396"><ele>267.66666666666663</ele><time>2026-04-10T16:46:59.956Z</time></trkpt><trkpt lat="45.47761062937962" lon="7.942817687717106"><ele>267.3333333333333</ele><time>2026-04-10T16:47:00.956Z</time></trkpt><trkpt lat="45.477551922157005" lon="7.942872867712545"><ele>267.0</ele><time>2026-04-10T16:47:01.956Z</time></trkpt><trkpt lat="45.477486087555334" lon="7.9429212888467635"><ele>266.6666666666667</ele><time>2026-04-10T16:47:02.956Z</time></trkpt><trkpt lat="45.47741566127587" lon="7.9429643915270125"><ele>266.33333333333337</ele><time>2026-04-10T16:47:03.956Z</time></trkpt><trkpt lat="45.47734784421355" lon="7.9430188338202425"><ele>266.0</ele><time>2026-04-10T16:47:04.956Z</time></trkpt><trkpt lat="45.47725393393582" lon="7.943050089037006"><ele>266.0</ele><time>2026-04-10T16:47:05.956Z</time></trkpt><trkpt lat="45.4771760383102" lon="7.943102982976938"><ele>266.0</ele><time>2026-04-10T16:47:06.956Z</time></trkpt><trkpt lat="45.477094889114824" lon="7.943137548080625"><ele>266.0</ele><time>2026-04-10T16:47:07.956Z</time></trkpt><trkpt lat="45.47701220860303" lon="7.943186429200522"><ele>266.0</ele><time>2026-04-10T16:47:08.956Z</time></trkpt><trkpt lat="45.47692093751291" lon="7.943233382275131"><ele>266.0</ele><time>2026-04-10T16:47:09.956Z</time></trkpt><trkpt lat="45.47682124929356" lon="7.943256769988525"><ele>265.8</ele><time>2026-04-10T16:47:10.956Z</time></trkpt><trkpt lat="45.476731926039015" lon="7.943264643807112"><ele>265.6</ele><time>2026-04-10T16:47:11.956Z</time></trkpt><trkpt lat="45.47662359594746" lon="7.943316488573276"><ele>265.4</ele><time>2026-04-10T16:47:12.956Z</time></trkpt><trkpt lat="45.47652761782534" lon="7.943351338047047"><ele>265.2</ele><time>2026-04-10T16:47:13.956Z</time></trkpt><trkpt lat="45.47642213645954" lon="7.943372126764266"><ele>265.0</ele><time>2026-04-10T16:47:14.956Z</time></trkpt><trkpt lat="45.47633426656342" lon="7.943406199690443"><ele>263.8333333333333</ele><time>2026-04-10T16:47:15.956Z</time></trkpt><trkpt lat="45.47624353984632" lon="7.943426790702086"><ele>262.66666666666663</ele><time>2026-04-10T16:47:16.956Z</time></trkpt><trkpt lat="45.47616366510536" lon="7.943472552828139"><ele>261.5</ele><time>2026-04-10T16:47:17.956Z</time></trkpt><trkpt lat="45.476070680763875" lon="7.943496050456594"><ele>260.3333333333333</ele><time>2026-04-10T16:47:18.956Z</time></trkpt><trkpt lat="45.47599075771144" lon="7.943520390926041"><ele>259.1666666666667</ele><time>2026-04-10T16:47:19.956Z</time></trkpt><trkpt lat="45.475903402294584" lon="7.943547717182886"><ele>258.0</ele><time>2026-04-10T16:47:20.956Z</time></trkpt><trkpt lat="45.475823353347224" lon="7.943603281706899"><ele>258.0</ele><time>2026-04-10T16:47:21.956Z</time></trkpt><trkpt lat="45.475729885875175" lon="7.943639282859907"><ele>258.0</ele><time>2026-04-10T16:47:22.956Z</time></trkpt><trkpt lat="45.475622384425215" lon="7.9436696349849845"><ele>258.0</ele><time>2026-04-10T16:47:23.956Z</time></trkpt><trkpt lat="45.47553732546242" lon="7.943724183617839"><ele>258.0</ele><time>2026-04-10T16:47:24.956Z</time></trkpt><trkpt lat="45.47545658170876" lon="7.943763874455315"><ele>258.0</ele><time>2026-04-10T16:47:25.956Z</time></trkpt><trkpt lat="45.4753643906326" lon="7.9437871572848575"><ele>258.2</ele><time>2026-04-10T16:47:26.956Z</time></trkpt><trkpt lat="45.47527568485975" lon="7.9438285318965"><ele>258.4</ele><time>2026-04-10T16:47:27.956Z</time></trkpt><trkpt lat="45.47518670410707" lon="7.943855522549094"><ele>258.59999999999997</ele><time>2026-04-10T16:47:28.956Z</time></trkpt><trkpt lat="45.475093160890005" lon="7.943872098729338"><ele>258.8</ele><time>2026-04-10T16:47:29.956Z</time></trkpt><trkpt lat="45.47499502555183" lon="7.9438851582365135"><ele>259.0</ele><time>2026-04-10T16:47:30.956Z</time></trkpt><trkpt lat="45.47490326488196" lon="7.94389841302254"><ele>259.0</ele><time>2026-04-10T16:47:31.956Z</time></trkpt><trkpt lat="45.47482535567829" lon="7.94393122953279"><ele>259.0</ele><time>2026-04-10T16:47:32.956Z</time></trkpt><trkpt lat="45.47474297259187" lon="7.943945458795482"><ele>259.0</ele><time>2026-04-10T16:47:33.956Z</time></trkpt><trkpt lat="45.47465460119079" lon="7.943965673918727"><ele>259.0</ele><time>2026-04-10T16:47:34.956Z</time></trkpt><trkpt lat="45.474563880603455" lon="7.94398826099932"><ele>259.0</ele><time>2026-04-10T16:47:35.956Z</time></trkpt><trkpt lat="45.4744736531849" lon="7.943999330109611"><ele>259.0</ele><time>2026-04-10T16:47:36.956Z</time></trkpt><trkpt lat="45.47438599142222" lon="7.94401760473414"><ele>258.59999999999997</ele><time>2026-04-10T16:47:37.956Z</time></trkpt><trkpt lat="45.474298724548" lon="7.94403495054226"><ele>258.2</ele><time>2026-04-10T16:47:38.956Z</time></trkpt><trkpt lat="45.4742118306246" lon="7.944068721211459"><ele>257.79999999999995</ele><time>2026-04-10T16:47:39.956Z</time></trkpt><trkpt lat="45.47411222810871" lon="7.944084260309988"><ele>257.4</ele><time>2026-04-10T16:47:40.957Z</time></trkpt><trkpt lat="45.47401817313772" lon="7.9440835376589245"><ele>257.0</ele><time>2026-04-10T16:47:41.958Z</time></trkpt><trkpt lat="45.4739220558537" lon="7.944117095801781"><ele>257.0</ele><time>2026-04-10T16:47:42.958Z</time></trkpt><trkpt lat="45.47382075478939" lon="7.944123131828881"><ele>257.0</ele><time>2026-04-10T16:47:43.958Z</time></trkpt><trkpt lat="45.47371544332788" lon="7.944124922409037"><ele>257.0</ele><time>2026-04-10T16:47:44.958Z</time></trkpt><trkpt lat="45.47362390842625" lon="7.94412382080303"><ele>257.0</ele><time>2026-04-10T16:47:45.959Z</time></trkpt><trkpt lat="45.47352073518466" lon="7.944119020829346"><ele>257.0</ele><time>2026-04-10T16:47:46.96Z</time></trkpt><trkpt lat="45.47343312321824" lon="7.944145513615258"><ele>257.0</ele><time>2026-04-10T16:47:47.96Z</time></trkpt><trkpt lat="45.47334439557257" lon="7.944160063672659"><ele>257.0</ele><time>2026-04-10T16:47:48.961Z</time></trkpt><trkpt lat="45.473260927324695" lon="7.944161399889369"><ele>257.0</ele><time>2026-04-10T16:47:49.962Z</time></trkpt><trkpt lat="45.473172497096655" lon="7.9441975974710495"><ele>257.0</ele><time>2026-04-10T16:47:50.962Z</time></trkpt><trkpt lat="45.47307559523434" lon="7.944244757936251"><ele>257.0</ele><time>2026-04-10T16:47:51.963Z</time></trkpt><trkpt lat="45.47299341473574" lon="7.944278449950096"><ele>256.1666666666667</ele><time>2026-04-10T16:47:52.963Z</time></trkpt><trkpt lat="45.47289489651669" lon="7.9443112481906075"><ele>255.33333333333334</ele><time>2026-04-10T16:47:53.963Z</time></trkpt><trkpt lat="45.47280158398278" lon="7.944332628712071"><ele>254.5</ele><time>2026-04-10T16:47:54.964Z</time></trkpt><trkpt lat="45.472717185397016" lon="7.944356972829084"><ele>253.66666666666669</ele><time>2026-04-10T16:47:55.964Z</time></trkpt><trkpt lat="45.472635754079526" lon="7.944374532546828"><ele>252.83333333333334</ele><time>2026-04-10T16:47:56.965Z</time></trkpt><trkpt lat="45.472564666935874" lon="7.944382177954305"><ele>252.0</ele><time>2026-04-10T16:47:57.965Z</time></trkpt><trkpt lat="45.47245382178632" lon="7.944387339996353"><ele>252.0</ele><time>2026-04-10T16:47:59.966Z</time></trkpt><trkpt lat="45.47235185169813" lon="7.944419403179659"><ele>252.0</ele><time>2026-04-10T16:48:01.966Z</time></trkpt><trkpt lat="45.472230340631214" lon="7.9444241572828584"><ele>252.0</ele><time>2026-04-10T16:48:03.967Z</time></trkpt><trkpt lat="45.47216400168967" lon="7.94443576530805"><ele>252.0</ele><time>2026-04-10T16:48:04.967Z</time></trkpt><trkpt lat="45.47208197966509" lon="7.944464678000889"><ele>252.0</ele><time>2026-04-10T16:48:05.967Z</time></trkpt><trkpt lat="45.472003531962876" lon="7.944468329044882"><ele>252.2</ele><time>2026-04-10T16:48:06.967Z</time></trkpt><trkpt lat="45.47192067343654" lon="7.944513311680155"><ele>252.39999999999998</ele><time>2026-04-10T16:48:07.968Z</time></trkpt><trkpt lat="45.47177772468222" lon="7.944568540127033"><ele>252.60000000000002</ele><time>2026-04-10T16:48:09.968Z</time></trkpt><trkpt lat="45.47170627738825" lon="7.944609156110965"><ele>252.8</ele><time>2026-04-10T16:48:10.968Z</time></trkpt><trkpt lat="45.471618040312045" lon="7.944628627643979"><ele>253.0</ele><time>2026-04-10T16:48:11.968Z</time></trkpt><trkpt lat="45.47154352191391" lon="7.944650628850568"><ele>252.99999999999997</ele><time>2026-04-10T16:48:12.968Z</time></trkpt><trkpt lat="45.47147761561638" lon="7.944680457876519"><ele>253.0</ele><time>2026-04-10T16:48:13.968Z</time></trkpt><trkpt lat="45.47141927107032" lon="7.944726414425572"><ele>253.0</ele><time>2026-04-10T16:48:14.969Z</time></trkpt><trkpt lat="45.4713188047217" lon="7.944781592162498"><ele>253.0</ele><time>2026-04-10T16:48:16.969Z</time></trkpt><trkpt lat="45.47125803141929" lon="7.9446948027881925"><ele>252.99999999999997</ele><time>2026-04-10T16:48:18.969Z</time></trkpt><trkpt lat="45.471202155379174" lon="7.944623286016462"><ele>253.0</ele><time>2026-04-10T16:48:19.969Z</time></trkpt><trkpt lat="45.47112607635338" lon="7.9445285267343415"><ele>253.2</ele><time>2026-04-10T16:48:20.969Z</time></trkpt><trkpt lat="45.471063126747474" lon="7.9444373373393535"><ele>253.4</ele><time>2026-04-10T16:48:21.969Z</time></trkpt><trkpt lat="45.47101091368023" lon="7.944338610374003"><ele>253.59999999999997</ele><time>2026-04-10T16:48:22.969Z</time></trkpt><trkpt lat="45.47096939875385" lon="7.9442126169025835"><ele>253.79999999999998</ele><time>2026-04-10T16:48:23.969Z</time></trkpt><trkpt lat="45.470982047352116" lon="7.944038538494494"><ele>254.0</ele><time>2026-04-10T16:48:24.97Z</time></trkpt><trkpt lat="45.47098706299091" lon="7.943886135842097"><ele>254.0</ele><time>2026-04-10T16:48:25.97Z</time></trkpt><trkpt lat="45.470974919438746" lon="7.943735839487905"><ele>253.99999999999997</ele><time>2026-04-10T16:48:26.97Z</time></trkpt><trkpt lat="45.47095275057576" lon="7.943584238368507"><ele>253.99999999999997</ele><time>2026-04-10T16:48:27.97Z</time></trkpt><trkpt lat="45.47092860953694" lon="7.9434282178091165"><ele>254.0</ele><time>2026-04-10T16:48:28.97Z</time></trkpt><trkpt lat="45.4708887321249" lon="7.943266339998295"><ele>254.0</ele><time>2026-04-10T16:48:29.97Z</time></trkpt><trkpt lat="45.47085730112678" lon="7.9431093957269105"><ele>254.0</ele><time>2026-04-10T16:48:30.97Z</time></trkpt><trkpt lat="45.47083463008431" lon="7.942949254549526"><ele>254.0</ele><time>2026-04-10T16:48:31.97Z</time></trkpt><trkpt lat="45.47081091376789" lon="7.9427866174645905"><ele>254.0</ele><time>2026-04-10T16:48:32.97Z</time></trkpt><trkpt lat="45.470796964950146" lon="7.942631986886765"><ele>254.0</ele><time>2026-04-10T16:48:33.97Z</time></trkpt><trkpt lat="45.47078949117974" lon="7.942471888452736"><ele>253.2</ele><time>2026-04-10T16:48:34.97Z</time></trkpt><trkpt lat="45.470806589554" lon="7.942310531812107"><ele>252.39999999999998</ele><time>2026-04-10T16:48:35.97Z</time></trkpt><trkpt lat="45.470838633142115" lon="7.942147947688473"><ele>251.6</ele><time>2026-04-10T16:48:36.97Z</time></trkpt><trkpt lat="45.470884853619566" lon="7.942010795772109"><ele>250.8</ele><time>2026-04-10T16:48:37.97Z</time></trkpt><trkpt lat="45.47093570136361" lon="7.9418888778921835"><ele>250.0</ele><time>2026-04-10T16:48:38.97Z</time></trkpt><trkpt lat="45.47097656858229" lon="7.941754537453941"><ele>248.8</ele><time>2026-04-10T16:48:39.97Z</time></trkpt><trkpt lat="45.471014138713066" lon="7.941638993327363"><ele>247.6</ele><time>2026-04-10T16:48:40.97Z</time></trkpt><trkpt lat="45.470999869987146" lon="7.9414933603416795"><ele>246.39999999999998</ele><time>2026-04-10T16:48:41.97Z</time></trkpt><trkpt lat="45.47096885139586" lon="7.941359585439318"><ele>245.2</ele><time>2026-04-10T16:48:42.97Z</time></trkpt><trkpt lat="45.47095248892246" lon="7.9412326638280515"><ele>244.0</ele><time>2026-04-10T16:48:43.97Z</time></trkpt><trkpt lat="45.470924818689866" lon="7.941083381150592"><ele>244.0</ele><time>2026-04-10T16:48:44.97Z</time></trkpt><trkpt lat="45.47091367918267" lon="7.940936575902622"><ele>243.99999999999997</ele><time>2026-04-10T16:48:45.971Z</time></trkpt><trkpt lat="45.4709014016581" lon="7.940785331735322"><ele>243.99999999999997</ele><time>2026-04-10T16:48:46.971Z</time></trkpt><trkpt lat="45.47088361249821" lon="7.940631938395018"><ele>244.0</ele><time>2026-04-10T16:48:47.971Z</time></trkpt><trkpt lat="45.47087034963921" lon="7.940480154558894"><ele>244.0</ele><time>2026-04-10T16:48:48.971Z</time></trkpt><trkpt lat="45.470853507644485" lon="7.940320870400576"><ele>243.5</ele><time>2026-04-10T16:48:49.971Z</time></trkpt><trkpt lat="45.470839823782654" lon="7.940145958831974"><ele>243.0</ele><time>2026-04-10T16:48:50.971Z</time></trkpt><trkpt lat="45.47082290927031" lon="7.939981246608034"><ele>242.5</ele><time>2026-04-10T16:48:51.971Z</time></trkpt><trkpt lat="45.470805534618314" lon="7.939811117452958"><ele>242.0</ele><time>2026-04-10T16:48:52.971Z</time></trkpt><trkpt lat="45.47078195014767" lon="7.939627112975367"><ele>242.0</ele><time>2026-04-10T16:48:53.971Z</time></trkpt><trkpt lat="45.47076375662435" lon="7.939438975380884"><ele>242.0</ele><time>2026-04-10T16:48:54.971Z</time></trkpt><trkpt lat="45.470750003887474" lon="7.939244115530433"><ele>242.0</ele><time>2026-04-10T16:48:55.971Z</time></trkpt><trkpt lat="45.47072788975421" lon="7.939065297506127"><ele>242.0</ele><time>2026-04-10T16:48:56.971Z</time></trkpt><trkpt lat="45.470708606438905" lon="7.938886240810652"><ele>242.0</ele><time>2026-04-10T16:48:57.971Z</time></trkpt><trkpt lat="45.47069129015415" lon="7.93870347056442"><ele>242.0</ele><time>2026-04-10T16:48:58.971Z</time></trkpt><trkpt lat="45.47067126271331" lon="7.9385175475151035"><ele>242.0</ele><time>2026-04-10T16:48:59.971Z</time></trkpt><trkpt lat="45.470655355491104" lon="7.9383280963689025"><ele>242.0</ele><time>2026-04-10T16:49:00.971Z</time></trkpt><trkpt lat="45.47063506583518" lon="7.938143122141972"><ele>241.75</ele><time>2026-04-10T16:49:01.971Z</time></trkpt><trkpt lat="45.47061191647794" lon="7.9379576908946055"><ele>241.5</ele><time>2026-04-10T16:49:02.971Z</time></trkpt><trkpt lat="45.47059435592591" lon="7.937767772307349"><ele>241.25</ele><time>2026-04-10T16:49:03.971Z</time></trkpt><trkpt lat="45.4705752472865" lon="7.937578376475886"><ele>241.0</ele><time>2026-04-10T16:49:04.971Z</time></trkpt><trkpt lat="45.47055645419783" lon="7.937393142354278"><ele>240.75</ele><time>2026-04-10T16:49:05.971Z</time></trkpt><trkpt lat="45.47053840802904" lon="7.937209033734561"><ele>240.5</ele><time>2026-04-10T16:49:06.971Z</time></trkpt><trkpt lat="45.470531836039136" lon="7.937038806357457"><ele>240.25</ele><time>2026-04-10T16:49:07.971Z</time></trkpt><trkpt lat="45.47051674301521" lon="7.93688840141501"><ele>240.0</ele><time>2026-04-10T16:49:08.971Z</time></trkpt><trkpt lat="45.470507204289504" lon="7.936742614595477"><ele>240.0</ele><time>2026-04-10T16:49:09.971Z</time></trkpt><trkpt lat="45.47050466574312" lon="7.936591535347317"><ele>240.0</ele><time>2026-04-10T16:49:10.971Z</time></trkpt><trkpt lat="45.470513994549705" lon="7.93644360907048"><ele>240.0</ele><time>2026-04-10T16:49:11.971Z</time></trkpt><trkpt lat="45.470528699025266" lon="7.936307461500598"><ele>240.0</ele><time>2026-04-10T16:49:12.971Z</time></trkpt><trkpt lat="45.47053911613762" lon="7.936195101449689"><ele>240.0</ele><time>2026-04-10T16:49:13.971Z</time></trkpt><trkpt lat="45.47052991494855" lon="7.9360766000668965"><ele>240.0</ele><time>2026-04-10T16:49:14.971Z</time></trkpt><trkpt lat="45.470487652372206" lon="7.93600842243348"><ele>240.0</ele><time>2026-04-10T16:49:15.971Z</time></trkpt><trkpt lat="45.47041685965823" lon="7.935957271493905"><ele>240.0</ele><time>2026-04-10T16:49:16.971Z</time></trkpt><trkpt lat="45.47032593487841" lon="7.9359077944225795"><ele>240.0</ele><time>2026-04-10T16:49:17.971Z</time></trkpt><trkpt lat="45.47026140296662" lon="7.935823533411859"><ele>240.0</ele><time>2026-04-10T16:49:18.971Z</time></trkpt><trkpt lat="45.47021743546874" lon="7.935713154407493"><ele>240.0</ele><time>2026-04-10T16:49:19.971Z</time></trkpt><trkpt lat="45.47019914551562" lon="7.9355807083172305"><ele>240.0</ele><time>2026-04-10T16:49:20.971Z</time></trkpt><trkpt lat="45.47018687972147" lon="7.93543171249719"><ele>240.0</ele><time>2026-04-10T16:49:21.971Z</time></trkpt><trkpt lat="45.470158435823684" lon="7.935286253866648"><ele>240.0</ele><time>2026-04-10T16:49:22.971Z</time></trkpt><trkpt lat="45.470125373991856" lon="7.935129834623422"><ele>240.0</ele><time>2026-04-10T16:49:23.971Z</time></trkpt><trkpt lat="45.47009523274986" lon="7.934975119765587"><ele>240.0</ele><time>2026-04-10T16:49:24.971Z</time></trkpt><trkpt lat="45.47006339250819" lon="7.93482574107827"><ele>240.0</ele><time>2026-04-10T16:49:25.971Z</time></trkpt><trkpt lat="45.47002945198776" lon="7.934675892774189"><ele>240.0</ele><time>2026-04-10T16:49:26.971Z</time></trkpt><trkpt lat="45.469995470767564" lon="7.9345219552600135"><ele>240.0</ele><time>2026-04-10T16:49:27.971Z</time></trkpt><trkpt lat="45.46996270163535" lon="7.93437583421662"><ele>240.0</ele><time>2026-04-10T16:49:28.971Z</time></trkpt><trkpt lat="45.46992642786528" lon="7.934223390307018"><ele>240.0</ele><time>2026-04-10T16:49:29.971Z</time></trkpt><trkpt lat="45.46988099755625" lon="7.934066517083014"><ele>239.75</ele><time>2026-04-10T16:49:30.971Z</time></trkpt><trkpt lat="45.469829218912324" lon="7.933916002592805"><ele>239.5</ele><time>2026-04-10T16:49:31.971Z</time></trkpt><trkpt lat="45.46976944965551" lon="7.933772865905217"><ele>239.25</ele><time>2026-04-10T16:49:32.972Z</time></trkpt><trkpt lat="45.46969930061784" lon="7.933635691742119"><ele>239.0</ele><time>2026-04-10T16:49:33.972Z</time></trkpt><trkpt lat="45.46962690369283" lon="7.933508936037034"><ele>238.75</ele><time>2026-04-10T16:49:34.972Z</time></trkpt><trkpt lat="45.46955263361964" lon="7.933384644352372"><ele>238.5</ele><time>2026-04-10T16:49:35.972Z</time></trkpt><trkpt lat="45.469476230163394" lon="7.933269638528342"><ele>238.25</ele><time>2026-04-10T16:49:36.972Z</time></trkpt><trkpt lat="45.46939072970249" lon="7.933164968541311"><ele>238.0</ele><time>2026-04-10T16:49:37.972Z</time></trkpt><trkpt lat="45.46930240313674" lon="7.933067579392407"><ele>238.0</ele><time>2026-04-10T16:49:38.972Z</time></trkpt><trkpt lat="45.469208014094946" lon="7.932975105337908"><ele>238.0</ele><time>2026-04-10T16:49:39.972Z</time></trkpt><trkpt lat="45.46911512517121" lon="7.932887810431462"><ele>238.0</ele><time>2026-04-10T16:49:40.972Z</time></trkpt><trkpt lat="45.46902123602788" lon="7.932795743206477"><ele>238.0</ele><time>2026-04-10T16:49:41.972Z</time></trkpt><trkpt lat="45.46893149617312" lon="7.932702788752398"><ele>238.0</ele><time>2026-04-10T16:49:42.972Z</time></trkpt><trkpt lat="45.46884260465501" lon="7.932597520536263"><ele>238.0</ele><time>2026-04-10T16:49:43.972Z</time></trkpt><trkpt lat="45.468755235631676" lon="7.93248029550095"><ele>238.0</ele><time>2026-04-10T16:49:44.972Z</time></trkpt><trkpt lat="45.46866972690789" lon="7.932360426483571"><ele>238.0</ele><time>2026-04-10T16:49:45.972Z</time></trkpt><trkpt lat="45.46858642004389" lon="7.93224257282512"><ele>237.5</ele><time>2026-04-10T16:49:46.972Z</time></trkpt><trkpt lat="45.468498520976944" lon="7.932121670647487"><ele>237.0</ele><time>2026-04-10T16:49:47.972Z</time></trkpt><trkpt lat="45.46842048889195" lon="7.932000417540786"><ele>236.5</ele><time>2026-04-10T16:49:48.971Z</time></trkpt><trkpt lat="45.468351881277094" lon="7.931876117457565"><ele>236.0</ele><time>2026-04-10T16:49:49.971Z</time></trkpt><trkpt lat="45.46829031331931" lon="7.931743243077071"><ele>236.25</ele><time>2026-04-10T16:49:50.971Z</time></trkpt><trkpt lat="45.468225420135646" lon="7.9316015152735115"><ele>236.5</ele><time>2026-04-10T16:49:51.972Z</time></trkpt><trkpt lat="45.46815304120165" lon="7.931459168562915"><ele>236.75</ele><time>2026-04-10T16:49:52.971Z</time></trkpt><trkpt lat="45.46808164060825" lon="7.931310498759657"><ele>237.0</ele><time>2026-04-10T16:49:53.971Z</time></trkpt><trkpt lat="45.468005666744766" lon="7.931164771024155"><ele>237.0</ele><time>2026-04-10T16:49:54.971Z</time></trkpt><trkpt lat="45.467933257779826" lon="7.931019243295809"><ele>237.0</ele><time>2026-04-10T16:49:55.971Z</time></trkpt><trkpt lat="45.46786618399555" lon="7.930885303800278"><ele>237.0</ele><time>2026-04-10T16:49:56.971Z</time></trkpt><trkpt lat="45.46779407969755" lon="7.9307544157713386"><ele>237.0</ele><time>2026-04-10T16:49:57.971Z</time></trkpt><trkpt lat="45.46771568931378" lon="7.930630984182063"><ele>237.25</ele><time>2026-04-10T16:49:58.971Z</time></trkpt><trkpt lat="45.467629642809854" lon="7.930512252566758"><ele>237.5</ele><time>2026-04-10T16:49:59.971Z</time></trkpt><trkpt lat="45.467541566021914" lon="7.930393066535792"><ele>237.75</ele><time>2026-04-10T16:50:00.971Z</time></trkpt><trkpt lat="45.467450196440986" lon="7.930279512057482"><ele>238.0</ele><time>2026-04-10T16:50:01.971Z</time></trkpt><trkpt lat="45.46735518718959" lon="7.930167462377591"><ele>238.0</ele><time>2026-04-10T16:50:02.971Z</time></trkpt><trkpt lat="45.467262096985955" lon="7.930061675030484"><ele>238.0</ele><time>2026-04-10T16:50:03.971Z</time></trkpt><trkpt lat="45.46716264297143" lon="7.929954320435745"><ele>238.0</ele><time>2026-04-10T16:50:04.971Z</time></trkpt><trkpt lat="45.46706914901588" lon="7.929845497405723"><ele>238.0</ele><time>2026-04-10T16:50:05.971Z</time></trkpt><trkpt lat="45.46697469790549" lon="7.929729790275071"><ele>237.75</ele><time>2026-04-10T16:50:06.971Z</time></trkpt><trkpt lat="45.46687457125803" lon="7.929608447335752"><ele>237.5</ele><time>2026-04-10T16:50:07.971Z</time></trkpt><trkpt lat="45.46677106753485" lon="7.929482195676957"><ele>237.25</ele><time>2026-04-10T16:50:08.971Z</time></trkpt><trkpt lat="45.466674208372865" lon="7.929362492596467"><ele>237.0</ele><time>2026-04-10T16:50:09.971Z</time></trkpt><trkpt lat="45.46657982972691" lon="7.929250494010159"><ele>237.0</ele><time>2026-04-10T16:50:10.971Z</time></trkpt><trkpt lat="45.46649268953266" lon="7.929142125907794"><ele>237.0</ele><time>2026-04-10T16:50:11.971Z</time></trkpt><trkpt lat="45.46641155024409" lon="7.929049000259823"><ele>237.0</ele><time>2026-04-10T16:50:12.971Z</time></trkpt><trkpt lat="45.46632719487732" lon="7.928955941931303"><ele>237.0</ele><time>2026-04-10T16:50:13.971Z</time></trkpt><trkpt lat="45.466244778973596" lon="7.928870034468748"><ele>237.0</ele><time>2026-04-10T16:50:14.971Z</time></trkpt><trkpt lat="45.46616281920145" lon="7.928785285305085"><ele>236.83333333333334</ele><time>2026-04-10T16:50:15.971Z</time></trkpt><trkpt lat="45.46608530030532" lon="7.928704680530346"><ele>236.66666666666669</ele><time>2026-04-10T16:50:16.971Z</time></trkpt><trkpt lat="45.46600883263469" lon="7.928629755626591"><ele>236.5</ele><time>2026-04-10T16:50:17.971Z</time></trkpt><trkpt lat="45.46594143497094" lon="7.928568068343791"><ele>236.33333333333334</ele><time>2026-04-10T16:50:18.971Z</time></trkpt><trkpt lat="45.465872674035154" lon="7.928516732019806"><ele>236.16666666666669</ele><time>2026-04-10T16:50:19.971Z</time></trkpt><trkpt lat="45.46580314370384" lon="7.928467217980988"><ele>236.0</ele><time>2026-04-10T16:50:20.971Z</time></trkpt><trkpt lat="45.46574250062104" lon="7.928424968482573"><ele>236.00000000000003</ele><time>2026-04-10T16:50:21.971Z</time></trkpt><trkpt lat="45.46568381062794" lon="7.928353289350496"><ele>236.0</ele><time>2026-04-10T16:50:23.971Z</time></trkpt><trkpt lat="45.46562772368744" lon="7.928237240685"><ele>236.0</ele><time>2026-04-10T16:50:25.972Z</time></trkpt><trkpt lat="45.465582757947516" lon="7.92816226758191"><ele>236.0</ele><time>2026-04-10T16:50:26.972Z</time></trkpt><trkpt lat="45.46552470942038" lon="7.928073900315246"><ele>236.00000000000003</ele><time>2026-04-10T16:50:27.972Z</time></trkpt><trkpt lat="45.465458896141826" lon="7.927969468758183"><ele>236.0</ele><time>2026-04-10T16:50:28.972Z</time></trkpt><trkpt lat="45.46540109847701" lon="7.927849660254992"><ele>235.8</ele><time>2026-04-10T16:50:29.972Z</time></trkpt><trkpt lat="45.46537053929087" lon="7.9277164994715115"><ele>235.60000000000002</ele><time>2026-04-10T16:50:30.972Z</time></trkpt><trkpt lat="45.46535946726765" lon="7.927558258033628"><ele>235.4</ele><time>2026-04-10T16:50:31.972Z</time></trkpt><trkpt lat="45.46534787814534" lon="7.927402177540915"><ele>235.2</ele><time>2026-04-10T16:50:32.972Z</time></trkpt><trkpt lat="45.465320686406905" lon="7.927251027964125"><ele>235.0</ele><time>2026-04-10T16:50:33.972Z</time></trkpt><trkpt lat="45.46527700570117" lon="7.9270986410145285"><ele>235.0</ele><time>2026-04-10T16:50:34.972Z</time></trkpt><trkpt lat="45.465241030287906" lon="7.926944295832469"><ele>235.0</ele><time>2026-04-10T16:50:35.972Z</time></trkpt><trkpt lat="45.465206394227714" lon="7.926785942580562"><ele>235.0</ele><time>2026-04-10T16:50:36.972Z</time></trkpt><trkpt lat="45.46517963767748" lon="7.926627257108171"><ele>235.0</ele><time>2026-04-10T16:50:37.972Z</time></trkpt><trkpt lat="45.46515331772956" lon="7.926459037479361"><ele>235.25</ele><time>2026-04-10T16:50:38.972Z</time></trkpt><trkpt lat="45.46513166804847" lon="7.926289165244314"><ele>235.5</ele><time>2026-04-10T16:50:39.972Z</time></trkpt><trkpt lat="45.46512232959821" lon="7.9261273591440125"><ele>235.75</ele><time>2026-04-10T16:50:40.972Z</time></trkpt><trkpt lat="45.46512267497207" lon="7.92595168643875"><ele>236.0</ele><time>2026-04-10T16:50:41.972Z</time></trkpt><trkpt lat="45.46514624754347" lon="7.925773292726971"><ele>236.75</ele><time>2026-04-10T16:50:42.972Z</time></trkpt><trkpt lat="45.465187435771156" lon="7.925623843045212"><ele>237.5</ele><time>2026-04-10T16:50:43.972Z</time></trkpt><trkpt lat="45.46523716842782" lon="7.925468199309578"><ele>238.25</ele><time>2026-04-10T16:50:44.972Z</time></trkpt><trkpt lat="45.465296343675085" lon="7.925311338479447"><ele>239.0</ele><time>2026-04-10T16:50:45.972Z</time></trkpt><trkpt lat="45.46535564729541" lon="7.92515333401979"><ele>238.5</ele><time>2026-04-10T16:50:46.972Z</time></trkpt><trkpt lat="45.4654179332225" lon="7.924984084433945"><ele>238.0</ele><time>2026-04-10T16:50:47.972Z</time></trkpt><trkpt lat="45.46548118536956" lon="7.924811823808631"><ele>237.5</ele><time>2026-04-10T16:50:48.972Z</time></trkpt><trkpt lat="45.46554887605706" lon="7.924641278258966"><ele>237.0</ele><time>2026-04-10T16:50:49.972Z</time></trkpt><trkpt lat="45.46562205009408" lon="7.924481775327772"><ele>237.0</ele><time>2026-04-10T16:50:50.972Z</time></trkpt><trkpt lat="45.4656897308879" lon="7.924330772668868"><ele>237.0</ele><time>2026-04-10T16:50:51.972Z</time></trkpt><trkpt lat="45.46576955853352" lon="7.9241791691885535"><ele>237.0</ele><time>2026-04-10T16:50:52.972Z</time></trkpt><trkpt lat="45.46584789769146" lon="7.9240321668568034"><ele>237.0</ele><time>2026-04-10T16:50:53.972Z</time></trkpt><trkpt lat="45.4659253391682" lon="7.923885708655685"><ele>237.0</ele><time>2026-04-10T16:50:54.972Z</time></trkpt><trkpt lat="45.46600252403845" lon="7.923737136287876"><ele>237.0</ele><time>2026-04-10T16:50:55.972Z</time></trkpt><trkpt lat="45.46608174151225" lon="7.923576163001916"><ele>237.0</ele><time>2026-04-10T16:50:56.972Z</time></trkpt><trkpt lat="45.4661584611442" lon="7.92341480567565"><ele>237.0</ele><time>2026-04-10T16:50:57.972Z</time></trkpt><trkpt lat="45.46623413064158" lon="7.9232496619387796"><ele>236.75</ele><time>2026-04-10T16:50:58.972Z</time></trkpt><trkpt lat="45.46630630103659" lon="7.92308436175858"><ele>236.5</ele><time>2026-04-10T16:50:59.972Z</time></trkpt><trkpt lat="45.466368920049845" lon="7.922934047039853"><ele>236.25</ele><time>2026-04-10T16:51:00.972Z</time></trkpt><trkpt lat="45.46643012563207" lon="7.922792857683932"><ele>236.0</ele><time>2026-04-10T16:51:01.972Z</time></trkpt><trkpt lat="45.466485872723396" lon="7.922674781160174"><ele>236.0</ele><time>2026-04-10T16:51:02.972Z</time></trkpt><trkpt lat="45.46653813804341" lon="7.92256893767316"><ele>236.00000000000003</ele><time>2026-04-10T16:51:03.972Z</time></trkpt><trkpt lat="45.466578028235766" lon="7.922468240205935"><ele>236.00000000000003</ele><time>2026-04-10T16:51:04.972Z</time></trkpt><trkpt lat="45.46659953176529" lon="7.922375810752259"><ele>236.0</ele><time>2026-04-10T16:51:05.972Z</time></trkpt><trkpt lat="45.466601553317275" lon="7.922222794746667"><ele>236.0</ele><time>2026-04-10T16:51:07.972Z</time></trkpt><trkpt lat="45.466502539947655" lon="7.922153065945496"><ele>236.0</ele><time>2026-04-10T16:51:09.972Z</time></trkpt><trkpt lat="45.46640518108396" lon="7.92214149615642"><ele>236.00000000000003</ele><time>2026-04-10T16:51:10.972Z</time></trkpt><trkpt lat="45.46632240642414" lon="7.922098786100067"><ele>236.00000000000003</ele><time>2026-04-10T16:51:11.972Z</time></trkpt><trkpt lat="45.466249108308105" lon="7.921936033885484"><ele>236.0</ele><time>2026-04-10T16:51:13.972Z</time></trkpt><trkpt lat="45.46625893117082" lon="7.921801711295467"><ele>236.0</ele><time>2026-04-10T16:51:14.972Z</time></trkpt><trkpt lat="45.46627103189626" lon="7.921625218522127"><ele>236.0</ele><time>2026-04-10T16:51:15.972Z</time></trkpt><trkpt lat="45.466274434782235" lon="7.921444514534008"><ele>236.0</ele><time>2026-04-10T16:51:16.972Z</time></trkpt><trkpt lat="45.466284179887175" lon="7.921263112965991"><ele>236.0</ele><time>2026-04-10T16:51:17.972Z</time></trkpt><trkpt lat="45.466288163792875" lon="7.921080173729598"><ele>236.0</ele><time>2026-04-10T16:51:18.972Z</time></trkpt><trkpt lat="45.46628464920067" lon="7.920895507929382"><ele>235.5</ele><time>2026-04-10T16:51:19.972Z</time></trkpt><trkpt lat="45.46627773007398" lon="7.9207106811186465"><ele>235.0</ele><time>2026-04-10T16:51:20.972Z</time></trkpt><trkpt lat="45.466274997270645" lon="7.920519916594867"><ele>234.5</ele><time>2026-04-10T16:51:21.972Z</time></trkpt><trkpt lat="45.46626884167559" lon="7.920333199700324"><ele>234.0</ele><time>2026-04-10T16:51:22.972Z</time></trkpt><trkpt lat="45.46626361906501" lon="7.9201425740937"><ele>234.25</ele><time>2026-04-10T16:51:23.972Z</time></trkpt><trkpt lat="45.46625432697416" lon="7.919955014689788"><ele>234.5</ele><time>2026-04-10T16:51:24.972Z</time></trkpt><trkpt lat="45.4662472090946" lon="7.919765192745444"><ele>234.75</ele><time>2026-04-10T16:51:25.972Z</time></trkpt><trkpt lat="45.466245024239335" lon="7.919570116193169"><ele>235.0</ele><time>2026-04-10T16:51:26.973Z</time></trkpt><trkpt lat="45.46625288227644" lon="7.919383245213589"><ele>235.0</ele><time>2026-04-10T16:51:27.973Z</time></trkpt><trkpt lat="45.46625865866307" lon="7.91919064707837"><ele>235.0</ele><time>2026-04-10T16:51:28.973Z</time></trkpt><trkpt lat="45.466261773583675" lon="7.91899318962128"><ele>235.0</ele><time>2026-04-10T16:51:29.973Z</time></trkpt><trkpt lat="45.46626150335543" lon="7.918807114566061"><ele>235.0</ele><time>2026-04-10T16:51:30.973Z</time></trkpt><trkpt lat="45.46625927416126" lon="7.918614702006176"><ele>235.0</ele><time>2026-04-10T16:51:31.973Z</time></trkpt><trkpt lat="45.4662621019416" lon="7.918424394313113"><ele>235.0</ele><time>2026-04-10T16:51:32.973Z</time></trkpt><trkpt lat="45.46626700484711" lon="7.918235411550554"><ele>235.0</ele><time>2026-04-10T16:51:33.973Z</time></trkpt><trkpt lat="45.46627316378873" lon="7.918049338193026"><ele>235.0</ele><time>2026-04-10T16:51:34.973Z</time></trkpt><trkpt lat="45.46628031588133" lon="7.917866621516308"><ele>234.75</ele><time>2026-04-10T16:51:35.973Z</time></trkpt><trkpt lat="45.46628700094109" lon="7.9176934109158195"><ele>234.5</ele><time>2026-04-10T16:51:36.973Z</time></trkpt><trkpt lat="45.46629484451922" lon="7.917531699974018"><ele>234.25</ele><time>2026-04-10T16:51:37.973Z</time></trkpt><trkpt lat="45.46631047403272" lon="7.917365571633407"><ele>234.0</ele><time>2026-04-10T16:51:38.973Z</time></trkpt><trkpt lat="45.46631247313188" lon="7.9171925460598"><ele>234.5</ele><time>2026-04-10T16:51:39.973Z</time></trkpt><trkpt lat="45.46630730975856" lon="7.917012625914118"><ele>235.0</ele><time>2026-04-10T16:51:40.973Z</time></trkpt><trkpt lat="45.466308518149006" lon="7.916835725294378"><ele>235.5</ele><time>2026-04-10T16:51:41.973Z</time></trkpt><trkpt lat="45.46631355809332" lon="7.91665810626119"><ele>236.0</ele><time>2026-04-10T16:51:42.973Z</time></trkpt><trkpt lat="45.46631598366701" lon="7.9164787126997735"><ele>236.0</ele><time>2026-04-10T16:51:43.973Z</time></trkpt><trkpt lat="45.46631464549764" lon="7.916318912677757"><ele>236.00000000000003</ele><time>2026-04-10T16:51:44.973Z</time></trkpt><trkpt lat="45.46630336104258" lon="7.916164096226382"><ele>236.00000000000003</ele><time>2026-04-10T16:51:45.973Z</time></trkpt><trkpt lat="45.466284819247946" lon="7.916014342174517"><ele>236.0</ele><time>2026-04-10T16:51:46.973Z</time></trkpt><trkpt lat="45.46629490757174" lon="7.915874193049521"><ele>236.0</ele><time>2026-04-10T16:51:47.973Z</time></trkpt><trkpt lat="45.46628268056732" lon="7.915742698761652"><ele>236.00000000000003</ele><time>2026-04-10T16:51:48.973Z</time></trkpt><trkpt lat="45.46627370226621" lon="7.915607621718094"><ele>236.0</ele><time>2026-04-10T16:51:49.973Z</time></trkpt><trkpt lat="45.466265216933806" lon="7.915481051578661"><ele>236.0</ele><time>2026-04-10T16:51:50.973Z</time></trkpt><trkpt lat="45.466255902927685" lon="7.915380493287305"><ele>236.0</ele><time>2026-04-10T16:51:51.973Z</time></trkpt><trkpt lat="45.466248826554576" lon="7.9152669996554605"><ele>236.00000000000003</ele><time>2026-04-10T16:51:53.973Z</time></trkpt><trkpt lat="45.46623951112458" lon="7.915155875930028"><ele>236.0</ele><time>2026-04-10T16:51:57.972Z</time></trkpt><trkpt lat="45.46624217889316" lon="7.915050866165673"><ele>235.66666666666669</ele><time>2026-04-10T16:52:03.972Z</time></trkpt><trkpt lat="45.46623926328427" lon="7.9149465958081455"><ele>235.33333333333334</ele><time>2026-04-10T16:52:07.971Z</time></trkpt><trkpt lat="45.46624773835977" lon="7.914849108366907"><ele>235.0</ele><time>2026-04-10T16:52:09.971Z</time></trkpt><trkpt lat="45.46624312568789" lon="7.914728814053281"><ele>234.66666666666669</ele><time>2026-04-10T16:52:11.971Z</time></trkpt><trkpt lat="45.466225945394946" lon="7.914564549674445"><ele>234.33333333333334</ele><time>2026-04-10T16:52:13.972Z</time></trkpt><trkpt lat="45.4662185200361" lon="7.914465248232583"><ele>234.0</ele><time>2026-04-10T16:52:14.972Z</time></trkpt><trkpt lat="45.46621043212268" lon="7.914350221164613"><ele>234.0</ele><time>2026-04-10T16:52:15.972Z</time></trkpt><trkpt lat="45.46620715499873" lon="7.914242092470601"><ele>233.99999999999997</ele><time>2026-04-10T16:52:16.972Z</time></trkpt><trkpt lat="45.46620246296889" lon="7.914124026949692"><ele>233.99999999999997</ele><time>2026-04-10T16:52:17.972Z</time></trkpt><trkpt lat="45.46619509429824" lon="7.913985091265291"><ele>234.0</ele><time>2026-04-10T16:52:18.972Z</time></trkpt><trkpt lat="45.46619170648709" lon="7.913842599109537"><ele>234.0</ele><time>2026-04-10T16:52:19.972Z</time></trkpt><trkpt lat="45.46619116952495" lon="7.913696687139315"><ele>234.0</ele><time>2026-04-10T16:52:20.972Z</time></trkpt><trkpt lat="45.466186424876156" lon="7.91356228816538"><ele>234.0</ele><time>2026-04-10T16:52:21.972Z</time></trkpt><trkpt lat="45.466178170649115" lon="7.913437720777662"><ele>234.0</ele><time>2026-04-10T16:52:22.972Z</time></trkpt><trkpt lat="45.466167711714085" lon="7.913336970332044"><ele>234.0</ele><time>2026-04-10T16:52:23.972Z</time></trkpt><trkpt lat="45.466153147704524" lon="7.91324866712316"><ele>234.0</ele><time>2026-04-10T16:52:24.972Z</time></trkpt><trkpt lat="45.46615651621385" lon="7.913139372806699"><ele>234.0</ele><time>2026-04-10T16:52:26.972Z</time></trkpt><trkpt lat="45.46594121789322" lon="7.913168652701402"><ele>234.39999999999998</ele><time>2026-04-10T16:52:28.972Z</time></trkpt><trkpt lat="45.465855894656265" lon="7.913204876559247"><ele>234.79999999999998</ele><time>2026-04-10T16:52:29.972Z</time></trkpt><trkpt lat="45.4657682404325" lon="7.913244076361455"><ele>235.20000000000002</ele><time>2026-04-10T16:52:30.972Z</time></trkpt><trkpt lat="45.465681254266805" lon="7.913304009988655"><ele>235.60000000000002</ele><time>2026-04-10T16:52:31.972Z</time></trkpt><trkpt lat="45.4655886183648" lon="7.913347109923142"><ele>236.0</ele><time>2026-04-10T16:52:32.972Z</time></trkpt><trkpt lat="45.46549203544331" lon="7.913388321114367"><ele>235.8</ele><time>2026-04-10T16:52:33.972Z</time></trkpt><trkpt lat="45.46539760072717" lon="7.913430119564832"><ele>235.60000000000002</ele><time>2026-04-10T16:52:34.972Z</time></trkpt><trkpt lat="45.46529416769491" lon="7.913446914969852"><ele>235.4</ele><time>2026-04-10T16:52:35.972Z</time></trkpt><trkpt lat="45.46518666530753" lon="7.913486775423837"><ele>235.2</ele><time>2026-04-10T16:52:36.972Z</time></trkpt><trkpt lat="45.46507724275731" lon="7.913548670370571"><ele>235.0</ele><time>2026-04-10T16:52:37.972Z</time></trkpt><trkpt lat="45.464963883261184" lon="7.913594294249372"><ele>235.0</ele><time>2026-04-10T16:52:38.972Z</time></trkpt><trkpt lat="45.46484666907838" lon="7.913601333061657"><ele>235.0</ele><time>2026-04-10T16:52:39.972Z</time></trkpt><trkpt lat="45.464730048367194" lon="7.913628133293852"><ele>235.0</ele><time>2026-04-10T16:52:40.972Z</time></trkpt><trkpt lat="45.46461575688079" lon="7.913653972762244"><ele>235.0</ele><time>2026-04-10T16:52:41.972Z</time></trkpt><trkpt lat="45.46450798189888" lon="7.9137003733991"><ele>234.75</ele><time>2026-04-10T16:52:42.972Z</time></trkpt><trkpt lat="45.46439388555471" lon="7.913724312972105"><ele>234.5</ele><time>2026-04-10T16:52:43.972Z</time></trkpt><trkpt lat="45.464281404775214" lon="7.913754348470183"><ele>234.25</ele><time>2026-04-10T16:52:44.972Z</time></trkpt><trkpt lat="45.464163888169004" lon="7.913782241382994"><ele>234.0</ele><time>2026-04-10T16:52:45.972Z</time></trkpt><trkpt lat="45.46404093718497" lon="7.913783024469148"><ele>234.0</ele><time>2026-04-10T16:52:46.972Z</time></trkpt><trkpt lat="45.46391977219137" lon="7.913786861675117"><ele>234.0</ele><time>2026-04-10T16:52:47.972Z</time></trkpt><trkpt lat="45.46378718457065" lon="7.913810440220506"><ele>234.0</ele><time>2026-04-10T16:52:48.972Z</time></trkpt><trkpt lat="45.46365770161011" lon="7.913835101201555"><ele>234.0</ele><time>2026-04-10T16:52:49.972Z</time></trkpt><trkpt lat="45.46353202187176" lon="7.913855694686534"><ele>233.75</ele><time>2026-04-10T16:52:50.972Z</time></trkpt><trkpt lat="45.46340217767416" lon="7.913875945167927"><ele>233.5</ele><time>2026-04-10T16:52:51.972Z</time></trkpt><trkpt lat="45.46328096502618" lon="7.91389553506958"><ele>233.25</ele><time>2026-04-10T16:52:52.972Z</time></trkpt><trkpt lat="45.4631538543109" lon="7.913916206440009"><ele>233.0</ele><time>2026-04-10T16:52:53.972Z</time></trkpt><trkpt lat="45.46301997181842" lon="7.913934169744389"><ele>233.0</ele><time>2026-04-10T16:52:54.972Z</time></trkpt><trkpt lat="45.46288953996838" lon="7.913924975941219"><ele>233.0</ele><time>2026-04-10T16:52:55.972Z</time></trkpt><trkpt lat="45.46276254459285" lon="7.913938293976459"><ele>233.0</ele><time>2026-04-10T16:52:56.972Z</time></trkpt><trkpt lat="45.46264625353286" lon="7.913974258754039"><ele>233.0</ele><time>2026-04-10T16:52:57.972Z</time></trkpt><trkpt lat="45.4625452646141" lon="7.913984822214218"><ele>233.00000000000003</ele><time>2026-04-10T16:52:58.972Z</time></trkpt><trkpt lat="45.46245310719133" lon="7.913994441398128"><ele>233.0</ele><time>2026-04-10T16:52:59.972Z</time></trkpt><trkpt lat="45.46237634913958" lon="7.914010812745922"><ele>233.0</ele><time>2026-04-10T16:53:00.972Z</time></trkpt><trkpt lat="45.46231597824459" lon="7.914045102379185"><ele>233.0</ele><time>2026-04-10T16:53:01.972Z</time></trkpt><trkpt lat="45.462230506092226" lon="7.914029610119986"><ele>233.00000000000003</ele><time>2026-04-10T16:53:03.972Z</time></trkpt><trkpt lat="45.46225497945218" lon="7.91389805064792"><ele>233.0</ele><time>2026-04-10T16:53:05.972Z</time></trkpt><trkpt lat="45.462274997615765" lon="7.913793691320552"><ele>233.0</ele><time>2026-04-10T16:53:06.972Z</time></trkpt><trkpt lat="45.462316653397295" lon="7.913696098848867"><ele>233.0</ele><time>2026-04-10T16:53:07.972Z</time></trkpt><trkpt lat="45.46235067033123" lon="7.913607440097578"><ele>233.0</ele><time>2026-04-10T16:53:08.972Z</time></trkpt><trkpt lat="45.462380950226176" lon="7.913522305907844"><ele>233.0</ele><time>2026-04-10T16:53:09.972Z</time></trkpt><trkpt lat="45.462432993993865" lon="7.913363138763556"><ele>233.0</ele><time>2026-04-10T16:53:11.972Z</time></trkpt><trkpt lat="45.46249437790804" lon="7.913224959641281"><ele>233.00000000000003</ele><time>2026-04-10T16:53:13.972Z</time></trkpt><trkpt lat="45.46254984226131" lon="7.913077029738565"><ele>233.0</ele><time>2026-04-10T16:53:15.973Z</time></trkpt><trkpt lat="45.46258402648431" lon="7.912988256651646"><ele>233.0</ele><time>2026-04-10T16:53:16.973Z</time></trkpt><trkpt lat="45.46262129374599" lon="7.91289842932441"><ele>233.0</ele><time>2026-04-10T16:53:17.973Z</time></trkpt><trkpt lat="45.46265963038401" lon="7.912793871795105"><ele>233.00000000000003</ele><time>2026-04-10T16:53:18.973Z</time></trkpt><trkpt lat="45.46269895232903" lon="7.912670524464749"><ele>233.0</ele><time>2026-04-10T16:53:19.973Z</time></trkpt><trkpt lat="45.46274270682697" lon="7.912537368959418"><ele>233.0</ele><time>2026-04-10T16:53:20.973Z</time></trkpt><trkpt lat="45.462790746874944" lon="7.912400980562831"><ele>233.0</ele><time>2026-04-10T16:53:21.973Z</time></trkpt><trkpt lat="45.462835891308416" lon="7.912273040621326"><ele>233.0</ele><time>2026-04-10T16:53:22.973Z</time></trkpt><trkpt lat="45.4628803907474" lon="7.912137793632391"><ele>233.0</ele><time>2026-04-10T16:53:23.973Z</time></trkpt><trkpt lat="45.462926525886196" lon="7.9120049152652205"><ele>233.0</ele><time>2026-04-10T16:53:24.973Z</time></trkpt><trkpt lat="45.462974590949024" lon="7.911885078041744"><ele>233.0</ele><time>2026-04-10T16:53:25.973Z</time></trkpt><trkpt lat="45.46302392565947" lon="7.911759731099145"><ele>233.0</ele><time>2026-04-10T16:53:26.973Z</time></trkpt><trkpt lat="45.46307569368469" lon="7.911632408493347"><ele>233.0</ele><time>2026-04-10T16:53:27.973Z</time></trkpt><trkpt lat="45.46312448907872" lon="7.91149226559785"><ele>233.0</ele><time>2026-04-10T16:53:28.973Z</time></trkpt><trkpt lat="45.463170139272265" lon="7.911356194157686"><ele>233.0</ele><time>2026-04-10T16:53:29.973Z</time></trkpt><trkpt lat="45.463216556865625" lon="7.91123117911841"><ele>233.00000000000003</ele><time>2026-04-10T16:53:30.973Z</time></trkpt><trkpt lat="45.463265464866154" lon="7.911105516335557"><ele>233.0</ele><time>2026-04-10T16:53:31.973Z</time></trkpt><trkpt lat="45.46331293910518" lon="7.910985831898241"><ele>233.0</ele><time>2026-04-10T16:53:32.973Z</time></trkpt><trkpt lat="45.46335856943565" lon="7.910873653348209"><ele>233.0</ele><time>2026-04-10T16:53:33.973Z</time></trkpt><trkpt lat="45.46340236522899" lon="7.910769135122586"><ele>233.00000000000003</ele><time>2026-04-10T16:53:34.973Z</time></trkpt><trkpt lat="45.46344496569391" lon="7.910680594567553"><ele>233.0</ele><time>2026-04-10T16:53:35.973Z</time></trkpt><trkpt lat="45.463480886988776" lon="7.910599793682474"><ele>233.16666666666669</ele><time>2026-04-10T16:53:36.973Z</time></trkpt><trkpt lat="45.46353645548" lon="7.9104707735899975"><ele>233.33333333333334</ele><time>2026-04-10T16:53:38.973Z</time></trkpt><trkpt lat="45.46355354982291" lon="7.910360206111716"><ele>233.5</ele><time>2026-04-10T16:53:40.973Z</time></trkpt><trkpt lat="45.463452936718475" lon="7.910400875808155"><ele>233.66666666666669</ele><time>2026-04-10T16:53:42.973Z</time></trkpt><trkpt lat="45.463382896891375" lon="7.9104236958289755"><ele>233.83333333333334</ele><time>2026-04-10T16:53:43.973Z</time></trkpt><trkpt lat="45.46331010944897" lon="7.910486014590695"><ele>234.0</ele><time>2026-04-10T16:53:44.973Z</time></trkpt><trkpt lat="45.463218517466764" lon="7.910492306406039"><ele>234.0</ele><time>2026-04-10T16:53:45.973Z</time></trkpt><trkpt lat="45.46314876880723" lon="7.910403571506189"><ele>234.0</ele><time>2026-04-10T16:53:46.973Z</time></trkpt><trkpt lat="45.463059581400124" lon="7.910407833859317"><ele>234.0</ele><time>2026-04-10T16:53:47.973Z</time></trkpt><trkpt lat="45.46299437386506" lon="7.9104040165537075"><ele>234.0</ele><time>2026-04-10T16:53:48.973Z</time></trkpt><trkpt lat="45.46288829412358" lon="7.910334181210699"><ele>234.0</ele><time>2026-04-10T16:53:50.973Z</time></trkpt><trkpt lat="45.462846242575" lon="7.91026580822189"><ele>234.0</ele><time>2026-04-10T16:53:51.973Z</time></trkpt><trkpt lat="45.46282589954016" lon="7.91016417639467"><ele>234.2</ele><time>2026-04-10T16:53:53.973Z</time></trkpt><trkpt lat="45.46280902853595" lon="7.9099772336208884"><ele>234.39999999999998</ele><time>2026-04-10T16:53:55.973Z</time></trkpt><trkpt lat="45.46278399691163" lon="7.909883026523883"><ele>234.6</ele><time>2026-04-10T16:53:56.973Z</time></trkpt><trkpt lat="45.462723474962274" lon="7.909813097122341"><ele>234.8</ele><time>2026-04-10T16:53:57.973Z</time></trkpt><trkpt lat="45.46260980550282" lon="7.909818199497125"><ele>235.0</ele><time>2026-04-10T16:53:58.973Z</time></trkpt><trkpt lat="45.46251122596471" lon="7.909850795924197"><ele>234.99999999999997</ele><time>2026-04-10T16:53:59.973Z</time></trkpt><trkpt lat="45.46243828526828" lon="7.9098564906471065"><ele>235.0</ele><time>2026-04-10T16:54:00.973Z</time></trkpt><trkpt lat="45.46236657999357" lon="7.909858945427848"><ele>235.0</ele><time>2026-04-10T16:54:01.972Z</time></trkpt><trkpt lat="45.46229783488083" lon="7.909851390534334"><ele>235.0</ele><time>2026-04-10T16:54:02.972Z</time></trkpt><trkpt lat="45.46218993853363" lon="7.909785752169941"><ele>234.99999999999997</ele><time>2026-04-10T16:54:04.972Z</time></trkpt><trkpt lat="45.4621641505566" lon="7.90968745572108"><ele>235.0</ele><time>2026-04-10T16:54:05.972Z</time></trkpt><trkpt lat="45.462190348903626" lon="7.909575164197615"><ele>235.0</ele><time>2026-04-10T16:54:06.973Z</time></trkpt><trkpt lat="45.462203328008144" lon="7.909463029597565"><ele>235.0</ele><time>2026-04-10T16:54:07.973Z</time></trkpt><trkpt lat="45.46218217769676" lon="7.9093560888532854"><ele>235.0</ele><time>2026-04-10T16:54:08.973Z</time></trkpt><trkpt lat="45.46218448664991" lon="7.909239690398686"><ele>235.0</ele><time>2026-04-10T16:54:09.973Z</time></trkpt><trkpt lat="45.46217439804877" lon="7.9090912348147775"><ele>235.0</ele><time>2026-04-10T16:54:11.973Z</time></trkpt><trkpt lat="45.4620150189552" lon="7.90905276787121"><ele>235.2</ele><time>2026-04-10T16:54:14.973Z</time></trkpt><trkpt lat="45.46193454088918" lon="7.909051628232048"><ele>235.4</ele><time>2026-04-10T16:54:15.973Z</time></trkpt><trkpt lat="45.46184215963808" lon="7.909056661260458"><ele>235.60000000000002</ele><time>2026-04-10T16:54:16.973Z</time></trkpt><trkpt lat="45.461748833177566" lon="7.909053383182192"><ele>235.8</ele><time>2026-04-10T16:54:17.973Z</time></trkpt><trkpt lat="45.46165333489569" lon="7.90904365000592"><ele>236.0</ele><time>2026-04-10T16:54:18.973Z</time></trkpt><trkpt lat="45.46156162207502" lon="7.909035146835914"><ele>236.00000000000003</ele><time>2026-04-10T16:54:19.973Z</time></trkpt><trkpt lat="45.46148076401331" lon="7.909035452756401"><ele>236.0</ele><time>2026-04-10T16:54:20.973Z</time></trkpt><trkpt lat="45.46140505318999" lon="7.909041843943579"><ele>236.0</ele><time>2026-04-10T16:54:21.973Z</time></trkpt><trkpt lat="45.46132704434455" lon="7.909046318280996"><ele>236.0</ele><time>2026-04-10T16:54:22.973Z</time></trkpt><trkpt lat="45.46124975475693" lon="7.90904608853838"><ele>236.00000000000003</ele><time>2026-04-10T16:54:23.973Z</time></trkpt><trkpt lat="45.46117849839785" lon="7.909042939563412"><ele>236.0</ele><time>2026-04-10T16:54:24.973Z</time></trkpt><trkpt lat="45.46110880017141" lon="7.909038926364922"><ele>236.00000000000003</ele><time>2026-04-10T16:54:25.973Z</time></trkpt><trkpt lat="45.461036808933585" lon="7.9090375217143265"><ele>236.0</ele><time>2026-04-10T16:54:26.973Z</time></trkpt><trkpt lat="45.46095714813937" lon="7.909031881582618"><ele>236.0</ele><time>2026-04-10T16:54:27.973Z</time></trkpt><trkpt lat="45.46088273693018" lon="7.909018587966754"><ele>236.0</ele><time>2026-04-10T16:54:28.973Z</time></trkpt><trkpt lat="45.460806532099305" lon="7.909015139131752"><ele>236.00000000000003</ele><time>2026-04-10T16:54:29.974Z</time></trkpt><trkpt lat="45.460726032917336" lon="7.909017705090816"><ele>236.0</ele><time>2026-04-10T16:54:30.974Z</time></trkpt><trkpt lat="45.460643701501084" lon="7.9090218116522975"><ele>236.0</ele><time>2026-04-10T16:54:31.974Z</time></trkpt><trkpt lat="45.46055451984617" lon="7.909021149175339"><ele>236.00000000000003</ele><time>2026-04-10T16:54:32.974Z</time></trkpt><trkpt lat="45.4604600060386" lon="7.90902574235805"><ele>236.00000000000003</ele><time>2026-04-10T16:54:33.974Z</time></trkpt><trkpt lat="45.46036293205268" lon="7.9090237022942835"><ele>236.0</ele><time>2026-04-10T16:54:34.974Z</time></trkpt><trkpt lat="45.460267396618235" lon="7.909019450204745"><ele>236.0</ele><time>2026-04-10T16:54:35.974Z</time></trkpt><trkpt lat="45.460181986790715" lon="7.909012907633268"><ele>235.8</ele><time>2026-04-10T16:54:36.974Z</time></trkpt><trkpt lat="45.46008794510569" lon="7.909005870168925"><ele>235.60000000000002</ele><time>2026-04-10T16:54:37.974Z</time></trkpt><trkpt lat="45.45998683293257" lon="7.909008985319206"><ele>235.4</ele><time>2026-04-10T16:54:38.974Z</time></trkpt><trkpt lat="45.45989396630525" lon="7.908990730267472"><ele>235.2</ele><time>2026-04-10T16:54:39.974Z</time></trkpt><trkpt lat="45.45982161279402" lon="7.908926373250607"><ele>235.0</ele><time>2026-04-10T16:54:40.974Z</time></trkpt><trkpt lat="45.45976196496995" lon="7.9087972107041375"><ele>235.0</ele><time>2026-04-10T16:54:41.974Z</time></trkpt><trkpt lat="45.459737634607535" lon="7.908660314299821"><ele>235.0</ele><time>2026-04-10T16:54:42.974Z</time></trkpt><trkpt lat="45.459744698644286" lon="7.908520143744982"><ele>235.0</ele><time>2026-04-10T16:54:43.974Z</time></trkpt><trkpt lat="45.45977852515036" lon="7.908380914607622"><ele>235.0</ele><time>2026-04-10T16:54:44.974Z</time></trkpt><trkpt lat="45.459807904168905" lon="7.908240427991956"><ele>235.0</ele><time>2026-04-10T16:54:45.974Z</time></trkpt><trkpt lat="45.45983610829202" lon="7.908086182297461"><ele>234.8</ele><time>2026-04-10T16:54:46.974Z</time></trkpt><trkpt lat="45.45986027059699" lon="7.907928989799591"><ele>234.6</ele><time>2026-04-10T16:54:47.974Z</time></trkpt><trkpt lat="45.45988754097522" lon="7.907781562828426"><ele>234.39999999999998</ele><time>2026-04-10T16:54:48.974Z</time></trkpt><trkpt lat="45.45991501956669" lon="7.907653790599076"><ele>234.2</ele><time>2026-04-10T16:54:49.974Z</time></trkpt><trkpt lat="45.459942423084726" lon="7.90751937662577"><ele>234.0</ele><time>2026-04-10T16:54:50.974Z</time></trkpt><trkpt lat="45.45996640933102" lon="7.90738040493564"><ele>233.75</ele><time>2026-04-10T16:54:51.974Z</time></trkpt><trkpt lat="45.459993463676994" lon="7.90723804895543"><ele>233.5</ele><time>2026-04-10T16:54:52.974Z</time></trkpt><trkpt lat="45.460009887920194" lon="7.907113672624765"><ele>233.25</ele><time>2026-04-10T16:54:53.974Z</time></trkpt><trkpt lat="45.460013229444534" lon="7.907009679214137"><ele>233.0</ele><time>2026-04-10T16:54:54.974Z</time></trkpt><trkpt lat="45.46024537563132" lon="7.906977202566796"><ele>233.0</ele><time>2026-04-10T16:54:56.974Z</time></trkpt><trkpt lat="45.46033356966343" lon="7.906945301880723"><ele>233.0</ele><time>2026-04-10T16:54:57.974Z</time></trkpt><trkpt lat="45.4604128755309" lon="7.906896890620263"><ele>233.0</ele><time>2026-04-10T16:54:58.974Z</time></trkpt><trkpt lat="45.4605181816632" lon="7.90686868302769"><ele>233.0</ele><time>2026-04-10T16:54:59.974Z</time></trkpt><trkpt lat="45.46063126000064" lon="7.90682158866214"><ele>233.0</ele><time>2026-04-10T16:55:00.974Z</time></trkpt><trkpt lat="45.46073925810186" lon="7.906799475952866"><ele>233.4</ele><time>2026-04-10T16:55:01.974Z</time></trkpt><trkpt lat="45.46083582472398" lon="7.906761968439645"><ele>233.8</ele><time>2026-04-10T16:55:02.974Z</time></trkpt><trkpt lat="45.46092275690667" lon="7.906690108151207"><ele>234.2</ele><time>2026-04-10T16:55:03.974Z</time></trkpt><trkpt lat="45.46101049834551" lon="7.906618671558398"><ele>234.6</ele><time>2026-04-10T16:55:04.974Z</time></trkpt><trkpt lat="45.461081913983314" lon="7.906534458698704"><ele>235.0</ele><time>2026-04-10T16:55:05.974Z</time></trkpt><trkpt lat="45.46115862041539" lon="7.906476139871386"><ele>234.99999999999997</ele><time>2026-04-10T16:55:06.974Z</time></trkpt><trkpt lat="45.46123412584492" lon="7.906420142049581"><ele>235.0</ele><time>2026-04-10T16:55:07.974Z</time></trkpt><trkpt lat="45.46129814676744" lon="7.90637525542241"><ele>235.0</ele><time>2026-04-10T16:55:08.974Z</time></trkpt><trkpt lat="45.46136690907869" lon="7.906362260443579"><ele>235.0</ele><time>2026-04-10T16:55:10.974Z</time></trkpt><trkpt lat="45.46139752499483" lon="7.906531527080088"><ele>234.99999999999997</ele><time>2026-04-10T16:55:12.974Z</time></trkpt><trkpt lat="45.46142817960579" lon="7.906631884698653"><ele>235.0</ele><time>2026-04-10T16:55:13.974Z</time></trkpt><trkpt lat="45.46145621901174" lon="7.906729899604141"><ele>239.0</ele><time>2026-04-10T16:55:14.974Z</time></trkpt><trkpt lat="45.46149607911036" lon="7.906818004321221"><ele>238.0</ele><time>2026-04-10T16:55:15.974Z</time></trkpt><trkpt lat="45.46151025513582" lon="7.906919718660789"><ele>238.0</ele><time>2026-04-10T16:55:16.974Z</time></trkpt><trkpt lat="45.4615340151263" lon="7.9070750859681045"><ele>238.0</ele><time>2026-04-10T16:55:18.974Z</time></trkpt><trkpt lat="45.46153941794033" lon="7.907206745212393"><ele>238.0</ele><time>2026-04-10T16:55:20.974Z</time></trkpt><trkpt lat="45.461551287330785" lon="7.907296561303333"><ele>238.0</ele><time>2026-04-10T16:55:22.974Z</time></trkpt></trkseg></trk></gpx>